Wetterdaten: Mittwoch, 26.04.2017
Datum Zeit Temp. A. Temp. A. max Feuchte A. Luftdruck Regen Wind Richtung Richtung Sonnenschein ET UV Solar Taupunkt Windchill Windböen
26.04.2017 00:00 4,9 °C 4,9 °C 94 % 1005,6 hPa 0,0 mm 0,0 km/h (0 Bft) W 276 ° 0 min 0,000 mm 0,0 UV-I 0 W/m² 4,0 °C 4,9 °C 0,0 km/h (0 Bft)
26.04.2017 00:01 4,9 °C 4,9 °C 94 % 1005,6 hPa 0,0 mm 0,1 km/h (0 Bft) W 276 ° 0 min 0,000 mm 0,0 UV-I 0 W/m² 4,0 °C 4,9 °C 1,6 km/h (1 Bft)
26.04.2017 00:02 4,9 °C 4,9 °C 94 % 1005,7 hPa 0,0 mm 0,0 km/h (0 Bft) W 276 ° 0 min 0,000 mm 0,0 UV-I 0 W/m² 4,0 °C 4,9 °C 0,0 km/h (0 Bft)
26.04.2017 00:03 4,9 °C 4,9 °C 94 % 1005,6 hPa 0,0 mm 0,0 km/h (0 Bft) W 277 ° 0 min 0,000 mm 0,0 UV-I 0 W/m² 4,0 °C 4,9 °C 0,0 km/h (0 Bft)
26.04.2017 00:04 4,9 °C 4,9 °C 94 % 1005,6 hPa 0,0 mm 0,9 km/h (0 Bft) W 276 ° 0 min 0,000 mm 0,0 UV-I 0 W/m² 4,0 °C 4,9 °C 1,6 km/h (1 Bft)
26.04.2017 00:05 4,9 °C 4,9 °C 94 % 1005,6 hPa 0,0 mm 0,0 km/h (0 Bft) W 277 ° 0 min 0,000 mm 0,0 UV-I 0 W/m² 4,0 °C 4,9 °C 0,0 km/h (0 Bft)
26.04.2017 00:06 4,9 °C 4,9 °C 94 % 1005,6 hPa 0,0 mm 0,0 km/h (0 Bft) W 277 ° 0 min 0,000 mm 0,0 UV-I 0 W/m² 4,0 °C 4,9 °C 0,0 km/h (0 Bft)
26.04.2017 00:07 4,9 °C 4,9 °C 94 % 1005,6 hPa 0,0 mm 0,0 km/h (0 Bft) W 277 ° 0 min 0,000 mm 0,0 UV-I 0 W/m² 4,0 °C 4,9 °C 0,0 km/h (0 Bft)
26.04.2017 00:08 4,9 °C 4,9 °C 94 % 1005,6 hPa 0,0 mm 0,8 km/h (0 Bft) W 277 ° 0 min 0,000 mm 0,0 UV-I 0 W/m² 4,0 °C 4,9 °C 1,6 km/h (1 Bft)
26.04.2017 00:09 4,9 °C 5,0 °C 94 % 1005,6 hPa 0,0 mm 0,5 km/h (0 Bft) W 277 ° 0 min 0,000 mm 0,0 UV-I 0 W/m² 4,0 °C 4,9 °C 1,6 km/h (1 Bft)
26.04.2017 00:10 4,9 °C 4,9 °C 94 % 1005,6 hPa 0,0 mm 0,6 km/h (0 Bft) W 276 ° 0 min 0,000 mm 0,0 UV-I 0 W/m² 4,0 °C 4,9 °C 1,6 km/h (1 Bft)
26.04.2017 00:11 4,9 °C 4,9 °C 94 % 1005,6 hPa 0,0 mm 0,9 km/h (0 Bft) W-NW 294 ° 0 min 0,000 mm 0,0 UV-I 0 W/m² 4,0 °C 4,9 °C 4,8 km/h (1 Bft)
26.04.2017 00:12 4,9 °C 4,9 °C 94 % 1005,6 hPa 0,0 mm 3,3 km/h (1 Bft) W-NW 301 ° 0 min 0,000 mm 0,0 UV-I 0 W/m² 4,0 °C 4,9 °C 4,8 km/h (1 Bft)
26.04.2017 00:13 4,9 °C 4,9 °C 94 % 1005,5 hPa 0,0 mm 0,8 km/h (0 Bft) W-NW 301 ° 0 min 0,000 mm 0,0 UV-I 0 W/m² 4,0 °C 4,9 °C 3,2 km/h (1 Bft)
26.04.2017 00:14 4,9 °C 4,9 °C 94 % 1005,5 hPa 0,0 mm 2,5 km/h (1 Bft) W-NW 302 ° 0 min 0,000 mm 0,0 UV-I 0 W/m² 4,0 °C 4,9 °C 4,8 km/h (1 Bft)
26.04.2017 00:15 4,9 °C 4,9 °C 93 % 1005,5 hPa 0,0 mm 2,1 km/h (1 Bft) W-NW 303 ° 0 min 0,000 mm 0,0 UV-I 0 W/m² 3,9 °C 4,9 °C 3,2 km/h (1 Bft)
26.04.2017 00:16 4,9 °C 4,9 °C 94 % 1005,4 hPa 0,0 mm 0,9 km/h (0 Bft) W-NW 303 ° 0 min 0,000 mm 0,0 UV-I 0 W/m² 4,0 °C 4,9 °C 1,6 km/h (1 Bft)
26.04.2017 00:17 4,9 °C 4,9 °C 93 % 1005,5 hPa 0,0 mm 1,3 km/h (1 Bft) W-NW 303 ° 0 min 0,000 mm 0,0 UV-I 0 W/m² 3,9 °C 4,9 °C 1,6 km/h (1 Bft)
26.04.2017 00:18 4,8 °C 4,9 °C 93 % 1005,4 hPa 0,0 mm 0,1 km/h (0 Bft) W-NW 303 ° 0 min 0,000 mm 0,0 UV-I 0 W/m² 3,8 °C 4,8 °C 1,6 km/h (1 Bft)
26.04.2017 00:19 4,8 °C 4,8 °C 93 % 1005,5 hPa 0,0 mm 0,3 km/h (0 Bft) W-NW 303 ° 0 min 0,000 mm 0,0 UV-I 0 W/m² 3,8 °C 4,8 °C 1,6 km/h (1 Bft)
26.04.2017 00:20 4,8 °C 4,8 °C 93 % 1005,4 hPa 0,0 mm 0,7 km/h (0 Bft) W-NW 303 ° 0 min 0,000 mm 0,0 UV-I 0 W/m² 3,8 °C 4,8 °C 3,2 km/h (1 Bft)
26.04.2017 00:21 4,8 °C 4,8 °C 93 % 1005,4 hPa 0,0 mm 1,4 km/h (1 Bft) W-NW 303 ° 0 min 0,000 mm 0,0 UV-I 0 W/m² 3,8 °C 4,8 °C 3,2 km/h (1 Bft)
26.04.2017 00:22 4,8 °C 4,8 °C 93 % 1005,3 hPa 0,0 mm 1,3 km/h (1 Bft) W-NW 303 ° 0 min 0,000 mm 0,0 UV-I 0 W/m² 3,8 °C 4,8 °C 3,2 km/h (1 Bft)
26.04.2017 00:23 4,8 °C 4,8 °C 93 % 1005,4 hPa 0,0 mm 1,9 km/h (1 Bft) W-NW 303 ° 0 min 0,000 mm 0,0 UV-I 0 W/m² 3,8 °C 4,8 °C 3,2 km/h (1 Bft)
26.04.2017 00:24 4,7 °C 4,8 °C 92 % 1005,4 hPa 0,0 mm 0,6 km/h (0 Bft) W-NW 303 ° 0 min 0,000 mm 0,0 UV-I 0 W/m² 3,5 °C 4,7 °C 1,6 km/h (1 Bft)
26.04.2017 00:25 4,7 °C 4,8 °C 92 % 1005,3 hPa 0,0 mm 2,0 km/h (1 Bft) W-NW 303 ° 0 min 0,000 mm 0,0 UV-I 0 W/m² 3,5 °C 4,7 °C 3,2 km/h (1 Bft)
26.04.2017 00:26 4,7 °C 4,7 °C 92 % 1005,4 hPa 0,0 mm 0,5 km/h (0 Bft) W-NW 303 ° 0 min 0,000 mm 0,0 UV-I 0 W/m² 3,5 °C 4,7 °C 1,6 km/h (1 Bft)
26.04.2017 00:27 4,7 °C 4,7 °C 92 % 1005,4 hPa 0,0 mm 0,0 km/h (0 Bft) W-NW 303 ° 0 min 0,000 mm 0,0 UV-I 0 W/m² 3,5 °C 4,7 °C 0,0 km/h (0 Bft)
26.04.2017 00:28 4,7 °C 4,7 °C 92 % 1005,4 hPa 0,0 mm 0,0 km/h (0 Bft) W-NW 303 ° 0 min 0,000 mm 0,0 UV-I 0 W/m² 3,5 °C 4,7 °C 0,0 km/h (0 Bft)
26.04.2017 00:29 4,8 °C 4,8 °C 92 % 1005,4 hPa 0,0 mm 0,0 km/h (0 Bft) W-NW 303 ° 0 min 0,000 mm 0,0 UV-I 0 W/m² 3,6 °C 4,8 °C 0,0 km/h (0 Bft)
26.04.2017 00:30 4,7 °C 4,8 °C 92 % 1005,4 hPa 0,0 mm 0,9 km/h (0 Bft) W-NW 303 ° 0 min 0,000 mm 0,0 UV-I 0 W/m² 3,5 °C 4,7 °C 3,2 km/h (1 Bft)
26.04.2017 00:31 4,8 °C 4,8 °C 92 % 1005,3 hPa 0,0 mm 0,6 km/h (0 Bft) W-NW 303 ° 0 min 0,000 mm 0,0 UV-I 0 W/m² 3,6 °C 4,8 °C 1,6 km/h (1 Bft)
26.04.2017 00:32 4,7 °C 4,8 °C 92 % 1005,3 hPa 0,0 mm 0,0 km/h (0 Bft) W-NW 303 ° 0 min 0,000 mm 0,0 UV-I 0 W/m² 3,5 °C 4,7 °C 0,0 km/h (0 Bft)
26.04.2017 00:33 4,7 °C 4,7 °C 92 % 1005,3 hPa 0,0 mm 0,3 km/h (0 Bft) W-NW 303 ° 0 min 0,000 mm 0,0 UV-I 0 W/m² 3,5 °C 4,7 °C 1,6 km/h (1 Bft)
26.04.2017 00:34 4,7 °C 4,7 °C 92 % 1005,2 hPa 0,0 mm 0,3 km/h (0 Bft) W-NW 303 ° 0 min 0,000 mm 0,0 UV-I 0 W/m² 3,5 °C 4,7 °C 1,6 km/h (1 Bft)
26.04.2017 00:35 4,7 °C 4,7 °C 92 % 1005,2 hPa 0,0 mm 0,7 km/h (0 Bft) W-NW 303 ° 0 min 0,000 mm 0,0 UV-I 0 W/m² 3,5 °C 4,7 °C 1,6 km/h (1 Bft)
26.04.2017 00:36 4,7 °C 4,7 °C 92 % 1005,2 hPa 0,0 mm 0,0 km/h (0 Bft) W-NW 303 ° 0 min 0,000 mm 0,0 UV-I 0 W/m² 3,5 °C 4,7 °C 0,0 km/h (0 Bft)
26.04.2017 00:37 4,7 °C 4,7 °C 92 % 1005,2 hPa 0,0 mm 0,0 km/h (0 Bft) W-NW 303 ° 0 min 0,000 mm 0,0 UV-I 0 W/m² 3,5 °C 4,7 °C 0,0 km/h (0 Bft)
26.04.2017 00:38 4,7 °C 4,7 °C 92 % 1005,2 hPa 0,0 mm 1,8 km/h (1 Bft) W-NW 303 ° 0 min 0,000 mm 0,0 UV-I 0 W/m² 3,5 °C 4,7 °C 3,2 km/h (1 Bft)
26.04.2017 00:39 4,7 °C 4,7 °C 92 % 1005,2 hPa 0,0 mm 2,1 km/h (1 Bft) W-NW 303 ° 0 min 0,000 mm 0,0 UV-I 0 W/m² 3,5 °C 4,7 °C 3,2 km/h (1 Bft)
26.04.2017 00:40 4,7 °C 4,7 °C 92 % 1005,2 hPa 0,0 mm 0,4 km/h (0 Bft) W-NW 303 ° 0 min 0,000 mm 0,0 UV-I 0 W/m² 3,5 °C 4,7 °C 1,6 km/h (1 Bft)
26.04.2017 00:41 4,7 °C 4,7 °C 92 % 1005,2 hPa 0,0 mm 0,0 km/h (0 Bft) W-NW 303 ° 0 min 0,000 mm 0,0 UV-I 0 W/m² 3,5 °C 4,7 °C 0,0 km/h (0 Bft)
26.04.2017 00:42 4,7 °C 4,7 °C 92 % 1005,2 hPa 0,0 mm 0,0 km/h (0 Bft) W-NW 303 ° 0 min 0,000 mm 0,0 UV-I 0 W/m² 3,5 °C 4,7 °C 0,0 km/h (0 Bft)
26.04.2017 00:43 4,7 °C 4,7 °C 92 % 1005,2 hPa 0,0 mm 0,0 km/h (0 Bft) W-NW 303 ° 0 min 0,000 mm 0,0 UV-I 0 W/m² 3,5 °C 4,7 °C 0,0 km/h (0 Bft)
26.04.2017 00:44 4,7 °C 4,7 °C 92 % 1005,2 hPa 0,0 mm 0,0 km/h (0 Bft) W-NW 303 ° 0 min 0,000 mm 0,0 UV-I 0 W/m² 3,5 °C 4,7 °C 0,0 km/h (0 Bft)
26.04.2017 00:45 4,6 °C 4,7 °C 92 % 1005,2 hPa 0,0 mm 0,0 km/h (0 Bft) W-NW 303 ° 0 min 0,000 mm 0,0 UV-I 0 W/m² 3,4 °C 4,6 °C 0,0 km/h (0 Bft)
26.04.2017 00:46 4,6 °C 4,6 °C 92 % 1005,2 hPa 0,0 mm 0,0 km/h (0 Bft) W-NW 303 ° 0 min 0,000 mm 0,0 UV-I 0 W/m² 3,4 °C 4,6 °C 0,0 km/h (0 Bft)
26.04.2017 00:47 4,6 °C 4,6 °C 92 % 1005,0 hPa 0,0 mm 0,0 km/h (0 Bft) W-NW 303 ° 0 min 0,000 mm 0,0 UV-I 0 W/m² 3,4 °C 4,6 °C 0,0 km/h (0 Bft)
26.04.2017 00:48 4,6 °C 4,6 °C 92 % 1005,0 hPa 0,0 mm 0,0 km/h (0 Bft) W-NW 303 ° 0 min 0,000 mm 0,0 UV-I 0 W/m² 3,4 °C 4,6 °C 0,0 km/h (0 Bft)
26.04.2017 00:49 4,6 °C 4,6 °C 92 % 1005,1 hPa 0,0 mm 0,0 km/h (0 Bft) W-NW 303 ° 0 min 0,000 mm 0,0 UV-I 0 W/m² 3,4 °C 4,6 °C 0,0 km/h (0 Bft)
26.04.2017 00:50 4,6 °C 4,6 °C 92 % 1005,1 hPa 0,0 mm 0,0 km/h (0 Bft) W-NW 303 ° 0 min 0,000 mm 0,0 UV-I 0 W/m² 3,4 °C 4,6 °C 0,0 km/h (0 Bft)
26.04.2017 00:51 4,6 °C 4,6 °C 92 % 1005,0 hPa 0,0 mm 0,0 km/h (0 Bft) W-NW 303 ° 0 min 0,000 mm 0,0 UV-I 0 W/m² 3,4 °C 4,6 °C 0,0 km/h (0 Bft)
26.04.2017 00:52 4,6 °C 4,6 °C 92 % 1005,0 hPa 0,0 mm 0,0 km/h (0 Bft) W-NW 303 ° 0 min 0,000 mm 0,0 UV-I 0 W/m² 3,4 °C 4,6 °C 0,0 km/h (0 Bft)
26.04.2017 00:53 4,6 °C 4,6 °C 93 % 1005,0 hPa 0,0 mm 0,0 km/h (0 Bft) W-NW 303 ° 0 min 0,000 mm 0,0 UV-I 0 W/m² 3,6 °C 4,6 °C 0,0 km/h (0 Bft)
26.04.2017 00:54 4,6 °C 4,6 °C 93 % 1005,0 hPa 0,0 mm 0,0 km/h (0 Bft) W-NW 303 ° 0 min 0,000 mm 0,0 UV-I 0 W/m² 3,6 °C 4,6 °C 0,0 km/h (0 Bft)
26.04.2017 00:55 4,6 °C 4,6 °C 93 % 1005,0 hPa 0,0 mm 0,0 km/h (0 Bft) W-NW 303 ° 0 min 0,000 mm 0,0 UV-I 0 W/m² 3,6 °C 4,6 °C 0,0 km/h (0 Bft)
26.04.2017 00:56 4,6 °C 4,6 °C 93 % 1005,0 hPa 0,0 mm 0,2 km/h (0 Bft) W-NW 303 ° 0 min 0,000 mm 0,0 UV-I 0 W/m² 3,6 °C 4,6 °C 1,6 km/h (1 Bft)
26.04.2017 00:57 4,5 °C 4,6 °C 93 % 1004,9 hPa 0,0 mm 1,4 km/h (1 Bft) W-NW 303 ° 0 min 0,000 mm 0,0 UV-I 0 W/m² 3,5 °C 4,5 °C 3,2 km/h (1 Bft)
26.04.2017 00:58 4,5 °C 4,5 °C 93 % 1004,9 hPa 0,0 mm 0,9 km/h (0 Bft) W-NW 303 ° 0 min 0,000 mm 0,0 UV-I 0 W/m² 3,5 °C 4,5 °C 1,6 km/h (1 Bft)
26.04.2017 00:59 4,5 °C 4,5 °C 93 % 1004,9 hPa 0,0 mm 1,3 km/h (1 Bft) W-NW 303 ° 0 min 0,000 mm 0,0 UV-I 0 W/m² 3,5 °C 4,5 °C 3,2 km/h (1 Bft)
26.04.2017 01:00 4,5 °C 4,5 °C 93 % 1004,9 hPa 0,0 mm 2,0 km/h (1 Bft) W-NW 303 ° 0 min 0,000 mm 0,0 UV-I 0 W/m² 3,5 °C 4,5 °C 3,2 km/h (1 Bft)
26.04.2017 01:01 4,6 °C 4,6 °C 93 % 1004,9 hPa 0,0 mm 0,2 km/h (0 Bft) W-NW 303 ° 0 min 0,000 mm 0,0 UV-I 0 W/m² 3,6 °C 4,6 °C 1,6 km/h (1 Bft)
26.04.2017 01:02 4,5 °C 4,6 °C 93 % 1004,9 hPa 0,0 mm 0,0 km/h (0 Bft) W-NW 303 ° 0 min 0,000 mm 0,0 UV-I 0 W/m² 3,5 °C 4,5 °C 0,0 km/h (0 Bft)
26.04.2017 01:03 4,6 °C 4,6 °C 93 % 1004,8 hPa 0,0 mm 0,0 km/h (0 Bft) W-NW 303 ° 0 min 0,000 mm 0,0 UV-I 0 W/m² 3,6 °C 4,6 °C 0,0 km/h (0 Bft)
26.04.2017 01:04 4,5 °C 4,6 °C 93 % 1004,8 hPa 0,0 mm 0,0 km/h (0 Bft) W-NW 303 ° 0 min 0,000 mm 0,0 UV-I 0 W/m² 3,5 °C 4,5 °C 0,0 km/h (0 Bft)
26.04.2017 01:05 4,5 °C 4,6 °C 93 % 1004,8 hPa 0,0 mm 0,0 km/h (0 Bft) W-NW 303 ° 0 min 0,000 mm 0,0 UV-I 0 W/m² 3,5 °C 4,5 °C 0,0 km/h (0 Bft)
26.04.2017 01:06 4,5 °C 4,6 °C 93 % 1004,9 hPa 0,0 mm 0,1 km/h (0 Bft) W-NW 303 ° 0 min 0,000 mm 0,0 UV-I 0 W/m² 3,5 °C 4,5 °C 1,6 km/h (1 Bft)
26.04.2017 01:07 4,6 °C 4,6 °C 93 % 1004,8 hPa 0,0 mm 0,2 km/h (0 Bft) W-NW 303 ° 0 min 0,000 mm 0,0 UV-I 0 W/m² 3,6 °C 4,6 °C 1,6 km/h (1 Bft)
26.04.2017 01:08 4,6 °C 4,6 °C 93 % 1004,9 hPa 0,0 mm 2,1 km/h (1 Bft) NW 321 ° 0 min 0,000 mm 0,0 UV-I 0 W/m² 3,6 °C 4,6 °C 3,2 km/h (1 Bft)
26.04.2017 01:09 4,6 °C 4,6 °C 94 % 1004,8 hPa 0,0 mm 1,8 km/h (1 Bft) N 11 ° 0 min 0,000 mm 0,0 UV-I 0 W/m² 3,7 °C 4,6 °C 4,8 km/h (1 Bft)
26.04.2017 01:10 4,5 °C 4,6 °C 93 % 1004,9 hPa 0,0 mm 2,9 km/h (1 Bft) N 11 ° 0 min 0,000 mm 0,0 UV-I 0 W/m² 3,5 °C 4,5 °C 4,8 km/h (1 Bft)
26.04.2017 01:11 4,4 °C 4,5 °C 93 % 1004,9 hPa 0,0 mm 2,0 km/h (1 Bft) N 11 ° 0 min 0,000 mm 0,0 UV-I 0 W/m² 3,4 °C 4,4 °C 3,2 km/h (1 Bft)
26.04.2017 01:12 4,4 °C 4,4 °C 93 % 1004,9 hPa 0,0 mm 2,7 km/h (1 Bft) N 11 ° 0 min 0,000 mm 0,0 UV-I 0 W/m² 3,4 °C 4,4 °C 4,8 km/h (1 Bft)
26.04.2017 01:13 4,4 °C 4,4 °C 93 % 1004,9 hPa 0,0 mm 1,0 km/h (0 Bft) N 360 ° 0 min 0,000 mm 0,0 UV-I 0 W/m² 3,4 °C 4,4 °C 1,6 km/h (1 Bft)
26.04.2017 01:14 4,4 °C 4,4 °C 93 % 1004,9 hPa 0,0 mm 3,0 km/h (1 Bft) N-NW 341 ° 0 min 0,000 mm 0,0 UV-I 0 W/m² 3,4 °C 4,4 °C 4,8 km/h (1 Bft)
26.04.2017 01:15 4,4 °C 4,4 °C 93 % 1004,9 hPa 0,0 mm 1,3 km/h (1 Bft) N-NW 341 ° 0 min 0,000 mm 0,0 UV-I 0 W/m² 3,4 °C 4,4 °C 3,2 km/h (1 Bft)
26.04.2017 01:16 4,3 °C 4,4 °C 93 % 1004,9 hPa 0,0 mm 0,6 km/h (0 Bft) N-NW 341 ° 0 min 0,000 mm 0,0 UV-I 0 W/m² 3,3 °C 4,3 °C 1,6 km/h (1 Bft)
26.04.2017 01:17 4,3 °C 4,3 °C 93 % 1004,9 hPa 0,0 mm 0,3 km/h (0 Bft) N-NW 341 ° 0 min 0,000 mm 0,0 UV-I 0 W/m² 3,3 °C 4,3 °C 3,2 km/h (1 Bft)
26.04.2017 01:18 4,3 °C 4,3 °C 93 % 1004,9 hPa 0,0 mm 1,3 km/h (1 Bft) N-NW 341 ° 0 min 0,000 mm 0,0 UV-I 0 W/m² 3,3 °C 4,3 °C 3,2 km/h (1 Bft)
26.04.2017 01:19 4,3 °C 4,3 °C 93 % 1004,8 hPa 0,0 mm 2,3 km/h (1 Bft) N-NW 341 ° 0 min 0,000 mm 0,0 UV-I 0 W/m² 3,3 °C 4,3 °C 3,2 km/h (1 Bft)
26.04.2017 01:20 4,3 °C 4,3 °C 93 % 1004,8 hPa 0,0 mm 1,1 km/h (1 Bft) N-NW 341 ° 0 min 0,000 mm 0,0 UV-I 0 W/m² 3,3 °C 4,3 °C 3,2 km/h (1 Bft)
26.04.2017 01:21 4,3 °C 4,3 °C 93 % 1004,8 hPa 0,0 mm 1,3 km/h (1 Bft) N-NW 341 ° 0 min 0,000 mm 0,0 UV-I 0 W/m² 3,3 °C 4,3 °C 3,2 km/h (1 Bft)
26.04.2017 01:22 4,2 °C 4,3 °C 93 % 1004,8 hPa 0,0 mm 1,2 km/h (1 Bft) N-NW 341 ° 0 min 0,000 mm 0,0 UV-I 0 W/m² 3,2 °C 4,2 °C 3,2 km/h (1 Bft)
26.04.2017 01:23 4,3 °C 4,3 °C 93 % 1004,8 hPa 0,0 mm 0,7 km/h (0 Bft) N-NW 341 ° 0 min 0,000 mm 0,0 UV-I 0 W/m² 3,3 °C 4,3 °C 3,2 km/h (1 Bft)
26.04.2017 01:24 4,2 °C 4,3 °C 93 % 1004,8 hPa 0,0 mm 0,2 km/h (0 Bft) N-NW 341 ° 0 min 0,000 mm 0,0 UV-I 0 W/m² 3,2 °C 4,2 °C 1,6 km/h (1 Bft)
26.04.2017 01:25 4,2 °C 4,2 °C 93 % 1004,8 hPa 0,0 mm 0,0 km/h (0 Bft) N-NW 341 ° 0 min 0,000 mm 0,0 UV-I 0 W/m² 3,2 °C 4,2 °C 0,0 km/h (0 Bft)
26.04.2017 01:26 4,2 °C 4,2 °C 93 % 1004,8 hPa 0,0 mm 0,0 km/h (0 Bft) N-NW 341 ° 0 min 0,000 mm 0,0 UV-I 0 W/m² 3,2 °C 4,2 °C 0,0 km/h (0 Bft)
26.04.2017 01:27 4,2 °C 4,2 °C 93 % 1004,9 hPa 0,0 mm 0,0 km/h (0 Bft) N-NW 341 ° 0 min 0,000 mm 0,0 UV-I 0 W/m² 3,2 °C 4,2 °C 0,0 km/h (0 Bft)
26.04.2017 01:28 4,2 °C 4,2 °C 93 % 1004,9 hPa 0,2 mm 0,0 km/h (0 Bft) N-NW 341 ° 0 min 0,000 mm 0,0 UV-I 0 W/m² 3,2 °C 4,2 °C 0,0 km/h (0 Bft)
26.04.2017 01:29 4,2 °C 4,2 °C 93 % 1004,9 hPa 0,0 mm 0,4 km/h (0 Bft) N-NW 341 ° 0 min 0,000 mm 0,0 UV-I 0 W/m² 3,2 °C 4,2 °C 1,6 km/h (1 Bft)
26.04.2017 01:30 4,2 °C 4,2 °C 93 % 1004,9 hPa 0,0 mm 0,3 km/h (0 Bft) N-NW 341 ° 0 min 0,000 mm 0,0 UV-I 0 W/m² 3,2 °C 4,2 °C 1,6 km/h (1 Bft)
26.04.2017 01:31 4,2 °C 4,2 °C 93 % 1005,0 hPa 0,0 mm 0,0 km/h (0 Bft) N-NW 341 ° 0 min 0,000 mm 0,0 UV-I 0 W/m² 3,2 °C 4,2 °C 0,0 km/h (0 Bft)
26.04.2017 01:32 4,1 °C 4,2 °C 93 % 1005,0 hPa 0,0 mm 0,1 km/h (0 Bft) N-NW 341 ° 0 min 0,000 mm 0,0 UV-I 0 W/m² 3,1 °C 4,1 °C 1,6 km/h (1 Bft)
26.04.2017 01:33 4,2 °C 4,2 °C 93 % 1005,0 hPa 0,0 mm 1,6 km/h (1 Bft) N-NW 341 ° 0 min 0,000 mm 0,0 UV-I 0 W/m² 3,2 °C 4,2 °C 1,6 km/h (1 Bft)
26.04.2017 01:34 4,1 °C 4,2 °C 93 % 1005,0 hPa 0,0 mm 2,3 km/h (1 Bft) N-NW 341 ° 0 min 0,000 mm 0,0 UV-I 0 W/m² 3,1 °C 4,1 °C 3,2 km/h (1 Bft)
26.04.2017 01:35 4,1 °C 4,1 °C 93 % 1005,0 hPa 0,0 mm 0,7 km/h (0 Bft) N-NW 341 ° 0 min 0,000 mm 0,0 UV-I 0 W/m² 3,1 °C 4,1 °C 1,6 km/h (1 Bft)
26.04.2017 01:36 4,1 °C 4,1 °C 93 % 1004,9 hPa 0,0 mm 1,3 km/h (1 Bft) N-NW 341 ° 0 min 0,000 mm 0,0 UV-I 0 W/m² 3,1 °C 4,1 °C 3,2 km/h (1 Bft)
26.04.2017 01:37 4,1 °C 4,1 °C 94 % 1004,9 hPa 0,0 mm 1,1 km/h (1 Bft) N-NW 341 ° 0 min 0,000 mm 0,0 UV-I 0 W/m² 3,2 °C 4,1 °C 3,2 km/h (1 Bft)
26.04.2017 01:38 4,1 °C 4,1 °C 94 % 1004,9 hPa 0,0 mm 3,1 km/h (1 Bft) W-NW 286 ° 0 min 0,000 mm 0,0 UV-I 0 W/m² 3,2 °C 4,1 °C 4,8 km/h (1 Bft)
26.04.2017 01:39 4,1 °C 4,1 °C 94 % 1004,9 hPa 0,0 mm 4,1 km/h (1 Bft) W-NW 284 ° 0 min 0,000 mm 0,0 UV-I 0 W/m² 3,2 °C 4,1 °C 4,8 km/h (1 Bft)
26.04.2017 01:40 4,1 °C 4,1 °C 94 % 1004,9 hPa 0,0 mm 3,0 km/h (1 Bft) W-NW 283 ° 0 min 0,000 mm 0,0 UV-I 0 W/m² 3,2 °C 4,1 °C 4,8 km/h (1 Bft)
26.04.2017 01:41 4,1 °C 4,1 °C 94 % 1004,9 hPa 0,0 mm 2,9 km/h (1 Bft) W 265 ° 0 min 0,000 mm 0,0 UV-I 0 W/m² 3,2 °C 4,1 °C 4,8 km/h (1 Bft)
26.04.2017 01:42 4,1 °C 4,1 °C 94 % 1004,9 hPa 0,0 mm 2,6 km/h (1 Bft) W 265 ° 0 min 0,000 mm 0,0 UV-I 0 W/m² 3,2 °C 4,1 °C 3,2 km/h (1 Bft)
26.04.2017 01:43 4,1 °C 4,1 °C 94 % 1005,0 hPa 0,0 mm 2,5 km/h (1 Bft) W 265 ° 0 min 0,000 mm 0,0 UV-I 0 W/m² 3,2 °C 4,1 °C 3,2 km/h (1 Bft)
26.04.2017 01:44 4,1 °C 4,1 °C 94 % 1005,0 hPa 0,0 mm 1,9 km/h (1 Bft) W 265 ° 0 min 0,000 mm 0,0 UV-I 0 W/m² 3,2 °C 4,1 °C 3,2 km/h (1 Bft)
26.04.2017 01:45 4,1 °C 4,1 °C 94 % 1005,0 hPa 0,0 mm 1,4 km/h (1 Bft) W 266 ° 0 min 0,000 mm 0,0 UV-I 0 W/m² 3,2 °C 4,1 °C 3,2 km/h (1 Bft)
26.04.2017 01:46 4,1 °C 4,1 °C 94 % 1004,9 hPa 0,0 mm 2,1 km/h (1 Bft) W 265 ° 0 min 0,000 mm 0,0 UV-I 0 W/m² 3,2 °C 4,1 °C 3,2 km/h (1 Bft)
26.04.2017 01:47 4,0 °C 4,1 °C 94 % 1004,9 hPa 0,0 mm 0,9 km/h (0 Bft) W 265 ° 0 min 0,000 mm 0,0 UV-I 0 W/m² 3,1 °C 4,0 °C 3,2 km/h (1 Bft)
26.04.2017 01:48 4,1 °C 4,1 °C 94 % 1004,9 hPa 0,0 mm 0,0 km/h (0 Bft) W 265 ° 0 min 0,000 mm 0,0 UV-I 0 W/m² 3,2 °C 4,1 °C 0,0 km/h (0 Bft)
26.04.2017 01:49 4,1 °C 4,1 °C 94 % 1004,8 hPa 0,0 mm 0,2 km/h (0 Bft) W 265 ° 0 min 0,000 mm 0,0 UV-I 0 W/m² 3,2 °C 4,1 °C 1,6 km/h (1 Bft)
26.04.2017 01:50 4,0 °C 4,1 °C 94 % 1004,8 hPa 0,0 mm 0,0 km/h (0 Bft) W 265 ° 0 min 0,000 mm 0,0 UV-I 0 W/m² 3,1 °C 4,0 °C 0,0 km/h (0 Bft)
26.04.2017 01:51 4,0 °C 4,1 °C 94 % 1004,8 hPa 0,0 mm 0,1 km/h (0 Bft) W 265 ° 0 min 0,000 mm 0,0 UV-I 0 W/m² 3,1 °C 4,0 °C 1,6 km/h (1 Bft)
26.04.2017 01:52 4,0 °C 4,1 °C 94 % 1004,8 hPa 0,0 mm 1,3 km/h (1 Bft) W 265 ° 0 min 0,000 mm 0,0 UV-I 0 W/m² 3,1 °C 4,0 °C 1,6 km/h (1 Bft)
26.04.2017 01:53 4,0 °C 4,1 °C 94 % 1004,9 hPa 0,0 mm 0,5 km/h (0 Bft) W 265 ° 0 min 0,000 mm 0,0 UV-I 0 W/m² 3,1 °C 4,0 °C 1,6 km/h (1 Bft)
26.04.2017 01:54 4,0 °C 4,1 °C 94 % 1004,9 hPa 0,0 mm 0,0 km/h (0 Bft) W 265 ° 0 min 0,000 mm 0,0 UV-I 0 W/m² 3,1 °C 4,0 °C 0,0 km/h (0 Bft)
26.04.2017 01:55 4,0 °C 4,1 °C 94 % 1004,9 hPa 0,0 mm 0,8 km/h (0 Bft) W 265 ° 0 min 0,000 mm 0,0 UV-I 0 W/m² 3,1 °C 4,0 °C 1,6 km/h (1 Bft)
26.04.2017 01:56 4,0 °C 4,1 °C 94 % 1004,9 hPa 0,0 mm 0,0 km/h (0 Bft) W 265 ° 0 min 0,000 mm 0,0 UV-I 0 W/m² 3,1 °C 4,0 °C 0,0 km/h (0 Bft)
26.04.2017 01:57 4,0 °C 4,1 °C 94 % 1004,9 hPa 0,0 mm 0,7 km/h (0 Bft) W 265 ° 0 min 0,000 mm 0,0 UV-I 0 W/m² 3,1 °C 4,0 °C 1,6 km/h (1 Bft)
26.04.2017 01:58 4,0 °C 4,0 °C 94 % 1004,9 hPa 0,0 mm 1,7 km/h (1 Bft) W 265 ° 0 min 0,000 mm 0,0 UV-I 0 W/m² 3,1 °C 4,0 °C 3,2 km/h (1 Bft)
26.04.2017 01:59 4,1 °C 4,1 °C 94 % 1005,0 hPa 0,0 mm 1,7 km/h (1 Bft) W 265 ° 0 min 0,000 mm 0,0 UV-I 0 W/m² 3,2 °C 4,1 °C 3,2 km/h (1 Bft)
26.04.2017 02:00 4,1 °C 4,1 °C 94 % 1005,0 hPa 0,0 mm 2,1 km/h (1 Bft) W 265 ° 0 min 0,000 mm 0,0 UV-I 0 W/m² 3,2 °C 4,1 °C 3,2 km/h (1 Bft)
26.04.2017 02:01 4,0 °C 4,1 °C 94 % 1005,0 hPa 0,0 mm 2,3 km/h (1 Bft) W 265 ° 0 min 0,000 mm 0,0 UV-I 0 W/m² 3,1 °C 4,0 °C 3,2 km/h (1 Bft)
26.04.2017 02:02 4,1 °C 4,1 °C 94 % 1005,0 hPa 0,0 mm 0,8 km/h (0 Bft) W 265 ° 0 min 0,000 mm 0,0 UV-I 0 W/m² 3,2 °C 4,1 °C 1,6 km/h (1 Bft)
26.04.2017 02:03 4,1 °C 4,1 °C 94 % 1005,0 hPa 0,0 mm 0,0 km/h (0 Bft) W 265 ° 0 min 0,000 mm 0,0 UV-I 0 W/m² 3,2 °C 4,1 °C 0,0 km/h (0 Bft)
26.04.2017 02:04 4,1 °C 4,1 °C 94 % 1005,0 hPa 0,0 mm 0,0 km/h (0 Bft) W 265 ° 0 min 0,000 mm 0,0 UV-I 0 W/m² 3,2 °C 4,1 °C 0,0 km/h (0 Bft)
26.04.2017 02:05 4,1 °C 4,1 °C 94 % 1005,0 hPa 0,0 mm 0,2 km/h (0 Bft) W 265 ° 0 min 0,000 mm 0,0 UV-I 0 W/m² 3,2 °C 4,1 °C 1,6 km/h (1 Bft)
26.04.2017 02:06 4,1 °C 4,1 °C 94 % 1005,0 hPa 0,0 mm 0,7 km/h (0 Bft) W 265 ° 0 min 0,000 mm 0,0 UV-I 0 W/m² 3,2 °C 4,1 °C 1,6 km/h (1 Bft)
26.04.2017 02:07 4,1 °C 4,1 °C 94 % 1004,9 hPa 0,0 mm 0,2 km/h (0 Bft) W 265 ° 0 min 0,000 mm 0,0 UV-I 0 W/m² 3,2 °C 4,1 °C 1,6 km/h (1 Bft)
26.04.2017 02:08 4,1 °C 4,1 °C 94 % 1004,9 hPa 0,0 mm 0,5 km/h (0 Bft) W 265 ° 0 min 0,000 mm 0,0 UV-I 0 W/m² 3,2 °C 4,1 °C 1,6 km/h (1 Bft)
26.04.2017 02:09 4,1 °C 4,1 °C 94 % 1004,9 hPa 0,0 mm 0,8 km/h (0 Bft) W 265 ° 0 min 0,000 mm 0,0 UV-I 0 W/m² 3,2 °C 4,1 °C 3,2 km/h (1 Bft)
26.04.2017 02:10 4,1 °C 4,1 °C 94 % 1005,0 hPa 0,0 mm 1,3 km/h (1 Bft) W 265 ° 0 min 0,000 mm 0,0 UV-I 0 W/m² 3,2 °C 4,1 °C 3,2 km/h (1 Bft)
26.04.2017 02:11 4,1 °C 4,1 °C 94 % 1005,0 hPa 0,0 mm 0,1 km/h (0 Bft) W 265 ° 0 min 0,000 mm 0,0 UV-I 0 W/m² 3,2 °C 4,1 °C 1,6 km/h (1 Bft)
26.04.2017 02:12 4,1 °C 4,1 °C 94 % 1004,9 hPa 0,0 mm 0,0 km/h (0 Bft) W 265 ° 0 min 0,000 mm 0,0 UV-I 0 W/m² 3,2 °C 4,1 °C 0,0 km/h (0 Bft)
26.04.2017 02:13 4,1 °C 4,1 °C 94 % 1004,9 hPa 0,0 mm 0,0 km/h (0 Bft) W 265 ° 0 min 0,000 mm 0,0 UV-I 0 W/m² 3,2 °C 4,1 °C 0,0 km/h (0 Bft)
26.04.2017 02:14 4,1 °C 4,1 °C 94 % 1004,9 hPa 0,0 mm 0,0 km/h (0 Bft) W 265 ° 0 min 0,000 mm 0,0 UV-I 0 W/m² 3,2 °C 4,1 °C 0,0 km/h (0 Bft)
26.04.2017 02:15 4,1 °C 4,1 °C 94 % 1004,9 hPa 0,0 mm 0,0 km/h (0 Bft) W 265 ° 0 min 0,000 mm 0,0 UV-I 0 W/m² 3,2 °C 4,1 °C 0,0 km/h (0 Bft)
26.04.2017 02:16 4,1 °C 4,1 °C 94 % 1004,9 hPa 0,0 mm 0,0 km/h (0 Bft) W 265 ° 0 min 0,000 mm 0,0 UV-I 0 W/m² 3,2 °C 4,1 °C 0,0 km/h (0 Bft)
26.04.2017 02:17 4,1 °C 4,1 °C 94 % 1004,9 hPa 0,0 mm 0,0 km/h (0 Bft) W 265 ° 0 min 0,000 mm 0,0 UV-I 0 W/m² 3,2 °C 4,1 °C 0,0 km/h (0 Bft)
26.04.2017 02:18 4,1 °C 4,1 °C 94 % 1004,9 hPa 0,0 mm 0,1 km/h (0 Bft) W 265 ° 0 min 0,000 mm 0,0 UV-I 0 W/m² 3,2 °C 4,1 °C 1,6 km/h (1 Bft)
26.04.2017 02:19 4,1 °C 4,1 °C 94 % 1004,8 hPa 0,0 mm 0,0 km/h (0 Bft) W 265 ° 0 min 0,000 mm 0,0 UV-I 0 W/m² 3,2 °C 4,1 °C 0,0 km/h (0 Bft)
26.04.2017 02:20 4,1 °C 4,1 °C 94 % 1004,9 hPa 0,0 mm 0,0 km/h (0 Bft) W 265 ° 0 min 0,000 mm 0,0 UV-I 0 W/m² 3,2 °C 4,1 °C 0,0 km/h (0 Bft)
26.04.2017 02:21 4,1 °C 4,1 °C 94 % 1004,8 hPa 0,0 mm 0,0 km/h (0 Bft) W 265 ° 0 min 0,000 mm 0,0 UV-I 0 W/m² 3,2 °C 4,1 °C 0,0 km/h (0 Bft)
26.04.2017 02:22 4,1 °C 4,1 °C 95 % 1004,9 hPa 0,0 mm 1,1 km/h (1 Bft) W 265 ° 0 min 0,000 mm 0,0 UV-I 0 W/m² 3,4 °C 4,1 °C 3,2 km/h (1 Bft)
26.04.2017 02:23 4,1 °C 4,2 °C 95 % 1004,9 hPa 0,0 mm 1,8 km/h (1 Bft) W 265 ° 0 min 0,000 mm 0,0 UV-I 0 W/m² 3,4 °C 4,1 °C 3,2 km/h (1 Bft)
26.04.2017 02:24 4,1 °C 4,1 °C 95 % 1004,9 hPa 0,0 mm 1,4 km/h (1 Bft) W 265 ° 0 min 0,000 mm 0,0 UV-I 0 W/m² 3,4 °C 4,1 °C 3,2 km/h (1 Bft)
26.04.2017 02:25 4,1 °C 4,1 °C 94 % 1004,9 hPa 0,0 mm 1,6 km/h (1 Bft) W 265 ° 0 min 0,000 mm 0,0 UV-I 0 W/m² 3,2 °C 4,1 °C 3,2 km/h (1 Bft)
26.04.2017 02:26 4,1 °C 4,2 °C 95 % 1004,9 hPa 0,0 mm 3,6 km/h (1 Bft) W-NW 297 ° 0 min 0,000 mm 0,0 UV-I 0 W/m² 3,4 °C 4,1 °C 4,8 km/h (1 Bft)
26.04.2017 02:27 4,1 °C 4,2 °C 95 % 1004,9 hPa 0,0 mm 3,0 km/h (1 Bft) W-NW 297 ° 0 min 0,000 mm 0,0 UV-I 0 W/m² 3,4 °C 4,1 °C 4,8 km/h (1 Bft)
26.04.2017 02:28 4,2 °C 4,2 °C 95 % 1004,9 hPa 0,0 mm 4,5 km/h (1 Bft) N-NW 342 ° 0 min 0,000 mm 0,0 UV-I 0 W/m² 3,5 °C 4,2 °C 6,4 km/h (2 Bft)
26.04.2017 02:29 4,2 °C 4,2 °C 95 % 1004,9 hPa 0,0 mm 3,8 km/h (1 Bft) NW 325 ° 0 min 0,000 mm 0,0 UV-I 0 W/m² 3,5 °C 4,2 °C 4,8 km/h (1 Bft)
26.04.2017 02:30 4,2 °C 4,2 °C 95 % 1005,0 hPa 0,0 mm 2,4 km/h (1 Bft) NW 325 ° 0 min 0,000 mm 0,0 UV-I 0 W/m² 3,5 °C 4,2 °C 3,2 km/h (1 Bft)
26.04.2017 02:31 4,2 °C 4,2 °C 95 % 1005,0 hPa 0,0 mm 3,4 km/h (1 Bft) NW 325 ° 0 min 0,000 mm 0,0 UV-I 0 W/m² 3,5 °C 4,2 °C 4,8 km/h (1 Bft)
26.04.2017 02:32 4,2 °C 4,2 °C 95 % 1004,9 hPa 0,0 mm 3,0 km/h (1 Bft) NW 325 ° 0 min 0,000 mm 0,0 UV-I 0 W/m² 3,5 °C 4,2 °C 4,8 km/h (1 Bft)
26.04.2017 02:33 4,2 °C 4,2 °C 95 % 1004,9 hPa 0,0 mm 3,3 km/h (1 Bft) NW 323 ° 0 min 0,000 mm 0,0 UV-I 0 W/m² 3,5 °C 4,2 °C 4,8 km/h (1 Bft)
26.04.2017 02:34 4,2 °C 4,2 °C 95 % 1004,9 hPa 0,2 mm 4,6 km/h (1 Bft) NW 314 ° 0 min 0,000 mm 0,0 UV-I 0 W/m² 3,5 °C 3,3 °C 6,4 km/h (2 Bft)
26.04.2017 02:35 4,2 °C 4,2 °C 95 % 1005,0 hPa 0,0 mm 4,6 km/h (1 Bft) NW 325 ° 0 min 0,000 mm 0,0 UV-I 0 W/m² 3,5 °C 3,3 °C 8,0 km/h (2 Bft)
26.04.2017 02:36 4,1 °C 4,2 °C 95 % 1005,0 hPa 0,0 mm 3,9 km/h (1 Bft) N-NW 334 ° 0 min 0,000 mm 0,0 UV-I 0 W/m² 3,4 °C 4,1 °C 6,4 km/h (2 Bft)
26.04.2017 02:37 4,1 °C 4,2 °C 95 % 1005,1 hPa 0,0 mm 5,9 km/h (2 Bft) N-NW 331 ° 0 min 0,000 mm 0,0 UV-I 0 W/m² 3,4 °C 2,7 °C 8,0 km/h (2 Bft)
26.04.2017 02:38 4,1 °C 4,1 °C 95 % 1005,1 hPa 0,0 mm 3,2 km/h (1 Bft) N-NW 338 ° 0 min 0,000 mm 0,0 UV-I 0 W/m² 3,4 °C 4,1 °C 4,8 km/h (1 Bft)
26.04.2017 02:39 4,1 °C 4,1 °C 94 % 1005,1 hPa 0,2 mm 1,5 km/h (1 Bft) N-NW 338 ° 0 min 0,000 mm 0,0 UV-I 0 W/m² 3,2 °C 4,1 °C 4,8 km/h (1 Bft)
26.04.2017 02:40 4,1 °C 4,1 °C 94 % 1005,1 hPa 0,0 mm 0,6 km/h (0 Bft) N-NW 338 ° 0 min 0,000 mm 0,0 UV-I 0 W/m² 3,2 °C 4,1 °C 1,6 km/h (1 Bft)
26.04.2017 02:41 4,1 °C 4,1 °C 94 % 1005,1 hPa 0,0 mm 2,9 km/h (1 Bft) NO 36 ° 0 min 0,000 mm 0,0 UV-I 0 W/m² 3,2 °C 4,1 °C 4,8 km/h (1 Bft)
26.04.2017 02:42 4,1 °C 4,1 °C 94 % 1005,1 hPa 0,0 mm 0,9 km/h (0 Bft) NO 36 ° 0 min 0,000 mm 0,0 UV-I 0 W/m² 3,2 °C 4,1 °C 3,2 km/h (1 Bft)
26.04.2017 02:43 4,1 °C 4,1 °C 94 % 1005,1 hPa 0,0 mm 2,1 km/h (1 Bft) N-NO 16 ° 0 min 0,000 mm 0,0 UV-I 0 W/m² 3,2 °C 4,1 °C 3,2 km/h (1 Bft)
26.04.2017 02:44 4,1 °C 4,1 °C 94 % 1005,1 hPa 0,0 mm 1,5 km/h (1 Bft) N-NO 16 ° 0 min 0,000 mm 0,0 UV-I 0 W/m² 3,2 °C 4,1 °C 3,2 km/h (1 Bft)
26.04.2017 02:45 4,0 °C 4,1 °C 95 % 1005,1 hPa 0,0 mm 3,3 km/h (1 Bft) N-NO 16 ° 0 min 0,000 mm 0,0 UV-I 0 W/m² 3,3 °C 4,0 °C 4,8 km/h (1 Bft)
26.04.2017 02:46 4,0 °C 4,1 °C 95 % 1005,2 hPa 0,0 mm 3,0 km/h (1 Bft) N 351 ° 0 min 0,000 mm 0,0 UV-I 0 W/m² 3,3 °C 4,0 °C 4,8 km/h (1 Bft)
26.04.2017 02:47 4,0 °C 4,1 °C 95 % 1005,2 hPa 0,0 mm 2,3 km/h (1 Bft) N 350 ° 0 min 0,000 mm 0,0 UV-I 0 W/m² 3,3 °C 4,0 °C 3,2 km/h (1 Bft)
26.04.2017 02:48 4,1 °C 4,1 °C 95 % 1005,2 hPa 0,2 mm 3,7 km/h (1 Bft) N-NW 347 ° 0 min 0,000 mm 0,0 UV-I 0 W/m² 3,4 °C 4,1 °C 6,4 km/h (2 Bft)
26.04.2017 02:49 4,0 °C 4,1 °C 95 % 1005,2 hPa 0,0 mm 2,8 km/h (1 Bft) N-NW 347 ° 0 min 0,000 mm 0,0 UV-I 0 W/m² 3,3 °C 4,0 °C 4,8 km/h (1 Bft)
26.04.2017 02:50 3,9 °C 4,0 °C 95 % 1005,2 hPa 0,0 mm 0,7 km/h (0 Bft) N-NW 347 ° 0 min 0,000 mm 0,0 UV-I 0 W/m² 3,2 °C 3,9 °C 3,2 km/h (1 Bft)
26.04.2017 02:51 3,9 °C 4,0 °C 95 % 1005,2 hPa 0,0 mm 1,6 km/h (1 Bft) N-NW 347 ° 0 min 0,000 mm 0,0 UV-I 0 W/m² 3,2 °C 3,9 °C 3,2 km/h (1 Bft)
26.04.2017 02:52 3,9 °C 3,9 °C 95 % 1005,2 hPa 0,0 mm 2,3 km/h (1 Bft) N-NW 347 ° 0 min 0,000 mm 0,0 UV-I 0 W/m² 3,2 °C 3,9 °C 3,2 km/h (1 Bft)
26.04.2017 02:53 3,9 °C 3,9 °C 95 % 1005,2 hPa 0,0 mm 2,0 km/h (1 Bft) N-NW 347 ° 0 min 0,000 mm 0,0 UV-I 0 W/m² 3,2 °C 3,9 °C 3,2 km/h (1 Bft)
26.04.2017 02:54 3,9 °C 3,9 °C 95 % 1005,2 hPa 0,0 mm 3,4 km/h (1 Bft) N-NW 347 ° 0 min 0,000 mm 0,0 UV-I 0 W/m² 3,2 °C 3,9 °C 4,8 km/h (1 Bft)
26.04.2017 02:55 3,9 °C 3,9 °C 95 % 1005,2 hPa 0,0 mm 2,5 km/h (1 Bft) N 355 ° 0 min 0,000 mm 0,0 UV-I 0 W/m² 3,2 °C 3,9 °C 4,8 km/h (1 Bft)
26.04.2017 02:56 3,9 °C 3,9 °C 95 % 1005,2 hPa 0,0 mm 2,1 km/h (1 Bft) N-NW 344 ° 0 min 0,000 mm 0,0 UV-I 0 W/m² 3,2 °C 3,9 °C 3,2 km/h (1 Bft)
26.04.2017 02:57 3,9 °C 3,9 °C 95 % 1005,2 hPa 0,0 mm 3,4 km/h (1 Bft) N-NW 345 ° 0 min 0,000 mm 0,0 UV-I 0 W/m² 3,2 °C 3,9 °C 4,8 km/h (1 Bft)
26.04.2017 02:58 3,9 °C 3,9 °C 95 % 1005,2 hPa 0,2 mm 1,9 km/h (1 Bft) N-NW 345 ° 0 min 0,000 mm 0,0 UV-I 0 W/m² 3,2 °C 3,9 °C 3,2 km/h (1 Bft)
26.04.2017 02:59 3,9 °C 3,9 °C 95 % 1005,2 hPa 0,0 mm 2,6 km/h (1 Bft) N-NW 345 ° 0 min 0,000 mm 0,0 UV-I 0 W/m² 3,2 °C 3,9 °C 3,2 km/h (1 Bft)
26.04.2017 03:00 3,9 °C 3,9 °C 95 % 1005,2 hPa 0,0 mm 3,4 km/h (1 Bft) N-NO 18 ° 0 min 0,000 mm 0,0 UV-I 0 W/m² 3,2 °C 3,9 °C 6,4 km/h (2 Bft)
26.04.2017 03:01 3,8 °C 3,9 °C 95 % 1005,2 hPa 0,0 mm 4,3 km/h (1 Bft) N-NO 14 ° 0 min 0,000 mm 0,0 UV-I 0 W/m² 3,1 °C 3,8 °C 8,0 km/h (2 Bft)
26.04.2017 03:02 3,9 °C 3,9 °C 95 % 1005,2 hPa 0,0 mm 5,6 km/h (1 Bft) N-NW 347 ° 0 min 0,000 mm 0,0 UV-I 0 W/m² 3,2 °C 2,6 °C 8,0 km/h (2 Bft)
26.04.2017 03:03 3,8 °C 3,9 °C 95 % 1005,2 hPa 0,0 mm 3,4 km/h (1 Bft) N-NO 24 ° 0 min 0,000 mm 0,0 UV-I 0 W/m² 3,1 °C 3,8 °C 6,4 km/h (2 Bft)
26.04.2017 03:04 3,8 °C 3,8 °C 95 % 1005,1 hPa 0,0 mm 5,1 km/h (1 Bft) N-NO 13 ° 0 min 0,000 mm 0,0 UV-I 0 W/m² 3,1 °C 2,7 °C 6,4 km/h (2 Bft)
26.04.2017 03:05 3,8 °C 3,8 °C 95 % 1005,1 hPa 0,0 mm 1,1 km/h (1 Bft) N-NO 13 ° 0 min 0,000 mm 0,0 UV-I 0 W/m² 3,1 °C 3,8 °C 3,2 km/h (1 Bft)
26.04.2017 03:06 3,8 °C 3,8 °C 95 % 1005,1 hPa 0,0 mm 1,3 km/h (1 Bft) N-NO 13 ° 0 min 0,000 mm 0,0 UV-I 0 W/m² 3,1 °C 3,8 °C 3,2 km/h (1 Bft)
26.04.2017 03:07 3,8 °C 3,8 °C 95 % 1005,1 hPa 0,0 mm 3,1 km/h (1 Bft) N 11 ° 0 min 0,000 mm 0,0 UV-I 0 W/m² 3,1 °C 3,8 °C 4,8 km/h (1 Bft)
26.04.2017 03:08 3,8 °C 3,8 °C 95 % 1005,1 hPa 0,0 mm 2,6 km/h (1 Bft) N-NO 22 ° 0 min 0,000 mm 0,0 UV-I 0 W/m² 3,1 °C 3,8 °C 4,8 km/h (1 Bft)
26.04.2017 03:09 3,7 °C 3,8 °C 95 % 1005,1 hPa 0,0 mm 2,3 km/h (1 Bft) N-NO 19 ° 0 min 0,000 mm 0,0 UV-I 0 W/m² 3,0 °C 3,7 °C 3,2 km/h (1 Bft)
26.04.2017 03:10 3,7 °C 3,7 °C 95 % 1005,2 hPa 0,0 mm 1,5 km/h (1 Bft) N-NO 19 ° 0 min 0,000 mm 0,0 UV-I 0 W/m² 3,0 °C 3,7 °C 3,2 km/h (1 Bft)
26.04.2017 03:11 3,7 °C 3,7 °C 95 % 1005,2 hPa 0,0 mm 1,0 km/h (0 Bft) N-NO 19 ° 0 min 0,000 mm 0,0 UV-I 0 W/m² 3,0 °C 3,7 °C 3,2 km/h (1 Bft)
26.04.2017 03:12 3,7 °C 3,7 °C 95 % 1005,2 hPa 0,0 mm 1,5 km/h (1 Bft) NO 48 ° 0 min 0,000 mm 0,0 UV-I 0 W/m² 3,0 °C 3,7 °C 4,8 km/h (1 Bft)
26.04.2017 03:13 3,7 °C 3,7 °C 95 % 1005,1 hPa 0,0 mm 4,2 km/h (1 Bft) NO 51 ° 0 min 0,000 mm 0,0 UV-I 0 W/m² 3,0 °C 3,7 °C 6,4 km/h (2 Bft)
26.04.2017 03:14 3,7 °C 3,7 °C 95 % 1005,1 hPa 0,0 mm 4,7 km/h (1 Bft) NO 40 ° 0 min 0,000 mm 0,0 UV-I 0 W/m² 3,0 °C 2,7 °C 6,4 km/h (2 Bft)
26.04.2017 03:15 3,7 °C 3,7 °C 95 % 1005,1 hPa 0,0 mm 3,4 km/h (1 Bft) N-NO 22 ° 0 min 0,000 mm 0,0 UV-I 0 W/m² 3,0 °C 3,7 °C 4,8 km/h (1 Bft)
26.04.2017 03:16 3,7 °C 3,7 °C 95 % 1005,1 hPa 0,0 mm 3,7 km/h (1 Bft) NO 35 ° 0 min 0,000 mm 0,0 UV-I 0 W/m² 3,0 °C 3,7 °C 6,4 km/h (2 Bft)
26.04.2017 03:17 3,7 °C 3,7 °C 95 % 1005,1 hPa 0,0 mm 4,7 km/h (1 Bft) O-NO 76 ° 0 min 0,000 mm 0,0 UV-I 0 W/m² 3,0 °C 2,7 °C 6,4 km/h (2 Bft)
26.04.2017 03:18 3,7 °C 3,7 °C 95 % 1005,1 hPa 0,0 mm 3,4 km/h (1 Bft) O-NO 67 ° 0 min 0,000 mm 0,0 UV-I 0 W/m² 3,0 °C 3,7 °C 6,4 km/h (2 Bft)
26.04.2017 03:19 3,6 °C 3,7 °C 95 % 1005,1 hPa 0,0 mm 3,0 km/h (1 Bft) O-NO 63 ° 0 min 0,000 mm 0,0 UV-I 0 W/m² 2,9 °C 3,6 °C 4,8 km/h (1 Bft)
26.04.2017 03:20 3,6 °C 3,6 °C 95 % 1005,2 hPa 0,2 mm 1,9 km/h (1 Bft) NO 40 ° 0 min 0,000 mm 0,0 UV-I 0 W/m² 2,9 °C 3,6 °C 4,8 km/h (1 Bft)
26.04.2017 03:21 3,6 °C 3,6 °C 95 % 1005,2 hPa 0,0 mm 2,0 km/h (1 Bft) NO 40 ° 0 min 0,000 mm 0,0 UV-I 0 W/m² 2,9 °C 3,6 °C 3,2 km/h (1 Bft)
26.04.2017 03:22 3,6 °C 3,6 °C 95 % 1005,3 hPa 0,0 mm 1,4 km/h (1 Bft) NO 40 ° 0 min 0,000 mm 0,0 UV-I 0 W/m² 2,9 °C 3,6 °C 3,2 km/h (1 Bft)
26.04.2017 03:23 3,6 °C 3,6 °C 95 % 1005,3 hPa 0,0 mm 3,1 km/h (1 Bft) NO 47 ° 0 min 0,000 mm 0,0 UV-I 0 W/m² 2,9 °C 3,6 °C 4,8 km/h (1 Bft)
26.04.2017 03:24 3,6 °C 3,6 °C 95 % 1005,2 hPa 0,0 mm 2,3 km/h (1 Bft) NO 47 ° 0 min 0,000 mm 0,0 UV-I 0 W/m² 2,9 °C 3,6 °C 3,2 km/h (1 Bft)
26.04.2017 03:25 3,6 °C 3,6 °C 95 % 1005,3 hPa 0,0 mm 1,2 km/h (1 Bft) NO 47 ° 0 min 0,000 mm 0,0 UV-I 0 W/m² 2,9 °C 3,6 °C 1,6 km/h (1 Bft)
26.04.2017 03:26 3,6 °C 3,6 °C 95 % 1005,3 hPa 0,0 mm 1,3 km/h (1 Bft) NO 47 ° 0 min 0,000 mm 0,0 UV-I 0 W/m² 2,9 °C 3,6 °C 3,2 km/h (1 Bft)
26.04.2017 03:27 3,6 °C 3,6 °C 95 % 1005,3 hPa 0,0 mm 1,5 km/h (1 Bft) NO 47 ° 0 min 0,000 mm 0,0 UV-I 0 W/m² 2,9 °C 3,6 °C 3,2 km/h (1 Bft)
26.04.2017 03:28 3,6 °C 3,6 °C 95 % 1005,4 hPa 0,0 mm 1,7 km/h (1 Bft) NO 47 ° 0 min 0,000 mm 0,0 UV-I 0 W/m² 2,9 °C 3,6 °C 3,2 km/h (1 Bft)
26.04.2017 03:29 3,6 °C 3,6 °C 95 % 1005,4 hPa 0,0 mm 0,7 km/h (0 Bft) NO 47 ° 0 min 0,000 mm 0,0 UV-I 0 W/m² 2,9 °C 3,6 °C 1,6 km/h (1 Bft)
26.04.2017 03:30 3,6 °C 3,6 °C 95 % 1005,4 hPa 0,0 mm 0,6 km/h (0 Bft) NO 47 ° 0 min 0,000 mm 0,0 UV-I 0 W/m² 2,9 °C 3,6 °C 1,6 km/h (1 Bft)
26.04.2017 03:31 3,6 °C 3,6 °C 95 % 1005,4 hPa 0,0 mm 0,3 km/h (0 Bft) NO 47 ° 0 min 0,000 mm 0,0 UV-I 0 W/m² 2,9 °C 3,6 °C 1,6 km/h (1 Bft)
26.04.2017 03:32 3,6 °C 3,6 °C 95 % 1005,4 hPa 0,0 mm 2,0 km/h (1 Bft) NO 47 ° 0 min 0,000 mm 0,0 UV-I 0 W/m² 2,9 °C 3,6 °C 3,2 km/h (1 Bft)
26.04.2017 03:33 3,6 °C 3,6 °C 95 % 1005,4 hPa 0,0 mm 3,4 km/h (1 Bft) NO 42 ° 0 min 0,000 mm 0,0 UV-I 0 W/m² 2,9 °C 3,6 °C 6,4 km/h (2 Bft)
26.04.2017 03:34 3,6 °C 3,6 °C 95 % 1005,4 hPa 0,0 mm 4,1 km/h (1 Bft) NO 46 ° 0 min 0,000 mm 0,0 UV-I 0 W/m² 2,9 °C 3,6 °C 6,4 km/h (2 Bft)
26.04.2017 03:35 3,6 °C 3,6 °C 95 % 1005,4 hPa 0,0 mm 2,1 km/h (1 Bft) NO 46 ° 0 min 0,000 mm 0,0 UV-I 0 W/m² 2,9 °C 3,6 °C 3,2 km/h (1 Bft)
26.04.2017 03:36 3,6 °C 3,6 °C 95 % 1005,4 hPa 0,0 mm 2,8 km/h (1 Bft) O-NO 65 ° 0 min 0,000 mm 0,0 UV-I 0 W/m² 2,9 °C 3,6 °C 3,2 km/h (1 Bft)
26.04.2017 03:37 3,5 °C 3,6 °C 95 % 1005,4 hPa 0,0 mm 3,5 km/h (1 Bft) O-SO 123 ° 0 min 0,000 mm 0,0 UV-I 0 W/m² 2,8 °C 3,5 °C 4,8 km/h (1 Bft)
26.04.2017 03:38 3,4 °C 3,5 °C 95 % 1005,4 hPa 0,0 mm 3,6 km/h (1 Bft) O-SO 123 ° 0 min 0,000 mm 0,0 UV-I 0 W/m² 2,7 °C 3,4 °C 4,8 km/h (1 Bft)
26.04.2017 03:39 3,5 °C 3,5 °C 95 % 1005,4 hPa 0,0 mm 2,6 km/h (1 Bft) O-SO 121 ° 0 min 0,000 mm 0,0 UV-I 0 W/m² 2,8 °C 3,5 °C 3,2 km/h (1 Bft)
26.04.2017 03:40 3,5 °C 3,5 °C 95 % 1005,4 hPa 0,0 mm 2,0 km/h (1 Bft) O-SO 119 ° 0 min 0,000 mm 0,0 UV-I 0 W/m² 2,8 °C 3,5 °C 3,2 km/h (1 Bft)
26.04.2017 03:41 3,5 °C 3,5 °C 95 % 1005,3 hPa 0,0 mm 1,7 km/h (1 Bft) O-NO 74 ° 0 min 0,000 mm 0,0 UV-I 0 W/m² 2,8 °C 3,5 °C 4,8 km/h (1 Bft)
26.04.2017 03:42 3,4 °C 3,5 °C 95 % 1005,4 hPa 0,0 mm 2,1 km/h (1 Bft) O-NO 74 ° 0 min 0,000 mm 0,0 UV-I 0 W/m² 2,7 °C 3,4 °C 3,2 km/h (1 Bft)
26.04.2017 03:43 3,4 °C 3,5 °C 95 % 1005,4 hPa 0,0 mm 0,4 km/h (0 Bft) O-NO 74 ° 0 min 0,000 mm 0,0 UV-I 0 W/m² 2,7 °C 3,4 °C 1,6 km/h (1 Bft)
26.04.2017 03:44 3,4 °C 3,4 °C 95 % 1005,5 hPa 0,0 mm 0,1 km/h (0 Bft) O-NO 74 ° 0 min 0,000 mm 0,0 UV-I 0 W/m² 2,7 °C 3,4 °C 1,6 km/h (1 Bft)
26.04.2017 03:45 3,4 °C 3,4 °C 95 % 1005,5 hPa 0,0 mm 0,0 km/h (0 Bft) O-NO 74 ° 0 min 0,000 mm 0,0 UV-I 0 W/m² 2,7 °C 3,4 °C 0,0 km/h (0 Bft)
26.04.2017 03:46 3,4 °C 3,4 °C 95 % 1005,5 hPa 0,0 mm 1,4 km/h (1 Bft) O-NO 74 ° 0 min 0,000 mm 0,0 UV-I 0 W/m² 2,7 °C 3,4 °C 3,2 km/h (1 Bft)
26.04.2017 03:47 3,4 °C 3,4 °C 95 % 1005,4 hPa 0,0 mm 0,2 km/h (0 Bft) O-NO 74 ° 0 min 0,000 mm 0,0 UV-I 0 W/m² 2,7 °C 3,4 °C 1,6 km/h (1 Bft)
26.04.2017 03:48 3,4 °C 3,4 °C 95 % 1005,4 hPa 0,0 mm 1,8 km/h (1 Bft) O-NO 74 ° 0 min 0,000 mm 0,0 UV-I 0 W/m² 2,7 °C 3,4 °C 3,2 km/h (1 Bft)
26.04.2017 03:49 3,4 °C 3,4 °C 95 % 1005,4 hPa 0,0 mm 1,5 km/h (1 Bft) O-NO 74 ° 0 min 0,000 mm 0,0 UV-I 0 W/m² 2,7 °C 3,4 °C 3,2 km/h (1 Bft)
26.04.2017 03:50 3,4 °C 3,4 °C 95 % 1005,4 hPa 0,0 mm 0,4 km/h (0 Bft) O-NO 74 ° 0 min 0,000 mm 0,0 UV-I 0 W/m² 2,7 °C 3,4 °C 3,2 km/h (1 Bft)
26.04.2017 03:51 3,4 °C 3,4 °C 95 % 1005,4 hPa 0,0 mm 2,6 km/h (1 Bft) O-NO 74 ° 0 min 0,000 mm 0,0 UV-I 0 W/m² 2,7 °C 3,4 °C 4,8 km/h (1 Bft)
26.04.2017 03:52 3,4 °C 3,4 °C 94 % 1005,4 hPa 0,0 mm 2,6 km/h (1 Bft) O-NO 74 ° 0 min 0,000 mm 0,0 UV-I 0 W/m² 2,5 °C 3,4 °C 4,8 km/h (1 Bft)
26.04.2017 03:53 3,4 °C 3,4 °C 95 % 1005,3 hPa 0,0 mm 4,5 km/h (1 Bft) O-NO 78 ° 0 min 0,000 mm 0,0 UV-I 0 W/m² 2,7 °C 3,4 °C 4,8 km/h (1 Bft)
26.04.2017 03:54 3,4 °C 3,4 °C 94 % 1005,3 hPa 0,0 mm 3,8 km/h (1 Bft) O-NO 78 ° 0 min 0,000 mm 0,0 UV-I 0 W/m² 2,5 °C 3,4 °C 4,8 km/h (1 Bft)
26.04.2017 03:55 3,4 °C 3,4 °C 94 % 1005,3 hPa 0,0 mm 1,5 km/h (1 Bft) O-NO 78 ° 0 min 0,000 mm 0,0 UV-I 0 W/m² 2,5 °C 3,4 °C 3,2 km/h (1 Bft)
26.04.2017 03:56 3,4 °C 3,4 °C 94 % 1005,3 hPa 0,0 mm 1,7 km/h (1 Bft) O-NO 78 ° 0 min 0,000 mm 0,0 UV-I 0 W/m² 2,5 °C 3,4 °C 3,2 km/h (1 Bft)
26.04.2017 03:57 3,4 °C 3,4 °C 94 % 1005,2 hPa 0,0 mm 2,1 km/h (1 Bft) O-NO 78 ° 0 min 0,000 mm 0,0 UV-I 0 W/m² 2,5 °C 3,4 °C 3,2 km/h (1 Bft)
26.04.2017 03:58 3,4 °C 3,4 °C 94 % 1005,2 hPa 0,0 mm 2,7 km/h (1 Bft) O-NO 77 ° 0 min 0,000 mm 0,0 UV-I 0 W/m² 2,5 °C 3,4 °C 4,8 km/h (1 Bft)
26.04.2017 03:59 3,4 °C 3,4 °C 94 % 1005,3 hPa 0,0 mm 4,2 km/h (1 Bft) NO 55 ° 0 min 0,000 mm 0,0 UV-I 0 W/m² 2,5 °C 3,4 °C 6,4 km/h (2 Bft)
26.04.2017 04:00 3,4 °C 3,4 °C 94 % 1005,3 hPa 0,0 mm 2,5 km/h (1 Bft) O-NO 64 ° 0 min 0,000 mm 0,0 UV-I 0 W/m² 2,5 °C 3,4 °C 4,8 km/h (1 Bft)
26.04.2017 04:01 3,4 °C 3,4 °C 94 % 1005,3 hPa 0,2 mm 3,8 km/h (1 Bft) O 86 ° 0 min 0,000 mm 0,0 UV-I 0 W/m² 2,5 °C 3,4 °C 4,8 km/h (1 Bft)
26.04.2017 04:02 3,4 °C 3,4 °C 94 % 1005,3 hPa 0,0 mm 3,5 km/h (1 Bft) O 86 ° 0 min 0,000 mm 0,0 UV-I 0 W/m² 2,5 °C 3,4 °C 4,8 km/h (1 Bft)
26.04.2017 04:03 3,4 °C 3,4 °C 94 % 1005,4 hPa 0,0 mm 1,9 km/h (1 Bft) O 86 ° 0 min 0,000 mm 0,0 UV-I 0 W/m² 2,5 °C 3,4 °C 3,2 km/h (1 Bft)
26.04.2017 04:04 3,3 °C 3,4 °C 94 % 1005,4 hPa 0,0 mm 1,4 km/h (1 Bft) O 86 ° 0 min 0,000 mm 0,0 UV-I 0 W/m² 2,4 °C 3,3 °C 3,2 km/h (1 Bft)
26.04.2017 04:05 3,3 °C 3,3 °C 94 % 1005,4 hPa 0,0 mm 1,6 km/h (1 Bft) O 86 ° 0 min 0,000 mm 0,0 UV-I 0 W/m² 2,4 °C 3,3 °C 3,2 km/h (1 Bft)
26.04.2017 04:06 3,3 °C 3,3 °C 94 % 1005,4 hPa 0,0 mm 2,1 km/h (1 Bft) O 86 ° 0 min 0,000 mm 0,0 UV-I 0 W/m² 2,4 °C 3,3 °C 4,8 km/h (1 Bft)
26.04.2017 04:07 3,3 °C 3,3 °C 94 % 1005,4 hPa 0,0 mm 2,1 km/h (1 Bft) O 86 ° 0 min 0,000 mm 0,0 UV-I 0 W/m² 2,4 °C 3,3 °C 3,2 km/h (1 Bft)
26.04.2017 04:08 3,3 °C 3,3 °C 94 % 1005,4 hPa 0,0 mm 1,1 km/h (1 Bft) O 86 ° 0 min 0,000 mm 0,0 UV-I 0 W/m² 2,4 °C 3,3 °C 3,2 km/h (1 Bft)
26.04.2017 04:09 3,3 °C 3,3 °C 94 % 1005,4 hPa 0,0 mm 2,4 km/h (1 Bft) O 82 ° 0 min 0,000 mm 0,0 UV-I 0 W/m² 2,4 °C 3,3 °C 4,8 km/h (1 Bft)
26.04.2017 04:10 3,3 °C 3,3 °C 94 % 1005,4 hPa 0,0 mm 3,0 km/h (1 Bft) O 82 ° 0 min 0,000 mm 0,0 UV-I 0 W/m² 2,4 °C 3,3 °C 4,8 km/h (1 Bft)
26.04.2017 04:11 3,3 °C 3,3 °C 94 % 1005,4 hPa 0,0 mm 3,2 km/h (1 Bft) O 82 ° 0 min 0,000 mm 0,0 UV-I 0 W/m² 2,4 °C 3,3 °C 4,8 km/h (1 Bft)
26.04.2017 04:12 3,3 °C 3,3 °C 94 % 1005,2 hPa 0,0 mm 3,1 km/h (1 Bft) O 82 ° 0 min 0,000 mm 0,0 UV-I 0 W/m² 2,4 °C 3,3 °C 4,8 km/h (1 Bft)
26.04.2017 04:13 3,3 °C 3,3 °C 94 % 1005,2 hPa 0,0 mm 5,9 km/h (2 Bft) O-NO 69 ° 0 min 0,000 mm 0,0 UV-I 0 W/m² 2,4 °C 1,8 °C 8,0 km/h (2 Bft)
26.04.2017 04:14 3,3 °C 3,3 °C 95 % 1005,2 hPa 0,0 mm 3,8 km/h (1 Bft) O-NO 70 ° 0 min 0,000 mm 0,0 UV-I 0 W/m² 2,6 °C 3,3 °C 4,8 km/h (1 Bft)
26.04.2017 04:15 3,3 °C 3,3 °C 95 % 1005,2 hPa 0,0 mm 4,8 km/h (1 Bft) O-NO 73 ° 0 min 0,000 mm 0,0 UV-I 0 W/m² 2,6 °C 2,2 °C 6,4 km/h (2 Bft)
26.04.2017 04:16 3,3 °C 3,3 °C 95 % 1005,2 hPa 0,0 mm 3,2 km/h (1 Bft) O-NO 63 ° 0 min 0,000 mm 0,0 UV-I 0 W/m² 2,6 °C 3,3 °C 4,8 km/h (1 Bft)
26.04.2017 04:17 3,3 °C 3,3 °C 95 % 1005,2 hPa 0,0 mm 3,6 km/h (1 Bft) O-NO 65 ° 0 min 0,000 mm 0,0 UV-I 0 W/m² 2,6 °C 3,3 °C 4,8 km/h (1 Bft)
26.04.2017 04:18 3,2 °C 3,3 °C 94 % 1005,1 hPa 0,0 mm 4,5 km/h (1 Bft) O-NO 78 ° 0 min 0,000 mm 0,0 UV-I 0 W/m² 2,3 °C 3,2 °C 4,8 km/h (1 Bft)
26.04.2017 04:19 3,2 °C 3,3 °C 95 % 1005,1 hPa 0,0 mm 1,5 km/h (1 Bft) O-NO 78 ° 0 min 0,000 mm 0,0 UV-I 0 W/m² 2,5 °C 3,2 °C 3,2 km/h (1 Bft)
26.04.2017 04:20 3,2 °C 3,2 °C 94 % 1005,1 hPa 0,0 mm 1,5 km/h (1 Bft) O-NO 78 ° 0 min 0,000 mm 0,0 UV-I 0 W/m² 2,3 °C 3,2 °C 3,2 km/h (1 Bft)
26.04.2017 04:21 3,2 °C 3,2 °C 94 % 1005,1 hPa 0,0 mm 1,2 km/h (1 Bft) O-NO 78 ° 0 min 0,000 mm 0,0 UV-I 0 W/m² 2,3 °C 3,2 °C 3,2 km/h (1 Bft)
26.04.2017 04:22 3,2 °C 3,2 °C 94 % 1005,1 hPa 0,0 mm 1,4 km/h (1 Bft) O-NO 78 ° 0 min 0,000 mm 0,0 UV-I 0 W/m² 2,3 °C 3,2 °C 4,8 km/h (1 Bft)
26.04.2017 04:23 3,2 °C 3,2 °C 95 % 1005,1 hPa 0,0 mm 2,5 km/h (1 Bft) O-NO 78 ° 0 min 0,000 mm 0,0 UV-I 0 W/m² 2,5 °C 3,2 °C 4,8 km/h (1 Bft)
26.04.2017 04:24 3,2 °C 3,2 °C 95 % 1005,1 hPa 0,0 mm 2,7 km/h (1 Bft) O-NO 75 ° 0 min 0,000 mm 0,0 UV-I 0 W/m² 2,5 °C 3,2 °C 4,8 km/h (1 Bft)
26.04.2017 04:25 3,2 °C 3,2 °C 95 % 1005,1 hPa 0,0 mm 2,7 km/h (1 Bft) O-NO 75 ° 0 min 0,000 mm 0,0 UV-I 0 W/m² 2,5 °C 3,2 °C 3,2 km/h (1 Bft)
26.04.2017 04:26 3,2 °C 3,2 °C 95 % 1005,1 hPa 0,0 mm 3,1 km/h (1 Bft) O 84 ° 0 min 0,000 mm 0,0 UV-I 0 W/m² 2,5 °C 3,2 °C 4,8 km/h (1 Bft)
26.04.2017 04:27 3,2 °C 3,2 °C 95 % 1005,1 hPa 0,0 mm 2,9 km/h (1 Bft) O 84 ° 0 min 0,000 mm 0,0 UV-I 0 W/m² 2,5 °C 3,2 °C 4,8 km/h (1 Bft)
26.04.2017 04:28 3,1 °C 3,2 °C 94 % 1005,1 hPa 0,0 mm 4,3 km/h (1 Bft) O 86 ° 0 min 0,000 mm 0,0 UV-I 0 W/m² 2,2 °C 3,1 °C 4,8 km/h (1 Bft)
26.04.2017 04:29 3,1 °C 3,2 °C 94 % 1005,1 hPa 0,0 mm 2,6 km/h (1 Bft) O 95 ° 0 min 0,000 mm 0,0 UV-I 0 W/m² 2,2 °C 3,1 °C 6,4 km/h (2 Bft)
26.04.2017 04:30 3,1 °C 3,1 °C 94 % 1005,1 hPa 0,0 mm 3,1 km/h (1 Bft) O 94 ° 0 min 0,000 mm 0,0 UV-I 0 W/m² 2,2 °C 3,1 °C 6,4 km/h (2 Bft)
26.04.2017 04:31 3,1 °C 3,1 °C 94 % 1005,0 hPa 0,0 mm 2,2 km/h (1 Bft) O 94 ° 0 min 0,000 mm 0,0 UV-I 0 W/m² 2,2 °C 3,1 °C 3,2 km/h (1 Bft)
26.04.2017 04:32 3,1 °C 3,1 °C 94 % 1005,0 hPa 0,0 mm 4,1 km/h (1 Bft) O-NO 57 ° 0 min 0,000 mm 0,0 UV-I 0 W/m² 2,2 °C 3,1 °C 4,8 km/h (1 Bft)
26.04.2017 04:33 3,1 °C 3,2 °C 94 % 1005,0 hPa 0,0 mm 5,0 km/h (1 Bft) O-NO 74 ° 0 min 0,000 mm 0,0 UV-I 0 W/m² 2,2 °C 1,9 °C 6,4 km/h (2 Bft)
26.04.2017 04:34 3,1 °C 3,2 °C 95 % 1005,0 hPa 0,0 mm 2,5 km/h (1 Bft) O-NO 74 ° 0 min 0,000 mm 0,0 UV-I 0 W/m² 2,4 °C 3,1 °C 4,8 km/h (1 Bft)
26.04.2017 04:35 3,1 °C 3,2 °C 95 % 1005,0 hPa 0,0 mm 2,7 km/h (1 Bft) O-NO 74 ° 0 min 0,000 mm 0,0 UV-I 0 W/m² 2,4 °C 3,1 °C 4,8 km/h (1 Bft)
26.04.2017 04:36 3,1 °C 3,1 °C 94 % 1005,0 hPa 0,0 mm 2,3 km/h (1 Bft) O-NO 74 ° 0 min 0,000 mm 0,0 UV-I 0 W/m² 2,2 °C 3,1 °C 4,8 km/h (1 Bft)
26.04.2017 04:37 3,1 °C 3,1 °C 95 % 1005,0 hPa 0,2 mm 1,7 km/h (1 Bft) O-NO 74 ° 0 min 0,000 mm 0,0 UV-I 0 W/m² 2,4 °C 3,1 °C 4,8 km/h (1 Bft)
26.04.2017 04:38 3,1 °C 3,1 °C 94 % 1005,0 hPa 0,0 mm 3,9 km/h (1 Bft) O-NO 75 ° 0 min 0,000 mm 0,0 UV-I 0 W/m² 2,2 °C 3,1 °C 6,4 km/h (2 Bft)
26.04.2017 04:39 3,1 °C 3,1 °C 94 % 1005,0 hPa 0,0 mm 3,4 km/h (1 Bft) O-NO 72 ° 0 min 0,000 mm 0,0 UV-I 0 W/m² 2,2 °C 3,1 °C 4,8 km/h (1 Bft)
26.04.2017 04:40 3,1 °C 3,1 °C 94 % 1005,1 hPa 0,0 mm 3,0 km/h (1 Bft) O-NO 72 ° 0 min 0,000 mm 0,0 UV-I 0 W/m² 2,2 °C 3,1 °C 4,8 km/h (1 Bft)
26.04.2017 04:41 3,0 °C 3,1 °C 94 % 1004,9 hPa 0,0 mm 1,1 km/h (1 Bft) O 88 ° 0 min 0,000 mm 0,0 UV-I 0 W/m² 2,1 °C 3,0 °C 4,8 km/h (1 Bft)
26.04.2017 04:42 3,0 °C 3,1 °C 94 % 1005,0 hPa 0,0 mm 3,7 km/h (1 Bft) O 85 ° 0 min 0,000 mm 0,0 UV-I 0 W/m² 2,1 °C 3,0 °C 6,4 km/h (2 Bft)
26.04.2017 04:43 3,0 °C 3,0 °C 94 % 1005,0 hPa 0,0 mm 3,7 km/h (1 Bft) O 81 ° 0 min 0,000 mm 0,0 UV-I 0 W/m² 2,1 °C 3,0 °C 4,8 km/h (1 Bft)
26.04.2017 04:44 3,0 °C 3,0 °C 94 % 1005,1 hPa 0,0 mm 2,7 km/h (1 Bft) O 81 ° 0 min 0,000 mm 0,0 UV-I 0 W/m² 2,1 °C 3,0 °C 4,8 km/h (1 Bft)
26.04.2017 04:45 2,9 °C 3,0 °C 94 % 1005,1 hPa 0,0 mm 3,1 km/h (1 Bft) O 81 ° 0 min 0,000 mm 0,0 UV-I 0 W/m² 2,0 °C 2,9 °C 4,8 km/h (1 Bft)
26.04.2017 04:46 3,0 °C 3,0 °C 95 % 1005,0 hPa 0,0 mm 2,5 km/h (1 Bft) O 81 ° 0 min 0,000 mm 0,0 UV-I 0 W/m² 2,3 °C 3,0 °C 3,2 km/h (1 Bft)
26.04.2017 04:47 3,0 °C 3,0 °C 95 % 1005,0 hPa 0,0 mm 1,5 km/h (1 Bft) O 81 ° 0 min 0,000 mm 0,0 UV-I 0 W/m² 2,3 °C 3,0 °C 3,2 km/h (1 Bft)
26.04.2017 04:48 3,0 °C 3,0 °C 95 % 1005,1 hPa 0,0 mm 0,0 km/h (0 Bft) O 81 ° 0 min 0,000 mm 0,0 UV-I 0 W/m² 2,3 °C 3,0 °C 0,0 km/h (0 Bft)
26.04.2017 04:49 2,9 °C 3,0 °C 95 % 1005,0 hPa 0,0 mm 1,7 km/h (1 Bft) O 81 ° 0 min 0,000 mm 0,0 UV-I 0 W/m² 2,2 °C 2,9 °C 3,2 km/h (1 Bft)
26.04.2017 04:50 3,0 °C 3,0 °C 95 % 1005,0 hPa 0,0 mm 1,2 km/h (1 Bft) O 81 ° 0 min 0,000 mm 0,0 UV-I 0 W/m² 2,3 °C 3,0 °C 3,2 km/h (1 Bft)
26.04.2017 04:51 3,0 °C 3,0 °C 95 % 1005,1 hPa 0,0 mm 2,5 km/h (1 Bft) O-NO 61 ° 0 min 0,000 mm 0,0 UV-I 0 W/m² 2,3 °C 3,0 °C 4,8 km/h (1 Bft)
26.04.2017 04:52 3,0 °C 3,0 °C 95 % 1005,0 hPa 0,0 mm 3,4 km/h (1 Bft) O-NO 69 ° 0 min 0,000 mm 0,0 UV-I 0 W/m² 2,3 °C 3,0 °C 6,4 km/h (2 Bft)
26.04.2017 04:53 3,0 °C 3,0 °C 95 % 1005,0 hPa 0,0 mm 3,8 km/h (1 Bft) O-NO 58 ° 0 min 0,000 mm 0,0 UV-I 0 W/m² 2,3 °C 3,0 °C 6,4 km/h (2 Bft)
26.04.2017 04:54 3,0 °C 3,0 °C 95 % 1005,0 hPa 0,0 mm 3,1 km/h (1 Bft) O-NO 66 ° 0 min 0,000 mm 0,0 UV-I 0 W/m² 2,3 °C 3,0 °C 4,8 km/h (1 Bft)
26.04.2017 04:55 3,0 °C 3,0 °C 95 % 1005,0 hPa 0,0 mm 0,9 km/h (0 Bft) O-NO 66 ° 0 min 0,000 mm 0,0 UV-I 0 W/m² 2,3 °C 3,0 °C 3,2 km/h (1 Bft)
26.04.2017 04:56 2,9 °C 3,0 °C 95 % 1004,9 hPa 0,0 mm 3,2 km/h (1 Bft) O-NO 60 ° 0 min 0,000 mm 0,0 UV-I 0 W/m² 2,2 °C 2,9 °C 4,8 km/h (1 Bft)
26.04.2017 04:57 2,9 °C 3,0 °C 95 % 1005,1 hPa 0,0 mm 2,7 km/h (1 Bft) O-NO 59 ° 0 min 0,000 mm 0,0 UV-I 0 W/m² 2,2 °C 2,9 °C 4,8 km/h (1 Bft)
26.04.2017 04:58 3,0 °C 3,0 °C 95 % 1005,0 hPa 0,0 mm 2,5 km/h (1 Bft) O-NO 60 ° 0 min 0,000 mm 0,0 UV-I 0 W/m² 2,3 °C 3,0 °C 4,8 km/h (1 Bft)
26.04.2017 04:59 2,9 °C 3,0 °C 95 % 1005,0 hPa 0,0 mm 3,7 km/h (1 Bft) O-NO 69 ° 0 min 0,000 mm 0,0 UV-I 0 W/m² 2,2 °C 2,9 °C 6,4 km/h (2 Bft)
26.04.2017 05:00 2,9 °C 3,0 °C 95 % 1005,0 hPa 0,0 mm 3,0 km/h (1 Bft) O-NO 70 ° 0 min 0,000 mm 0,0 UV-I 0 W/m² 2,2 °C 2,9 °C 4,8 km/h (1 Bft)
26.04.2017 05:01 2,9 °C 2,9 °C 95 % 1005,0 hPa 0,0 mm 0,8 km/h (0 Bft) O-NO 70 ° 0 min 0,000 mm 0,0 UV-I 0 W/m² 2,2 °C 2,9 °C 1,6 km/h (1 Bft)
26.04.2017 05:02 2,9 °C 2,9 °C 95 % 1005,0 hPa 0,0 mm 2,1 km/h (1 Bft) O-NO 70 ° 0 min 0,000 mm 0,0 UV-I 0 W/m² 2,2 °C 2,9 °C 3,2 km/h (1 Bft)
26.04.2017 05:03 2,9 °C 2,9 °C 95 % 1005,0 hPa 0,0 mm 0,9 km/h (0 Bft) O-NO 70 ° 0 min 0,000 mm 0,0 UV-I 0 W/m² 2,2 °C 2,9 °C 1,6 km/h (1 Bft)
26.04.2017 05:04 2,9 °C 2,9 °C 95 % 1005,0 hPa 0,0 mm 4,0 km/h (1 Bft) O-NO 61 ° 0 min 0,000 mm 0,0 UV-I 0 W/m² 2,2 °C 2,9 °C 6,4 km/h (2 Bft)
26.04.2017 05:05 2,9 °C 3,0 °C 95 % 1005,0 hPa 0,0 mm 4,8 km/h (1 Bft) O 81 ° 0 min 0,000 mm 0,0 UV-I 0 W/m² 2,2 °C 1,8 °C 6,4 km/h (2 Bft)
26.04.2017 05:06 2,9 °C 3,0 °C 95 % 1005,0 hPa 0,0 mm 2,4 km/h (1 Bft) O 82 ° 0 min 0,000 mm 0,0 UV-I 0 W/m² 2,2 °C 2,9 °C 3,2 km/h (1 Bft)
26.04.2017 05:07 2,9 °C 3,0 °C 95 % 1005,0 hPa 0,0 mm 3,2 km/h (1 Bft) O 82 ° 0 min 0,000 mm 0,0 UV-I 0 W/m² 2,2 °C 2,9 °C 4,8 km/h (1 Bft)
26.04.2017 05:08 2,9 °C 2,9 °C 95 % 1005,0 hPa 0,0 mm 3,6 km/h (1 Bft) O 82 ° 0 min 0,000 mm 0,0 UV-I 0 W/m² 2,2 °C 2,9 °C 4,8 km/h (1 Bft)
26.04.2017 05:09 2,9 °C 2,9 °C 95 % 1005,0 hPa 0,0 mm 4,4 km/h (1 Bft) O 84 ° 0 min 0,000 mm 0,0 UV-I 0 W/m² 2,2 °C 2,9 °C 6,4 km/h (2 Bft)
26.04.2017 05:10 2,9 °C 2,9 °C 95 % 1005,0 hPa 0,0 mm 3,3 km/h (1 Bft) O 82 ° 0 min 0,000 mm 0,0 UV-I 0 W/m² 2,2 °C 2,9 °C 4,8 km/h (1 Bft)
26.04.2017 05:11 2,9 °C 2,9 °C 95 % 1005,0 hPa 0,0 mm 2,9 km/h (1 Bft) O 82 ° 0 min 0,000 mm 0,0 UV-I 0 W/m² 2,2 °C 2,9 °C 4,8 km/h (1 Bft)
26.04.2017 05:12 2,9 °C 2,9 °C 95 % 1005,0 hPa 0,0 mm 3,6 km/h (1 Bft) O 82 ° 0 min 0,000 mm 0,0 UV-I 0 W/m² 2,2 °C 2,9 °C 4,8 km/h (1 Bft)
26.04.2017 05:13 2,9 °C 2,9 °C 95 % 1005,0 hPa 0,0 mm 2,7 km/h (1 Bft) O 82 ° 0 min 0,000 mm 0,0 UV-I 0 W/m² 2,2 °C 2,9 °C 4,8 km/h (1 Bft)
26.04.2017 05:14 2,9 °C 2,9 °C 95 % 1005,0 hPa 0,0 mm 1,7 km/h (1 Bft) O 82 ° 0 min 0,000 mm 0,0 UV-I 0 W/m² 2,2 °C 2,9 °C 3,2 km/h (1 Bft)
26.04.2017 05:15 2,9 °C 2,9 °C 95 % 1005,0 hPa 0,0 mm 3,6 km/h (1 Bft) O 82 ° 0 min 0,000 mm 0,0 UV-I 0 W/m² 2,2 °C 2,9 °C 4,8 km/h (1 Bft)
26.04.2017 05:16 3,0 °C 3,0 °C 95 % 1005,0 hPa 0,0 mm 2,4 km/h (1 Bft) O-NO 71 ° 0 min 0,000 mm 0,0 UV-I 0 W/m² 2,3 °C 3,0 °C 4,8 km/h (1 Bft)
26.04.2017 05:17 2,9 °C 3,0 °C 95 % 1005,0 hPa 0,0 mm 2,3 km/h (1 Bft) O-NO 71 ° 0 min 0,000 mm 0,0 UV-I 0 W/m² 2,2 °C 2,9 °C 4,8 km/h (1 Bft)
26.04.2017 05:18 2,9 °C 3,0 °C 95 % 1005,0 hPa 0,0 mm 3,8 km/h (1 Bft) O-NO 71 ° 0 min 0,000 mm 0,0 UV-I 0 W/m² 2,2 °C 2,9 °C 6,4 km/h (2 Bft)
26.04.2017 05:19 2,9 °C 2,9 °C 95 % 1005,0 hPa 0,0 mm 3,5 km/h (1 Bft) O-NO 71 ° 0 min 0,000 mm 0,0 UV-I 0 W/m² 2,2 °C 2,9 °C 4,8 km/h (1 Bft)
26.04.2017 05:20 2,9 °C 2,9 °C 95 % 1004,9 hPa 0,0 mm 1,0 km/h (0 Bft) O-NO 71 ° 0 min 0,000 mm 0,0 UV-I 0 W/m² 2,2 °C 2,9 °C 1,6 km/h (1 Bft)
26.04.2017 05:21 2,9 °C 2,9 °C 95 % 1005,0 hPa 0,0 mm 0,0 km/h (0 Bft) O-NO 71 ° 0 min 0,000 mm 0,0 UV-I 0 W/m² 2,2 °C 2,9 °C 0,0 km/h (0 Bft)
26.04.2017 05:22 2,9 °C 2,9 °C 95 % 1005,0 hPa 0,0 mm 3,0 km/h (1 Bft) O-NO 70 ° 0 min 0,000 mm 0,0 UV-I 0 W/m² 2,2 °C 2,9 °C 4,8 km/h (1 Bft)
26.04.2017 05:23 2,9 °C 2,9 °C 95 % 1005,0 hPa 0,0 mm 3,0 km/h (1 Bft) O-NO 70 ° 0 min 0,000 mm 0,0 UV-I 0 W/m² 2,2 °C 2,9 °C 4,8 km/h (1 Bft)
26.04.2017 05:24 2,9 °C 2,9 °C 95 % 1004,9 hPa 0,0 mm 0,7 km/h (0 Bft) O-NO 70 ° 0 min 0,000 mm 0,0 UV-I 0 W/m² 2,2 °C 2,9 °C 1,6 km/h (1 Bft)
26.04.2017 05:25 2,9 °C 2,9 °C 95 % 1004,9 hPa 0,0 mm 2,9 km/h (1 Bft) O 84 ° 0 min 0,000 mm 0,0 UV-I 0 W/m² 2,2 °C 2,9 °C 4,8 km/h (1 Bft)
26.04.2017 05:26 2,9 °C 2,9 °C 95 % 1005,0 hPa 0,2 mm 0,8 km/h (0 Bft) O 84 ° 0 min 0,000 mm 0,0 UV-I 0 W/m² 2,2 °C 2,9 °C 1,6 km/h (1 Bft)
26.04.2017 05:27 2,9 °C 2,9 °C 95 % 1005,0 hPa 0,0 mm 3,0 km/h (1 Bft) O 84 ° 0 min 0,000 mm 0,0 UV-I 0 W/m² 2,2 °C 2,9 °C 4,8 km/h (1 Bft)
26.04.2017 05:28 2,9 °C 2,9 °C 95 % 1004,9 hPa 0,0 mm 1,6 km/h (1 Bft) O 84 ° 0 min 0,000 mm 0,0 UV-I 0 W/m² 2,2 °C 2,9 °C 3,2 km/h (1 Bft)
26.04.2017 05:29 2,9 °C 2,9 °C 95 % 1004,9 hPa 0,0 mm 3,8 km/h (1 Bft) O 84 ° 0 min 0,000 mm 0,0 UV-I 0 W/m² 2,2 °C 2,9 °C 4,8 km/h (1 Bft)
26.04.2017 05:30 2,9 °C 2,9 °C 95 % 1004,9 hPa 0,0 mm 3,0 km/h (1 Bft) O 84 ° 0 min 0,000 mm 0,0 UV-I 0 W/m² 2,2 °C 2,9 °C 4,8 km/h (1 Bft)
26.04.2017 05:31 2,9 °C 2,9 °C 95 % 1004,9 hPa 0,0 mm 4,6 km/h (1 Bft) O 94 ° 0 min 0,000 mm 0,0 UV-I 0 W/m² 2,2 °C 1,9 °C 6,4 km/h (2 Bft)
26.04.2017 05:32 2,9 °C 2,9 °C 95 % 1004,9 hPa 0,0 mm 3,8 km/h (1 Bft) O-NO 77 ° 0 min 0,000 mm 0,0 UV-I 0 W/m² 2,2 °C 2,9 °C 4,8 km/h (1 Bft)
26.04.2017 05:33 2,9 °C 2,9 °C 95 % 1004,9 hPa 0,0 mm 3,6 km/h (1 Bft) O-NO 59 ° 0 min 0,000 mm 0,0 UV-I 0 W/m² 2,2 °C 2,9 °C 4,8 km/h (1 Bft)
26.04.2017 05:34 2,9 °C 2,9 °C 95 % 1004,9 hPa 0,0 mm 2,0 km/h (1 Bft) O-NO 59 ° 0 min 0,000 mm 0,0 UV-I 0 W/m² 2,2 °C 2,9 °C 3,2 km/h (1 Bft)
26.04.2017 05:35 2,9 °C 2,9 °C 95 % 1004,9 hPa 0,0 mm 0,8 km/h (0 Bft) O-NO 59 ° 0 min 0,000 mm 0,0 UV-I 0 W/m² 2,2 °C 2,9 °C 3,2 km/h (1 Bft)
26.04.2017 05:36 2,9 °C 2,9 °C 95 % 1004,9 hPa 0,0 mm 0,2 km/h (0 Bft) O-NO 59 ° 0 min 0,000 mm 0,0 UV-I 0 W/m² 2,2 °C 2,9 °C 1,6 km/h (1 Bft)
26.04.2017 05:37 2,9 °C 2,9 °C 95 % 1004,9 hPa 0,0 mm 1,4 km/h (1 Bft) O-NO 59 ° 0 min 0,000 mm 0,0 UV-I 0 W/m² 2,2 °C 2,9 °C 3,2 km/h (1 Bft)
26.04.2017 05:38 2,9 °C 2,9 °C 95 % 1004,9 hPa 0,0 mm 1,6 km/h (1 Bft) O-NO 59 ° 0 min 0,000 mm 0,0 UV-I 0 W/m² 2,2 °C 2,9 °C 3,2 km/h (1 Bft)
26.04.2017 05:39 2,9 °C 2,9 °C 95 % 1004,9 hPa 0,0 mm 2,7 km/h (1 Bft) O-NO 69 ° 0 min 0,000 mm 0,0 UV-I 0 W/m² 2,2 °C 2,9 °C 4,8 km/h (1 Bft)
26.04.2017 05:40 2,9 °C 2,9 °C 95 % 1004,9 hPa 0,0 mm 2,2 km/h (1 Bft) O-NO 59 ° 0 min 0,000 mm 0,0 UV-I 0 W/m² 2,2 °C 2,9 °C 4,8 km/h (1 Bft)
26.04.2017 05:41 2,9 °C 2,9 °C 95 % 1004,9 hPa 0,0 mm 3,1 km/h (1 Bft) O-NO 59 ° 0 min 0,000 mm 0,0 UV-I 0 W/m² 2,2 °C 2,9 °C 4,8 km/h (1 Bft)
26.04.2017 05:42 2,9 °C 2,9 °C 95 % 1004,9 hPa 0,0 mm 3,6 km/h (1 Bft) O-NO 78 ° 0 min 0,000 mm 0,0 UV-I 0 W/m² 2,2 °C 2,9 °C 6,4 km/h (2 Bft)
26.04.2017 05:43 2,9 °C 2,9 °C 95 % 1004,9 hPa 0,0 mm 3,1 km/h (1 Bft) O 84 ° 0 min 0,000 mm 0,0 UV-I 0 W/m² 2,2 °C 2,9 °C 4,8 km/h (1 Bft)
26.04.2017 05:44 2,9 °C 2,9 °C 95 % 1004,9 hPa 0,0 mm 4,6 km/h (1 Bft) O-NO 72 ° 0 min 0,000 mm 0,0 UV-I 0 W/m² 2,2 °C 1,9 °C 6,4 km/h (2 Bft)
26.04.2017 05:45 2,9 °C 2,9 °C 95 % 1004,8 hPa 0,0 mm 4,8 km/h (1 Bft) O-NO 68 ° 0 min 0,000 mm 0,0 UV-I 0 W/m² 2,2 °C 1,8 °C 6,4 km/h (2 Bft)
26.04.2017 05:46 2,8 °C 2,9 °C 95 % 1004,8 hPa 0,0 mm 7,4 km/h (2 Bft) O-NO 61 ° 0 min 0,000 mm 0,0 UV-I 0 W/m² 2,1 °C 0,7 °C 11,3 km/h (2 Bft)
26.04.2017 05:47 2,8 °C 2,8 °C 95 % 1004,7 hPa 0,0 mm 5,7 km/h (1 Bft) O-NO 58 ° 0 min 0,000 mm 0,0 UV-I 0 W/m² 2,1 °C 1,3 °C 8,0 km/h (2 Bft)
26.04.2017 05:48 2,8 °C 2,8 °C 95 % 1004,8 hPa 0,0 mm 4,7 km/h (1 Bft) NO 44 ° 0 min 0,000 mm 0,0 UV-I 0 W/m² 2,1 °C 1,7 °C 6,4 km/h (2 Bft)
26.04.2017 05:49 2,8 °C 2,8 °C 95 % 1004,8 hPa 0,0 mm 5,2 km/h (1 Bft) NO 52 ° 0 min 0,000 mm 0,0 UV-I 0 W/m² 2,1 °C 1,5 °C 6,4 km/h (2 Bft)
26.04.2017 05:50 2,8 °C 2,8 °C 95 % 1004,8 hPa 0,0 mm 5,9 km/h (2 Bft) NO 38 ° 0 min 0,000 mm 0,0 UV-I 0 W/m² 2,1 °C 1,2 °C 6,4 km/h (2 Bft)
26.04.2017 05:51 2,8 °C 2,8 °C 95 % 1004,8 hPa 0,0 mm 4,0 km/h (1 Bft) O 92 ° 0 min 0,000 mm 0,0 UV-I 0 W/m² 2,1 °C 2,8 °C 6,4 km/h (2 Bft)
26.04.2017 05:52 2,8 °C 2,8 °C 95 % 1004,8 hPa 0,0 mm 5,7 km/h (1 Bft) NO 52 ° 0 min 0,000 mm 0,0 UV-I 0 W/m² 2,1 °C 1,3 °C 8,0 km/h (2 Bft)
26.04.2017 05:53 2,7 °C 2,8 °C 95 % 1004,8 hPa 0,0 mm 2,7 km/h (1 Bft) O 92 ° 0 min 0,000 mm 0,0 UV-I 0 W/m² 2,0 °C 2,7 °C 6,4 km/h (2 Bft)
26.04.2017 05:54 2,7 °C 2,8 °C 95 % 1004,8 hPa 0,0 mm 3,1 km/h (1 Bft) O 82 ° 0 min 0,000 mm 0,0 UV-I 0 W/m² 2,0 °C 2,7 °C 4,8 km/h (1 Bft)
26.04.2017 05:55 2,7 °C 2,8 °C 95 % 1004,7 hPa 0,0 mm 3,6 km/h (1 Bft) O-NO 74 ° 0 min 0,000 mm 0,0 UV-I 0 W/m² 2,0 °C 2,7 °C 6,4 km/h (2 Bft)
26.04.2017 05:56 2,7 °C 2,7 °C 95 % 1004,7 hPa 0,0 mm 4,4 km/h (1 Bft) O 83 ° 0 min 0,000 mm 0,0 UV-I 0 W/m² 2,0 °C 2,7 °C 6,4 km/h (2 Bft)
26.04.2017 05:57 2,7 °C 2,7 °C 95 % 1004,7 hPa 0,0 mm 2,9 km/h (1 Bft) NO 44 ° 0 min 0,000 mm 0,0 UV-I 0 W/m² 2,0 °C 2,7 °C 4,8 km/h (1 Bft)
26.04.2017 05:58 2,7 °C 2,8 °C 95 % 1004,7 hPa 0,0 mm 4,9 km/h (1 Bft) NO 49 ° 0 min 0,000 mm 0,0 UV-I 0 W/m² 2,0 °C 1,5 °C 6,4 km/h (2 Bft)
26.04.2017 05:59 2,7 °C 2,8 °C 95 % 1004,7 hPa 0,0 mm 3,1 km/h (1 Bft) O-NO 63 ° 0 min 0,000 mm 0,0 UV-I 0 W/m² 2,0 °C 2,7 °C 4,8 km/h (1 Bft)
26.04.2017 06:00 2,7 °C 2,8 °C 95 % 1004,7 hPa 0,0 mm 3,5 km/h (1 Bft) O-NO 63 ° 0 min 0,000 mm 0,0 UV-I 0 W/m² 2,0 °C 2,7 °C 4,8 km/h (1 Bft)
26.04.2017 06:01 2,7 °C 2,7 °C 95 % 1004,7 hPa 0,0 mm 2,8 km/h (1 Bft) O-NO 63 ° 0 min 0,000 mm 0,0 UV-I 0 W/m² 2,0 °C 2,7 °C 6,4 km/h (2 Bft)
26.04.2017 06:02 2,7 °C 2,7 °C 95 % 1004,7 hPa 0,0 mm 3,6 km/h (1 Bft) NO 55 ° 0 min 0,000 mm 0,0 UV-I 0 W/m² 2,0 °C 2,7 °C 6,4 km/h (2 Bft)
26.04.2017 06:03 2,7 °C 2,7 °C 95 % 1004,7 hPa 0,0 mm 5,5 km/h (1 Bft) O-NO 71 ° 0 min 0,000 mm 0,0 UV-I 0 W/m² 2,0 °C 1,3 °C 8,0 km/h (2 Bft)
26.04.2017 06:04 2,7 °C 2,7 °C 95 % 1004,7 hPa 0,0 mm 5,5 km/h (1 Bft) NO 50 ° 0 min 0,000 mm 0,0 UV-I 0 W/m² 2,0 °C 1,3 °C 11,3 km/h (2 Bft)
26.04.2017 06:05 2,7 °C 2,7 °C 95 % 1004,7 hPa 0,0 mm 4,0 km/h (1 Bft) O-NO 73 ° 0 min 0,000 mm 0,0 UV-I 0 W/m² 2,0 °C 2,7 °C 6,4 km/h (2 Bft)
26.04.2017 06:06 2,7 °C 2,7 °C 95 % 1004,7 hPa 0,0 mm 3,8 km/h (1 Bft) O-NO 75 ° 0 min 0,000 mm 0,0 UV-I 0 W/m² 2,0 °C 2,7 °C 4,8 km/h (1 Bft)
26.04.2017 06:07 2,7 °C 2,7 °C 95 % 1004,8 hPa 0,0 mm 4,5 km/h (1 Bft) NO 51 ° 0 min 0,000 mm 0,0 UV-I 0 W/m² 2,0 °C 2,7 °C 8,0 km/h (2 Bft)
26.04.2017 06:08 2,7 °C 2,7 °C 95 % 1004,8 hPa 0,0 mm 5,1 km/h (1 Bft) O-NO 76 ° 0 min 0,000 mm 0,0 UV-I 0 W/m² 2,0 °C 1,4 °C 6,4 km/h (2 Bft)
26.04.2017 06:09 2,7 °C 2,7 °C 95 % 1004,8 hPa 0,0 mm 4,8 km/h (1 Bft) O-NO 74 ° 0 min 0,000 mm 0,0 UV-I 0 W/m² 2,0 °C 1,6 °C 8,0 km/h (2 Bft)
26.04.2017 06:10 2,7 °C 2,7 °C 95 % 1004,8 hPa 0,0 mm 4,2 km/h (1 Bft) O-NO 68 ° 0 min 0,000 mm 0,0 UV-I 0 W/m² 2,0 °C 2,7 °C 6,4 km/h (2 Bft)
26.04.2017 06:11 2,7 °C 2,7 °C 95 % 1004,8 hPa 0,0 mm 2,7 km/h (1 Bft) O-NO 64 ° 0 min 0,000 mm 0,0 UV-I 0 W/m² 2,0 °C 2,7 °C 3,2 km/h (1 Bft)
26.04.2017 06:12 2,7 °C 2,7 °C 95 % 1004,7 hPa 0,0 mm 3,9 km/h (1 Bft) O-NO 61 ° 0 min 0,000 mm 0,0 UV-I 0 W/m² 2,0 °C 2,7 °C 6,4 km/h (2 Bft)
26.04.2017 06:13 2,7 °C 2,7 °C 95 % 1004,7 hPa 0,0 mm 3,8 km/h (1 Bft) O-NO 76 ° 0 min 0,000 mm 0,0 UV-I 0 W/m² 2,0 °C 2,7 °C 6,4 km/h (2 Bft)
26.04.2017 06:14 2,7 °C 2,7 °C 95 % 1004,7 hPa 0,0 mm 5,0 km/h (1 Bft) O-NO 59 ° 0 min 0,000 mm 0,0 UV-I 0 W/m² 2,0 °C 1,5 °C 8,0 km/h (2 Bft)
26.04.2017 06:15 2,7 °C 2,7 °C 95 % 1004,7 hPa 0,0 mm 5,2 km/h (1 Bft) O-NO 78 ° 0 min 0,000 mm 0,0 UV-I 0 W/m² 2,0 °C 1,4 °C 6,4 km/h (2 Bft)
26.04.2017 06:16 2,7 °C 2,7 °C 95 % 1004,7 hPa 0,0 mm 2,5 km/h (1 Bft) O-NO 78 ° 0 min 0,000 mm 0,0 UV-I 0 W/m² 2,0 °C 2,7 °C 3,2 km/h (1 Bft)
26.04.2017 06:17 2,7 °C 2,7 °C 95 % 1004,7 hPa 0,0 mm 2,3 km/h (1 Bft) O 81 ° 0 min 0,000 mm 0,0 UV-I 0 W/m² 2,0 °C 2,7 °C 4,8 km/h (1 Bft)
26.04.2017 06:18 2,7 °C 2,7 °C 95 % 1004,7 hPa 0,0 mm 5,1 km/h (1 Bft) NO 46 ° 0 min 0,000 mm 0,0 UV-I 0 W/m² 2,0 °C 1,4 °C 6,4 km/h (2 Bft)
26.04.2017 06:19 2,7 °C 2,7 °C 95 % 1004,7 hPa 0,0 mm 3,9 km/h (1 Bft) O-NO 74 ° 0 min 0,000 mm 0,0 UV-I 0 W/m² 2,0 °C 2,7 °C 6,4 km/h (2 Bft)
26.04.2017 06:20 2,7 °C 2,7 °C 95 % 1004,7 hPa 0,0 mm 4,0 km/h (1 Bft) NO 53 ° 0 min 0,000 mm 0,0 UV-I 0 W/m² 2,0 °C 2,7 °C 6,4 km/h (2 Bft)
26.04.2017 06:21 2,7 °C 2,7 °C 95 % 1004,7 hPa 0,0 mm 5,4 km/h (1 Bft) O-NO 73 ° 0 min 0,000 mm 0,0 UV-I 0 W/m² 2,0 °C 1,3 °C 11,3 km/h (2 Bft)
26.04.2017 06:22 2,7 °C 2,7 °C 95 % 1004,7 hPa 0,0 mm 6,5 km/h (2 Bft) O 90 ° 0 min 0,000 mm 0,0 UV-I 0 W/m² 2,0 °C 0,9 °C 8,0 km/h (2 Bft)
26.04.2017 06:23 2,7 °C 2,7 °C 95 % 1004,7 hPa 0,0 mm 5,1 km/h (1 Bft) O 86 ° 0 min 0,000 mm 0,0 UV-I 0 W/m² 2,0 °C 1,4 °C 6,4 km/h (2 Bft)
26.04.2017 06:24 2,7 °C 2,7 °C 95 % 1004,7 hPa 0,0 mm 3,6 km/h (1 Bft) O-NO 78 ° 0 min 0,000 mm 0,0 UV-I 0 W/m² 2,0 °C 2,7 °C 4,8 km/h (1 Bft)
26.04.2017 06:25 2,7 °C 2,7 °C 95 % 1004,8 hPa 0,0 mm 4,1 km/h (1 Bft) O 81 ° 0 min 0,000 mm 0,0 UV-I 0 W/m² 2,0 °C 2,7 °C 6,4 km/h (2 Bft)
26.04.2017 06:26 2,7 °C 2,7 °C 95 % 1004,8 hPa 0,0 mm 4,4 km/h (1 Bft) O 86 ° 0 min 0,000 mm 0,0 UV-I 0 W/m² 2,0 °C 2,7 °C 6,4 km/h (2 Bft)
26.04.2017 06:27 2,7 °C 2,7 °C 95 % 1004,8 hPa 0,0 mm 4,6 km/h (1 Bft) O-NO 59 ° 0 min 0,000 mm 0,0 UV-I 0 W/m² 2,0 °C 1,7 °C 6,4 km/h (2 Bft)
26.04.2017 06:28 2,6 °C 2,7 °C 95 % 1004,7 hPa 0,0 mm 6,2 km/h (2 Bft) NO 45 ° 0 min 0,000 mm 0,0 UV-I 0 W/m² 1,9 °C 0,9 °C 8,0 km/h (2 Bft)
26.04.2017 06:29 2,6 °C 2,7 °C 95 % 1004,8 hPa 0,0 mm 6,3 km/h (2 Bft) O-NO 59 ° 0 min 0,000 mm 0,0 UV-I 0 W/m² 1,9 °C 0,9 °C 8,0 km/h (2 Bft)
26.04.2017 06:30 2,6 °C 2,6 °C 95 % 1004,8 hPa 0,0 mm 4,8 km/h (1 Bft) O-NO 75 ° 0 min 0,000 mm 0,0 UV-I 0 W/m² 1,9 °C 1,4 °C 6,4 km/h (2 Bft)
26.04.2017 06:31 2,6 °C 2,7 °C 95 % 1004,8 hPa 0,0 mm 4,7 km/h (1 Bft) O 95 ° 0 min 0,000 mm 0,0 UV-I 0 W/m² 1,9 °C 1,5 °C 6,4 km/h (2 Bft)
26.04.2017 06:32 2,6 °C 2,7 °C 95 % 1004,7 hPa 0,0 mm 5,9 km/h (2 Bft) O 88 ° 0 min 0,000 mm 0,0 UV-I 0 W/m² 1,9 °C 1,0 °C 8,0 km/h (2 Bft)
26.04.2017 06:33 2,7 °C 2,7 °C 95 % 1004,7 hPa 0,0 mm 3,6 km/h (1 Bft) O 87 ° 0 min 0,000 mm 0,0 UV-I 0 W/m² 2,0 °C 2,7 °C 6,4 km/h (2 Bft)
26.04.2017 06:34 2,6 °C 2,7 °C 95 % 1004,8 hPa 0,0 mm 4,1 km/h (1 Bft) NO 52 ° 0 min 0,000 mm 0,0 UV-I 5 W/m² 1,9 °C 2,6 °C 4,8 km/h (1 Bft)
26.04.2017 06:35 2,7 °C 2,7 °C 95 % 1004,8 hPa 0,0 mm 4,9 km/h (1 Bft) O-NO 66 ° 0 min 0,000 mm 0,0 UV-I 5 W/m² 2,0 °C 1,5 °C 6,4 km/h (2 Bft)
26.04.2017 06:36 2,7 °C 2,7 °C 95 % 1004,7 hPa 0,0 mm 5,4 km/h (1 Bft) NO 44 ° 0 min 0,000 mm 0,0 UV-I 5 W/m² 2,0 °C 1,3 °C 8,0 km/h (2 Bft)
26.04.2017 06:37 2,6 °C 2,7 °C 95 % 1004,7 hPa 0,0 mm 2,7 km/h (1 Bft) NO 51 ° 0 min 0,000 mm 0,0 UV-I 5 W/m² 1,9 °C 2,6 °C 4,8 km/h (1 Bft)
26.04.2017 06:38 2,6 °C 2,6 °C 96 % 1004,8 hPa 0,0 mm 1,3 km/h (1 Bft) NO 51 ° 0 min 0,000 mm 0,0 UV-I 5 W/m² 2,0 °C 2,6 °C 4,8 km/h (1 Bft)
26.04.2017 06:39 2,6 °C 2,6 °C 96 % 1004,7 hPa 0,0 mm 4,3 km/h (1 Bft) O-NO 76 ° 0 min 0,000 mm 0,0 UV-I 5 W/m² 2,0 °C 2,6 °C 8,0 km/h (2 Bft)
26.04.2017 06:40 2,6 °C 2,7 °C 96 % 1004,8 hPa 0,0 mm 5,8 km/h (2 Bft) O 86 ° 0 min 0,000 mm 0,0 UV-I 5 W/m² 2,0 °C 1,0 °C 8,0 km/h (2 Bft)
26.04.2017 06:41 2,6 °C 2,7 °C 96 % 1004,8 hPa 0,0 mm 5,6 km/h (1 Bft) O-NO 67 ° 0 min 0,000 mm 0,0 UV-I 5 W/m² 2,0 °C 1,1 °C 9,7 km/h (2 Bft)
26.04.2017 06:42 2,6 °C 2,6 °C 96 % 1004,8 hPa 0,0 mm 2,5 km/h (1 Bft) O-NO 67 ° 0 min 0,000 mm 0,0 UV-I 7 W/m² 2,0 °C 2,6 °C 3,2 km/h (1 Bft)
26.04.2017 06:43 2,6 °C 2,6 °C 96 % 1004,8 hPa 0,0 mm 3,8 km/h (1 Bft) O-NO 78 ° 0 min 0,000 mm 0,0 UV-I 7 W/m² 2,0 °C 2,6 °C 6,4 km/h (2 Bft)
26.04.2017 06:44 2,5 °C 2,6 °C 96 % 1004,9 hPa 0,0 mm 4,8 km/h (1 Bft) O 82 ° 0 min 0,000 mm 0,0 UV-I 7 W/m² 1,9 °C 1,3 °C 8,0 km/h (2 Bft)
26.04.2017 06:45 2,5 °C 2,6 °C 96 % 1004,9 hPa 0,0 mm 5,8 km/h (2 Bft) O 82 ° 0 min 0,000 mm 0,0 UV-I 7 W/m² 1,9 °C 0,9 °C 8,0 km/h (2 Bft)
26.04.2017 06:46 2,4 °C 2,5 °C 96 % 1004,8 hPa 0,0 mm 6,6 km/h (2 Bft) O-NO 76 ° 0 min 0,000 mm 0,0 UV-I 9 W/m² 1,8 °C 0,5 °C 9,7 km/h (2 Bft)
26.04.2017 06:47 2,4 °C 2,5 °C 96 % 1004,9 hPa 0,0 mm 5,7 km/h (1 Bft) O-NO 72 ° 0 min 0,000 mm 0,0 UV-I 9 W/m² 1,8 °C 0,8 °C 8,0 km/h (2 Bft)
26.04.2017 06:48 2,4 °C 2,4 °C 95 % 1004,8 hPa 0,0 mm 5,8 km/h (2 Bft) O-NO 77 ° 0 min 0,000 mm 0,0 UV-I 9 W/m² 1,7 °C 0,8 °C 11,3 km/h (2 Bft)
26.04.2017 06:49 2,4 °C 2,4 °C 95 % 1004,9 hPa 0,0 mm 5,6 km/h (1 Bft) O 98 ° 0 min 0,000 mm 0,0 UV-I 9 W/m² 1,7 °C 0,9 °C 8,0 km/h (2 Bft)
26.04.2017 06:50 2,4 °C 2,4 °C 95 % 1004,9 hPa 0,0 mm 5,3 km/h (1 Bft) O-NO 61 ° 0 min 0,000 mm 0,0 UV-I 9 W/m² 1,7 °C 1,0 °C 8,0 km/h (2 Bft)
26.04.2017 06:51 2,4 °C 2,4 °C 95 % 1004,9 hPa 0,0 mm 4,6 km/h (1 Bft) O-NO 72 ° 0 min 0,000 mm 0,0 UV-I 9 W/m² 1,7 °C 1,3 °C 8,0 km/h (2 Bft)
26.04.2017 06:52 2,4 °C 2,4 °C 95 % 1004,9 hPa 0,0 mm 3,9 km/h (1 Bft) O-NO 65 ° 0 min 0,000 mm 0,0 UV-I 9 W/m² 1,7 °C 2,4 °C 4,8 km/h (1 Bft)
26.04.2017 06:53 2,4 °C 2,4 °C 95 % 1005,0 hPa 0,0 mm 4,8 km/h (1 Bft) O-NO 65 ° 0 min 0,000 mm 0,0 UV-I 9 W/m² 1,7 °C 1,2 °C 6,4 km/h (2 Bft)
26.04.2017 06:54 2,4 °C 2,4 °C 96 % 1005,1 hPa 0,0 mm 3,9 km/h (1 Bft) O 90 ° 0 min 0,000 mm 0,0 UV-I 9 W/m² 1,8 °C 2,4 °C 6,4 km/h (2 Bft)
26.04.2017 06:55 2,4 °C 2,4 °C 95 % 1005,1 hPa 0,0 mm 1,6 km/h (1 Bft) O 91 ° 0 min 0,000 mm 0,0 UV-I 9 W/m² 1,7 °C 2,4 °C 3,2 km/h (1 Bft)
26.04.2017 06:56 2,4 °C 2,4 °C 96 % 1005,1 hPa 0,0 mm 1,5 km/h (1 Bft) O 92 ° 0 min 0,000 mm 0,0 UV-I 9 W/m² 1,8 °C 2,4 °C 6,4 km/h (2 Bft)
26.04.2017 06:57 2,4 °C 2,4 °C 96 % 1005,1 hPa 0,0 mm 3,9 km/h (1 Bft) O 81 ° 0 min 0,000 mm 0,0 UV-I 9 W/m² 1,8 °C 2,4 °C 6,4 km/h (2 Bft)
26.04.2017 06:58 2,4 °C 2,4 °C 95 % 1005,1 hPa 0,0 mm 1,0 km/h (0 Bft) O 81 ° 0 min 0,000 mm 0,0 UV-I 11 W/m² 1,7 °C 2,4 °C 3,2 km/h (1 Bft)
26.04.2017 06:59 2,3 °C 2,4 °C 96 % 1005,1 hPa 0,0 mm 3,4 km/h (1 Bft) O 86 ° 0 min 0,000 mm 0,0 UV-I 11 W/m² 1,7 °C 2,3 °C 8,0 km/h (2 Bft)
26.04.2017 07:00 2,4 °C 2,4 °C 96 % 1005,1 hPa 0,0 mm 3,4 km/h (1 Bft) O 86 ° 0 min 0,000 mm 0,0 UV-I 11 W/m² 1,8 °C 2,4 °C 6,4 km/h (2 Bft)
26.04.2017 07:01 2,3 °C 2,4 °C 96 % 1005,1 hPa 0,0 mm 2,7 km/h (1 Bft) O 86 ° 0 min 0,000 mm 0,0 UV-I 11 W/m² 1,7 °C 2,3 °C 6,4 km/h (2 Bft)
26.04.2017 07:02 2,3 °C 2,4 °C 96 % 1005,1 hPa 0,0 mm 3,2 km/h (1 Bft) O 86 ° 0 min 0,000 mm 0,0 UV-I 11 W/m² 1,7 °C 2,3 °C 4,8 km/h (1 Bft)
26.04.2017 07:03 2,3 °C 2,4 °C 96 % 1005,1 hPa 0,0 mm 4,0 km/h (1 Bft) O 86 ° 0 min 0,000 mm 0,0 UV-I 11 W/m² 1,7 °C 2,3 °C 4,8 km/h (1 Bft)
26.04.2017 07:04 2,3 °C 2,4 °C 96 % 1005,2 hPa 0,0 mm 3,6 km/h (1 Bft) O 86 ° 0 min 0,000 mm 0,0 UV-I 12 W/m² 1,7 °C 2,3 °C 4,8 km/h (1 Bft)
26.04.2017 07:05 2,3 °C 2,3 °C 96 % 1005,2 hPa 0,0 mm 2,1 km/h (1 Bft) O 86 ° 0 min 0,000 mm 0,0 UV-I 12 W/m² 1,7 °C 2,3 °C 4,8 km/h (1 Bft)
26.04.2017 07:06 2,3 °C 2,3 °C 96 % 1005,2 hPa 0,0 mm 1,6 km/h (1 Bft) O 84 ° 0 min 0,000 mm 0,0 UV-I 12 W/m² 1,7 °C 2,3 °C 4,8 km/h (1 Bft)
26.04.2017 07:07 2,3 °C 2,3 °C 96 % 1005,3 hPa 0,0 mm 3,4 km/h (1 Bft) O-SO 109 ° 0 min 0,000 mm 0,0 UV-I 14 W/m² 1,7 °C 2,3 °C 4,8 km/h (1 Bft)
26.04.2017 07:08 2,3 °C 2,3 °C 96 % 1005,3 hPa 0,0 mm 4,5 km/h (1 Bft) O-NO 71 ° 0 min 0,000 mm 0,0 UV-I 14 W/m² 1,7 °C 2,3 °C 6,4 km/h (2 Bft)
26.04.2017 07:09 2,3 °C 2,3 °C 96 % 1005,4 hPa 0,0 mm 3,4 km/h (1 Bft) O 84 ° 0 min 0,000 mm 0,0 UV-I 14 W/m² 1,7 °C 2,3 °C 6,4 km/h (2 Bft)
26.04.2017 07:10 2,3 °C 2,3 °C 96 % 1005,3 hPa 0,0 mm 1,8 km/h (1 Bft) O 84 ° 0 min 0,000 mm 0,0 UV-I 16 W/m² 1,7 °C 2,3 °C 3,2 km/h (1 Bft)
26.04.2017 07:11 2,2 °C 2,3 °C 96 % 1005,3 hPa 0,0 mm 1,1 km/h (1 Bft) O 84 ° 0 min 0,000 mm 0,0 UV-I 16 W/m² 1,6 °C 2,2 °C 1,6 km/h (1 Bft)
26.04.2017 07:12 2,2 °C 2,3 °C 96 % 1005,4 hPa 0,0 mm 3,2 km/h (1 Bft) O-NO 77 ° 0 min 0,000 mm 0,0 UV-I 16 W/m² 1,6 °C 2,2 °C 4,8 km/h (1 Bft)
26.04.2017 07:13 2,2 °C 2,2 °C 96 % 1005,5 hPa 0,0 mm 3,3 km/h (1 Bft) O 83 ° 0 min 0,000 mm 0,0 UV-I 16 W/m² 1,6 °C 2,2 °C 4,8 km/h (1 Bft)
26.04.2017 07:14 2,2 °C 2,2 °C 96 % 1005,5 hPa 0,0 mm 5,2 km/h (1 Bft) O-NO 71 ° 0 min 0,000 mm 0,0 UV-I 14 W/m² 1,6 °C 0,8 °C 8,0 km/h (2 Bft)
26.04.2017 07:15 2,2 °C 2,2 °C 96 % 1005,4 hPa 0,0 mm 4,3 km/h (1 Bft) O-NO 72 ° 0 min 0,000 mm 0,0 UV-I 14 W/m² 1,6 °C 2,2 °C 4,8 km/h (1 Bft)
26.04.2017 07:16 2,2 °C 2,2 °C 96 % 1005,4 hPa 0,0 mm 2,5 km/h (1 Bft) O-NO 68 ° 0 min 0,000 mm 0,0 UV-I 14 W/m² 1,6 °C 2,2 °C 3,2 km/h (1 Bft)
26.04.2017 07:17 2,2 °C 2,2 °C 96 % 1005,4 hPa 0,0 mm 4,7 km/h (1 Bft) O-NO 69 ° 0 min 0,000 mm 0,0 UV-I 14 W/m² 1,6 °C 1,0 °C 8,0 km/h (2 Bft)
26.04.2017 07:18 2,2 °C 2,2 °C 96 % 1005,4 hPa 0,0 mm 4,8 km/h (1 Bft) O 85 ° 0 min 0,000 mm 0,0 UV-I 14 W/m² 1,6 °C 1,0 °C 8,0 km/h (2 Bft)
26.04.2017 07:19 2,2 °C 2,2 °C 96 % 1005,4 hPa 0,0 mm 3,4 km/h (1 Bft) O 85 ° 0 min 0,000 mm 0,0 UV-I 14 W/m² 1,6 °C 2,2 °C 6,4 km/h (2 Bft)
26.04.2017 07:20 2,2 °C 2,2 °C 96 % 1005,3 hPa 0,0 mm 1,7 km/h (1 Bft) O 85 ° 0 min 0,000 mm 0,0 UV-I 14 W/m² 1,6 °C 2,2 °C 4,8 km/h (1 Bft)
26.04.2017 07:21 2,1 °C 2,2 °C 96 % 1005,3 hPa 0,0 mm 2,1 km/h (1 Bft) O 85 ° 0 min 0,000 mm 0,0 UV-I 16 W/m² 1,5 °C 2,1 °C 4,8 km/h (1 Bft)
26.04.2017 07:22 2,2 °C 2,2 °C 96 % 1005,3 hPa 0,0 mm 4,1 km/h (1 Bft) NO 43 ° 0 min 0,000 mm 0,0 UV-I 16 W/m² 1,6 °C 2,2 °C 6,4 km/h (2 Bft)
26.04.2017 07:23 2,2 °C 2,2 °C 96 % 1005,4 hPa 0,0 mm 3,9 km/h (1 Bft) O-NO 78 ° 0 min 0,000 mm 0,0 UV-I 18 W/m² 1,6 °C 2,2 °C 6,4 km/h (2 Bft)
26.04.2017 07:24 2,1 °C 2,2 °C 96 % 1005,4 hPa 0,0 mm 6,1 km/h (2 Bft) O-NO 74 ° 0 min 0,000 mm 0,0 UV-I 18 W/m² 1,5 °C 0,4 °C 8,0 km/h (2 Bft)
26.04.2017 07:25 2,1 °C 2,1 °C 96 % 1005,4 hPa 0,0 mm 4,8 km/h (1 Bft) O-NO 60 ° 0 min 0,000 mm 0,0 UV-I 19 W/m² 1,5 °C 0,9 °C 8,0 km/h (2 Bft)
26.04.2017 07:26 2,1 °C 2,1 °C 96 % 1005,4 hPa 0,0 mm 4,8 km/h (1 Bft) O 82 ° 0 min 0,000 mm 0,0 UV-I 19 W/m² 1,5 °C 0,9 °C 6,4 km/h (2 Bft)
26.04.2017 07:27 2,0 °C 2,1 °C 96 % 1005,5 hPa 0,0 mm 4,5 km/h (1 Bft) O-NO 78 ° 0 min 0,000 mm 0,0 UV-I 21 W/m² 1,4 °C 2,0 °C 6,4 km/h (2 Bft)
26.04.2017 07:28 2,0 °C 2,0 °C 96 % 1005,5 hPa 0,0 mm 5,2 km/h (1 Bft) O 82 ° 0 min 0,000 mm 0,0 UV-I 23 W/m² 1,4 °C 0,6 °C 8,0 km/h (2 Bft)
26.04.2017 07:29 1,9 °C 2,0 °C 96 % 1005,6 hPa 0,0 mm 4,6 km/h (1 Bft) O-NO 69 ° 0 min 0,000 mm 0,0 UV-I 23 W/m² 1,3 °C 0,7 °C 9,7 km/h (2 Bft)
26.04.2017 07:30 1,9 °C 1,9 °C 96 % 1005,6 hPa 0,0 mm 4,7 km/h (1 Bft) O-NO 71 ° 0 min 0,000 mm 0,0 UV-I 21 W/m² 1,3 °C 0,7 °C 6,4 km/h (2 Bft)
26.04.2017 07:31 1,9 °C 1,9 °C 96 % 1005,6 hPa 0,0 mm 1,3 km/h (1 Bft) O-NO 63 ° 0 min 0,000 mm 0,0 UV-I 19 W/m² 1,3 °C 1,9 °C 4,8 km/h (1 Bft)
26.04.2017 07:32 1,9 °C 1,9 °C 96 % 1005,7 hPa 0,0 mm 3,8 km/h (1 Bft) O-NO 74 ° 0 min 0,000 mm 0,0 UV-I 19 W/m² 1,3 °C 1,9 °C 4,8 km/h (1 Bft)
26.04.2017 07:33 2,0 °C 2,0 °C 96 % 1005,7 hPa 0,0 mm 4,9 km/h (1 Bft) O 80 ° 0 min 0,000 mm 0,0 UV-I 19 W/m² 1,4 °C 0,7 °C 6,4 km/h (2 Bft)
26.04.2017 07:34 1,9 °C 2,0 °C 96 % 1005,7 hPa 0,0 mm 3,4 km/h (1 Bft) O-NO 57 ° 0 min 0,000 mm 0,0 UV-I 19 W/m² 1,3 °C 1,9 °C 4,8 km/h (1 Bft)
26.04.2017 07:35 1,9 °C 1,9 °C 96 % 1005,6 hPa 0,0 mm 1,3 km/h (1 Bft) O-NO 57 ° 0 min 0,000 mm 0,0 UV-I 19 W/m² 1,3 °C 1,9 °C 3,2 km/h (1 Bft)
26.04.2017 07:36 1,9 °C 1,9 °C 96 % 1005,6 hPa 0,0 mm 0,8 km/h (0 Bft) O-NO 57 ° 0 min 0,000 mm 0,0 UV-I 21 W/m² 1,3 °C 1,9 °C 1,6 km/h (1 Bft)
26.04.2017 07:37 2,0 °C 2,0 °C 96 % 1005,6 hPa 0,0 mm 1,4 km/h (1 Bft) O-NO 57 ° 0 min 0,000 mm 0,0 UV-I 21 W/m² 1,4 °C 2,0 °C 4,8 km/h (1 Bft)
26.04.2017 07:38 2,1 °C 2,1 °C 96 % 1005,6 hPa 0,0 mm 4,1 km/h (1 Bft) O-NO 75 ° 0 min 0,000 mm 0,0 UV-I 21 W/m² 1,5 °C 2,1 °C 4,8 km/h (1 Bft)
26.04.2017 07:39 2,0 °C 2,1 °C 96 % 1005,6 hPa 0,0 mm 5,0 km/h (1 Bft) O-NO 75 ° 0 min 0,000 mm 0,0 UV-I 21 W/m² 1,4 °C 0,7 °C 6,4 km/h (2 Bft)
26.04.2017 07:40 2,0 °C 2,0 °C 96 % 1005,6 hPa 0,0 mm 4,4 km/h (1 Bft) O-NO 75 ° 0 min 0,000 mm 0,0 UV-I 21 W/m² 1,4 °C 2,0 °C 6,4 km/h (2 Bft)
26.04.2017 07:41 1,9 °C 2,0 °C 96 % 1005,6 hPa 0,0 mm 4,1 km/h (1 Bft) O-NO 75 ° 0 min 0,000 mm 0,0 UV-I 23 W/m² 1,3 °C 1,9 °C 6,4 km/h (2 Bft)
26.04.2017 07:42 1,9 °C 1,9 °C 96 % 1005,6 hPa 0,0 mm 2,5 km/h (1 Bft) O-NO 75 ° 0 min 0,000 mm 0,0 UV-I 23 W/m² 1,3 °C 1,9 °C 4,8 km/h (1 Bft)
26.04.2017 07:43 1,9 °C 1,9 °C 96 % 1005,6 hPa 0,0 mm 3,8 km/h (1 Bft) O-NO 65 ° 0 min 0,000 mm 0,0 UV-I 23 W/m² 1,3 °C 1,9 °C 4,8 km/h (1 Bft)
26.04.2017 07:44 1,9 °C 1,9 °C 96 % 1005,6 hPa 0,0 mm 2,2 km/h (1 Bft) O-NO 65 ° 0 min 0,000 mm 0,0 UV-I 23 W/m² 1,3 °C 1,9 °C 4,8 km/h (1 Bft)
26.04.2017 07:45 1,9 °C 1,9 °C 96 % 1005,6 hPa 0,0 mm 2,4 km/h (1 Bft) O-NO 65 ° 0 min 0,000 mm 0,0 UV-I 23 W/m² 1,3 °C 1,9 °C 3,2 km/h (1 Bft)
26.04.2017 07:46 1,9 °C 1,9 °C 96 % 1005,6 hPa 0,0 mm 3,1 km/h (1 Bft) O-NO 65 ° 0 min 0,000 mm 0,0 UV-I 23 W/m² 1,3 °C 1,9 °C 4,8 km/h (1 Bft)
26.04.2017 07:47 2,0 °C 2,0 °C 96 % 1005,6 hPa 0,0 mm 3,9 km/h (1 Bft) O-NO 67 ° 0 min 0,000 mm 0,0 UV-I 23 W/m² 1,4 °C 2,0 °C 6,4 km/h (2 Bft)
26.04.2017 07:48 1,9 °C 2,0 °C 96 % 1005,5 hPa 0,0 mm 5,7 km/h (1 Bft) O-NO 76 ° 0 min 0,000 mm 0,0 UV-I 25 W/m² 1,3 °C 0,3 °C 6,4 km/h (2 Bft)
26.04.2017 07:49 1,9 °C 2,0 °C 96 % 1005,6 hPa 0,0 mm 5,1 km/h (1 Bft) O 79 ° 0 min 0,000 mm 0,0 UV-I 25 W/m² 1,3 °C 0,5 °C 6,4 km/h (2 Bft)
26.04.2017 07:50 1,9 °C 1,9 °C 96 % 1005,6 hPa 0,0 mm 3,8 km/h (1 Bft) NO 55 ° 0 min 0,000 mm 0,0 UV-I 25 W/m² 1,3 °C 1,9 °C 4,8 km/h (1 Bft)
26.04.2017 07:51 1,9 °C 1,9 °C 96 % 1005,6 hPa 0,0 mm 3,4 km/h (1 Bft) O-NO 61 ° 0 min 0,000 mm 0,0 UV-I 26 W/m² 1,3 °C 1,9 °C 4,8 km/h (1 Bft)
26.04.2017 07:52 1,9 °C 1,9 °C 96 % 1005,6 hPa 0,0 mm 3,4 km/h (1 Bft) O-NO 61 ° 0 min 0,000 mm 0,0 UV-I 26 W/m² 1,3 °C 1,9 °C 4,8 km/h (1 Bft)
26.04.2017 07:53 1,9 °C 1,9 °C 96 % 1005,6 hPa 0,0 mm 3,1 km/h (1 Bft) O-NO 69 ° 0 min 0,000 mm 0,0 UV-I 26 W/m² 1,3 °C 1,9 °C 4,8 km/h (1 Bft)
26.04.2017 07:54 1,9 °C 1,9 °C 96 % 1005,6 hPa 0,0 mm 4,5 km/h (1 Bft) O-NO 69 ° 0 min 0,000 mm 0,0 UV-I 26 W/m² 1,3 °C 1,9 °C 6,4 km/h (2 Bft)
26.04.2017 07:55 1,9 °C 1,9 °C 96 % 1005,6 hPa 0,0 mm 4,0 km/h (1 Bft) O-NO 69 ° 0 min 0,000 mm 0,0 UV-I 26 W/m² 1,3 °C 1,9 °C 4,8 km/h (1 Bft)
26.04.2017 07:56 1,9 °C 1,9 °C 96 % 1005,6 hPa 0,0 mm 4,6 km/h (1 Bft) O-NO 73 ° 0 min 0,000 mm 0,0 UV-I 26 W/m² 1,3 °C 0,7 °C 6,4 km/h (2 Bft)
26.04.2017 07:57 1,9 °C 1,9 °C 96 % 1005,6 hPa 0,0 mm 2,7 km/h (1 Bft) O-NO 73 ° 0 min 0,000 mm 0,0 UV-I 26 W/m² 1,3 °C 1,9 °C 4,8 km/h (1 Bft)
26.04.2017 07:58 1,9 °C 1,9 °C 96 % 1005,6 hPa 0,0 mm 1,1 km/h (1 Bft) O-NO 73 ° 0 min 0,000 mm 0,0 UV-I 26 W/m² 1,3 °C 1,9 °C 1,6 km/h (1 Bft)
26.04.2017 07:59 1,9 °C 1,9 °C 96 % 1005,6 hPa 0,0 mm 0,7 km/h (0 Bft) O-NO 73 ° 0 min 0,000 mm 0,0 UV-I 26 W/m² 1,3 °C 1,9 °C 1,6 km/h (1 Bft)
26.04.2017 08:00 1,9 °C 1,9 °C 96 % 1005,6 hPa 0,0 mm 0,6 km/h (0 Bft) O-NO 73 ° 0 min 0,000 mm 0,0 UV-I 26 W/m² 1,3 °C 1,9 °C 1,6 km/h (1 Bft)
26.04.2017 08:01 1,9 °C 1,9 °C 96 % 1005,6 hPa 0,0 mm 0,3 km/h (0 Bft) O-NO 73 ° 0 min 0,000 mm 0,0 UV-I 26 W/m² 1,3 °C 1,9 °C 1,6 km/h (1 Bft)
26.04.2017 08:02 1,9 °C 1,9 °C 96 % 1005,6 hPa 0,0 mm 2,4 km/h (1 Bft) O-NO 73 ° 0 min 0,000 mm 0,0 UV-I 26 W/m² 1,3 °C 1,9 °C 4,8 km/h (1 Bft)
26.04.2017 08:03 1,9 °C 1,9 °C 96 % 1005,6 hPa 0,0 mm 2,8 km/h (1 Bft) O-NO 73 ° 0 min 0,000 mm 0,0 UV-I 28 W/m² 1,3 °C 1,9 °C 4,8 km/h (1 Bft)
26.04.2017 08:04 1,9 °C 1,9 °C 96 % 1005,6 hPa 0,0 mm 3,5 km/h (1 Bft) O-NO 73 ° 0 min 0,000 mm 0,0 UV-I 30 W/m² 1,3 °C 1,9 °C 4,8 km/h (1 Bft)
26.04.2017 08:05 1,8 °C 1,9 °C 96 % 1005,6 hPa 0,0 mm 3,4 km/h (1 Bft) O-NO 73 ° 0 min 0,000 mm 0,0 UV-I 30 W/m² 1,2 °C 1,8 °C 4,8 km/h (1 Bft)
26.04.2017 08:06 1,9 °C 1,9 °C 96 % 1005,5 hPa 0,0 mm 3,9 km/h (1 Bft) O-NO 73 ° 0 min 0,000 mm 0,0 UV-I 32 W/m² 1,3 °C 1,9 °C 4,8 km/h (1 Bft)
26.04.2017 08:07 1,9 °C 1,9 °C 96 % 1005,5 hPa 0,0 mm 3,2 km/h (1 Bft) O-NO 73 ° 0 min 0,000 mm 0,0 UV-I 33 W/m² 1,3 °C 1,9 °C 4,8 km/h (1 Bft)
26.04.2017 08:08 1,8 °C 1,9 °C 96 % 1005,5 hPa 0,0 mm 1,1 km/h (1 Bft) O-NO 73 ° 0 min 0,000 mm 0,0 UV-I 33 W/m² 1,2 °C 1,8 °C 3,2 km/h (1 Bft)
26.04.2017 08:09 1,9 °C 1,9 °C 96 % 1005,5 hPa 0,0 mm 1,8 km/h (1 Bft) O-NO 73 ° 0 min 0,000 mm 0,0 UV-I 35 W/m² 1,3 °C 1,9 °C 3,2 km/h (1 Bft)
26.04.2017 08:10 1,8 °C 1,9 °C 96 % 1005,5 hPa 0,0 mm 1,2 km/h (1 Bft) O-NO 73 ° 0 min 0,000 mm 0,0 UV-I 35 W/m² 1,2 °C 1,8 °C 1,6 km/h (1 Bft)
26.04.2017 08:11 1,9 °C 1,9 °C 96 % 1005,5 hPa 0,0 mm 1,0 km/h (0 Bft) O-NO 73 ° 0 min 0,000 mm 0,0 UV-I 35 W/m² 1,3 °C 1,9 °C 1,6 km/h (1 Bft)
26.04.2017 08:12 1,9 °C 1,9 °C 96 % 1005,5 hPa 0,0 mm 0,0 km/h (0 Bft) O-NO 73 ° 0 min 0,000 mm 0,0 UV-I 33 W/m² 1,3 °C 1,9 °C 0,0 km/h (0 Bft)
26.04.2017 08:13 1,9 °C 1,9 °C 96 % 1005,5 hPa 0,0 mm 0,7 km/h (0 Bft) O-NO 73 ° 0 min 0,000 mm 0,0 UV-I 33 W/m² 1,3 °C 1,9 °C 3,2 km/h (1 Bft)
26.04.2017 08:14 2,0 °C 2,0 °C 96 % 1005,6 hPa 0,0 mm 1,0 km/h (0 Bft) O-NO 73 ° 0 min 0,000 mm 0,0 UV-I 33 W/m² 1,4 °C 2,0 °C 1,6 km/h (1 Bft)
26.04.2017 08:15 2,0 °C 2,0 °C 96 % 1005,6 hPa 0,0 mm 3,3 km/h (1 Bft) N 350 ° 0 min 0,000 mm 0,0 UV-I 33 W/m² 1,4 °C 2,0 °C 4,8 km/h (1 Bft)
26.04.2017 08:16 2,0 °C 2,0 °C 96 % 1005,6 hPa 0,0 mm 2,4 km/h (1 Bft) N 349 ° 0 min 0,000 mm 0,0 UV-I 33 W/m² 1,4 °C 2,0 °C 4,8 km/h (1 Bft)
26.04.2017 08:17 2,0 °C 2,0 °C 96 % 1005,6 hPa 0,0 mm 4,3 km/h (1 Bft) N-NO 17 ° 0 min 0,000 mm 0,0 UV-I 35 W/m² 1,4 °C 2,0 °C 6,4 km/h (2 Bft)
26.04.2017 08:18 2,0 °C 2,1 °C 96 % 1005,6 hPa 0,0 mm 3,8 km/h (1 Bft) N-NO 17 ° 0 min 0,000 mm 0,0 UV-I 35 W/m² 1,4 °C 2,0 °C 6,4 km/h (2 Bft)
26.04.2017 08:19 2,0 °C 2,1 °C 96 % 1005,6 hPa 0,0 mm 2,0 km/h (1 Bft) N-NO 17 ° 0 min 0,000 mm 0,0 UV-I 37 W/m² 1,4 °C 2,0 °C 4,8 km/h (1 Bft)
26.04.2017 08:20 2,0 °C 2,1 °C 96 % 1005,7 hPa 0,0 mm 2,5 km/h (1 Bft) N-NO 17 ° 0 min 0,000 mm 0,0 UV-I 37 W/m² 1,4 °C 2,0 °C 4,8 km/h (1 Bft)
26.04.2017 08:21 2,0 °C 2,1 °C 96 % 1005,7 hPa 0,0 mm 3,6 km/h (1 Bft) N-NO 13 ° 0 min 0,000 mm 0,0 UV-I 37 W/m² 1,4 °C 2,0 °C 6,4 km/h (2 Bft)
26.04.2017 08:22 2,0 °C 2,0 °C 96 % 1005,7 hPa 0,0 mm 2,4 km/h (1 Bft) N-NO 13 ° 0 min 0,000 mm 0,0 UV-I 37 W/m² 1,4 °C 2,0 °C 3,2 km/h (1 Bft)
26.04.2017 08:23 2,1 °C 2,1 °C 96 % 1005,7 hPa 0,0 mm 1,4 km/h (1 Bft) N-NO 13 ° 0 min 0,000 mm 0,0 UV-I 37 W/m² 1,5 °C 2,1 °C 1,6 km/h (1 Bft)
26.04.2017 08:24 2,1 °C 2,1 °C 96 % 1005,8 hPa 0,0 mm 1,4 km/h (1 Bft) N-NO 13 ° 0 min 0,000 mm 0,0 UV-I 37 W/m² 1,5 °C 2,1 °C 3,2 km/h (1 Bft)
26.04.2017 08:25 2,1 °C 2,1 °C 96 % 1005,7 hPa 0,0 mm 0,3 km/h (0 Bft) N-NO 13 ° 0 min 0,000 mm 0,0 UV-I 39 W/m² 1,5 °C 2,1 °C 1,6 km/h (1 Bft)
26.04.2017 08:26 2,1 °C 2,1 °C 96 % 1005,8 hPa 0,0 mm 1,8 km/h (1 Bft) N-NO 13 ° 0 min 0,000 mm 0,0 UV-I 40 W/m² 1,5 °C 2,1 °C 4,8 km/h (1 Bft)
26.04.2017 08:27 2,1 °C 2,1 °C 96 % 1005,7 hPa 0,0 mm 2,6 km/h (1 Bft) N-NO 13 ° 0 min 0,000 mm 0,0 UV-I 42 W/m² 1,5 °C 2,1 °C 3,2 km/h (1 Bft)
26.04.2017 08:28 1,9 °C 2,1 °C 96 % 1005,7 hPa 0,0 mm 3,1 km/h (1 Bft) N-NO 13 ° 0 min 0,000 mm 0,0 UV-I 42 W/m² 1,3 °C 1,9 °C 3,2 km/h (1 Bft)
26.04.2017 08:29 1,9 °C 2,0 °C 96 % 1005,7 hPa 0,0 mm 3,8 km/h (1 Bft) N-NO 13 ° 0 min 0,000 mm 0,0 UV-I 44 W/m² 1,3 °C 1,9 °C 6,4 km/h (2 Bft)
26.04.2017 08:30 1,9 °C 1,9 °C 96 % 1005,7 hPa 0,0 mm 3,2 km/h (1 Bft) N-NO 13 ° 0 min 0,000 mm 0,0 UV-I 44 W/m² 1,3 °C 1,9 °C 6,4 km/h (2 Bft)
26.04.2017 08:31 1,9 °C 1,9 °C 96 % 1005,6 hPa 0,0 mm 3,3 km/h (1 Bft) N-NO 13 ° 0 min 0,000 mm 0,0 UV-I 44 W/m² 1,3 °C 1,9 °C 4,8 km/h (1 Bft)
26.04.2017 08:32 1,9 °C 1,9 °C 96 % 1005,6 hPa 0,0 mm 1,9 km/h (1 Bft) N-NO 13 ° 0 min 0,000 mm 0,0 UV-I 47 W/m² 1,3 °C 1,9 °C 3,2 km/h (1 Bft)
26.04.2017 08:33 1,9 °C 1,9 °C 96 % 1005,6 hPa 0,0 mm 2,1 km/h (1 Bft) N-NO 13 ° 0 min 0,000 mm 0,0 UV-I 47 W/m² 1,3 °C 1,9 °C 3,2 km/h (1 Bft)
26.04.2017 08:34 1,9 °C 1,9 °C 96 % 1005,6 hPa 0,0 mm 0,4 km/h (0 Bft) N-NO 13 ° 0 min 0,000 mm 0,0 UV-I 46 W/m² 1,3 °C 1,9 °C 1,6 km/h (1 Bft)
26.04.2017 08:35 1,9 °C 1,9 °C 96 % 1005,7 hPa 0,0 mm 0,0 km/h (0 Bft) N-NO 13 ° 0 min 0,000 mm 0,0 UV-I 46 W/m² 1,3 °C 1,9 °C 0,0 km/h (0 Bft)
26.04.2017 08:36 1,9 °C 1,9 °C 96 % 1005,7 hPa 0,0 mm 0,0 km/h (0 Bft) N-NO 13 ° 0 min 0,000 mm 0,0 UV-I 46 W/m² 1,3 °C 1,9 °C 0,0 km/h (0 Bft)
26.04.2017 08:37 2,0 °C 2,0 °C 96 % 1005,7 hPa 0,0 mm 0,0 km/h (0 Bft) N-NO 13 ° 0 min 0,000 mm 0,0 UV-I 46 W/m² 1,4 °C 2,0 °C 0,0 km/h (0 Bft)
26.04.2017 08:38 1,9 °C 2,0 °C 96 % 1005,7 hPa 0,0 mm 0,0 km/h (0 Bft) N-NO 13 ° 0 min 0,000 mm 0,0 UV-I 44 W/m² 1,3 °C 1,9 °C 0,0 km/h (0 Bft)
26.04.2017 08:39 1,9 °C 1,9 °C 96 % 1005,7 hPa 0,0 mm 0,3 km/h (0 Bft) N-NO 13 ° 0 min 0,000 mm 0,0 UV-I 44 W/m² 1,3 °C 1,9 °C 1,6 km/h (1 Bft)
26.04.2017 08:40 1,9 °C 1,9 °C 96 % 1005,7 hPa 0,0 mm 1,1 km/h (1 Bft) N-NO 13 ° 0 min 0,000 mm 0,0 UV-I 44 W/m² 1,3 °C 1,9 °C 3,2 km/h (1 Bft)
26.04.2017 08:41 1,9 °C 2,0 °C 96 % 1005,7 hPa 0,0 mm 2,4 km/h (1 Bft) N-NO 13 ° 0 min 0,000 mm 0,0 UV-I 46 W/m² 1,3 °C 1,9 °C 3,2 km/h (1 Bft)
26.04.2017 08:42 2,0 °C 2,0 °C 96 % 1005,6 hPa 0,0 mm 1,3 km/h (1 Bft) N-NO 13 ° 0 min 0,000 mm 0,0 UV-I 44 W/m² 1,4 °C 2,0 °C 3,2 km/h (1 Bft)
26.04.2017 08:43 2,1 °C 2,1 °C 96 % 1005,7 hPa 0,0 mm 3,6 km/h (1 Bft) N-NO 13 ° 0 min 0,000 mm 0,0 UV-I 44 W/m² 1,5 °C 2,1 °C 4,8 km/h (1 Bft)
26.04.2017 08:44 2,0 °C 2,1 °C 96 % 1005,8 hPa 0,0 mm 3,2 km/h (1 Bft) N-NO 13 ° 0 min 0,000 mm 0,0 UV-I 42 W/m² 1,4 °C 2,0 °C 4,8 km/h (1 Bft)
26.04.2017 08:45 2,0 °C 2,0 °C 96 % 1005,8 hPa 0,0 mm 2,8 km/h (1 Bft) N-NO 12 ° 0 min 0,000 mm 0,0 UV-I 42 W/m² 1,4 °C 2,0 °C 4,8 km/h (1 Bft)
26.04.2017 08:46 1,9 °C 2,0 °C 96 % 1005,8 hPa 0,0 mm 2,0 km/h (1 Bft) N-NO 12 ° 0 min 0,000 mm 0,0 UV-I 42 W/m² 1,3 °C 1,9 °C 3,2 km/h (1 Bft)
26.04.2017 08:47 1,9 °C 1,9 °C 96 % 1005,8 hPa 0,0 mm 0,8 km/h (0 Bft) N-NO 12 ° 0 min 0,000 mm 0,0 UV-I 42 W/m² 1,3 °C 1,9 °C 3,2 km/h (1 Bft)
26.04.2017 08:48 1,9 °C 1,9 °C 96 % 1005,8 hPa 0,0 mm 1,3 km/h (1 Bft) N-NO 12 ° 0 min 0,000 mm 0,0 UV-I 42 W/m² 1,3 °C 1,9 °C 3,2 km/h (1 Bft)
26.04.2017 08:49 1,9 °C 1,9 °C 96 % 1005,8 hPa 0,0 mm 1,5 km/h (1 Bft) N-NO 12 ° 0 min 0,000 mm 0,0 UV-I 44 W/m² 1,3 °C 1,9 °C 3,2 km/h (1 Bft)
26.04.2017 08:50 1,9 °C 1,9 °C 96 % 1005,8 hPa 0,0 mm 2,4 km/h (1 Bft) N-NO 12 ° 0 min 0,000 mm 0,0 UV-I 46 W/m² 1,3 °C 1,9 °C 3,2 km/h (1 Bft)
26.04.2017 08:51 1,9 °C 1,9 °C 96 % 1005,8 hPa 0,0 mm 2,3 km/h (1 Bft) N-NO 12 ° 0 min 0,000 mm 0,0 UV-I 47 W/m² 1,3 °C 1,9 °C 3,2 km/h (1 Bft)
26.04.2017 08:52 1,9 °C 1,9 °C 96 % 1005,8 hPa 0,0 mm 2,0 km/h (1 Bft) N-NO 12 ° 0 min 0,000 mm 0,0 UV-I 49 W/m² 1,3 °C 1,9 °C 3,2 km/h (1 Bft)
26.04.2017 08:53 1,9 °C 2,0 °C 96 % 1005,8 hPa 0,0 mm 3,4 km/h (1 Bft) N-NO 12 ° 0 min 0,000 mm 0,0 UV-I 51 W/m² 1,3 °C 1,9 °C 6,4 km/h (2 Bft)
26.04.2017 08:54 1,9 °C 1,9 °C 96 % 1005,8 hPa 0,0 mm 3,6 km/h (1 Bft) N-NO 12 ° 0 min 0,000 mm 0,0 UV-I 51 W/m² 1,3 °C 1,9 °C 6,4 km/h (2 Bft)
26.04.2017 08:55 1,9 °C 1,9 °C 96 % 1005,7 hPa 0,0 mm 3,1 km/h (1 Bft) N-NO 12 ° 0 min 0,000 mm 0,0 UV-I 53 W/m² 1,3 °C 1,9 °C 4,8 km/h (1 Bft)
26.04.2017 08:56 1,9 °C 1,9 °C 96 % 1005,7 hPa 0,0 mm 2,5 km/h (1 Bft) N-NO 12 ° 0 min 0,000 mm 0,0 UV-I 53 W/m² 1,3 °C 1,9 °C 4,8 km/h (1 Bft)
26.04.2017 08:57 1,9 °C 1,9 °C 96 % 1005,7 hPa 0,0 mm 1,9 km/h (1 Bft) N-NO 12 ° 0 min 0,000 mm 0,0 UV-I 54 W/m² 1,3 °C 1,9 °C 3,2 km/h (1 Bft)
26.04.2017 08:58 1,9 °C 1,9 °C 96 % 1005,8 hPa 0,0 mm 0,6 km/h (0 Bft) N-NO 12 ° 0 min 0,000 mm 0,0 UV-I 54 W/m² 1,3 °C 1,9 °C 3,2 km/h (1 Bft)
26.04.2017 08:59 1,9 °C 1,9 °C 96 % 1005,8 hPa 0,0 mm 2,7 km/h (1 Bft) N-NO 12 ° 0 min 0,000 mm 0,0 UV-I 56 W/m² 1,3 °C 1,9 °C 3,2 km/h (1 Bft)
26.04.2017 09:00 2,0 °C 2,0 °C 96 % 1005,8 hPa 0,0 mm 2,3 km/h (1 Bft) N-NO 12 ° 0 min 0,025 mm 0,0 UV-I 58 W/m² 1,4 °C 2,0 °C 3,2 km/h (1 Bft)
26.04.2017 09:01 1,9 °C 2,0 °C 96 % 1005,8 hPa 0,0 mm 3,6 km/h (1 Bft) N-NO 12 ° 0 min 0,000 mm 0,0 UV-I 62 W/m² 1,3 °C 1,9 °C 4,8 km/h (1 Bft)
26.04.2017 09:02 1,9 °C 1,9 °C 96 % 1005,8 hPa 0,0 mm 2,8 km/h (1 Bft) N-NO 12 ° 0 min 0,000 mm 0,0 UV-I 65 W/m² 1,3 °C 1,9 °C 3,2 km/h (1 Bft)
26.04.2017 09:03 1,9 °C 1,9 °C 96 % 1005,8 hPa 0,0 mm 3,4 km/h (1 Bft) N-NO 12 ° 0 min 0,000 mm 0,0 UV-I 65 W/m² 1,3 °C 1,9 °C 4,8 km/h (1 Bft)
26.04.2017 09:04 2,0 °C 2,0 °C 96 % 1005,8 hPa 0,0 mm 2,8 km/h (1 Bft) N-NO 33 ° 0 min 0,000 mm 0,0 UV-I 67 W/m² 1,4 °C 2,0 °C 4,8 km/h (1 Bft)
26.04.2017 09:05 1,9 °C 2,0 °C 96 % 1005,8 hPa 0,0 mm 3,6 km/h (1 Bft) O-NO 74 ° 0 min 0,000 mm 0,0 UV-I 65 W/m² 1,3 °C 1,9 °C 4,8 km/h (1 Bft)
26.04.2017 09:06 1,9 °C 1,9 °C 96 % 1005,9 hPa 0,0 mm 3,5 km/h (1 Bft) NO 44 ° 0 min 0,000 mm 0,0 UV-I 63 W/m² 1,3 °C 1,9 °C 4,8 km/h (1 Bft)
26.04.2017 09:07 1,9 °C 1,9 °C 96 % 1005,8 hPa 0,0 mm 1,8 km/h (1 Bft) NO 44 ° 0 min 0,000 mm 0,0 UV-I 62 W/m² 1,3 °C 1,9 °C 3,2 km/h (1 Bft)
26.04.2017 09:08 1,9 °C 1,9 °C 96 % 1005,8 hPa 0,0 mm 0,8 km/h (0 Bft) NO 44 ° 0 min 0,000 mm 0,0 UV-I 60 W/m² 1,3 °C 1,9 °C 3,2 km/h (1 Bft)
26.04.2017 09:09 1,9 °C 1,9 °C 96 % 1005,8 hPa 0,0 mm 1,5 km/h (1 Bft) NO 44 ° 0 min 0,000 mm 0,0 UV-I 60 W/m² 1,3 °C 1,9 °C 3,2 km/h (1 Bft)
26.04.2017 09:10 1,8 °C 1,9 °C 96 % 1005,8 hPa 0,0 mm 2,0 km/h (1 Bft) NO 44 ° 0 min 0,000 mm 0,0 UV-I 60 W/m² 1,2 °C 1,8 °C 3,2 km/h (1 Bft)
26.04.2017 09:11 1,9 °C 1,9 °C 96 % 1005,8 hPa 0,0 mm 3,0 km/h (1 Bft) NO 44 ° 0 min 0,000 mm 0,0 UV-I 60 W/m² 1,3 °C 1,9 °C 3,2 km/h (1 Bft)
26.04.2017 09:12 1,9 °C 1,9 °C 96 % 1005,8 hPa 0,0 mm 2,5 km/h (1 Bft) NO 44 ° 0 min 0,000 mm 0,0 UV-I 60 W/m² 1,3 °C 1,9 °C 3,2 km/h (1 Bft)
26.04.2017 09:13 1,9 °C 1,9 °C 96 % 1005,9 hPa 0,0 mm 2,6 km/h (1 Bft) NO 44 ° 0 min 0,000 mm 0,0 UV-I 62 W/m² 1,3 °C 1,9 °C 4,8 km/h (1 Bft)
26.04.2017 09:14 1,9 °C 1,9 °C 96 % 1005,9 hPa 0,0 mm 2,2 km/h (1 Bft) NO 44 ° 0 min 0,000 mm 0,0 UV-I 63 W/m² 1,3 °C 1,9 °C 3,2 km/h (1 Bft)
26.04.2017 09:15 1,9 °C 1,9 °C 96 % 1005,9 hPa 0,0 mm 2,1 km/h (1 Bft) NO 44 ° 0 min 0,000 mm 0,0 UV-I 63 W/m² 1,3 °C 1,9 °C 3,2 km/h (1 Bft)
26.04.2017 09:16 1,8 °C 1,9 °C 96 % 1005,9 hPa 0,0 mm 1,0 km/h (0 Bft) NO 44 ° 0 min 0,000 mm 0,0 UV-I 63 W/m² 1,2 °C 1,8 °C 3,2 km/h (1 Bft)
26.04.2017 09:17 1,8 °C 1,8 °C 96 % 1005,9 hPa 0,0 mm 2,0 km/h (1 Bft) NO 44 ° 0 min 0,000 mm 0,0 UV-I 63 W/m² 1,2 °C 1,8 °C 3,2 km/h (1 Bft)
26.04.2017 09:18 1,8 °C 1,8 °C 96 % 1005,9 hPa 0,0 mm 2,6 km/h (1 Bft) NO 44 ° 0 min 0,000 mm 0,0 UV-I 63 W/m² 1,2 °C 1,8 °C 4,8 km/h (1 Bft)
26.04.2017 09:19 1,8 °C 1,8 °C 96 % 1005,9 hPa 0,0 mm 1,9 km/h (1 Bft) NO 44 ° 0 min 0,000 mm 0,0 UV-I 65 W/m² 1,2 °C 1,8 °C 3,2 km/h (1 Bft)
26.04.2017 09:20 1,8 °C 1,8 °C 96 % 1005,9 hPa 0,0 mm 3,3 km/h (1 Bft) O-NO 67 ° 0 min 0,000 mm 0,0 UV-I 67 W/m² 1,2 °C 1,8 °C 4,8 km/h (1 Bft)
26.04.2017 09:21 1,8 °C 1,8 °C 96 % 1005,9 hPa 0,0 mm 3,8 km/h (1 Bft) O-NO 67 ° 0 min 0,000 mm 0,5 UV-I 69 W/m² 1,2 °C 1,8 °C 4,8 km/h (1 Bft)
26.04.2017 09:22 1,8 °C 1,8 °C 96 % 1005,9 hPa 0,0 mm 3,1 km/h (1 Bft) O-NO 67 ° 0 min 0,000 mm 0,5 UV-I 69 W/m² 1,2 °C 1,8 °C 3,2 km/h (1 Bft)
26.04.2017 09:23 1,8 °C 1,8 °C 96 % 1005,9 hPa 0,0 mm 1,0 km/h (0 Bft) O-NO 67 ° 0 min 0,000 mm 0,5 UV-I 70 W/m² 1,2 °C 1,8 °C 3,2 km/h (1 Bft)
26.04.2017 09:24 1,8 °C 1,8 °C 96 % 1005,8 hPa 0,0 mm 0,7 km/h (0 Bft) O-NO 67 ° 0 min 0,000 mm 0,5 UV-I 70 W/m² 1,2 °C 1,8 °C 1,6 km/h (1 Bft)
26.04.2017 09:25 1,8 °C 1,8 °C 96 % 1005,8 hPa 0,0 mm 1,9 km/h (1 Bft) O-NO 67 ° 0 min 0,000 mm 0,5 UV-I 70 W/m² 1,2 °C 1,8 °C 3,2 km/h (1 Bft)
26.04.2017 09:26 1,8 °C 1,8 °C 96 % 1005,9 hPa 0,0 mm 3,8 km/h (1 Bft) O-NO 67 ° 0 min 0,000 mm 0,5 UV-I 70 W/m² 1,2 °C 1,8 °C 4,8 km/h (1 Bft)
26.04.2017 09:27 1,8 °C 1,8 °C 96 % 1005,9 hPa 0,0 mm 2,2 km/h (1 Bft) O-NO 67 ° 0 min 0,000 mm 0,5 UV-I 70 W/m² 1,2 °C 1,8 °C 4,8 km/h (1 Bft)
26.04.2017 09:28 1,8 °C 1,8 °C 96 % 1005,9 hPa 0,0 mm 1,5 km/h (1 Bft) O-NO 67 ° 0 min 0,000 mm 0,5 UV-I 70 W/m² 1,2 °C 1,8 °C 3,2 km/h (1 Bft)
26.04.2017 09:29 1,8 °C 1,8 °C 96 % 1005,9 hPa 0,0 mm 2,9 km/h (1 Bft) O-NO 67 ° 0 min 0,000 mm 0,5 UV-I 70 W/m² 1,2 °C 1,8 °C 4,8 km/h (1 Bft)
26.04.2017 09:30 1,8 °C 1,8 °C 96 % 1005,8 hPa 0,0 mm 2,4 km/h (1 Bft) O-NO 67 ° 0 min 0,000 mm 0,5 UV-I 72 W/m² 1,2 °C 1,8 °C 3,2 km/h (1 Bft)
26.04.2017 09:31 1,8 °C 1,8 °C 96 % 1005,8 hPa 0,0 mm 2,9 km/h (1 Bft) O-NO 67 ° 0 min 0,000 mm 0,5 UV-I 74 W/m² 1,2 °C 1,8 °C 4,8 km/h (1 Bft)
26.04.2017 09:32 1,8 °C 1,8 °C 96 % 1005,8 hPa 0,0 mm 5,1 km/h (1 Bft) O-NO 67 ° 0 min 0,000 mm 0,5 UV-I 76 W/m² 1,2 °C 0,4 °C 6,4 km/h (2 Bft)
26.04.2017 09:33 1,8 °C 1,8 °C 96 % 1005,8 hPa 0,0 mm 1,5 km/h (1 Bft) O-NO 67 ° 0 min 0,000 mm 0,5 UV-I 76 W/m² 1,2 °C 1,8 °C 4,8 km/h (1 Bft)
26.04.2017 09:34 1,8 °C 1,8 °C 96 % 1005,8 hPa 0,0 mm 5,1 km/h (1 Bft) O-NO 69 ° 0 min 0,000 mm 0,5 UV-I 76 W/m² 1,2 °C 0,4 °C 6,4 km/h (2 Bft)
26.04.2017 09:35 1,8 °C 1,8 °C 96 % 1005,8 hPa 0,0 mm 3,6 km/h (1 Bft) O-NO 69 ° 0 min 0,000 mm 0,5 UV-I 77 W/m² 1,2 °C 1,8 °C 4,8 km/h (1 Bft)
26.04.2017 09:36 1,8 °C 1,8 °C 96 % 1005,8 hPa 0,0 mm 1,8 km/h (1 Bft) O-NO 69 ° 0 min 0,000 mm 0,6 UV-I 79 W/m² 1,2 °C 1,8 °C 3,2 km/h (1 Bft)
26.04.2017 09:37 1,8 °C 1,8 °C 96 % 1005,8 hPa 0,0 mm 2,3 km/h (1 Bft) O-NO 69 ° 0 min 0,000 mm 0,6 UV-I 83 W/m² 1,2 °C 1,8 °C 3,2 km/h (1 Bft)
26.04.2017 09:38 1,8 °C 1,8 °C 96 % 1005,7 hPa 0,0 mm 3,3 km/h (1 Bft) O-NO 69 ° 0 min 0,000 mm 0,6 UV-I 84 W/m² 1,2 °C 1,8 °C 4,8 km/h (1 Bft)
26.04.2017 09:39 1,8 °C 1,8 °C 96 % 1005,7 hPa 0,0 mm 1,7 km/h (1 Bft) O-NO 69 ° 0 min 0,000 mm 0,6 UV-I 88 W/m² 1,2 °C 1,8 °C 4,8 km/h (1 Bft)
26.04.2017 09:40 1,9 °C 1,9 °C 96 % 1005,7 hPa 0,0 mm 4,3 km/h (1 Bft) O-NO 71 ° 0 min 0,000 mm 0,6 UV-I 88 W/m² 1,3 °C 1,9 °C 4,8 km/h (1 Bft)
26.04.2017 09:41 1,9 °C 1,9 °C 96 % 1005,8 hPa 0,0 mm 3,0 km/h (1 Bft) O-NO 71 ° 0 min 0,000 mm 0,6 UV-I 90 W/m² 1,3 °C 1,9 °C 4,8 km/h (1 Bft)
26.04.2017 09:42 1,8 °C 1,9 °C 96 % 1005,8 hPa 0,0 mm 3,1 km/h (1 Bft) O-NO 71 ° 0 min 0,000 mm 0,6 UV-I 90 W/m² 1,2 °C 1,8 °C 4,8 km/h (1 Bft)
26.04.2017 09:43 1,8 °C 1,9 °C 96 % 1005,8 hPa 0,0 mm 1,3 km/h (1 Bft) O-NO 71 ° 0 min 0,000 mm 0,6 UV-I 91 W/m² 1,2 °C 1,8 °C 3,2 km/h (1 Bft)
26.04.2017 09:44 1,8 °C 1,9 °C 96 % 1005,9 hPa 0,0 mm 0,1 km/h (0 Bft) O-NO 71 ° 0 min 0,000 mm 0,6 UV-I 91 W/m² 1,2 °C 1,8 °C 1,6 km/h (1 Bft)
26.04.2017 09:45 1,9 °C 1,9 °C 96 % 1005,9 hPa 0,0 mm 3,4 km/h (1 Bft) O-NO 71 ° 0 min 0,000 mm 0,6 UV-I 91 W/m² 1,3 °C 1,9 °C 4,8 km/h (1 Bft)
26.04.2017 09:46 1,8 °C 1,9 °C 96 % 1005,9 hPa 0,0 mm 1,4 km/h (1 Bft) O-NO 71 ° 0 min 0,000 mm 0,6 UV-I 91 W/m² 1,2 °C 1,8 °C 3,2 km/h (1 Bft)
26.04.2017 09:47 1,8 °C 1,8 °C 96 % 1005,9 hPa 0,0 mm 0,4 km/h (0 Bft) O-NO 71 ° 0 min 0,000 mm 0,6 UV-I 90 W/m² 1,2 °C 1,8 °C 1,6 km/h (1 Bft)
26.04.2017 09:48 1,9 °C 1,9 °C 96 % 1005,9 hPa 0,0 mm 1,5 km/h (1 Bft) O-NO 71 ° 0 min 0,000 mm 0,6 UV-I 88 W/m² 1,3 °C 1,9 °C 3,2 km/h (1 Bft)
26.04.2017 09:49 1,9 °C 1,9 °C 96 % 1005,9 hPa 0,0 mm 2,5 km/h (1 Bft) O-NO 71 ° 0 min 0,000 mm 0,6 UV-I 88 W/m² 1,3 °C 1,9 °C 3,2 km/h (1 Bft)
26.04.2017 09:50 1,9 °C 1,9 °C 96 % 1005,9 hPa 0,0 mm 2,6 km/h (1 Bft) O-NO 71 ° 0 min 0,000 mm 0,6 UV-I 88 W/m² 1,3 °C 1,9 °C 3,2 km/h (1 Bft)
26.04.2017 09:51 1,9 °C 1,9 °C 96 % 1005,9 hPa 0,0 mm 2,2 km/h (1 Bft) O-NO 71 ° 0 min 0,000 mm 0,6 UV-I 90 W/m² 1,3 °C 1,9 °C 4,8 km/h (1 Bft)
26.04.2017 09:52 1,9 °C 1,9 °C 96 % 1005,9 hPa 0,0 mm 1,6 km/h (1 Bft) O-NO 71 ° 0 min 0,000 mm 0,6 UV-I 90 W/m² 1,3 °C 1,9 °C 3,2 km/h (1 Bft)
26.04.2017 09:53 1,9 °C 1,9 °C 96 % 1005,9 hPa 0,0 mm 0,9 km/h (0 Bft) O-NO 71 ° 0 min 0,000 mm 0,7 UV-I 91 W/m² 1,3 °C 1,9 °C 1,6 km/h (1 Bft)
26.04.2017 09:54 1,8 °C 1,9 °C 96 % 1006,0 hPa 0,0 mm 1,3 km/h (1 Bft) O-NO 71 ° 0 min 0,000 mm 0,7 UV-I 91 W/m² 1,2 °C 1,8 °C 3,2 km/h (1 Bft)
26.04.2017 09:55 1,9 °C 1,9 °C 96 % 1005,9 hPa 0,0 mm 1,9 km/h (1 Bft) O-NO 71 ° 0 min 0,000 mm 0,7 UV-I 91 W/m² 1,3 °C 1,9 °C 3,2 km/h (1 Bft)
26.04.2017 09:56 2,0 °C 2,0 °C 96 % 1005,9 hPa 0,0 mm 3,2 km/h (1 Bft) O-NO 57 ° 0 min 0,000 mm 0,7 UV-I 93 W/m² 1,4 °C 2,0 °C 4,8 km/h (1 Bft)
26.04.2017 09:57 2,0 °C 2,0 °C 96 % 1005,9 hPa 0,0 mm 2,5 km/h (1 Bft) O-NO 57 ° 0 min 0,000 mm 0,7 UV-I 93 W/m² 1,4 °C 2,0 °C 4,8 km/h (1 Bft)
26.04.2017 09:58 2,0 °C 2,1 °C 96 % 1005,9 hPa 0,0 mm 2,7 km/h (1 Bft) O-NO 57 ° 0 min 0,000 mm 0,7 UV-I 97 W/m² 1,4 °C 2,0 °C 4,8 km/h (1 Bft)
26.04.2017 09:59 1,9 °C 2,1 °C 96 % 1005,9 hPa 0,0 mm 3,1 km/h (1 Bft) O-NO 57 ° 0 min 0,000 mm 0,7 UV-I 100 W/m² 1,3 °C 1,9 °C 4,8 km/h (1 Bft)
26.04.2017 10:00 1,9 °C 2,0 °C 96 % 1005,9 hPa 0,0 mm 1,3 km/h (1 Bft) O-NO 57 ° 0 min 0,000 mm 0,7 UV-I 105 W/m² 1,3 °C 1,9 °C 3,2 km/h (1 Bft)
26.04.2017 10:01 1,9 °C 1,9 °C 96 % 1006,0 hPa 0,0 mm 2,3 km/h (1 Bft) O-NO 57 ° 0 min 0,026 mm 0,8 UV-I 105 W/m² 1,3 °C 1,9 °C 3,2 km/h (1 Bft)
26.04.2017 10:02 1,8 °C 1,9 °C 96 % 1006,0 hPa 0,0 mm 1,3 km/h (1 Bft) O-NO 57 ° 0 min 0,000 mm 0,8 UV-I 105 W/m² 1,2 °C 1,8 °C 3,2 km/h (1 Bft)
26.04.2017 10:03 1,8 °C 1,9 °C 96 % 1006,0 hPa 0,0 mm 0,6 km/h (0 Bft) O-NO 57 ° 0 min 0,000 mm 0,8 UV-I 105 W/m² 1,2 °C 1,8 °C 3,2 km/h (1 Bft)
26.04.2017 10:04 1,9 °C 1,9 °C 96 % 1006,0 hPa 0,0 mm 0,0 km/h (0 Bft) O-NO 57 ° 0 min 0,000 mm 0,8 UV-I 105 W/m² 1,3 °C 1,9 °C 0,0 km/h (0 Bft)
26.04.2017 10:05 1,9 °C 1,9 °C 96 % 1006,0 hPa 0,0 mm 0,0 km/h (0 Bft) O-NO 57 ° 0 min 0,000 mm 0,8 UV-I 107 W/m² 1,3 °C 1,9 °C 0,0 km/h (0 Bft)
26.04.2017 10:06 1,9 °C 1,9 °C 96 % 1006,0 hPa 0,0 mm 1,5 km/h (1 Bft) O-NO 57 ° 0 min 0,000 mm 0,8 UV-I 107 W/m² 1,3 °C 1,9 °C 4,8 km/h (1 Bft)
26.04.2017 10:07 2,0 °C 2,0 °C 96 % 1006,1 hPa 0,0 mm 1,8 km/h (1 Bft) O-NO 57 ° 0 min 0,000 mm 0,8 UV-I 111 W/m² 1,4 °C 2,0 °C 3,2 km/h (1 Bft)
26.04.2017 10:08 1,9 °C 2,0 °C 96 % 1006,1 hPa 0,0 mm 2,2 km/h (1 Bft) O-NO 57 ° 0 min 0,000 mm 0,8 UV-I 111 W/m² 1,3 °C 1,9 °C 3,2 km/h (1 Bft)
26.04.2017 10:09 1,9 °C 1,9 °C 96 % 1006,1 hPa 0,0 mm 1,1 km/h (1 Bft) O-NO 57 ° 0 min 0,000 mm 0,8 UV-I 111 W/m² 1,3 °C 1,9 °C 1,6 km/h (1 Bft)
26.04.2017 10:10 2,0 °C 2,0 °C 96 % 1006,0 hPa 0,0 mm 1,4 km/h (1 Bft) O-NO 57 ° 0 min 0,000 mm 0,8 UV-I 109 W/m² 1,4 °C 2,0 °C 3,2 km/h (1 Bft)
26.04.2017 10:11 2,0 °C 2,0 °C 96 % 1006,1 hPa 0,0 mm 1,4 km/h (1 Bft) O-NO 57 ° 0 min 0,000 mm 0,8 UV-I 107 W/m² 1,4 °C 2,0 °C 3,2 km/h (1 Bft)
26.04.2017 10:12 1,9 °C 2,0 °C 96 % 1006,1 hPa 0,0 mm 1,2 km/h (1 Bft) O-NO 57 ° 0 min 0,000 mm 0,8 UV-I 105 W/m² 1,3 °C 1,9 °C 3,2 km/h (1 Bft)
26.04.2017 10:13 1,9 °C 1,9 °C 96 % 1006,1 hPa 0,0 mm 0,1 km/h (0 Bft) O-NO 57 ° 0 min 0,000 mm 0,8 UV-I 105 W/m² 1,3 °C 1,9 °C 1,6 km/h (1 Bft)
26.04.2017 10:14 1,9 °C 1,9 °C 96 % 1006,1 hPa 0,0 mm 1,0 km/h (0 Bft) O-NO 57 ° 0 min 0,000 mm 0,8 UV-I 105 W/m² 1,3 °C 1,9 °C 3,2 km/h (1 Bft)
26.04.2017 10:15 1,9 °C 1,9 °C 96 % 1006,1 hPa 0,0 mm 0,1 km/h (0 Bft) O-NO 57 ° 0 min 0,000 mm 0,8 UV-I 105 W/m² 1,3 °C 1,9 °C 1,6 km/h (1 Bft)
26.04.2017 10:16 1,9 °C 1,9 °C 96 % 1006,2 hPa 0,0 mm 0,0 km/h (0 Bft) O-NO 57 ° 0 min 0,000 mm 0,8 UV-I 105 W/m² 1,3 °C 1,9 °C 0,0 km/h (0 Bft)
26.04.2017 10:17 1,9 °C 1,9 °C 96 % 1006,2 hPa 0,0 mm 0,6 km/h (0 Bft) O-NO 57 ° 0 min 0,000 mm 0,8 UV-I 105 W/m² 1,3 °C 1,9 °C 1,6 km/h (1 Bft)
26.04.2017 10:18 2,0 °C 2,0 °C 96 % 1006,2 hPa 0,0 mm 0,6 km/h (0 Bft) O-NO 57 ° 0 min 0,000 mm 0,8 UV-I 105 W/m² 1,4 °C 2,0 °C 3,2 km/h (1 Bft)
26.04.2017 10:19 2,1 °C 2,1 °C 96 % 1006,2 hPa 0,0 mm 0,5 km/h (0 Bft) O-NO 57 ° 0 min 0,000 mm 0,8 UV-I 105 W/m² 1,5 °C 2,1 °C 1,6 km/h (1 Bft)
26.04.2017 10:20 2,2 °C 2,2 °C 96 % 1006,2 hPa 0,0 mm 0,9 km/h (0 Bft) O-NO 57 ° 0 min 0,000 mm 0,8 UV-I 105 W/m² 1,6 °C 2,2 °C 3,2 km/h (1 Bft)
26.04.2017 10:21 2,2 °C 2,2 °C 96 % 1006,3 hPa 0,0 mm 3,3 km/h (1 Bft) O-NO 57 ° 0 min 0,000 mm 0,8 UV-I 104 W/m² 1,6 °C 2,2 °C 4,8 km/h (1 Bft)
26.04.2017 10:22 2,2 °C 2,2 °C 96 % 1006,3 hPa 0,0 mm 0,2 km/h (0 Bft) O-NO 57 ° 0 min 0,000 mm 0,8 UV-I 102 W/m² 1,6 °C 2,2 °C 1,6 km/h (1 Bft)
26.04.2017 10:23 2,1 °C 2,2 °C 96 % 1006,3 hPa 0,0 mm 0,0 km/h (0 Bft) O-NO 57 ° 0 min 0,000 mm 0,7 UV-I 102 W/m² 1,5 °C 2,1 °C 0,0 km/h (0 Bft)
26.04.2017 10:24 2,0 °C 2,1 °C 96 % 1006,3 hPa 0,0 mm 1,5 km/h (1 Bft) O-NO 57 ° 0 min 0,000 mm 0,7 UV-I 97 W/m² 1,4 °C 2,0 °C 3,2 km/h (1 Bft)
26.04.2017 10:25 2,0 °C 2,1 °C 96 % 1006,3 hPa 0,0 mm 0,7 km/h (0 Bft) O-NO 57 ° 0 min 0,000 mm 0,7 UV-I 93 W/m² 1,4 °C 2,0 °C 1,6 km/h (1 Bft)
26.04.2017 10:26 2,1 °C 2,1 °C 96 % 1006,3 hPa 0,0 mm 2,4 km/h (1 Bft) O-NO 57 ° 0 min 0,000 mm 0,7 UV-I 91 W/m² 1,5 °C 2,1 °C 4,8 km/h (1 Bft)
26.04.2017 10:27 2,2 °C 2,2 °C 96 % 1006,3 hPa 0,0 mm 3,4 km/h (1 Bft) O-NO 57 ° 0 min 0,000 mm 0,7 UV-I 90 W/m² 1,6 °C 2,2 °C 4,8 km/h (1 Bft)
26.04.2017 10:28 2,2 °C 2,2 °C 96 % 1006,4 hPa 0,0 mm 2,1 km/h (1 Bft) O-NO 57 ° 0 min 0,000 mm 0,7 UV-I 90 W/m² 1,6 °C 2,2 °C 3,2 km/h (1 Bft)
26.04.2017 10:29 2,2 °C 2,2 °C 96 % 1006,3 hPa 0,0 mm 0,5 km/h (0 Bft) O-NO 57 ° 0 min 0,000 mm 0,7 UV-I 91 W/m² 1,6 °C 2,2 °C 1,6 km/h (1 Bft)
26.04.2017 10:30 2,0 °C 2,2 °C 96 % 1006,4 hPa 0,0 mm 0,0 km/h (0 Bft) O-NO 57 ° 0 min 0,000 mm 0,7 UV-I 95 W/m² 1,4 °C 2,0 °C 0,0 km/h (0 Bft)
26.04.2017 10:31 2,0 °C 2,1 °C 96 % 1006,4 hPa 0,0 mm 0,0 km/h (0 Bft) O-NO 57 ° 0 min 0,000 mm 0,7 UV-I 95 W/m² 1,4 °C 2,0 °C 0,0 km/h (0 Bft)
26.04.2017 10:32 1,9 °C 2,0 °C 96 % 1006,4 hPa 0,0 mm 1,9 km/h (1 Bft) O-NO 57 ° 0 min 0,000 mm 0,7 UV-I 93 W/m² 1,3 °C 1,9 °C 3,2 km/h (1 Bft)
26.04.2017 10:33 2,0 °C 2,0 °C 96 % 1006,4 hPa 0,0 mm 2,1 km/h (1 Bft) O-NO 57 ° 0 min 0,000 mm 0,7 UV-I 93 W/m² 1,4 °C 2,0 °C 4,8 km/h (1 Bft)
26.04.2017 10:34 2,0 °C 2,0 °C 96 % 1006,4 hPa 0,0 mm 4,3 km/h (1 Bft) O-NO 67 ° 0 min 0,000 mm 0,7 UV-I 95 W/m² 1,4 °C 2,0 °C 6,4 km/h (2 Bft)
26.04.2017 10:35 2,0 °C 2,1 °C 96 % 1006,4 hPa 0,0 mm 2,5 km/h (1 Bft) O-NO 67 ° 0 min 0,000 mm 0,7 UV-I 98 W/m² 1,4 °C 2,0 °C 4,8 km/h (1 Bft)
26.04.2017 10:36 2,0 °C 2,1 °C 96 % 1006,4 hPa 0,0 mm 2,0 km/h (1 Bft) O-NO 67 ° 0 min 0,000 mm 0,8 UV-I 100 W/m² 1,4 °C 2,0 °C 3,2 km/h (1 Bft)
26.04.2017 10:37 2,0 °C 2,1 °C 96 % 1006,4 hPa 0,0 mm 1,2 km/h (1 Bft) O-NO 67 ° 0 min 0,000 mm 0,8 UV-I 100 W/m² 1,4 °C 2,0 °C 3,2 km/h (1 Bft)
26.04.2017 10:38 2,0 °C 2,1 °C 96 % 1006,4 hPa 0,0 mm 0,1 km/h (0 Bft) O-NO 67 ° 0 min 0,000 mm 0,8 UV-I 100 W/m² 1,4 °C 2,0 °C 1,6 km/h (1 Bft)
26.04.2017 10:39 2,1 °C 2,1 °C 96 % 1006,4 hPa 0,0 mm 0,0 km/h (0 Bft) O-NO 67 ° 0 min 0,000 mm 0,8 UV-I 102 W/m² 1,5 °C 2,1 °C 0,0 km/h (0 Bft)
26.04.2017 10:40 2,2 °C 2,2 °C 96 % 1006,4 hPa 0,0 mm 0,1 km/h (0 Bft) O-NO 67 ° 0 min 0,000 mm 0,8 UV-I 102 W/m² 1,6 °C 2,2 °C 1,6 km/h (1 Bft)
26.04.2017 10:41 2,2 °C 2,2 °C 96 % 1006,5 hPa 0,0 mm 2,4 km/h (1 Bft) O-NO 67 ° 0 min 0,000 mm 0,8 UV-I 104 W/m² 1,6 °C 2,2 °C 4,8 km/h (1 Bft)
26.04.2017 10:42 2,2 °C 2,3 °C 96 % 1006,5 hPa 0,2 mm 3,8 km/h (1 Bft) O-NO 67 ° 0 min 0,000 mm 0,8 UV-I 102 W/m² 1,6 °C 2,2 °C 4,8 km/h (1 Bft)
26.04.2017 10:43 2,2 °C 2,3 °C 96 % 1006,4 hPa 0,0 mm 1,2 km/h (1 Bft) O-NO 67 ° 0 min 0,000 mm 0,8 UV-I 100 W/m² 1,6 °C 2,2 °C 3,2 km/h (1 Bft)
26.04.2017 10:44 2,2 °C 2,2 °C 96 % 1006,4 hPa 0,0 mm 2,1 km/h (1 Bft) O-NO 67 ° 0 min 0,000 mm 0,8 UV-I 98 W/m² 1,6 °C 2,2 °C 4,8 km/h (1 Bft)
26.04.2017 10:45 2,2 °C 2,2 °C 96 % 1006,5 hPa 0,0 mm 0,6 km/h (0 Bft) O-NO 67 ° 0 min 0,000 mm 0,8 UV-I 98 W/m² 1,6 °C 2,2 °C 3,2 km/h (1 Bft)
26.04.2017 10:46 2,2 °C 2,2 °C 96 % 1006,5 hPa 0,0 mm 0,0 km/h (0 Bft) O-NO 67 ° 0 min 0,000 mm 0,8 UV-I 98 W/m² 1,6 °C 2,2 °C 0,0 km/h (0 Bft)
26.04.2017 10:47 2,2 °C 2,2 °C 96 % 1006,5 hPa 0,0 mm 0,0 km/h (0 Bft) O-NO 67 ° 0 min 0,000 mm 0,8 UV-I 97 W/m² 1,6 °C 2,2 °C 0,0 km/h (0 Bft)
26.04.2017 10:48 2,3 °C 2,3 °C 96 % 1006,6 hPa 0,0 mm 0,0 km/h (0 Bft) O-NO 67 ° 0 min 0,000 mm 0,7 UV-I 93 W/m² 1,7 °C 2,3 °C 0,0 km/h (0 Bft)
26.04.2017 10:49 2,3 °C 2,3 °C 96 % 1006,6 hPa 0,0 mm 0,0 km/h (0 Bft) O-NO 67 ° 0 min 0,000 mm 0,7 UV-I 91 W/m² 1,7 °C 2,3 °C 0,0 km/h (0 Bft)
26.04.2017 10:50 2,3 °C 2,3 °C 96 % 1006,6 hPa 0,0 mm 0,3 km/h (0 Bft) O-NO 67 ° 0 min 0,000 mm 0,7 UV-I 91 W/m² 1,7 °C 2,3 °C 3,2 km/h (1 Bft)
26.04.2017 10:51 2,3 °C 2,3 °C 96 % 1006,6 hPa 0,0 mm 2,1 km/h (1 Bft) O-NO 67 ° 0 min 0,000 mm 0,7 UV-I 93 W/m² 1,7 °C 2,3 °C 3,2 km/h (1 Bft)
26.04.2017 10:52 2,2 °C 2,3 °C 96 % 1006,7 hPa 0,0 mm 0,0 km/h (0 Bft) O-NO 67 ° 0 min 0,000 mm 0,7 UV-I 95 W/m² 1,6 °C 2,2 °C 0,0 km/h (0 Bft)
26.04.2017 10:53 2,2 °C 2,2 °C 96 % 1006,7 hPa 0,0 mm 0,1 km/h (0 Bft) O-NO 67 ° 0 min 0,000 mm 0,8 UV-I 98 W/m² 1,6 °C 2,2 °C 1,6 km/h (1 Bft)
26.04.2017 10:54 2,3 °C 2,3 °C 96 % 1006,6 hPa 0,0 mm 1,5 km/h (1 Bft) O-NO 67 ° 0 min 0,000 mm 0,8 UV-I 104 W/m² 1,7 °C 2,3 °C 3,2 km/h (1 Bft)
26.04.2017 10:55 2,2 °C 2,3 °C 96 % 1006,6 hPa 0,0 mm 0,0 km/h (0 Bft) O-NO 67 ° 0 min 0,000 mm 0,8 UV-I 107 W/m² 1,6 °C 2,2 °C 0,0 km/h (0 Bft)
26.04.2017 10:56 2,3 °C 2,3 °C 96 % 1006,6 hPa 0,0 mm 0,0 km/h (0 Bft) O-NO 67 ° 0 min 0,000 mm 0,9 UV-I 109 W/m² 1,7 °C 2,3 °C 0,0 km/h (0 Bft)
26.04.2017 10:57 2,3 °C 2,3 °C 96 % 1006,6 hPa 0,0 mm 0,0 km/h (0 Bft) O-NO 67 ° 0 min 0,000 mm 0,8 UV-I 109 W/m² 1,7 °C 2,3 °C 0,0 km/h (0 Bft)
26.04.2017 10:58 2,3 °C 2,3 °C 96 % 1006,6 hPa 0,0 mm 0,0 km/h (0 Bft) O-NO 67 ° 0 min 0,000 mm 0,8 UV-I 107 W/m² 1,7 °C 2,3 °C 0,0 km/h (0 Bft)
26.04.2017 10:59 2,3 °C 2,3 °C 96 % 1006,6 hPa 0,0 mm 0,0 km/h (0 Bft) O-NO 67 ° 0 min 0,000 mm 0,8 UV-I 105 W/m² 1,7 °C 2,3 °C 0,0 km/h (0 Bft)
26.04.2017 11:00 2,3 °C 2,3 °C 96 % 1006,6 hPa 0,0 mm 0,7 km/h (0 Bft) O-NO 67 ° 0 min 0,025 mm 0,8 UV-I 105 W/m² 1,7 °C 2,3 °C 1,6 km/h (1 Bft)
26.04.2017 11:01 2,3 °C 2,3 °C 96 % 1006,6 hPa 0,0 mm 1,5 km/h (1 Bft) O-NO 67 ° 0 min 0,000 mm 0,8 UV-I 109 W/m² 1,7 °C 2,3 °C 1,6 km/h (1 Bft)
26.04.2017 11:02 2,4 °C 2,4 °C 96 % 1006,6 hPa 0,0 mm 2,3 km/h (1 Bft) O-NO 65 ° 0 min 0,000 mm 0,9 UV-I 111 W/m² 1,8 °C 2,4 °C 3,2 km/h (1 Bft)
26.04.2017 11:03 2,4 °C 2,4 °C 96 % 1006,7 hPa 0,0 mm 4,1 km/h (1 Bft) N-NW 327 ° 0 min 0,000 mm 0,9 UV-I 113 W/m² 1,8 °C 2,4 °C 6,4 km/h (2 Bft)
26.04.2017 11:04 2,5 °C 2,5 °C 96 % 1006,7 hPa 0,0 mm 3,0 km/h (1 Bft) N-NW 327 ° 0 min 0,000 mm 0,9 UV-I 114 W/m² 1,9 °C 2,5 °C 4,8 km/h (1 Bft)
26.04.2017 11:05 2,4 °C 2,5 °C 96 % 1006,7 hPa 0,0 mm 1,8 km/h (1 Bft) N-NW 327 ° 0 min 0,000 mm 0,9 UV-I 121 W/m² 1,8 °C 2,4 °C 3,2 km/h (1 Bft)
26.04.2017 11:06 2,4 °C 2,4 °C 96 % 1006,7 hPa 0,0 mm 2,1 km/h (1 Bft) N-NW 327 ° 0 min 0,000 mm 1,0 UV-I 123 W/m² 1,8 °C 2,4 °C 3,2 km/h (1 Bft)
26.04.2017 11:07 2,4 °C 2,4 °C 96 % 1006,7 hPa 0,0 mm 1,5 km/h (1 Bft) N-NW 327 ° 0 min 0,000 mm 1,0 UV-I 125 W/m² 1,8 °C 2,4 °C 3,2 km/h (1 Bft)
26.04.2017 11:08 2,3 °C 2,4 °C 96 % 1006,7 hPa 0,0 mm 0,9 km/h (0 Bft) N-NW 327 ° 0 min 0,000 mm 1,0 UV-I 123 W/m² 1,7 °C 2,3 °C 1,6 km/h (1 Bft)
26.04.2017 11:09 2,3 °C 2,4 °C 96 % 1006,7 hPa 0,0 mm 0,9 km/h (0 Bft) N-NW 327 ° 0 min 0,000 mm 1,0 UV-I 121 W/m² 1,7 °C 2,3 °C 3,2 km/h (1 Bft)
26.04.2017 11:10 2,5 °C 2,5 °C 96 % 1006,8 hPa 0,0 mm 3,2 km/h (1 Bft) N-NW 346 ° 0 min 0,000 mm 1,0 UV-I 123 W/m² 1,9 °C 2,5 °C 4,8 km/h (1 Bft)
26.04.2017 11:11 2,6 °C 2,6 °C 96 % 1006,7 hPa 0,0 mm 3,6 km/h (1 Bft) N-NW 345 ° 0 min 0,000 mm 1,0 UV-I 123 W/m² 2,0 °C 2,6 °C 4,8 km/h (1 Bft)
26.04.2017 11:12 2,7 °C 2,7 °C 96 % 1006,8 hPa 0,0 mm 1,9 km/h (1 Bft) N-NW 345 ° 0 min 0,000 mm 1,0 UV-I 123 W/m² 2,1 °C 2,7 °C 3,2 km/h (1 Bft)
26.04.2017 11:13 2,6 °C 2,7 °C 96 % 1006,8 hPa 0,0 mm 0,1 km/h (0 Bft) N-NW 345 ° 0 min 0,000 mm 0,9 UV-I 120 W/m² 2,0 °C 2,6 °C 1,6 km/h (1 Bft)
26.04.2017 11:14 2,6 °C 2,6 °C 96 % 1006,8 hPa 0,0 mm 0,0 km/h (0 Bft) N-NW 345 ° 0 min 0,000 mm 0,9 UV-I 116 W/m² 2,0 °C 2,6 °C 0,0 km/h (0 Bft)
26.04.2017 11:15 2,6 °C 2,7 °C 96 % 1006,8 hPa 0,0 mm 2,0 km/h (1 Bft) N 355 ° 0 min 0,000 mm 0,9 UV-I 116 W/m² 2,0 °C 2,6 °C 3,2 km/h (1 Bft)
26.04.2017 11:16 2,7 °C 2,7 °C 96 % 1006,8 hPa 0,0 mm 2,6 km/h (1 Bft) N 355 ° 0 min 0,000 mm 0,9 UV-I 120 W/m² 2,1 °C 2,7 °C 3,2 km/h (1 Bft)
26.04.2017 11:17 2,7 °C 2,7 °C 96 % 1006,8 hPa 0,0 mm 2,6 km/h (1 Bft) N 355 ° 0 min 0,000 mm 0,9 UV-I 118 W/m² 2,1 °C 2,7 °C 4,8 km/h (1 Bft)
26.04.2017 11:18 2,7 °C 2,7 °C 96 % 1006,8 hPa 0,0 mm 1,8 km/h (1 Bft) N 355 ° 0 min 0,000 mm 0,9 UV-I 116 W/m² 2,1 °C 2,7 °C 3,2 km/h (1 Bft)
26.04.2017 11:19 2,7 °C 2,7 °C 96 % 1006,8 hPa 0,0 mm 2,5 km/h (1 Bft) N-NW 342 ° 0 min 0,000 mm 0,9 UV-I 116 W/m² 2,1 °C 2,7 °C 3,2 km/h (1 Bft)
26.04.2017 11:20 2,7 °C 2,7 °C 96 % 1006,8 hPa 0,0 mm 1,2 km/h (1 Bft) N-NW 342 ° 0 min 0,000 mm 0,9 UV-I 114 W/m² 2,1 °C 2,7 °C 3,2 km/h (1 Bft)
26.04.2017 11:21 2,7 °C 2,7 °C 96 % 1006,8 hPa 0,0 mm 0,3 km/h (0 Bft) N-NW 342 ° 0 min 0,000 mm 0,9 UV-I 111 W/m² 2,1 °C 2,7 °C 1,6 km/h (1 Bft)
26.04.2017 11:22 2,6 °C 2,7 °C 96 % 1006,8 hPa 0,0 mm 1,3 km/h (1 Bft) N-NW 342 ° 0 min 0,000 mm 0,8 UV-I 105 W/m² 2,0 °C 2,6 °C 1,6 km/h (1 Bft)
26.04.2017 11:23 2,6 °C 2,6 °C 96 % 1006,8 hPa 0,0 mm 0,1 km/h (0 Bft) N-NW 342 ° 0 min 0,000 mm 0,8 UV-I 104 W/m² 2,0 °C 2,6 °C 1,6 km/h (1 Bft)
26.04.2017 11:24 2,5 °C 2,6 °C 96 % 1006,8 hPa 0,0 mm 0,0 km/h (0 Bft) N-NW 342 ° 0 min 0,000 mm 0,8 UV-I 100 W/m² 1,9 °C 2,5 °C 0,0 km/h (0 Bft)
26.04.2017 11:25 2,6 °C 2,6 °C 96 % 1006,8 hPa 0,0 mm 0,3 km/h (0 Bft) N-NW 342 ° 0 min 0,000 mm 0,8 UV-I 98 W/m² 2,0 °C 2,6 °C 1,6 km/h (1 Bft)
26.04.2017 11:26 2,6 °C 2,6 °C 96 % 1006,8 hPa 0,0 mm 0,5 km/h (0 Bft) N-NW 342 ° 0 min 0,000 mm 0,8 UV-I 97 W/m² 2,0 °C 2,6 °C 1,6 km/h (1 Bft)
26.04.2017 11:27 2,6 °C 2,6 °C 96 % 1006,8 hPa 0,0 mm 0,0 km/h (0 Bft) N-NW 342 ° 0 min 0,000 mm 0,8 UV-I 98 W/m² 2,0 °C 2,6 °C 0,0 km/h (0 Bft)
26.04.2017 11:28 2,6 °C 2,6 °C 96 % 1006,8 hPa 0,0 mm 1,9 km/h (1 Bft) N-NW 345 ° 0 min 0,000 mm 0,8 UV-I 102 W/m² 2,0 °C 2,6 °C 3,2 km/h (1 Bft)
26.04.2017 11:29 2,6 °C 2,6 °C 96 % 1006,8 hPa 0,0 mm 2,3 km/h (1 Bft) N-NW 345 ° 0 min 0,000 mm 0,8 UV-I 104 W/m² 2,0 °C 2,6 °C 3,2 km/h (1 Bft)
26.04.2017 11:30 2,7 °C 2,7 °C 96 % 1006,8 hPa 0,0 mm 0,6 km/h (0 Bft) N-NW 345 ° 0 min 0,000 mm 0,8 UV-I 104 W/m² 2,1 °C 2,7 °C 1,6 km/h (1 Bft)
26.04.2017 11:31 2,7 °C 2,7 °C 96 % 1006,8 hPa 0,0 mm 1,3 km/h (1 Bft) N-NW 345 ° 0 min 0,000 mm 0,8 UV-I 104 W/m² 2,1 °C 2,7 °C 3,2 km/h (1 Bft)
26.04.2017 11:32 2,7 °C 2,7 °C 96 % 1006,8 hPa 0,0 mm 0,4 km/h (0 Bft) N-NW 345 ° 0 min 0,000 mm 0,8 UV-I 102 W/m² 2,1 °C 2,7 °C 1,6 km/h (1 Bft)
26.04.2017 11:33 2,7 °C 2,7 °C 96 % 1006,8 hPa 0,0 mm 1,7 km/h (1 Bft) N-NW 345 ° 0 min 0,000 mm 0,8 UV-I 100 W/m² 2,1 °C 2,7 °C 3,2 km/h (1 Bft)
26.04.2017 11:34 2,7 °C 2,7 °C 96 % 1006,9 hPa 0,0 mm 0,5 km/h (0 Bft) N-NW 345 ° 0 min 0,000 mm 0,8 UV-I 97 W/m² 2,1 °C 2,7 °C 1,6 km/h (1 Bft)
26.04.2017 11:35 2,7 °C 2,7 °C 96 % 1006,9 hPa 0,0 mm 1,1 km/h (1 Bft) N-NW 345 ° 0 min 0,000 mm 0,8 UV-I 97 W/m² 2,1 °C 2,7 °C 3,2 km/h (1 Bft)
26.04.2017 11:36 2,7 °C 2,7 °C 96 % 1007,0 hPa 0,0 mm 2,7 km/h (1 Bft) N 10 ° 0 min 0,000 mm 0,8 UV-I 100 W/m² 2,1 °C 2,7 °C 4,8 km/h (1 Bft)
26.04.2017 11:37 2,7 °C 2,7 °C 96 % 1006,9 hPa 0,0 mm 3,2 km/h (1 Bft) N 10 ° 0 min 0,000 mm 0,9 UV-I 105 W/m² 2,1 °C 2,7 °C 4,8 km/h (1 Bft)
26.04.2017 11:38 2,7 °C 2,7 °C 96 % 1007,0 hPa 0,0 mm 2,2 km/h (1 Bft) N 10 ° 0 min 0,000 mm 0,9 UV-I 109 W/m² 2,1 °C 2,7 °C 3,2 km/h (1 Bft)
26.04.2017 11:39 2,7 °C 2,7 °C 96 % 1007,0 hPa 0,0 mm 2,1 km/h (1 Bft) N 10 ° 0 min 0,000 mm 0,9 UV-I 109 W/m² 2,1 °C 2,7 °C 3,2 km/h (1 Bft)
26.04.2017 11:40 2,7 °C 2,7 °C 96 % 1007,0 hPa 0,0 mm 1,7 km/h (1 Bft) N 10 ° 0 min 0,000 mm 0,9 UV-I 111 W/m² 2,1 °C 2,7 °C 3,2 km/h (1 Bft)
26.04.2017 11:41 2,7 °C 2,7 °C 96 % 1007,0 hPa 0,0 mm 2,0 km/h (1 Bft) N 10 ° 0 min 0,000 mm 0,9 UV-I 113 W/m² 2,1 °C 2,7 °C 4,8 km/h (1 Bft)
26.04.2017 11:42 2,7 °C 2,7 °C 96 % 1007,0 hPa 0,0 mm 3,2 km/h (1 Bft) N 10 ° 0 min 0,000 mm 0,9 UV-I 114 W/m² 2,1 °C 2,7 °C 4,8 km/h (1 Bft)
26.04.2017 11:43 2,7 °C 2,7 °C 96 % 1007,0 hPa 0,0 mm 2,8 km/h (1 Bft) N 10 ° 0 min 0,000 mm 0,9 UV-I 113 W/m² 2,1 °C 2,7 °C 4,8 km/h (1 Bft)
26.04.2017 11:44 2,7 °C 2,7 °C 96 % 1007,1 hPa 0,0 mm 0,3 km/h (0 Bft) N 10 ° 0 min 0,000 mm 0,9 UV-I 113 W/m² 2,1 °C 2,7 °C 1,6 km/h (1 Bft)
26.04.2017 11:45 2,6 °C 2,7 °C 96 % 1007,1 hPa 0,0 mm 0,0 km/h (0 Bft) N 10 ° 0 min 0,000 mm 0,9 UV-I 111 W/m² 2,0 °C 2,6 °C 0,0 km/h (0 Bft)
26.04.2017 11:46 2,7 °C 2,7 °C 96 % 1007,1 hPa 0,0 mm 2,7 km/h (1 Bft) N 11 ° 0 min 0,000 mm 0,9 UV-I 104 W/m² 2,1 °C 2,7 °C 4,8 km/h (1 Bft)
26.04.2017 11:47 2,7 °C 2,7 °C 96 % 1007,1 hPa 0,0 mm 2,2 km/h (1 Bft) N 11 ° 0 min 0,000 mm 0,8 UV-I 100 W/m² 2,1 °C 2,7 °C 3,2 km/h (1 Bft)
26.04.2017 11:48 2,7 °C 2,7 °C 96 % 1007,1 hPa 0,0 mm 2,2 km/h (1 Bft) N 11 ° 0 min 0,000 mm 0,8 UV-I 97 W/m² 2,1 °C 2,7 °C 3,2 km/h (1 Bft)
26.04.2017 11:49 2,7 °C 2,7 °C 96 % 1007,1 hPa 0,0 mm 2,6 km/h (1 Bft) N 11 ° 0 min 0,000 mm 0,8 UV-I 95 W/m² 2,1 °C 2,7 °C 3,2 km/h (1 Bft)
26.04.2017 11:50 2,7 °C 2,7 °C 96 % 1007,1 hPa 0,0 mm 3,2 km/h (1 Bft) N-NO 16 ° 0 min 0,000 mm 0,8 UV-I 95 W/m² 2,1 °C 2,7 °C 4,8 km/h (1 Bft)
26.04.2017 11:51 2,6 °C 2,7 °C 96 % 1007,1 hPa 0,0 mm 3,1 km/h (1 Bft) N-NO 16 ° 0 min 0,000 mm 0,8 UV-I 93 W/m² 2,0 °C 2,6 °C 4,8 km/h (1 Bft)
26.04.2017 11:52 2,6 °C 2,6 °C 96 % 1007,1 hPa 0,0 mm 1,7 km/h (1 Bft) N-NO 16 ° 0 min 0,000 mm 0,7 UV-I 90 W/m² 2,0 °C 2,6 °C 3,2 km/h (1 Bft)
26.04.2017 11:53 2,7 °C 2,7 °C 96 % 1007,2 hPa 0,0 mm 2,7 km/h (1 Bft) N-NO 16 ° 0 min 0,000 mm 0,7 UV-I 86 W/m² 2,1 °C 2,7 °C 3,2 km/h (1 Bft)
26.04.2017 11:54 2,7 °C 2,7 °C 96 % 1007,2 hPa 0,0 mm 1,7 km/h (1 Bft) N-NO 16 ° 0 min 0,000 mm 0,7 UV-I 84 W/m² 2,1 °C 2,7 °C 3,2 km/h (1 Bft)
26.04.2017 11:55 2,7 °C 2,7 °C 96 % 1007,3 hPa 0,0 mm 0,0 km/h (0 Bft) N-NO 16 ° 0 min 0,000 mm 0,7 UV-I 83 W/m² 2,1 °C 2,7 °C 0,0 km/h (0 Bft)
26.04.2017 11:56 2,7 °C 2,7 °C 96 % 1007,3 hPa 0,0 mm 1,0 km/h (0 Bft) N-NO 16 ° 0 min 0,000 mm 0,7 UV-I 81 W/m² 2,1 °C 2,7 °C 3,2 km/h (1 Bft)
26.04.2017 11:57 2,7 °C 2,7 °C 96 % 1007,3 hPa 0,0 mm 0,4 km/h (0 Bft) N-NO 16 ° 0 min 0,000 mm 0,6 UV-I 77 W/m² 2,1 °C 2,7 °C 3,2 km/h (1 Bft)
26.04.2017 11:58 2,7 °C 2,7 °C 96 % 1007,3 hPa 0,0 mm 0,0 km/h (0 Bft) N-NO 16 ° 0 min 0,000 mm 0,6 UV-I 79 W/m² 2,1 °C 2,7 °C 0,0 km/h (0 Bft)
26.04.2017 11:59 2,8 °C 2,8 °C 96 % 1007,3 hPa 0,0 mm 0,0 km/h (0 Bft) N-NO 16 ° 0 min 0,000 mm 0,7 UV-I 81 W/m² 2,2 °C 2,8 °C 0,0 km/h (0 Bft)
26.04.2017 12:00 2,8 °C 2,8 °C 96 % 1007,4 hPa 0,0 mm 1,2 km/h (1 Bft) N-NO 16 ° 0 min 0,000 mm 0,7 UV-I 83 W/m² 2,2 °C 2,8 °C 3,2 km/h (1 Bft)
26.04.2017 12:01 2,9 °C 2,9 °C 96 % 1007,4 hPa 0,2 mm 1,9 km/h (1 Bft) N 355 ° 0 min 0,051 mm 0,7 UV-I 84 W/m² 2,3 °C 2,9 °C 4,8 km/h (1 Bft)
26.04.2017 12:02 2,9 °C 2,9 °C 96 % 1007,3 hPa 0,0 mm 1,4 km/h (1 Bft) N 355 ° 0 min 0,000 mm 0,7 UV-I 86 W/m² 2,3 °C 2,9 °C 1,6 km/h (1 Bft)
26.04.2017 12:03 2,9 °C 2,9 °C 96 % 1007,4 hPa 0,0 mm 2,5 km/h (1 Bft) N 355 ° 0 min 0,000 mm 0,7 UV-I 86 W/m² 2,3 °C 2,9 °C 3,2 km/h (1 Bft)
26.04.2017 12:04 3,0 °C 3,0 °C 96 % 1007,3 hPa 0,0 mm 1,8 km/h (1 Bft) N 355 ° 0 min 0,000 mm 0,7 UV-I 86 W/m² 2,4 °C 3,0 °C 3,2 km/h (1 Bft)
26.04.2017 12:05 3,0 °C 3,1 °C 96 % 1007,3 hPa 0,0 mm 0,7 km/h (0 Bft) N 355 ° 0 min 0,000 mm 0,7 UV-I 88 W/m² 2,4 °C 3,0 °C 1,6 km/h (1 Bft)
26.04.2017 12:06 2,9 °C 3,0 °C 96 % 1007,3 hPa 0,0 mm 0,9 km/h (0 Bft) N 355 ° 0 min 0,000 mm 0,7 UV-I 86 W/m² 2,3 °C 2,9 °C 1,6 km/h (1 Bft)
26.04.2017 12:07 2,9 °C 3,0 °C 96 % 1007,3 hPa 0,0 mm 1,5 km/h (1 Bft) N 355 ° 0 min 0,000 mm 0,7 UV-I 84 W/m² 2,3 °C 2,9 °C 1,6 km/h (1 Bft)
26.04.2017 12:08 2,9 °C 2,9 °C 96 % 1007,3 hPa 0,0 mm 1,5 km/h (1 Bft) N 355 ° 0 min 0,000 mm 0,7 UV-I 81 W/m² 2,3 °C 2,9 °C 1,6 km/h (1 Bft)
26.04.2017 12:09 2,9 °C 2,9 °C 96 % 1007,4 hPa 0,0 mm 0,2 km/h (0 Bft) N 355 ° 0 min 0,000 mm 0,6 UV-I 77 W/m² 2,3 °C 2,9 °C 1,6 km/h (1 Bft)
26.04.2017 12:10 2,9 °C 2,9 °C 96 % 1007,4 hPa 0,0 mm 1,0 km/h (0 Bft) N 355 ° 0 min 0,000 mm 0,6 UV-I 74 W/m² 2,3 °C 2,9 °C 3,2 km/h (1 Bft)
26.04.2017 12:11 3,0 °C 3,0 °C 96 % 1007,4 hPa 0,0 mm 1,0 km/h (0 Bft) N 355 ° 0 min 0,000 mm 0,6 UV-I 72 W/m² 2,4 °C 3,0 °C 3,2 km/h (1 Bft)
26.04.2017 12:12 3,0 °C 3,0 °C 96 % 1007,4 hPa 0,0 mm 2,3 km/h (1 Bft) N 355 ° 0 min 0,000 mm 0,6 UV-I 72 W/m² 2,4 °C 3,0 °C 3,2 km/h (1 Bft)
26.04.2017 12:13 3,1 °C 3,1 °C 96 % 1007,5 hPa 0,0 mm 3,8 km/h (1 Bft) N-NW 340 ° 0 min 0,000 mm 0,6 UV-I 74 W/m² 2,5 °C 3,1 °C 4,8 km/h (1 Bft)
26.04.2017 12:14 3,0 °C 3,1 °C 96 % 1007,4 hPa 0,0 mm 2,0 km/h (1 Bft) N-NW 340 ° 0 min 0,000 mm 0,6 UV-I 76 W/m² 2,4 °C 3,0 °C 3,2 km/h (1 Bft)
26.04.2017 12:15 3,0 °C 3,0 °C 96 % 1007,4 hPa 0,0 mm 2,1 km/h (1 Bft) N-NW 340 ° 0 min 0,000 mm 0,7 UV-I 81 W/m² 2,4 °C 3,0 °C 3,2 km/h (1 Bft)
26.04.2017 12:16 2,9 °C 3,0 °C 96 % 1007,5 hPa 0,0 mm 2,0 km/h (1 Bft) N-NW 340 ° 0 min 0,000 mm 0,7 UV-I 84 W/m² 2,3 °C 2,9 °C 3,2 km/h (1 Bft)
26.04.2017 12:17 2,9 °C 2,9 °C 96 % 1007,5 hPa 0,0 mm 1,5 km/h (1 Bft) N-NW 340 ° 0 min 0,000 mm 0,8 UV-I 88 W/m² 2,3 °C 2,9 °C 3,2 km/h (1 Bft)
26.04.2017 12:18 3,0 °C 3,0 °C 96 % 1007,5 hPa 0,0 mm 2,4 km/h (1 Bft) N-NW 340 ° 0 min 0,000 mm 0,8 UV-I 91 W/m² 2,4 °C 3,0 °C 3,2 km/h (1 Bft)
26.04.2017 12:19 3,1 °C 3,1 °C 96 % 1007,5 hPa 0,0 mm 2,9 km/h (1 Bft) N-NW 340 ° 0 min 0,000 mm 0,8 UV-I 91 W/m² 2,5 °C 3,1 °C 3,2 km/h (1 Bft)
26.04.2017 12:20 3,1 °C 3,1 °C 96 % 1007,5 hPa 0,0 mm 3,8 km/h (1 Bft) N-NW 327 ° 0 min 0,000 mm 0,8 UV-I 90 W/m² 2,5 °C 3,1 °C 6,4 km/h (2 Bft)
26.04.2017 12:21 3,2 °C 3,2 °C 96 % 1007,6 hPa 0,0 mm 2,8 km/h (1 Bft) N-NW 327 ° 0 min 0,000 mm 0,7 UV-I 86 W/m² 2,6 °C 3,2 °C 4,8 km/h (1 Bft)
26.04.2017 12:22 3,2 °C 3,2 °C 96 % 1007,6 hPa 0,0 mm 2,3 km/h (1 Bft) N-NW 327 ° 0 min 0,000 mm 0,7 UV-I 84 W/m² 2,6 °C 3,2 °C 3,2 km/h (1 Bft)
26.04.2017 12:23 3,1 °C 3,2 °C 95 % 1007,6 hPa 0,0 mm 2,0 km/h (1 Bft) N-NW 327 ° 0 min 0,000 mm 0,7 UV-I 84 W/m² 2,4 °C 3,1 °C 3,2 km/h (1 Bft)
26.04.2017 12:24 3,1 °C 3,2 °C 95 % 1007,6 hPa 0,0 mm 1,7 km/h (1 Bft) N-NW 327 ° 0 min 0,000 mm 0,7 UV-I 86 W/m² 2,4 °C 3,1 °C 3,2 km/h (1 Bft)
26.04.2017 12:25 3,1 °C 3,1 °C 95 % 1007,6 hPa 0,0 mm 1,6 km/h (1 Bft) N-NW 327 ° 0 min 0,000 mm 0,7 UV-I 86 W/m² 2,4 °C 3,1 °C 1,6 km/h (1 Bft)
26.04.2017 12:26 3,1 °C 3,1 °C 95 % 1007,5 hPa 0,0 mm 1,2 km/h (1 Bft) N-NW 327 ° 0 min 0,000 mm 0,7 UV-I 86 W/m² 2,4 °C 3,1 °C 3,2 km/h (1 Bft)
26.04.2017 12:27 3,1 °C 3,1 °C 95 % 1007,6 hPa 0,0 mm 0,8 km/h (0 Bft) N-NW 327 ° 0 min 0,000 mm 0,7 UV-I 84 W/m² 2,4 °C 3,1 °C 1,6 km/h (1 Bft)
26.04.2017 12:28 3,1 °C 3,1 °C 95 % 1007,6 hPa 0,0 mm 3,4 km/h (1 Bft) N-NW 327 ° 0 min 0,000 mm 0,7 UV-I 81 W/m² 2,4 °C 3,1 °C 4,8 km/h (1 Bft)
26.04.2017 12:29 3,1 °C 3,1 °C 95 % 1007,6 hPa 0,0 mm 2,2 km/h (1 Bft) N-NW 327 ° 0 min 0,000 mm 0,7 UV-I 79 W/m² 2,4 °C 3,1 °C 3,2 km/h (1 Bft)
26.04.2017 12:30 3,0 °C 3,1 °C 95 % 1007,6 hPa 0,0 mm 1,7 km/h (1 Bft) N-NW 327 ° 0 min 0,000 mm 0,7 UV-I 77 W/m² 2,3 °C 3,0 °C 4,8 km/h (1 Bft)
26.04.2017 12:31 3,0 °C 3,0 °C 95 % 1007,6 hPa 0,0 mm 2,2 km/h (1 Bft) N-NW 327 ° 0 min 0,000 mm 0,7 UV-I 79 W/m² 2,3 °C 3,0 °C 4,8 km/h (1 Bft)
26.04.2017 12:32 3,1 °C 3,1 °C 95 % 1007,6 hPa 0,0 mm 0,0 km/h (0 Bft) N-NW 327 ° 0 min 0,000 mm 0,7 UV-I 84 W/m² 2,4 °C 3,1 °C 0,0 km/h (0 Bft)
26.04.2017 12:33 3,1 °C 3,1 °C 95 % 1007,6 hPa 0,0 mm 2,6 km/h (1 Bft) N-NW 327 ° 0 min 0,000 mm 0,7 UV-I 91 W/m² 2,4 °C 3,1 °C 4,8 km/h (1 Bft)
26.04.2017 12:34 3,1 °C 3,1 °C 95 % 1007,7 hPa 0,0 mm 3,2 km/h (1 Bft) N-NW 342 ° 0 min 0,000 mm 0,9 UV-I 104 W/m² 2,4 °C 3,1 °C 4,8 km/h (1 Bft)
26.04.2017 12:35 3,1 °C 3,1 °C 95 % 1007,7 hPa 0,0 mm 3,2 km/h (1 Bft) N-NW 336 ° 0 min 0,000 mm 1,0 UV-I 109 W/m² 2,4 °C 3,1 °C 4,8 km/h (1 Bft)
26.04.2017 12:36 3,1 °C 3,1 °C 95 % 1007,7 hPa 0,2 mm 2,0 km/h (1 Bft) N-NW 336 ° 0 min 0,000 mm 0,9 UV-I 107 W/m² 2,4 °C 3,1 °C 3,2 km/h (1 Bft)
26.04.2017 12:37 3,1 °C 3,1 °C 95 % 1007,7 hPa 0,0 mm 1,9 km/h (1 Bft) N-NW 336 ° 0 min 0,000 mm 0,9 UV-I 102 W/m² 2,4 °C 3,1 °C 3,2 km/h (1 Bft)
26.04.2017 12:38 3,1 °C 3,1 °C 95 % 1007,7 hPa 0,0 mm 2,4 km/h (1 Bft) N-NW 336 ° 0 min 0,000 mm 0,9 UV-I 98 W/m² 2,4 °C 3,1 °C 3,2 km/h (1 Bft)
26.04.2017 12:39 3,1 °C 3,1 °C 95 % 1007,7 hPa 0,0 mm 2,9 km/h (1 Bft) N-NW 331 ° 0 min 0,000 mm 0,9 UV-I 102 W/m² 2,4 °C 3,1 °C 4,8 km/h (1 Bft)
26.04.2017 12:40 3,2 °C 3,2 °C 95 % 1007,7 hPa 0,0 mm 4,3 km/h (1 Bft) NW 321 ° 0 min 0,000 mm 1,0 UV-I 109 W/m² 2,5 °C 3,2 °C 6,4 km/h (2 Bft)
26.04.2017 12:41 3,2 °C 3,2 °C 95 % 1007,7 hPa 0,0 mm 3,6 km/h (1 Bft) NW 317 ° 0 min 0,000 mm 1,0 UV-I 116 W/m² 2,5 °C 3,2 °C 4,8 km/h (1 Bft)
26.04.2017 12:42 3,2 °C 3,2 °C 95 % 1007,7 hPa 0,0 mm 2,0 km/h (1 Bft) NW 317 ° 0 min 0,000 mm 1,1 UV-I 127 W/m² 2,5 °C 3,2 °C 3,2 km/h (1 Bft)
26.04.2017 12:43 3,2 °C 3,2 °C 95 % 1007,7 hPa 0,0 mm 2,6 km/h (1 Bft) NW 317 ° 0 min 0,000 mm 1,2 UV-I 134 W/m² 2,5 °C 3,2 °C 4,8 km/h (1 Bft)
26.04.2017 12:44 3,2 °C 3,2 °C 95 % 1007,7 hPa 0,0 mm 0,9 km/h (0 Bft) NW 317 ° 0 min 0,000 mm 1,2 UV-I 137 W/m² 2,5 °C 3,2 °C 1,6 km/h (1 Bft)
26.04.2017 12:45 3,2 °C 3,3 °C 95 % 1007,7 hPa 0,0 mm 0,1 km/h (0 Bft) NW 317 ° 0 min 0,000 mm 1,2 UV-I 139 W/m² 2,5 °C 3,2 °C 1,6 km/h (1 Bft)
26.04.2017 12:46 3,2 °C 3,2 °C 95 % 1007,7 hPa 0,0 mm 0,0 km/h (0 Bft) NW 317 ° 0 min 0,000 mm 1,2 UV-I 141 W/m² 2,5 °C 3,2 °C 0,0 km/h (0 Bft)
26.04.2017 12:47 3,2 °C 3,2 °C 95 % 1007,7 hPa 0,0 mm 0,3 km/h (0 Bft) N-NW 335 ° 0 min 0,000 mm 1,2 UV-I 142 W/m² 2,5 °C 3,2 °C 1,6 km/h (1 Bft)
26.04.2017 12:48 3,2 °C 3,2 °C 95 % 1007,7 hPa 0,0 mm 2,4 km/h (1 Bft) N-NW 335 ° 0 min 0,000 mm 1,2 UV-I 142 W/m² 2,5 °C 3,2 °C 3,2 km/h (1 Bft)
26.04.2017 12:49 3,2 °C 3,2 °C 94 % 1007,7 hPa 0,0 mm 4,2 km/h (1 Bft) N-NO 22 ° 0 min 0,000 mm 1,2 UV-I 141 W/m² 2,3 °C 3,2 °C 4,8 km/h (1 Bft)
26.04.2017 12:50 3,1 °C 3,2 °C 94 % 1007,7 hPa 0,0 mm 2,1 km/h (1 Bft) N-NO 22 ° 0 min 0,000 mm 1,1 UV-I 127 W/m² 2,2 °C 3,1 °C 3,2 km/h (1 Bft)
26.04.2017 12:51 3,1 °C 3,2 °C 94 % 1007,7 hPa 0,0 mm 2,7 km/h (1 Bft) N-NO 22 ° 0 min 0,000 mm 1,1 UV-I 125 W/m² 2,2 °C 3,1 °C 4,8 km/h (1 Bft)
26.04.2017 12:52 3,1 °C 3,1 °C 94 % 1007,8 hPa 0,0 mm 3,4 km/h (1 Bft) N-NO 19 ° 0 min 0,000 mm 1,1 UV-I 125 W/m² 2,2 °C 3,1 °C 4,8 km/h (1 Bft)
26.04.2017 12:53 3,2 °C 3,2 °C 94 % 1007,8 hPa 0,0 mm 3,0 km/h (1 Bft) N-NO 15 ° 0 min 0,000 mm 1,1 UV-I 128 W/m² 2,3 °C 3,2 °C 4,8 km/h (1 Bft)
26.04.2017 12:54 3,2 °C 3,2 °C 94 % 1007,8 hPa 0,2 mm 1,0 km/h (0 Bft) N-NO 15 ° 0 min 0,000 mm 1,1 UV-I 130 W/m² 2,3 °C 3,2 °C 3,2 km/h (1 Bft)
26.04.2017 12:55 3,3 °C 3,3 °C 94 % 1007,8 hPa 0,0 mm 2,4 km/h (1 Bft) N-NO 15 ° 0 min 0,000 mm 1,1 UV-I 130 W/m² 2,4 °C 3,3 °C 3,2 km/h (1 Bft)
26.04.2017 12:56 3,3 °C 3,3 °C 94 % 1007,8 hPa 0,0 mm 2,3 km/h (1 Bft) N-NO 15 ° 0 min 0,000 mm 1,1 UV-I 135 W/m² 2,4 °C 3,3 °C 3,2 km/h (1 Bft)
26.04.2017 12:57 3,3 °C 3,3 °C 94 % 1007,9 hPa 0,0 mm 1,2 km/h (1 Bft) N-NO 15 ° 0 min 0,000 mm 1,2 UV-I 135 W/m² 2,4 °C 3,3 °C 3,2 km/h (1 Bft)
26.04.2017 12:58 3,3 °C 3,3 °C 94 % 1007,8 hPa 0,0 mm 2,9 km/h (1 Bft) N-NO 15 ° 0 min 0,000 mm 1,2 UV-I 139 W/m² 2,4 °C 3,3 °C 3,2 km/h (1 Bft)
26.04.2017 12:59 3,3 °C 3,4 °C 94 % 1007,9 hPa 0,0 mm 2,4 km/h (1 Bft) N-NO 15 ° 0 min 0,000 mm 1,2 UV-I 139 W/m² 2,4 °C 3,3 °C 3,2 km/h (1 Bft)
26.04.2017 13:00 3,3 °C 3,3 °C 94 % 1007,8 hPa 0,0 mm 3,0 km/h (1 Bft) NW 316 ° 0 min 0,000 mm 1,1 UV-I 135 W/m² 2,4 °C 3,3 °C 6,4 km/h (2 Bft)
26.04.2017 13:01 3,3 °C 3,3 °C 94 % 1007,8 hPa 0,0 mm 4,7 km/h (1 Bft) NW 323 ° 0 min 0,051 mm 1,1 UV-I 132 W/m² 2,4 °C 2,3 °C 6,4 km/h (2 Bft)
26.04.2017 13:02 3,3 °C 3,3 °C 94 % 1007,8 hPa 0,0 mm 2,2 km/h (1 Bft) NW 324 ° 0 min 0,000 mm 1,1 UV-I 135 W/m² 2,4 °C 3,3 °C 4,8 km/h (1 Bft)
26.04.2017 13:03 3,3 °C 3,3 °C 94 % 1007,9 hPa 0,0 mm 3,7 km/h (1 Bft) NW 325 ° 0 min 0,000 mm 1,2 UV-I 146 W/m² 2,4 °C 3,3 °C 4,8 km/h (1 Bft)
26.04.2017 13:04 3,3 °C 3,3 °C 94 % 1008,0 hPa 0,0 mm 3,0 km/h (1 Bft) NW 325 ° 0 min 0,000 mm 1,4 UV-I 160 W/m² 2,4 °C 3,3 °C 4,8 km/h (1 Bft)
26.04.2017 13:05 3,3 °C 3,3 °C 93 % 1008,0 hPa 0,0 mm 2,3 km/h (1 Bft) N-NW 328 ° 0 min 0,000 mm 1,5 UV-I 174 W/m² 2,3 °C 3,3 °C 3,2 km/h (1 Bft)
26.04.2017 13:06 3,3 °C 3,3 °C 94 % 1007,9 hPa 0,0 mm 2,7 km/h (1 Bft) NW 321 ° 0 min 0,000 mm 1,5 UV-I 183 W/m² 2,4 °C 3,3 °C 4,8 km/h (1 Bft)
26.04.2017 13:07 3,3 °C 3,3 °C 94 % 1007,9 hPa 0,0 mm 3,8 km/h (1 Bft) N-NW 347 ° 0 min 0,000 mm 1,6 UV-I 186 W/m² 2,4 °C 3,3 °C 6,4 km/h (2 Bft)
26.04.2017 13:08 3,4 °C 3,4 °C 94 % 1007,9 hPa 0,0 mm 5,4 km/h (1 Bft) N-NO 13 ° 0 min 0,000 mm 1,6 UV-I 188 W/m² 2,5 °C 2,1 °C 6,4 km/h (2 Bft)
26.04.2017 13:09 3,5 °C 3,5 °C 94 % 1007,9 hPa 0,0 mm 4,6 km/h (1 Bft) N-NW 329 ° 0 min 0,000 mm 1,6 UV-I 190 W/m² 2,6 °C 2,6 °C 8,0 km/h (2 Bft)
26.04.2017 13:10 3,6 °C 3,6 °C 94 % 1007,9 hPa 0,0 mm 1,5 km/h (1 Bft) NW 322 ° 0 min 0,000 mm 1,6 UV-I 193 W/m² 2,7 °C 3,6 °C 4,8 km/h (1 Bft)
26.04.2017 13:11 3,6 °C 3,6 °C 94 % 1007,9 hPa 0,0 mm 5,1 km/h (1 Bft) N-NW 338 ° 0 min 0,000 mm 1,6 UV-I 193 W/m² 2,7 °C 2,5 °C 6,4 km/h (2 Bft)
26.04.2017 13:12 3,6 °C 3,6 °C 94 % 1007,9 hPa 0,0 mm 3,8 km/h (1 Bft) N 350 ° 0 min 0,000 mm 1,6 UV-I 195 W/m² 2,7 °C 3,6 °C 6,4 km/h (2 Bft)
26.04.2017 13:13 3,6 °C 3,6 °C 94 % 1007,9 hPa 0,0 mm 4,2 km/h (1 Bft) N 355 ° 0 min 0,000 mm 1,6 UV-I 193 W/m² 2,7 °C 3,6 °C 6,4 km/h (2 Bft)
26.04.2017 13:14 3,6 °C 3,6 °C 94 % 1007,9 hPa 0,0 mm 6,9 km/h (2 Bft) N 5 ° 0 min 0,000 mm 1,6 UV-I 188 W/m² 2,7 °C 1,8 °C 8,0 km/h (2 Bft)
26.04.2017 13:15 3,5 °C 3,6 °C 93 % 1007,9 hPa 0,0 mm 5,6 km/h (1 Bft) N 5 ° 0 min 0,000 mm 1,6 UV-I 188 W/m² 2,5 °C 2,1 °C 8,0 km/h (2 Bft)
26.04.2017 13:16 3,3 °C 3,5 °C 93 % 1007,9 hPa 0,0 mm 4,2 km/h (1 Bft) N 9 ° 0 min 0,000 mm 1,6 UV-I 190 W/m² 2,3 °C 3,3 °C 4,8 km/h (1 Bft)
26.04.2017 13:17 3,3 °C 3,3 °C 93 % 1008,0 hPa 0,0 mm 4,6 km/h (1 Bft) N 9 ° 0 min 0,000 mm 1,6 UV-I 186 W/m² 2,3 °C 2,3 °C 8,0 km/h (2 Bft)
26.04.2017 13:18 3,2 °C 3,3 °C 93 % 1007,9 hPa 0,0 mm 2,7 km/h (1 Bft) N 9 ° 0 min 0,000 mm 1,5 UV-I 181 W/m² 2,2 °C 3,2 °C 6,4 km/h (2 Bft)
26.04.2017 13:19 3,2 °C 3,2 °C 92 % 1008,0 hPa 0,2 mm 3,1 km/h (1 Bft) N-NO 27 ° 0 min 0,000 mm 1,5 UV-I 178 W/m² 2,0 °C 3,2 °C 6,4 km/h (2 Bft)
26.04.2017 13:20 3,2 °C 3,2 °C 93 % 1008,0 hPa 0,0 mm 3,7 km/h (1 Bft) NO 34 ° 0 min 0,000 mm 1,5 UV-I 188 W/m² 2,2 °C 3,2 °C 4,8 km/h (1 Bft)
26.04.2017 13:21 3,2 °C 3,2 °C 93 % 1008,0 hPa 0,0 mm 3,8 km/h (1 Bft) N-NO 21 ° 0 min 0,000 mm 1,6 UV-I 204 W/m² 2,2 °C 3,2 °C 4,8 km/h (1 Bft)
26.04.2017 13:22 3,2 °C 3,2 °C 93 % 1008,0 hPa 0,0 mm 4,8 km/h (1 Bft) O-NO 58 ° 0 min 0,000 mm 1,7 UV-I 209 W/m² 2,2 °C 2,1 °C 8,0 km/h (2 Bft)
26.04.2017 13:23 3,2 °C 3,2 °C 93 % 1007,9 hPa 0,0 mm 5,3 km/h (1 Bft) NO 53 ° 0 min 0,000 mm 1,7 UV-I 211 W/m² 2,2 °C 1,9 °C 6,4 km/h (2 Bft)
26.04.2017 13:24 3,2 °C 3,3 °C 93 % 1008,0 hPa 0,0 mm 3,8 km/h (1 Bft) NO 42 ° 0 min 0,000 mm 1,6 UV-I 206 W/m² 2,2 °C 3,2 °C 6,4 km/h (2 Bft)
26.04.2017 13:25 3,3 °C 3,3 °C 93 % 1008,0 hPa 0,0 mm 3,0 km/h (1 Bft) NO 42 ° 0 min 0,000 mm 1,6 UV-I 193 W/m² 2,3 °C 3,3 °C 4,8 km/h (1 Bft)
26.04.2017 13:26 3,2 °C 3,3 °C 92 % 1008,0 hPa 0,0 mm 5,8 km/h (2 Bft) NO 40 ° 0 min 0,000 mm 1,5 UV-I 188 W/m² 2,0 °C 1,7 °C 8,0 km/h (2 Bft)
26.04.2017 13:27 3,2 °C 3,2 °C 92 % 1008,0 hPa 0,0 mm 1,9 km/h (1 Bft) NO 36 ° 0 min 0,000 mm 1,5 UV-I 185 W/m² 2,0 °C 3,2 °C 3,2 km/h (1 Bft)
26.04.2017 13:28 3,3 °C 3,3 °C 93 % 1008,0 hPa 0,0 mm 3,9 km/h (1 Bft) NO 35 ° 0 min 0,000 mm 1,5 UV-I 186 W/m² 2,3 °C 3,3 °C 6,4 km/h (2 Bft)
26.04.2017 13:29 3,3 °C 3,3 °C 93 % 1008,0 hPa 0,0 mm 1,9 km/h (1 Bft) NO 34 ° 0 min 0,000 mm 1,6 UV-I 186 W/m² 2,3 °C 3,3 °C 4,8 km/h (1 Bft)
26.04.2017 13:30 3,3 °C 3,3 °C 93 % 1008,0 hPa 0,0 mm 3,5 km/h (1 Bft) N-NO 25 ° 0 min 0,000 mm 1,6 UV-I 188 W/m² 2,3 °C 3,3 °C 4,8 km/h (1 Bft)
26.04.2017 13:31 3,4 °C 3,4 °C 93 % 1008,1 hPa 0,0 mm 3,9 km/h (1 Bft) N 355 ° 0 min 0,000 mm 1,5 UV-I 178 W/m² 2,4 °C 3,4 °C 6,4 km/h (2 Bft)
26.04.2017 13:32 3,4 °C 3,4 °C 93 % 1008,1 hPa 0,0 mm 4,0 km/h (1 Bft) N 355 ° 0 min 0,000 mm 1,4 UV-I 167 W/m² 2,4 °C 3,4 °C 4,8 km/h (1 Bft)
26.04.2017 13:33 3,4 °C 3,4 °C 93 % 1008,1 hPa 0,0 mm 3,2 km/h (1 Bft) N 360 ° 0 min 0,000 mm 1,4 UV-I 163 W/m² 2,4 °C 3,4 °C 4,8 km/h (1 Bft)
26.04.2017 13:34 3,5 °C 3,5 °C 93 % 1008,1 hPa 0,0 mm 0,8 km/h (0 Bft) N 355 ° 0 min 0,000 mm 1,4 UV-I 162 W/m² 2,5 °C 3,5 °C 1,6 km/h (1 Bft)
26.04.2017 13:35 3,6 °C 3,6 °C 93 % 1008,1 hPa 0,0 mm 2,3 km/h (1 Bft) N 355 ° 0 min 0,000 mm 1,3 UV-I 160 W/m² 2,6 °C 3,6 °C 4,8 km/h (1 Bft)
26.04.2017 13:36 3,6 °C 3,6 °C 93 % 1008,1 hPa 0,0 mm 3,2 km/h (1 Bft) N 5 ° 0 min 0,000 mm 1,3 UV-I 155 W/m² 2,6 °C 3,6 °C 4,8 km/h (1 Bft)
26.04.2017 13:37 3,6 °C 3,6 °C 93 % 1008,1 hPa 0,0 mm 3,5 km/h (1 Bft) NO 43 ° 0 min 0,000 mm 1,3 UV-I 151 W/m² 2,6 °C 3,6 °C 4,8 km/h (1 Bft)
26.04.2017 13:38 3,5 °C 3,6 °C 92 % 1008,1 hPa 0,0 mm 3,9 km/h (1 Bft) NO 49 ° 0 min 0,000 mm 1,3 UV-I 155 W/m² 2,3 °C 3,5 °C 6,4 km/h (2 Bft)
26.04.2017 13:39 3,4 °C 3,5 °C 92 % 1008,1 hPa 0,0 mm 3,8 km/h (1 Bft) NO 49 ° 0 min 0,000 mm 1,3 UV-I 156 W/m² 2,2 °C 3,4 °C 4,8 km/h (1 Bft)
26.04.2017 13:40 3,4 °C 3,4 °C 92 % 1008,1 hPa 0,0 mm 1,6 km/h (1 Bft) NO 49 ° 0 min 0,000 mm 1,3 UV-I 158 W/m² 2,2 °C 3,4 °C 3,2 km/h (1 Bft)
26.04.2017 13:41 3,3 °C 3,4 °C 92 % 1008,0 hPa 0,0 mm 4,0 km/h (1 Bft) NO 49 ° 0 min 0,000 mm 1,3 UV-I 155 W/m² 2,1 °C 3,3 °C 4,8 km/h (1 Bft)
26.04.2017 13:42 3,3 °C 3,3 °C 92 % 1008,1 hPa 0,0 mm 2,3 km/h (1 Bft) NO 43 ° 0 min 0,000 mm 1,3 UV-I 155 W/m² 2,1 °C 3,3 °C 3,2 km/h (1 Bft)
26.04.2017 13:43 3,3 °C 3,3 °C 93 % 1008,1 hPa 0,0 mm 2,1 km/h (1 Bft) NO 43 ° 0 min 0,000 mm 1,3 UV-I 153 W/m² 2,3 °C 3,3 °C 3,2 km/h (1 Bft)
26.04.2017 13:44 3,3 °C 3,3 °C 93 % 1008,1 hPa 0,0 mm 3,5 km/h (1 Bft) N-NO 13 ° 0 min 0,000 mm 1,3 UV-I 151 W/m² 2,3 °C 3,3 °C 4,8 km/h (1 Bft)
26.04.2017 13:45 3,3 °C 3,3 °C 93 % 1008,1 hPa 0,0 mm 2,1 km/h (1 Bft) N-NO 13 ° 0 min 0,000 mm 1,3 UV-I 149 W/m² 2,3 °C 3,3 °C 3,2 km/h (1 Bft)
26.04.2017 13:46 3,4 °C 3,4 °C 93 % 1008,1 hPa 0,0 mm 1,4 km/h (1 Bft) N-NO 13 ° 0 min 0,000 mm 1,3 UV-I 153 W/m² 2,4 °C 3,4 °C 3,2 km/h (1 Bft)
26.04.2017 13:47 3,4 °C 3,4 °C 93 % 1008,1 hPa 0,2 mm 4,5 km/h (1 Bft) NW 313 ° 0 min 0,000 mm 1,3 UV-I 156 W/m² 2,4 °C 3,4 °C 6,4 km/h (2 Bft)
26.04.2017 13:48 3,5 °C 3,5 °C 93 % 1008,1 hPa 0,0 mm 3,3 km/h (1 Bft) N-NW 342 ° 0 min 0,000 mm 1,3 UV-I 160 W/m² 2,5 °C 3,5 °C 4,8 km/h (1 Bft)
26.04.2017 13:49 3,5 °C 3,5 °C 93 % 1008,1 hPa 0,0 mm 5,1 km/h (1 Bft) N-NW 345 ° 0 min 0,000 mm 1,3 UV-I 155 W/m² 2,5 °C 2,3 °C 6,4 km/h (2 Bft)
26.04.2017 13:50 3,5 °C 3,5 °C 93 % 1008,2 hPa 0,0 mm 4,6 km/h (1 Bft) N-NW 333 ° 0 min 0,000 mm 1,3 UV-I 155 W/m² 2,5 °C 2,6 °C 6,4 km/h (2 Bft)
26.04.2017 13:51 3,6 °C 3,6 °C 93 % 1008,2 hPa 0,0 mm 3,0 km/h (1 Bft) N 355 ° 0 min 0,000 mm 1,3 UV-I 153 W/m² 2,6 °C 3,6 °C 4,8 km/h (1 Bft)
26.04.2017 13:52 3,5 °C 3,6 °C 93 % 1008,2 hPa 0,0 mm 2,1 km/h (1 Bft) N 355 ° 0 min 0,000 mm 1,3 UV-I 153 W/m² 2,5 °C 3,5 °C 3,2 km/h (1 Bft)
26.04.2017 13:53 3,5 °C 3,5 °C 93 % 1008,2 hPa 0,0 mm 1,2 km/h (1 Bft) N 355 ° 0 min 0,000 mm 1,3 UV-I 155 W/m² 2,5 °C 3,5 °C 3,2 km/h (1 Bft)
26.04.2017 13:54 3,5 °C 3,6 °C 93 % 1008,2 hPa 0,0 mm 3,4 km/h (1 Bft) N 360 ° 0 min 0,000 mm 1,4 UV-I 174 W/m² 2,5 °C 3,5 °C 6,4 km/h (2 Bft)
26.04.2017 13:55 3,5 °C 3,6 °C 93 % 1008,2 hPa 0,0 mm 5,4 km/h (1 Bft) N-NO 16 ° 0 min 0,000 mm 1,4 UV-I 181 W/m² 2,5 °C 2,2 °C 6,4 km/h (2 Bft)
26.04.2017 13:56 3,4 °C 3,5 °C 92 % 1008,1 hPa 0,0 mm 2,6 km/h (1 Bft) N-NO 16 ° 0 min 0,000 mm 1,5 UV-I 183 W/m² 2,2 °C 3,4 °C 4,8 km/h (1 Bft)
26.04.2017 13:57 3,4 °C 3,4 °C 92 % 1008,1 hPa 0,0 mm 3,3 km/h (1 Bft) N-NO 17 ° 0 min 0,000 mm 1,5 UV-I 183 W/m² 2,2 °C 3,4 °C 6,4 km/h (2 Bft)
26.04.2017 13:58 3,4 °C 3,4 °C 93 % 1008,1 hPa 0,0 mm 5,2 km/h (1 Bft) N-NO 17 ° 0 min 0,000 mm 1,5 UV-I 178 W/m² 2,4 °C 2,2 °C 8,0 km/h (2 Bft)
26.04.2017 13:59 3,3 °C 3,4 °C 92 % 1008,2 hPa 0,0 mm 3,4 km/h (1 Bft) N-NO 17 ° 0 min 0,000 mm 1,4 UV-I 167 W/m² 2,1 °C 3,3 °C 4,8 km/h (1 Bft)
26.04.2017 14:00 3,3 °C 3,3 °C 93 % 1008,2 hPa 0,0 mm 0,8 km/h (0 Bft) N-NO 17 ° 0 min 0,076 mm 1,3 UV-I 149 W/m² 2,3 °C 3,3 °C 1,6 km/h (1 Bft)
26.04.2017 14:01 3,4 °C 3,4 °C 93 % 1008,2 hPa 0,0 mm 5,8 km/h (2 Bft) N 11 ° 0 min 0,000 mm 1,2 UV-I 146 W/m² 2,4 °C 2,0 °C 8,0 km/h (2 Bft)
26.04.2017 14:02 3,4 °C 3,4 °C 93 % 1008,2 hPa 0,0 mm 4,8 km/h (1 Bft) N 11 ° 0 min 0,000 mm 1,2 UV-I 139 W/m² 2,4 °C 2,4 °C 6,4 km/h (2 Bft)
26.04.2017 14:03 3,4 °C 3,4 °C 93 % 1008,2 hPa 0,0 mm 2,0 km/h (1 Bft) N 11 ° 0 min 0,000 mm 1,1 UV-I 135 W/m² 2,4 °C 3,4 °C 3,2 km/h (1 Bft)
26.04.2017 14:04 3,4 °C 3,4 °C 93 % 1008,2 hPa 0,0 mm 3,7 km/h (1 Bft) N 11 ° 0 min 0,000 mm 1,2 UV-I 134 W/m² 2,4 °C 3,4 °C 4,8 km/h (1 Bft)
26.04.2017 14:05 3,4 °C 3,4 °C 93 % 1008,2 hPa 0,0 mm 3,6 km/h (1 Bft) N 11 ° 0 min 0,000 mm 1,2 UV-I 135 W/m² 2,4 °C 3,4 °C 4,8 km/h (1 Bft)
26.04.2017 14:06 3,3 °C 3,4 °C 93 % 1008,3 hPa 0,0 mm 2,9 km/h (1 Bft) N 11 ° 0 min 0,000 mm 1,1 UV-I 128 W/m² 2,3 °C 3,3 °C 4,8 km/h (1 Bft)
26.04.2017 14:07 3,3 °C 3,3 °C 93 % 1008,3 hPa 0,0 mm 2,5 km/h (1 Bft) NW 313 ° 0 min 0,000 mm 1,0 UV-I 125 W/m² 2,3 °C 3,3 °C 4,8 km/h (1 Bft)
26.04.2017 14:08 3,3 °C 3,4 °C 93 % 1008,3 hPa 0,0 mm 2,3 km/h (1 Bft) NW 315 ° 0 min 0,000 mm 1,0 UV-I 120 W/m² 2,3 °C 3,3 °C 3,2 km/h (1 Bft)
26.04.2017 14:09 3,3 °C 3,3 °C 93 % 1008,3 hPa 0,0 mm 3,2 km/h (1 Bft) NW 315 ° 0 min 0,000 mm 1,0 UV-I 118 W/m² 2,3 °C 3,3 °C 4,8 km/h (1 Bft)
26.04.2017 14:10 3,3 °C 3,4 °C 93 % 1008,3 hPa 0,0 mm 0,6 km/h (0 Bft) NW 315 ° 0 min 0,000 mm 0,9 UV-I 113 W/m² 2,3 °C 3,3 °C 1,6 km/h (1 Bft)
26.04.2017 14:11 3,3 °C 3,3 °C 93 % 1008,4 hPa 0,0 mm 2,2 km/h (1 Bft) NW 321 ° 0 min 0,000 mm 0,8 UV-I 107 W/m² 2,3 °C 3,3 °C 3,2 km/h (1 Bft)
26.04.2017 14:12 3,3 °C 3,3 °C 93 % 1008,4 hPa 0,0 mm 3,6 km/h (1 Bft) N 355 ° 0 min 0,000 mm 0,8 UV-I 91 W/m² 2,3 °C 3,3 °C 4,8 km/h (1 Bft)
26.04.2017 14:13 3,4 °C 3,4 °C 93 % 1008,4 hPa 0,0 mm 4,8 km/h (1 Bft) N 360 ° 0 min 0,000 mm 0,7 UV-I 90 W/m² 2,4 °C 2,4 °C 6,4 km/h (2 Bft)
26.04.2017 14:14 3,4 °C 3,4 °C 93 % 1008,4 hPa 0,0 mm 6,8 km/h (2 Bft) N-NO 24 ° 0 min 0,000 mm 0,8 UV-I 93 W/m² 2,4 °C 1,6 °C 8,0 km/h (2 Bft)
26.04.2017 14:15 3,3 °C 3,4 °C 93 % 1008,4 hPa 0,0 mm 5,0 km/h (1 Bft) N 5 ° 0 min 0,000 mm 0,8 UV-I 100 W/m² 2,3 °C 2,2 °C 8,0 km/h (2 Bft)
26.04.2017 14:16 3,2 °C 3,3 °C 92 % 1008,4 hPa 0,0 mm 2,2 km/h (1 Bft) N 5 ° 0 min 0,000 mm 0,9 UV-I 100 W/m² 2,0 °C 3,2 °C 4,8 km/h (1 Bft)
26.04.2017 14:17 3,3 °C 3,3 °C 93 % 1008,4 hPa 0,0 mm 2,4 km/h (1 Bft) N 5 ° 0 min 0,000 mm 0,9 UV-I 107 W/m² 2,3 °C 3,3 °C 4,8 km/h (1 Bft)
26.04.2017 14:18 3,3 °C 3,3 °C 93 % 1008,4 hPa 0,0 mm 2,0 km/h (1 Bft) N 5 ° 0 min 0,000 mm 0,8 UV-I 107 W/m² 2,3 °C 3,3 °C 3,2 km/h (1 Bft)
26.04.2017 14:19 3,3 °C 3,3 °C 94 % 1008,4 hPa 0,0 mm 3,6 km/h (1 Bft) NO 34 ° 0 min 0,000 mm 0,8 UV-I 104 W/m² 2,4 °C 3,3 °C 4,8 km/h (1 Bft)
26.04.2017 14:20 3,3 °C 3,3 °C 94 % 1008,5 hPa 0,0 mm 1,5 km/h (1 Bft) NO 34 ° 0 min 0,000 mm 0,7 UV-I 91 W/m² 2,4 °C 3,3 °C 3,2 km/h (1 Bft)
26.04.2017 14:21 3,3 °C 3,3 °C 93 % 1008,6 hPa 0,2 mm 2,6 km/h (1 Bft) N-NO 13 ° 0 min 0,000 mm 0,6 UV-I 81 W/m² 2,3 °C 3,3 °C 4,8 km/h (1 Bft)
26.04.2017 14:22 3,3 °C 3,3 °C 93 % 1008,6 hPa 0,0 mm 3,2 km/h (1 Bft) N-NW 346 ° 0 min 0,000 mm 0,6 UV-I 74 W/m² 2,3 °C 3,3 °C 8,0 km/h (2 Bft)
26.04.2017 14:23 3,3 °C 3,3 °C 94 % 1008,6 hPa 0,0 mm 6,9 km/h (2 Bft) N-NW 343 ° 0 min 0,000 mm 0,6 UV-I 72 W/m² 2,4 °C 1,5 °C 11,3 km/h (2 Bft)
26.04.2017 14:24 3,2 °C 3,3 °C 93 % 1008,6 hPa 0,0 mm 5,1 km/h (1 Bft) N 5 ° 0 min 0,000 mm 0,6 UV-I 76 W/m² 2,2 °C 2,0 °C 6,4 km/h (2 Bft)
26.04.2017 14:25 3,2 °C 3,2 °C 93 % 1008,6 hPa 0,0 mm 4,2 km/h (1 Bft) N-NW 345 ° 0 min 0,000 mm 0,7 UV-I 81 W/m² 2,2 °C 3,2 °C 6,4 km/h (2 Bft)
26.04.2017 14:26 3,1 °C 3,2 °C 93 % 1008,6 hPa 0,0 mm 4,6 km/h (1 Bft) N 11 ° 0 min 0,000 mm 0,7 UV-I 84 W/m² 2,1 °C 2,1 °C 4,8 km/h (1 Bft)
26.04.2017 14:27 3,0 °C 3,1 °C 93 % 1008,5 hPa 0,0 mm 4,5 km/h (1 Bft) N 5 ° 0 min 0,000 mm 0,7 UV-I 90 W/m² 2,0 °C 3,0 °C 6,4 km/h (2 Bft)
26.04.2017 14:28 2,9 °C 3,0 °C 93 % 1008,5 hPa 0,0 mm 5,6 km/h (1 Bft) N-NW 347 ° 0 min 0,000 mm 0,8 UV-I 95 W/m² 1,9 °C 1,5 °C 8,0 km/h (2 Bft)
26.04.2017 14:29 2,9 °C 2,9 °C 93 % 1008,5 hPa 0,0 mm 3,9 km/h (1 Bft) N-NW 346 ° 0 min 0,000 mm 0,8 UV-I 97 W/m² 1,9 °C 2,9 °C 6,4 km/h (2 Bft)
26.04.2017 14:30 2,8 °C 2,9 °C 93 % 1008,6 hPa 0,0 mm 5,3 km/h (1 Bft) N 355 ° 0 min 0,000 mm 0,8 UV-I 107 W/m² 1,8 °C 1,5 °C 6,4 km/h (2 Bft)
26.04.2017 14:31 2,9 °C 2,9 °C 93 % 1008,6 hPa 0,0 mm 5,1 km/h (1 Bft) N 360 ° 0 min 0,000 mm 0,9 UV-I 113 W/m² 1,9 °C 1,7 °C 8,0 km/h (2 Bft)
26.04.2017 14:32 2,8 °C 2,9 °C 94 % 1008,6 hPa 0,0 mm 5,6 km/h (1 Bft) NW 319 ° 0 min 0,000 mm 0,9 UV-I 114 W/m² 1,9 °C 1,3 °C 6,4 km/h (2 Bft)
26.04.2017 14:33 2,8 °C 2,8 °C 93 % 1008,6 hPa 0,0 mm 5,3 km/h (1 Bft) N-NW 331 ° 0 min 0,000 mm 0,9 UV-I 113 W/m² 1,8 °C 1,5 °C 6,4 km/h (2 Bft)
26.04.2017 14:34 2,8 °C 2,8 °C 93 % 1008,7 hPa 0,0 mm 4,7 km/h (1 Bft) N-NW 348 ° 0 min 0,000 mm 0,9 UV-I 109 W/m² 1,8 °C 1,7 °C 6,4 km/h (2 Bft)
26.04.2017 14:35 2,8 °C 2,8 °C 93 % 1008,7 hPa 0,0 mm 2,8 km/h (1 Bft) N-NW 344 ° 0 min 0,000 mm 0,9 UV-I 109 W/m² 1,8 °C 2,8 °C 4,8 km/h (1 Bft)
26.04.2017 14:36 2,8 °C 2,8 °C 93 % 1008,7 hPa 0,2 mm 1,7 km/h (1 Bft) N-NW 344 ° 0 min 0,000 mm 0,9 UV-I 114 W/m² 1,8 °C 2,8 °C 3,2 km/h (1 Bft)
26.04.2017 14:37 2,8 °C 2,8 °C 93 % 1008,7 hPa 0,0 mm 1,6 km/h (1 Bft) N-NO 19 ° 0 min 0,000 mm 0,9 UV-I 116 W/m² 1,8 °C 2,8 °C 3,2 km/h (1 Bft)
26.04.2017 14:38 2,7 °C 2,8 °C 93 % 1008,7 hPa 0,0 mm 2,5 km/h (1 Bft) N-NO 32 ° 0 min 0,000 mm 1,0 UV-I 118 W/m² 1,7 °C 2,7 °C 3,2 km/h (1 Bft)
26.04.2017 14:39 2,7 °C 2,7 °C 93 % 1008,7 hPa 0,0 mm 3,0 km/h (1 Bft) N-NO 32 ° 0 min 0,000 mm 1,0 UV-I 118 W/m² 1,7 °C 2,7 °C 3,2 km/h (1 Bft)
26.04.2017 14:40 2,7 °C 2,7 °C 93 % 1008,7 hPa 0,0 mm 1,3 km/h (1 Bft) N-NO 32 ° 0 min 0,000 mm 1,0 UV-I 120 W/m² 1,7 °C 2,7 °C 3,2 km/h (1 Bft)
26.04.2017 14:41 2,7 °C 2,7 °C 93 % 1008,7 hPa 0,0 mm 2,5 km/h (1 Bft) NO 43 ° 0 min 0,000 mm 1,0 UV-I 121 W/m² 1,7 °C 2,7 °C 4,8 km/h (1 Bft)
26.04.2017 14:42 2,6 °C 2,7 °C 93 % 1008,7 hPa 0,0 mm 3,3 km/h (1 Bft) N-NO 32 ° 0 min 0,000 mm 1,0 UV-I 125 W/m² 1,6 °C 2,6 °C 4,8 km/h (1 Bft)
26.04.2017 14:43 2,6 °C 2,6 °C 93 % 1008,7 hPa 0,0 mm 3,4 km/h (1 Bft) NO 49 ° 0 min 0,000 mm 1,0 UV-I 130 W/m² 1,6 °C 2,6 °C 4,8 km/h (1 Bft)
26.04.2017 14:44 2,6 °C 2,6 °C 93 % 1008,6 hPa 0,0 mm 4,9 km/h (1 Bft) NO 49 ° 0 min 0,000 mm 1,0 UV-I 130 W/m² 1,6 °C 1,4 °C 8,0 km/h (2 Bft)
26.04.2017 14:45 2,6 °C 2,6 °C 93 % 1008,7 hPa 0,0 mm 2,6 km/h (1 Bft) NO 49 ° 0 min 0,000 mm 1,0 UV-I 125 W/m² 1,6 °C 2,6 °C 4,8 km/h (1 Bft)
26.04.2017 14:46 2,6 °C 2,6 °C 93 % 1008,7 hPa 0,0 mm 2,9 km/h (1 Bft) NO 49 ° 0 min 0,000 mm 0,9 UV-I 114 W/m² 1,6 °C 2,6 °C 4,8 km/h (1 Bft)
26.04.2017 14:47 2,5 °C 2,6 °C 93 % 1008,7 hPa 0,0 mm 0,9 km/h (0 Bft) NO 38 ° 0 min 0,000 mm 0,9 UV-I 102 W/m² 1,5 °C 2,5 °C 3,2 km/h (1 Bft)
26.04.2017 14:48 2,6 °C 2,6 °C 93 % 1008,8 hPa 0,0 mm 3,2 km/h (1 Bft) N 360 ° 0 min 0,000 mm 0,8 UV-I 100 W/m² 1,6 °C 2,6 °C 4,8 km/h (1 Bft)
26.04.2017 14:49 2,6 °C 2,6 °C 94 % 1008,8 hPa 0,0 mm 3,6 km/h (1 Bft) N 355 ° 0 min 0,000 mm 0,8 UV-I 100 W/m² 1,7 °C 2,6 °C 6,4 km/h (2 Bft)
26.04.2017 14:50 2,6 °C 2,6 °C 94 % 1008,8 hPa 0,0 mm 1,2 km/h (1 Bft) N 355 ° 0 min 0,000 mm 0,8 UV-I 104 W/m² 1,7 °C 2,6 °C 3,2 km/h (1 Bft)
26.04.2017 14:51 2,7 °C 2,7 °C 94 % 1008,8 hPa 0,0 mm 2,3 km/h (1 Bft) N-NW 348 ° 0 min 0,000 mm 0,9 UV-I 113 W/m² 1,8 °C 2,7 °C 4,8 km/h (1 Bft)
26.04.2017 14:52 2,7 °C 2,7 °C 94 % 1008,8 hPa 0,0 mm 3,6 km/h (1 Bft) N-NW 328 ° 0 min 0,000 mm 1,0 UV-I 121 W/m² 1,8 °C 2,7 °C 6,4 km/h (2 Bft)
26.04.2017 14:53 2,7 °C 2,7 °C 94 % 1008,8 hPa 0,0 mm 5,0 km/h (1 Bft) N-NW 336 ° 0 min 0,000 mm 1,0 UV-I 134 W/m² 1,8 °C 1,5 °C 6,4 km/h (2 Bft)
26.04.2017 14:54 2,7 °C 2,7 °C 94 % 1008,8 hPa 0,0 mm 3,0 km/h (1 Bft) N-NW 338 ° 0 min 0,000 mm 1,0 UV-I 128 W/m² 1,8 °C 2,7 °C 4,8 km/h (1 Bft)
26.04.2017 14:55 2,7 °C 2,7 °C 94 % 1008,7 hPa 0,0 mm 7,5 km/h (2 Bft) NW 317 ° 0 min 0,000 mm 1,0 UV-I 127 W/m² 1,8 °C 0,6 °C 11,3 km/h (2 Bft)
26.04.2017 14:56 2,7 °C 2,7 °C 94 % 1008,7 hPa 0,0 mm 4,4 km/h (1 Bft) N-NW 329 ° 0 min 0,000 mm 1,1 UV-I 132 W/m² 1,8 °C 2,7 °C 6,4 km/h (2 Bft)
26.04.2017 14:57 2,7 °C 2,7 °C 94 % 1008,7 hPa 0,0 mm 5,3 km/h (1 Bft) N-NW 331 ° 0 min 0,000 mm 1,2 UV-I 142 W/m² 1,8 °C 1,3 °C 8,0 km/h (2 Bft)
26.04.2017 14:58 2,7 °C 2,7 °C 94 % 1008,8 hPa 0,0 mm 5,3 km/h (1 Bft) NW 324 ° 0 min 0,000 mm 1,2 UV-I 146 W/m² 1,8 °C 1,3 °C 8,0 km/h (2 Bft)
26.04.2017 14:59 2,6 °C 2,7 °C 94 % 1008,9 hPa 0,0 mm 4,4 km/h (1 Bft) NW 316 ° 0 min 0,000 mm 1,1 UV-I 137 W/m² 1,7 °C 2,6 °C 6,4 km/h (2 Bft)
26.04.2017 15:00 2,6 °C 2,6 °C 94 % 1009,0 hPa 0,0 mm 3,2 km/h (1 Bft) NW 317 ° 0 min 0,051 mm 1,0 UV-I 127 W/m² 1,7 °C 2,6 °C 4,8 km/h (1 Bft)
26.04.2017 15:01 2,6 °C 2,7 °C 94 % 1009,0 hPa 0,0 mm 3,9 km/h (1 Bft) NW 319 ° 0 min 0,000 mm 0,9 UV-I 127 W/m² 1,7 °C 2,6 °C 4,8 km/h (1 Bft)
26.04.2017 15:02 2,6 °C 2,6 °C 94 % 1009,0 hPa 0,0 mm 4,2 km/h (1 Bft) N-NW 327 ° 0 min 0,000 mm 0,9 UV-I 114 W/m² 1,7 °C 2,6 °C 8,0 km/h (2 Bft)
26.04.2017 15:03 2,5 °C 2,6 °C 93 % 1009,0 hPa 0,0 mm 4,5 km/h (1 Bft) N-NW 340 ° 0 min 0,000 mm 1,0 UV-I 125 W/m² 1,5 °C 2,5 °C 6,4 km/h (2 Bft)
26.04.2017 15:04 2,4 °C 2,6 °C 94 % 1009,0 hPa 0,0 mm 3,5 km/h (1 Bft) N-NO 26 ° 0 min 0,000 mm 1,1 UV-I 132 W/m² 1,5 °C 2,4 °C 4,8 km/h (1 Bft)
26.04.2017 15:05 2,4 °C 2,4 °C 93 % 1008,9 hPa 0,0 mm 3,8 km/h (1 Bft) NW 324 ° 0 min 0,000 mm 1,1 UV-I 132 W/m² 1,4 °C 2,4 °C 4,8 km/h (1 Bft)
26.04.2017 15:06 2,3 °C 2,4 °C 93 % 1009,0 hPa 0,2 mm 2,3 km/h (1 Bft) NW 313 ° 0 min 0,000 mm 1,1 UV-I 132 W/m² 1,3 °C 2,3 °C 4,8 km/h (1 Bft)
26.04.2017 15:07 2,3 °C 2,3 °C 93 % 1009,0 hPa 0,0 mm 5,0 km/h (1 Bft) NW 320 ° 0 min 0,000 mm 1,0 UV-I 128 W/m² 1,3 °C 1,0 °C 6,4 km/h (2 Bft)
26.04.2017 15:08 2,3 °C 2,3 °C 93 % 1009,0 hPa 0,0 mm 3,3 km/h (1 Bft) NW 322 ° 0 min 0,000 mm 1,0 UV-I 120 W/m² 1,3 °C 2,3 °C 6,4 km/h (2 Bft)
26.04.2017 15:09 2,3 °C 2,3 °C 94 % 1009,1 hPa 0,0 mm 4,2 km/h (1 Bft) NW 313 ° 0 min 0,000 mm 0,9 UV-I 109 W/m² 1,4 °C 2,3 °C 6,4 km/h (2 Bft)
26.04.2017 15:10 2,3 °C 2,3 °C 93 % 1009,1 hPa 0,0 mm 3,0 km/h (1 Bft) NW 313 ° 0 min 0,000 mm 0,8 UV-I 102 W/m² 1,3 °C 2,3 °C 4,8 km/h (1 Bft)
26.04.2017 15:11 2,4 °C 2,4 °C 94 % 1009,1 hPa 0,0 mm 3,0 km/h (1 Bft) N-NW 331 ° 0 min 0,000 mm 0,9 UV-I 113 W/m² 1,5 °C 2,4 °C 4,8 km/h (1 Bft)
26.04.2017 15:12 2,4 °C 2,4 °C 94 % 1009,1 hPa 0,0 mm 2,7 km/h (1 Bft) N-NW 336 ° 0 min 0,000 mm 1,0 UV-I 123 W/m² 1,5 °C 2,4 °C 4,8 km/h (1 Bft)
26.04.2017 15:13 2,4 °C 2,4 °C 94 % 1009,2 hPa 0,0 mm 2,9 km/h (1 Bft) N-NW 336 ° 0 min 0,000 mm 1,0 UV-I 123 W/m² 1,5 °C 2,4 °C 4,8 km/h (1 Bft)
26.04.2017 15:14 2,4 °C 2,4 °C 94 % 1009,2 hPa 0,0 mm 3,6 km/h (1 Bft) N-NW 336 ° 0 min 0,000 mm 0,9 UV-I 114 W/m² 1,5 °C 2,4 °C 4,8 km/h (1 Bft)
26.04.2017 15:15 2,4 °C 2,4 °C 94 % 1009,2 hPa 0,0 mm 4,9 km/h (1 Bft) NW 321 ° 0 min 0,000 mm 0,9 UV-I 113 W/m² 1,5 °C 1,2 °C 6,4 km/h (2 Bft)
26.04.2017 15:16 2,3 °C 2,4 °C 94 % 1009,2 hPa 0,0 mm 3,0 km/h (1 Bft) NW 324 ° 0 min 0,000 mm 0,9 UV-I 114 W/m² 1,4 °C 2,3 °C 6,4 km/h (2 Bft)
26.04.2017 15:17 2,3 °C 2,3 °C 94 % 1009,2 hPa 0,0 mm 1,8 km/h (1 Bft) NW 324 ° 0 min 0,000 mm 1,0 UV-I 127 W/m² 1,4 °C 2,3 °C 3,2 km/h (1 Bft)
26.04.2017 15:18 2,3 °C 2,3 °C 94 % 1009,3 hPa 0,0 mm 1,5 km/h (1 Bft) NW 324 ° 0 min 0,000 mm 0,9 UV-I 121 W/m² 1,4 °C 2,3 °C 3,2 km/h (1 Bft)
26.04.2017 15:19 2,4 °C 2,4 °C 94 % 1009,3 hPa 0,0 mm 2,8 km/h (1 Bft) N 5 ° 0 min 0,000 mm 0,9 UV-I 118 W/m² 1,5 °C 2,4 °C 4,8 km/h (1 Bft)
26.04.2017 15:20 2,4 °C 2,4 °C 94 % 1009,2 hPa 0,0 mm 3,8 km/h (1 Bft) N-NW 337 ° 0 min 0,000 mm 1,0 UV-I 121 W/m² 1,5 °C 2,4 °C 4,8 km/h (1 Bft)
26.04.2017 15:21 2,4 °C 2,4 °C 94 % 1009,3 hPa 0,0 mm 3,4 km/h (1 Bft) N-NW 329 ° 0 min 0,000 mm 1,0 UV-I 123 W/m² 1,5 °C 2,4 °C 4,8 km/h (1 Bft)
26.04.2017 15:22 2,3 °C 2,4 °C 94 % 1009,2 hPa 0,0 mm 2,1 km/h (1 Bft) NW 313 ° 0 min 0,000 mm 1,0 UV-I 120 W/m² 1,4 °C 2,3 °C 3,2 km/h (1 Bft)
26.04.2017 15:23 2,3 °C 2,3 °C 93 % 1009,2 hPa 0,0 mm 2,5 km/h (1 Bft) NW 313 ° 0 min 0,000 mm 1,0 UV-I 123 W/m² 1,3 °C 2,3 °C 3,2 km/h (1 Bft)
26.04.2017 15:24 2,3 °C 2,3 °C 93 % 1009,2 hPa 0,0 mm 2,6 km/h (1 Bft) NW 313 ° 0 min 0,000 mm 1,0 UV-I 123 W/m² 1,3 °C 2,3 °C 4,8 km/h (1 Bft)
26.04.2017 15:25 2,2 °C 2,3 °C 93 % 1009,3 hPa 0,0 mm 1,4 km/h (1 Bft) NW 313 ° 0 min 0,000 mm 1,0 UV-I 120 W/m² 1,2 °C 2,2 °C 3,2 km/h (1 Bft)
26.04.2017 15:26 2,2 °C 2,2 °C 93 % 1009,3 hPa 0,0 mm 3,6 km/h (1 Bft) N-NW 348 ° 0 min 0,000 mm 1,0 UV-I 114 W/m² 1,2 °C 2,2 °C 6,4 km/h (2 Bft)
26.04.2017 15:27 2,3 °C 2,3 °C 94 % 1009,2 hPa 0,0 mm 2,1 km/h (1 Bft) N-NW 348 ° 0 min 0,000 mm 1,0 UV-I 113 W/m² 1,4 °C 2,3 °C 3,2 km/h (1 Bft)
26.04.2017 15:28 2,3 °C 2,3 °C 94 % 1009,3 hPa 0,0 mm 2,4 km/h (1 Bft) NW 323 ° 0 min 0,000 mm 1,0 UV-I 113 W/m² 1,4 °C 2,3 °C 4,8 km/h (1 Bft)
26.04.2017 15:29 2,3 °C 2,3 °C 94 % 1009,3 hPa 0,0 mm 2,1 km/h (1 Bft) N-NW 327 ° 0 min 0,000 mm 0,9 UV-I 113 W/m² 1,4 °C 2,3 °C 3,2 km/h (1 Bft)
26.04.2017 15:30 2,4 °C 2,4 °C 94 % 1009,3 hPa 0,0 mm 2,7 km/h (1 Bft) N-NW 330 ° 0 min 0,000 mm 0,9 UV-I 116 W/m² 1,5 °C 2,4 °C 3,2 km/h (1 Bft)
26.04.2017 15:31 2,4 °C 2,4 °C 94 % 1009,3 hPa 0,0 mm 3,2 km/h (1 Bft) N 5 ° 0 min 0,000 mm 0,9 UV-I 113 W/m² 1,5 °C 2,4 °C 4,8 km/h (1 Bft)
26.04.2017 15:32 2,3 °C 2,4 °C 94 % 1009,3 hPa 0,0 mm 3,3 km/h (1 Bft) N 5 ° 0 min 0,000 mm 0,9 UV-I 105 W/m² 1,4 °C 2,3 °C 4,8 km/h (1 Bft)
26.04.2017 15:33 2,3 °C 2,3 °C 93 % 1009,3 hPa 0,0 mm 2,6 km/h (1 Bft) N 5 ° 0 min 0,000 mm 0,8 UV-I 98 W/m² 1,3 °C 2,3 °C 4,8 km/h (1 Bft)
26.04.2017 15:34 2,3 °C 2,3 °C 93 % 1009,3 hPa 0,0 mm 2,2 km/h (1 Bft) N 5 ° 0 min 0,000 mm 0,8 UV-I 102 W/m² 1,3 °C 2,3 °C 3,2 km/h (1 Bft)
26.04.2017 15:35 2,3 °C 2,3 °C 94 % 1009,3 hPa 0,0 mm 3,7 km/h (1 Bft) N 9 ° 0 min 0,000 mm 0,9 UV-I 109 W/m² 1,4 °C 2,3 °C 6,4 km/h (2 Bft)
26.04.2017 15:36 2,3 °C 2,3 °C 94 % 1009,4 hPa 0,0 mm 1,8 km/h (1 Bft) N 5 ° 0 min 0,000 mm 0,9 UV-I 114 W/m² 1,4 °C 2,3 °C 3,2 km/h (1 Bft)
26.04.2017 15:37 2,3 °C 2,3 °C 93 % 1009,4 hPa 0,2 mm 0,9 km/h (0 Bft) N 5 ° 0 min 0,000 mm 0,9 UV-I 113 W/m² 1,3 °C 2,3 °C 1,6 km/h (1 Bft)
26.04.2017 15:38 2,3 °C 2,3 °C 93 % 1009,4 hPa 0,0 mm 1,0 km/h (0 Bft) N 5 ° 0 min 0,000 mm 0,8 UV-I 105 W/m² 1,3 °C 2,3 °C 3,2 km/h (1 Bft)
26.04.2017 15:39 2,2 °C 2,3 °C 93 % 1009,4 hPa 0,0 mm 3,1 km/h (1 Bft) N-NW 334 ° 0 min 0,000 mm 0,8 UV-I 102 W/m² 1,2 °C 2,2 °C 4,8 km/h (1 Bft)
26.04.2017 15:40 2,2 °C 2,3 °C 93 % 1009,4 hPa 0,0 mm 3,1 km/h (1 Bft) N-NW 334 ° 0 min 0,000 mm 0,9 UV-I 104 W/m² 1,2 °C 2,2 °C 3,2 km/h (1 Bft)
26.04.2017 15:41 2,2 °C 2,3 °C 93 % 1009,4 hPa 0,0 mm 2,9 km/h (1 Bft) N-NW 334 ° 0 min 0,000 mm 0,8 UV-I 104 W/m² 1,2 °C 2,2 °C 3,2 km/h (1 Bft)
26.04.2017 15:42 2,2 °C 2,3 °C 93 % 1009,5 hPa 0,0 mm 1,8 km/h (1 Bft) N-NW 334 ° 0 min 0,000 mm 0,8 UV-I 95 W/m² 1,2 °C 2,2 °C 3,2 km/h (1 Bft)
26.04.2017 15:43 2,3 °C 2,3 °C 93 % 1009,4 hPa 0,0 mm 0,4 km/h (0 Bft) N-NW 334 ° 0 min 0,000 mm 0,8 UV-I 95 W/m² 1,3 °C 2,3 °C 1,6 km/h (1 Bft)
26.04.2017 15:44 2,3 °C 2,3 °C 94 % 1009,5 hPa 0,0 mm 3,9 km/h (1 Bft) N-NW 336 ° 0 min 0,000 mm 0,8 UV-I 93 W/m² 1,4 °C 2,3 °C 4,8 km/h (1 Bft)
26.04.2017 15:45 2,3 °C 2,3 °C 93 % 1009,4 hPa 0,0 mm 3,1 km/h (1 Bft) N-NW 337 ° 0 min 0,000 mm 0,7 UV-I 88 W/m² 1,3 °C 2,3 °C 4,8 km/h (1 Bft)
26.04.2017 15:46 2,3 °C 2,3 °C 93 % 1009,4 hPa 0,0 mm 2,2 km/h (1 Bft) N-NW 331 ° 0 min 0,000 mm 0,7 UV-I 81 W/m² 1,3 °C 2,3 °C 3,2 km/h (1 Bft)
26.04.2017 15:47 2,3 °C 2,3 °C 94 % 1009,5 hPa 0,0 mm 2,7 km/h (1 Bft) N-NW 332 ° 0 min 0,000 mm 0,7 UV-I 83 W/m² 1,4 °C 2,3 °C 4,8 km/h (1 Bft)
26.04.2017 15:48 2,3 °C 2,3 °C 93 % 1009,4 hPa 0,0 mm 2,7 km/h (1 Bft) N 360 ° 0 min 0,000 mm 0,7 UV-I 86 W/m² 1,3 °C 2,3 °C 3,2 km/h (1 Bft)
26.04.2017 15:49 2,3 °C 2,3 °C 94 % 1009,4 hPa 0,0 mm 1,8 km/h (1 Bft) N-NW 348 ° 0 min 0,000 mm 0,7 UV-I 84 W/m² 1,4 °C 2,3 °C 3,2 km/h (1 Bft)
26.04.2017 15:50 2,3 °C 2,3 °C 93 % 1009,5 hPa 0,0 mm 1,3 km/h (1 Bft) N-NW 348 ° 0 min 0,000 mm 0,6 UV-I 81 W/m² 1,3 °C 2,3 °C 1,6 km/h (1 Bft)
26.04.2017 15:51 2,3 °C 2,3 °C 93 % 1009,6 hPa 0,0 mm 2,8 km/h (1 Bft) N-NW 348 ° 0 min 0,000 mm 0,6 UV-I 77 W/m² 1,3 °C 2,3 °C 4,8 km/h (1 Bft)
26.04.2017 15:52 2,3 °C 2,3 °C 93 % 1009,5 hPa 0,0 mm 3,2 km/h (1 Bft) N 5 ° 0 min 0,000 mm 0,7 UV-I 90 W/m² 1,3 °C 2,3 °C 4,8 km/h (1 Bft)
26.04.2017 15:53 2,3 °C 2,3 °C 93 % 1009,5 hPa 0,0 mm 2,6 km/h (1 Bft) N 5 ° 0 min 0,000 mm 0,8 UV-I 98 W/m² 1,3 °C 2,3 °C 4,8 km/h (1 Bft)
26.04.2017 15:54 2,3 °C 2,3 °C 93 % 1009,4 hPa 0,0 mm 3,6 km/h (1 Bft) N 5 ° 0 min 0,000 mm 0,7 UV-I 97 W/m² 1,3 °C 2,3 °C 4,8 km/h (1 Bft)
26.04.2017 15:55 2,3 °C 2,3 °C 94 % 1009,5 hPa 0,0 mm 2,5 km/h (1 Bft) N 5 ° 0 min 0,000 mm 0,7 UV-I 90 W/m² 1,4 °C 2,3 °C 3,2 km/h (1 Bft)
26.04.2017 15:56 2,3 °C 2,3 °C 94 % 1009,5 hPa 0,0 mm 4,2 km/h (1 Bft) NW 311 ° 0 min 0,000 mm 0,7 UV-I 84 W/m² 1,4 °C 2,3 °C 6,4 km/h (2 Bft)
26.04.2017 15:57 2,3 °C 2,3 °C 94 % 1009,5 hPa 0,0 mm 5,0 km/h (1 Bft) N-NW 345 ° 0 min 0,000 mm 0,7 UV-I 83 W/m² 1,4 °C 1,0 °C 8,0 km/h (2 Bft)
26.04.2017 15:58 2,4 °C 2,4 °C 94 % 1009,5 hPa 0,0 mm 3,9 km/h (1 Bft) N-NW 344 ° 0 min 0,000 mm 0,6 UV-I 76 W/m² 1,5 °C 2,4 °C 6,4 km/h (2 Bft)
26.04.2017 15:59 2,3 °C 2,4 °C 94 % 1009,6 hPa 0,0 mm 2,5 km/h (1 Bft) N-NW 344 ° 0 min 0,000 mm 0,6 UV-I 72 W/m² 1,4 °C 2,3 °C 4,8 km/h (1 Bft)
26.04.2017 16:00 2,3 °C 2,3 °C 93 % 1009,6 hPa 0,0 mm 3,8 km/h (1 Bft) N-NW 338 ° 0 min 0,000 mm 0,5 UV-I 65 W/m² 1,3 °C 2,3 °C 4,8 km/h (1 Bft)
26.04.2017 16:01 2,3 °C 2,3 °C 93 % 1009,7 hPa 0,0 mm 4,5 km/h (1 Bft) N 9 ° 0 min 0,051 mm 0,5 UV-I 60 W/m² 1,3 °C 2,3 °C 6,4 km/h (2 Bft)
26.04.2017 16:02 2,2 °C 2,3 °C 93 % 1009,7 hPa 0,0 mm 3,1 km/h (1 Bft) N 9 ° 0 min 0,000 mm 0,5 UV-I 62 W/m² 1,2 °C 2,2 °C 4,8 km/h (1 Bft)
26.04.2017 16:03 2,2 °C 2,2 °C 94 % 1009,6 hPa 0,0 mm 3,0 km/h (1 Bft) N-NW 335 ° 0 min 0,000 mm 0,5 UV-I 58 W/m² 1,3 °C 2,2 °C 4,8 km/h (1 Bft)
26.04.2017 16:04 2,2 °C 2,2 °C 94 % 1009,7 hPa 0,0 mm 4,4 km/h (1 Bft) NW 313 ° 0 min 0,000 mm 0,0 UV-I 49 W/m² 1,3 °C 2,2 °C 6,4 km/h (2 Bft)
26.04.2017 16:05 2,2 °C 2,2 °C 94 % 1009,7 hPa 0,0 mm 4,8 km/h (1 Bft) N-NW 336 ° 0 min 0,000 mm 0,0 UV-I 44 W/m² 1,3 °C 1,0 °C 6,4 km/h (2 Bft)
26.04.2017 16:06 2,2 °C 2,2 °C 94 % 1009,7 hPa 0,0 mm 3,8 km/h (1 Bft) N-NW 346 ° 0 min 0,000 mm 0,0 UV-I 44 W/m² 1,3 °C 2,2 °C 6,4 km/h (2 Bft)
26.04.2017 16:07 2,2 °C 2,2 °C 93 % 1009,7 hPa 0,0 mm 4,2 km/h (1 Bft) NW 323 ° 0 min 0,000 mm 0,0 UV-I 47 W/m² 1,2 °C 2,2 °C 8,0 km/h (2 Bft)
26.04.2017 16:08 2,1 °C 2,2 °C 93 % 1009,8 hPa 0,0 mm 4,3 km/h (1 Bft) N 360 ° 0 min 0,000 mm 0,0 UV-I 53 W/m² 1,1 °C 2,1 °C 6,4 km/h (2 Bft)
26.04.2017 16:09 2,0 °C 2,1 °C 93 % 1009,6 hPa 0,0 mm 4,7 km/h (1 Bft) N-NW 335 ° 0 min 0,000 mm 0,5 UV-I 62 W/m² 1,0 °C 0,8 °C 6,4 km/h (2 Bft)
26.04.2017 16:10 2,0 °C 2,1 °C 93 % 1009,5 hPa 0,0 mm 3,9 km/h (1 Bft) N-NW 329 ° 0 min 0,000 mm 0,5 UV-I 67 W/m² 1,0 °C 2,0 °C 6,4 km/h (2 Bft)
26.04.2017 16:11 2,0 °C 2,1 °C 94 % 1009,5 hPa 0,0 mm 1,3 km/h (1 Bft) N-NW 329 ° 0 min 0,000 mm 0,6 UV-I 72 W/m² 1,1 °C 2,0 °C 3,2 km/h (1 Bft)
26.04.2017 16:12 2,0 °C 2,0 °C 94 % 1009,6 hPa 0,0 mm 4,6 km/h (1 Bft) N-NW 327 ° 0 min 0,000 mm 0,6 UV-I 81 W/m² 1,1 °C 0,9 °C 6,4 km/h (2 Bft)
26.04.2017 16:13 1,9 °C 2,0 °C 94 % 1009,5 hPa 0,0 mm 3,7 km/h (1 Bft) N-NW 333 ° 0 min 0,000 mm 0,7 UV-I 97 W/m² 1,0 °C 1,9 °C 6,4 km/h (2 Bft)
26.04.2017 16:14 1,9 °C 1,9 °C 94 % 1009,5 hPa 0,0 mm 2,1 km/h (1 Bft) N-NW 336 ° 0 min 0,000 mm 0,9 UV-I 118 W/m² 1,0 °C 1,9 °C 3,2 km/h (1 Bft)
26.04.2017 16:15 1,9 °C 2,0 °C 94 % 1009,4 hPa 0,0 mm 3,1 km/h (1 Bft) N-NW 344 ° 0 min 0,000 mm 1,0 UV-I 162 W/m² 1,0 °C 1,9 °C 4,8 km/h (1 Bft)
26.04.2017 16:16 1,9 °C 2,0 °C 94 % 1009,3 hPa 0,0 mm 5,2 km/h (1 Bft) N 360 ° 0 min 0,000 mm 1,2 UV-I 172 W/m² 1,0 °C 0,5 °C 8,0 km/h (2 Bft)
26.04.2017 16:17 1,9 °C 2,0 °C 94 % 1009,4 hPa 0,0 mm 2,2 km/h (1 Bft) N 360 ° 0 min 0,000 mm 1,1 UV-I 165 W/m² 1,0 °C 1,9 °C 4,8 km/h (1 Bft)
26.04.2017 16:18 1,9 °C 1,9 °C 94 % 1009,4 hPa 0,0 mm 3,7 km/h (1 Bft) N 355 ° 0 min 0,000 mm 1,0 UV-I 146 W/m² 1,0 °C 1,9 °C 4,8 km/h (1 Bft)
26.04.2017 16:19 1,9 °C 1,9 °C 94 % 1009,5 hPa 0,0 mm 3,1 km/h (1 Bft) N-NW 331 ° 0 min 0,000 mm 1,0 UV-I 130 W/m² 1,0 °C 1,9 °C 6,4 km/h (2 Bft)
26.04.2017 16:20 1,9 °C 1,9 °C 94 % 1009,5 hPa 0,0 mm 4,4 km/h (1 Bft) N 355 ° 0 min 0,000 mm 0,9 UV-I 123 W/m² 1,0 °C 1,9 °C 6,4 km/h (2 Bft)
26.04.2017 16:21 2,0 °C 2,0 °C 94 % 1009,6 hPa 0,0 mm 3,2 km/h (1 Bft) N 355 ° 0 min 0,000 mm 0,8 UV-I 104 W/m² 1,1 °C 2,0 °C 4,8 km/h (1 Bft)
26.04.2017 16:22 2,0 °C 2,0 °C 94 % 1009,6 hPa 0,0 mm 0,9 km/h (0 Bft) N 355 ° 0 min 0,000 mm 0,8 UV-I 95 W/m² 1,1 °C 2,0 °C 3,2 km/h (1 Bft)
26.04.2017 16:23 2,0 °C 2,1 °C 94 % 1009,6 hPa 0,0 mm 2,0 km/h (1 Bft) NW 318 ° 0 min 0,000 mm 0,8 UV-I 93 W/m² 1,1 °C 2,0 °C 3,2 km/h (1 Bft)
26.04.2017 16:24 2,1 °C 2,1 °C 94 % 1009,5 hPa 0,0 mm 2,7 km/h (1 Bft) N-NW 335 ° 0 min 0,000 mm 0,8 UV-I 100 W/m² 1,2 °C 2,1 °C 4,8 km/h (1 Bft)
26.04.2017 16:25 2,1 °C 2,1 °C 94 % 1009,5 hPa 0,0 mm 3,0 km/h (1 Bft) N-NW 329 ° 0 min 0,000 mm 0,9 UV-I 111 W/m² 1,2 °C 2,1 °C 4,8 km/h (1 Bft)
26.04.2017 16:26 2,1 °C 2,1 °C 94 % 1009,6 hPa 0,0 mm 4,5 km/h (1 Bft) NW 321 ° 0 min 0,000 mm 0,9 UV-I 118 W/m² 1,2 °C 2,1 °C 8,0 km/h (2 Bft)
26.04.2017 16:27 2,1 °C 2,1 °C 94 % 1009,6 hPa 0,0 mm 4,1 km/h (1 Bft) N-NW 340 ° 0 min 0,000 mm 0,9 UV-I 118 W/m² 1,2 °C 2,1 °C 6,4 km/h (2 Bft)
26.04.2017 16:28 2,1 °C 2,1 °C 94 % 1009,6 hPa 0,0 mm 3,8 km/h (1 Bft) N-NW 332 ° 0 min 0,000 mm 0,9 UV-I 120 W/m² 1,2 °C 2,1 °C 4,8 km/h (1 Bft)
26.04.2017 16:29 2,0 °C 2,1 °C 94 % 1009,7 hPa 0,0 mm 5,1 km/h (1 Bft) NW 320 ° 0 min 0,000 mm 0,9 UV-I 118 W/m² 1,1 °C 0,6 °C 6,4 km/h (2 Bft)
26.04.2017 16:30 2,0 °C 2,1 °C 93 % 1009,7 hPa 0,0 mm 4,0 km/h (1 Bft) N-NW 333 ° 0 min 0,000 mm 0,8 UV-I 111 W/m² 1,0 °C 2,0 °C 4,8 km/h (1 Bft)
26.04.2017 16:31 1,9 °C 2,0 °C 93 % 1009,8 hPa 0,0 mm 3,6 km/h (1 Bft) NW 321 ° 0 min 0,000 mm 0,8 UV-I 104 W/m² 0,9 °C 1,9 °C 4,8 km/h (1 Bft)
26.04.2017 16:32 1,9 °C 2,0 °C 93 % 1009,8 hPa 0,0 mm 3,5 km/h (1 Bft) NW 324 ° 0 min 0,000 mm 0,7 UV-I 98 W/m² 0,9 °C 1,9 °C 4,8 km/h (1 Bft)
26.04.2017 16:33 1,9 °C 1,9 °C 93 % 1009,9 hPa 0,0 mm 1,9 km/h (1 Bft) NW 324 ° 0 min 0,000 mm 0,7 UV-I 90 W/m² 0,9 °C 1,9 °C 3,2 km/h (1 Bft)
26.04.2017 16:34 1,9 °C 1,9 °C 93 % 1009,9 hPa 0,0 mm 2,5 km/h (1 Bft) NW 324 ° 0 min 0,000 mm 0,6 UV-I 83 W/m² 0,9 °C 1,9 °C 4,8 km/h (1 Bft)
26.04.2017 16:35 1,9 °C 1,9 °C 93 % 1009,9 hPa 0,0 mm 2,3 km/h (1 Bft) NW 324 ° 0 min 0,000 mm 0,6 UV-I 76 W/m² 0,9 °C 1,9 °C 4,8 km/h (1 Bft)
26.04.2017 16:36 1,9 °C 1,9 °C 94 % 1009,9 hPa 0,0 mm 2,3 km/h (1 Bft) NW 324 ° 0 min 0,000 mm 0,6 UV-I 70 W/m² 1,0 °C 1,9 °C 3,2 km/h (1 Bft)
26.04.2017 16:37 1,9 °C 1,9 °C 93 % 1009,9 hPa 0,0 mm 2,6 km/h (1 Bft) NW 324 ° 0 min 0,000 mm 0,6 UV-I 69 W/m² 0,9 °C 1,9 °C 3,2 km/h (1 Bft)
26.04.2017 16:38 2,0 °C 2,0 °C 94 % 1010,0 hPa 0,0 mm 4,4 km/h (1 Bft) NW 324 ° 0 min 0,000 mm 0,6 UV-I 76 W/m² 1,1 °C 2,0 °C 6,4 km/h (2 Bft)
26.04.2017 16:39 2,0 °C 2,0 °C 94 % 1010,0 hPa 0,0 mm 3,5 km/h (1 Bft) NW 304 ° 0 min 0,000 mm 0,6 UV-I 77 W/m² 1,1 °C 2,0 °C 4,8 km/h (1 Bft)
26.04.2017 16:40 2,0 °C 2,1 °C 94 % 1010,0 hPa 0,0 mm 3,0 km/h (1 Bft) NW 304 ° 0 min 0,000 mm 0,6 UV-I 79 W/m² 1,1 °C 2,0 °C 4,8 km/h (1 Bft)
26.04.2017 16:41 2,0 °C 2,1 °C 93 % 1010,0 hPa 0,0 mm 5,6 km/h (1 Bft) NW 308 ° 0 min 0,000 mm 0,5 UV-I 76 W/m² 1,0 °C 0,4 °C 8,0 km/h (2 Bft)
26.04.2017 16:42 2,0 °C 2,1 °C 94 % 1010,1 hPa 0,0 mm 3,4 km/h (1 Bft) NW 320 ° 0 min 0,000 mm 0,5 UV-I 67 W/m² 1,1 °C 2,0 °C 6,4 km/h (2 Bft)
26.04.2017 16:43 1,9 °C 2,0 °C 93 % 1010,1 hPa 0,0 mm 3,6 km/h (1 Bft) NW 307 ° 0 min 0,000 mm 0,5 UV-I 62 W/m² 0,9 °C 1,9 °C 6,4 km/h (2 Bft)
26.04.2017 16:44 1,9 °C 1,9 °C 94 % 1010,1 hPa 0,0 mm 2,7 km/h (1 Bft) NW 306 ° 0 min 0,000 mm 0,5 UV-I 54 W/m² 1,0 °C 1,9 °C 4,8 km/h (1 Bft)
26.04.2017 16:45 1,9 °C 1,9 °C 94 % 1010,1 hPa 0,0 mm 5,5 km/h (1 Bft) NW 317 ° 0 min 0,000 mm 0,0 UV-I 54 W/m² 1,0 °C 0,4 °C 8,0 km/h (2 Bft)
26.04.2017 16:46 1,9 °C 1,9 °C 94 % 1010,2 hPa 0,0 mm 3,8 km/h (1 Bft) NW 305 ° 0 min 0,000 mm 0,5 UV-I 56 W/m² 1,0 °C 1,9 °C 6,4 km/h (2 Bft)
26.04.2017 16:47 1,9 °C 1,9 °C 94 % 1010,1 hPa 0,0 mm 4,0 km/h (1 Bft) NW 311 ° 0 min 0,000 mm 0,0 UV-I 56 W/m² 1,0 °C 1,9 °C 6,4 km/h (2 Bft)
26.04.2017 16:48 1,9 °C 1,9 °C 94 % 1010,0 hPa 0,0 mm 4,8 km/h (1 Bft) NW 321 ° 0 min 0,000 mm 0,0 UV-I 53 W/m² 1,0 °C 0,7 °C 6,4 km/h (2 Bft)
26.04.2017 16:49 1,8 °C 1,9 °C 94 % 1010,0 hPa 0,0 mm 5,0 km/h (1 Bft) NW 317 ° 0 min 0,000 mm 0,0 UV-I 51 W/m² 0,9 °C 0,5 °C 6,4 km/h (2 Bft)
26.04.2017 16:50 1,8 °C 1,9 °C 94 % 1010,0 hPa 0,0 mm 5,4 km/h (1 Bft) NW 319 ° 0 min 0,000 mm 0,0 UV-I 53 W/m² 0,9 °C 0,3 °C 8,0 km/h (2 Bft)
26.04.2017 16:51 1,8 °C 1,8 °C 93 % 1009,9 hPa 0,0 mm 6,0 km/h (2 Bft) NW 321 ° 0 min 0,000 mm 0,0 UV-I 51 W/m² 0,8 °C 0,0 °C 8,0 km/h (2 Bft)
26.04.2017 16:52 1,8 °C 1,8 °C 93 % 1009,9 hPa 0,0 mm 4,0 km/h (1 Bft) NW 321 ° 0 min 0,000 mm 0,0 UV-I 51 W/m² 0,8 °C 1,8 °C 4,8 km/h (1 Bft)
26.04.2017 16:53 1,7 °C 1,8 °C 93 % 1010,0 hPa 0,0 mm 4,4 km/h (1 Bft) NW 320 ° 0 min 0,000 mm 0,0 UV-I 51 W/m² 0,7 °C 1,7 °C 6,4 km/h (2 Bft)
26.04.2017 16:54 1,7 °C 1,7 °C 93 % 1010,0 hPa 0,0 mm 3,6 km/h (1 Bft) NW 320 ° 0 min 0,000 mm 0,0 UV-I 51 W/m² 0,7 °C 1,7 °C 4,8 km/h (1 Bft)
26.04.2017 16:55 1,7 °C 1,7 °C 93 % 1010,0 hPa 0,0 mm 0,6 km/h (0 Bft) NW 320 ° 0 min 0,000 mm 0,0 UV-I 53 W/m² 0,7 °C 1,7 °C 1,6 km/h (1 Bft)
26.04.2017 16:56 1,7 °C 1,7 °C 94 % 1010,0 hPa 0,0 mm 1,1 km/h (1 Bft) NW 320 ° 0 min 0,000 mm 0,0 UV-I 58 W/m² 0,8 °C 1,7 °C 3,2 km/h (1 Bft)
26.04.2017 16:57 1,6 °C 1,7 °C 94 % 1010,0 hPa 0,0 mm 1,8 km/h (1 Bft) NW 320 ° 0 min 0,000 mm 0,5 UV-I 62 W/m² 0,7 °C 1,6 °C 3,2 km/h (1 Bft)
26.04.2017 16:58 1,6 °C 1,7 °C 94 % 1010,0 hPa 0,0 mm 2,3 km/h (1 Bft) NW 320 ° 0 min 0,000 mm 0,5 UV-I 62 W/m² 0,7 °C 1,6 °C 4,8 km/h (1 Bft)
26.04.2017 16:59 1,6 °C 1,7 °C 94 % 1010,0 hPa 0,0 mm 2,1 km/h (1 Bft) NW 325 ° 0 min 0,000 mm 0,5 UV-I 62 W/m² 0,7 °C 1,6 °C 4,8 km/h (1 Bft)
26.04.2017 17:00 1,7 °C 1,7 °C 94 % 1010,1 hPa 0,0 mm 4,9 km/h (1 Bft) NW 323 ° 0 min 0,000 mm 0,0 UV-I 60 W/m² 0,8 °C 0,4 °C 6,4 km/h (2 Bft)
26.04.2017 17:01 1,6 °C 1,7 °C 94 % 1010,1 hPa 0,0 mm 2,9 km/h (1 Bft) NW 323 ° 0 min 0,025 mm 0,0 UV-I 58 W/m² 0,7 °C 1,6 °C 4,8 km/h (1 Bft)
26.04.2017 17:02 1,6 °C 1,6 °C 94 % 1010,1 hPa 0,0 mm 5,5 km/h (1 Bft) NW 322 ° 0 min 0,000 mm 0,0 UV-I 51 W/m² 0,7 °C 0,0 °C 8,0 km/h (2 Bft)
26.04.2017 17:03 1,5 °C 1,6 °C 94 % 1010,1 hPa 0,0 mm 3,2 km/h (1 Bft) NW 323 ° 0 min 0,000 mm 0,0 UV-I 51 W/m² 0,6 °C 1,5 °C 4,8 km/h (1 Bft)
26.04.2017 17:05 1,4 °C 1,5 °C 93 % 1010,1 hPa 0,0 mm 2,0 km/h (1 Bft) NW 323 ° 0 min 0,000 mm 0,0 UV-I 49 W/m² 0,4 °C 1,4 °C 4,8 km/h (1 Bft)
26.04.2017 17:06 1,3 °C 1,4 °C 93 % 1010,0 hPa 0,0 mm 0,5 km/h (0 Bft) NW 323 ° 0 min 0,000 mm 0,0 UV-I 47 W/m² 0,3 °C 1,3 °C 1,6 km/h (1 Bft)
26.04.2017 17:07 1,3 °C 1,4 °C 93 % 1010,1 hPa 0,0 mm 0,7 km/h (0 Bft) NW 323 ° 0 min 0,000 mm 0,0 UV-I 46 W/m² 0,3 °C 1,3 °C 1,6 km/h (1 Bft)
26.04.2017 17:08 1,3 °C 1,3 °C 94 % 1010,0 hPa 0,0 mm 1,0 km/h (0 Bft) NW 323 ° 0 min 0,000 mm 0,0 UV-I 40 W/m² 0,4 °C 1,3 °C 3,2 km/h (1 Bft)
26.04.2017 17:09 1,3 °C 1,3 °C 94 % 1010,1 hPa 0,2 mm 0,3 km/h (0 Bft) NW 323 ° 0 min 0,000 mm 0,0 UV-I 39 W/m² 0,4 °C 1,3 °C 1,6 km/h (1 Bft)
26.04.2017 17:10 1,4 °C 1,4 °C 94 % 1010,0 hPa 0,0 mm 1,7 km/h (1 Bft) NW 323 ° 0 min 0,000 mm 0,0 UV-I 37 W/m² 0,5 °C 1,4 °C 3,2 km/h (1 Bft)
26.04.2017 17:11 1,4 °C 1,4 °C 94 % 1010,0 hPa 0,0 mm 2,3 km/h (1 Bft) NW 323 ° 0 min 0,000 mm 0,0 UV-I 39 W/m² 0,5 °C 1,4 °C 4,8 km/h (1 Bft)
26.04.2017 17:12 1,4 °C 1,4 °C 94 % 1010,0 hPa 0,0 mm 2,4 km/h (1 Bft) NW 323 ° 0 min 0,000 mm 0,0 UV-I 40 W/m² 0,5 °C 1,4 °C 3,2 km/h (1 Bft)
26.04.2017 17:13 1,4 °C 1,4 °C 94 % 1010,0 hPa 0,0 mm 2,2 km/h (1 Bft) NW 323 ° 0 min 0,000 mm 0,0 UV-I 46 W/m² 0,5 °C 1,4 °C 3,2 km/h (1 Bft)
26.04.2017 17:14 1,3 °C 1,4 °C 94 % 1010,0 hPa 0,0 mm 1,3 km/h (1 Bft) N-NW 327 ° 0 min 0,000 mm 0,0 UV-I 47 W/m² 0,4 °C 1,3 °C 3,2 km/h (1 Bft)
26.04.2017 17:15 1,4 °C 1,4 °C 94 % 1010,1 hPa 0,0 mm 0,9 km/h (0 Bft) N-NW 327 ° 0 min 0,000 mm 0,0 UV-I 49 W/m² 0,5 °C 1,4 °C 1,6 km/h (1 Bft)
26.04.2017 17:16 1,4 °C 1,4 °C 94 % 1010,1 hPa 0,0 mm 1,5 km/h (1 Bft) N-NW 327 ° 0 min 0,000 mm 0,0 UV-I 49 W/m² 0,5 °C 1,4 °C 3,2 km/h (1 Bft)
26.04.2017 17:17 1,4 °C 1,4 °C 94 % 1010,0 hPa 0,0 mm 1,8 km/h (1 Bft) N-NW 330 ° 0 min 0,000 mm 0,0 UV-I 51 W/m² 0,5 °C 1,4 °C 3,2 km/h (1 Bft)
26.04.2017 17:18 1,4 °C 1,4 °C 94 % 1010,1 hPa 0,0 mm 2,8 km/h (1 Bft) N-NW 341 ° 0 min 0,000 mm 0,0 UV-I 53 W/m² 0,5 °C 1,4 °C 4,8 km/h (1 Bft)
26.04.2017 17:19 1,4 °C 1,4 °C 94 % 1010,1 hPa 0,0 mm 1,0 km/h (0 Bft) N-NW 341 ° 0 min 0,000 mm 0,0 UV-I 54 W/m² 0,5 °C 1,4 °C 3,2 km/h (1 Bft)
26.04.2017 17:20 1,4 °C 1,4 °C 94 % 1010,2 hPa 0,0 mm 1,1 km/h (1 Bft) N-NW 340 ° 0 min 0,000 mm 0,0 UV-I 56 W/m² 0,5 °C 1,4 °C 3,2 km/h (1 Bft)
26.04.2017 17:21 1,5 °C 1,5 °C 94 % 1010,3 hPa 0,0 mm 2,6 km/h (1 Bft) N-NW 340 ° 0 min 0,000 mm 0,0 UV-I 58 W/m² 0,6 °C 1,5 °C 4,8 km/h (1 Bft)
26.04.2017 17:22 1,4 °C 1,5 °C 94 % 1010,3 hPa 0,0 mm 2,7 km/h (1 Bft) N-NW 340 ° 0 min 0,000 mm 0,0 UV-I 60 W/m² 0,5 °C 1,4 °C 4,8 km/h (1 Bft)
26.04.2017 17:23 1,4 °C 1,4 °C 94 % 1010,2 hPa 0,0 mm 1,6 km/h (1 Bft) N-NW 340 ° 0 min 0,000 mm 0,0 UV-I 62 W/m² 0,5 °C 1,4 °C 3,2 km/h (1 Bft)
26.04.2017 17:24 1,4 °C 1,4 °C 94 % 1010,3 hPa 0,0 mm 0,4 km/h (0 Bft) N-NW 340 ° 0 min 0,000 mm 0,0 UV-I 63 W/m² 0,5 °C 1,4 °C 1,6 km/h (1 Bft)
26.04.2017 17:25 1,4 °C 1,4 °C 94 % 1010,2 hPa 0,0 mm 1,7 km/h (1 Bft) N-NW 340 ° 0 min 0,000 mm 0,0 UV-I 63 W/m² 0,5 °C 1,4 °C 3,2 km/h (1 Bft)
26.04.2017 17:26 1,4 °C 1,4 °C 94 % 1010,2 hPa 0,0 mm 2,8 km/h (1 Bft) N-NW 340 ° 0 min 0,000 mm 0,0 UV-I 62 W/m² 0,5 °C 1,4 °C 3,2 km/h (1 Bft)
26.04.2017 17:27 1,3 °C 1,4 °C 94 % 1010,2 hPa 0,0 mm 1,8 km/h (1 Bft) N-NW 340 ° 0 min 0,000 mm 0,0 UV-I 58 W/m² 0,4 °C 1,3 °C 3,2 km/h (1 Bft)
26.04.2017 17:28 1,3 °C 1,4 °C 94 % 1010,2 hPa 0,0 mm 1,7 km/h (1 Bft) NW 309 ° 0 min 0,000 mm 0,0 UV-I 53 W/m² 0,4 °C 1,3 °C 6,4 km/h (2 Bft)
26.04.2017 17:29 1,4 °C 1,4 °C 94 % 1010,2 hPa 0,0 mm 4,1 km/h (1 Bft) NW 310 ° 0 min 0,000 mm 0,0 UV-I 51 W/m² 0,5 °C 1,4 °C 4,8 km/h (1 Bft)
26.04.2017 17:30 1,3 °C 1,4 °C 94 % 1010,2 hPa 0,0 mm 3,0 km/h (1 Bft) NW 321 ° 0 min 0,000 mm 0,0 UV-I 51 W/m² 0,4 °C 1,3 °C 6,4 km/h (2 Bft)
26.04.2017 17:31 1,3 °C 1,4 °C 94 % 1010,3 hPa 0,0 mm 4,6 km/h (1 Bft) N-NW 334 ° 0 min 0,000 mm 0,0 UV-I 58 W/m² 0,4 °C 0,1 °C 6,4 km/h (2 Bft)
26.04.2017 17:32 1,3 °C 1,3 °C 94 % 1010,3 hPa 0,0 mm 3,0 km/h (1 Bft) N-NW 333 ° 0 min 0,000 mm 0,0 UV-I 60 W/m² 0,4 °C 1,3 °C 3,2 km/h (1 Bft)
26.04.2017 17:33 1,3 °C 1,3 °C 94 % 1010,3 hPa 0,2 mm 3,3 km/h (1 Bft) N-NW 331 ° 0 min 0,000 mm 0,0 UV-I 62 W/m² 0,4 °C 1,3 °C 4,8 km/h (1 Bft)
26.04.2017 17:34 1,2 °C 1,3 °C 94 % 1010,3 hPa 0,0 mm 3,6 km/h (1 Bft) N-NW 331 ° 0 min 0,000 mm 0,0 UV-I 63 W/m² 0,3 °C 1,2 °C 4,8 km/h (1 Bft)
26.04.2017 17:35 1,2 °C 1,2 °C 94 % 1010,3 hPa 0,0 mm 2,3 km/h (1 Bft) N-NW 331 ° 0 min 0,000 mm 0,0 UV-I 69 W/m² 0,3 °C 1,2 °C 3,2 km/h (1 Bft)
26.04.2017 17:36 1,1 °C 1,2 °C 94 % 1010,3 hPa 0,0 mm 2,8 km/h (1 Bft) N-NW 331 ° 0 min 0,000 mm 0,5 UV-I 72 W/m² 0,2 °C 1,1 °C 3,2 km/h (1 Bft)
26.04.2017 17:37 1,1 °C 1,2 °C 94 % 1010,3 hPa 0,0 mm 3,3 km/h (1 Bft) N-NW 331 ° 0 min 0,000 mm 0,5 UV-I 81 W/m² 0,2 °C 1,1 °C 4,8 km/h (1 Bft)
26.04.2017 17:38 1,1 °C 1,1 °C 94 % 1010,3 hPa 0,0 mm 1,9 km/h (1 Bft) N-NW 331 ° 0 min 0,000 mm 0,5 UV-I 84 W/m² 0,2 °C 1,1 °C 3,2 km/h (1 Bft)
26.04.2017 17:39 1,1 °C 1,1 °C 94 % 1010,3 hPa 0,0 mm 2,8 km/h (1 Bft) N-NW 331 ° 0 min 0,000 mm 0,6 UV-I 88 W/m² 0,2 °C 1,1 °C 4,8 km/h (1 Bft)
26.04.2017 17:40 1,1 °C 1,1 °C 94 % 1010,2 hPa 0,0 mm 1,2 km/h (1 Bft) N-NW 331 ° 0 min 0,000 mm 0,6 UV-I 90 W/m² 0,2 °C 1,1 °C 3,2 km/h (1 Bft)
26.04.2017 17:41 1,1 °C 1,1 °C 94 % 1010,2 hPa 0,0 mm 0,0 km/h (0 Bft) N-NW 331 ° 0 min 0,000 mm 0,6 UV-I 90 W/m² 0,2 °C 1,1 °C 0,0 km/h (0 Bft)
26.04.2017 17:42 1,1 °C 1,2 °C 94 % 1010,2 hPa 0,0 mm 0,0 km/h (0 Bft) N-NW 331 ° 0 min 0,000 mm 0,6 UV-I 84 W/m² 0,2 °C 1,1 °C 0,0 km/h (0 Bft)
26.04.2017 17:43 1,1 °C 1,1 °C 94 % 1010,2 hPa 0,0 mm 0,1 km/h (0 Bft) N-NW 331 ° 0 min 0,000 mm 0,6 UV-I 70 W/m² 0,2 °C 1,1 °C 1,6 km/h (1 Bft)
26.04.2017 17:44 1,1 °C 1,1 °C 94 % 1010,2 hPa 0,0 mm 1,4 km/h (1 Bft) N-NW 331 ° 0 min 0,000 mm 0,5 UV-I 67 W/m² 0,2 °C 1,1 °C 3,2 km/h (1 Bft)
26.04.2017 17:45 1,1 °C 1,1 °C 94 % 1010,2 hPa 0,0 mm 0,9 km/h (0 Bft) N-NW 331 ° 0 min 0,000 mm 0,5 UV-I 65 W/m² 0,2 °C 1,1 °C 3,2 km/h (1 Bft)
26.04.2017 17:46 1,1 °C 1,1 °C 94 % 1010,2 hPa 0,0 mm 0,0 km/h (0 Bft) N-NW 331 ° 0 min 0,000 mm 0,0 UV-I 63 W/m² 0,2 °C 1,1 °C 0,0 km/h (0 Bft)
26.04.2017 17:47 1,1 °C 1,1 °C 94 % 1010,1 hPa 0,0 mm 0,0 km/h (0 Bft) N-NW 331 ° 0 min 0,000 mm 0,0 UV-I 63 W/m² 0,2 °C 1,1 °C 0,0 km/h (0 Bft)
26.04.2017 17:48 1,1 °C 1,1 °C 94 % 1010,1 hPa 0,0 mm 0,0 km/h (0 Bft) N-NW 331 ° 0 min 0,000 mm 0,0 UV-I 63 W/m² 0,2 °C 1,1 °C 0,0 km/h (0 Bft)
26.04.2017 17:49 1,1 °C 1,2 °C 94 % 1010,1 hPa 0,0 mm 1,5 km/h (1 Bft) N-NW 331 ° 0 min 0,000 mm 0,0 UV-I 63 W/m² 0,2 °C 1,1 °C 3,2 km/h (1 Bft)
26.04.2017 17:50 1,1 °C 1,2 °C 94 % 1010,2 hPa 0,0 mm 1,1 km/h (1 Bft) N-NW 331 ° 0 min 0,000 mm 0,0 UV-I 62 W/m² 0,2 °C 1,1 °C 3,2 km/h (1 Bft)
26.04.2017 17:51 1,1 °C 1,1 °C 94 % 1010,2 hPa 0,0 mm 0,0 km/h (0 Bft) N-NW 331 ° 0 min 0,000 mm 0,0 UV-I 62 W/m² 0,2 °C 1,1 °C 0,0 km/h (0 Bft)
26.04.2017 17:52 1,1 °C 1,1 °C 94 % 1010,2 hPa 0,0 mm 2,2 km/h (1 Bft) N-NW 331 ° 0 min 0,000 mm 0,0 UV-I 63 W/m² 0,2 °C 1,1 °C 3,2 km/h (1 Bft)
26.04.2017 17:53 1,1 °C 1,1 °C 94 % 1010,2 hPa 0,0 mm 2,0 km/h (1 Bft) N-NW 331 ° 0 min 0,000 mm 0,0 UV-I 63 W/m² 0,2 °C 1,1 °C 3,2 km/h (1 Bft)
26.04.2017 17:54 1,1 °C 1,1 °C 94 % 1010,2 hPa 0,2 mm 1,3 km/h (1 Bft) N-NW 331 ° 0 min 0,000 mm 0,0 UV-I 65 W/m² 0,2 °C 1,1 °C 3,2 km/h (1 Bft)
26.04.2017 17:55 1,1 °C 1,1 °C 94 % 1010,2 hPa 0,0 mm 2,3 km/h (1 Bft) N-NW 331 ° 0 min 0,000 mm 0,0 UV-I 69 W/m² 0,2 °C 1,1 °C 3,2 km/h (1 Bft)
26.04.2017 17:56 1,1 °C 1,1 °C 94 % 1010,2 hPa 0,0 mm 1,8 km/h (1 Bft) N-NW 331 ° 0 min 0,000 mm 0,5 UV-I 72 W/m² 0,2 °C 1,1 °C 3,2 km/h (1 Bft)
26.04.2017 17:57 1,1 °C 1,1 °C 94 % 1010,2 hPa 0,0 mm 2,2 km/h (1 Bft) N-NW 331 ° 0 min 0,000 mm 0,5 UV-I 72 W/m² 0,2 °C 1,1 °C 3,2 km/h (1 Bft)
26.04.2017 17:58 1,2 °C 1,2 °C 94 % 1010,1 hPa 0,0 mm 2,4 km/h (1 Bft) N-NW 331 ° 0 min 0,000 mm 0,5 UV-I 76 W/m² 0,3 °C 1,2 °C 3,2 km/h (1 Bft)
26.04.2017 17:59 1,2 °C 1,2 °C 94 % 1010,1 hPa 0,0 mm 1,9 km/h (1 Bft) N-NW 337 ° 0 min 0,000 mm 0,5 UV-I 74 W/m² 0,3 °C 1,2 °C 3,2 km/h (1 Bft)
26.04.2017 18:00 1,2 °C 1,2 °C 94 % 1010,1 hPa 0,0 mm 1,5 km/h (1 Bft) N-NW 337 ° 0 min 0,000 mm 0,5 UV-I 72 W/m² 0,3 °C 1,2 °C 1,6 km/h (1 Bft)
26.04.2017 18:01 1,2 °C 1,2 °C 94 % 1010,1 hPa 0,0 mm 2,3 km/h (1 Bft) N-NW 337 ° 0 min 0,025 mm 0,5 UV-I 69 W/m² 0,3 °C 1,2 °C 3,2 km/h (1 Bft)
26.04.2017 18:02 1,1 °C 1,2 °C 94 % 1010,2 hPa 0,0 mm 3,4 km/h (1 Bft) N-NW 337 ° 0 min 0,000 mm 0,0 UV-I 63 W/m² 0,2 °C 1,1 °C 4,8 km/h (1 Bft)
26.04.2017 18:03 1,2 °C 1,2 °C 94 % 1010,3 hPa 0,0 mm 2,9 km/h (1 Bft) N-NW 337 ° 0 min 0,000 mm 0,0 UV-I 60 W/m² 0,3 °C 1,2 °C 3,2 km/h (1 Bft)
26.04.2017 18:04 1,2 °C 1,2 °C 94 % 1010,3 hPa 0,0 mm 1,2 km/h (1 Bft) N-NW 337 ° 0 min 0,000 mm 0,0 UV-I 54 W/m² 0,3 °C 1,2 °C 3,2 km/h (1 Bft)
26.04.2017 18:05 1,2 °C 1,2 °C 94 % 1010,3 hPa 0,0 mm 0,1 km/h (0 Bft) N-NW 337 ° 0 min 0,000 mm 0,0 UV-I 51 W/m² 0,3 °C 1,2 °C 1,6 km/h (1 Bft)
26.04.2017 18:06 1,2 °C 1,2 °C 94 % 1010,3 hPa 0,0 mm 0,0 km/h (0 Bft) N-NW 337 ° 0 min 0,000 mm 0,0 UV-I 42 W/m² 0,3 °C 1,2 °C 0,0 km/h (0 Bft)
26.04.2017 18:07 1,2 °C 1,2 °C 94 % 1010,3 hPa 0,0 mm 1,3 km/h (1 Bft) N-NW 337 ° 0 min 0,000 mm 0,0 UV-I 40 W/m² 0,3 °C 1,2 °C 1,6 km/h (1 Bft)
26.04.2017 18:08 1,2 °C 1,2 °C 94 % 1010,3 hPa 0,0 mm 0,9 km/h (0 Bft) N-NW 337 ° 0 min 0,000 mm 0,0 UV-I 40 W/m² 0,3 °C 1,2 °C 3,2 km/h (1 Bft)
26.04.2017 18:09 1,2 °C 1,2 °C 94 % 1010,3 hPa 0,0 mm 1,1 km/h (1 Bft) N-NW 337 ° 0 min 0,000 mm 0,0 UV-I 44 W/m² 0,3 °C 1,2 °C 1,6 km/h (1 Bft)
26.04.2017 18:10 1,2 °C 1,2 °C 94 % 1010,2 hPa 0,0 mm 2,5 km/h (1 Bft) N-NW 337 ° 0 min 0,000 mm 0,0 UV-I 46 W/m² 0,3 °C 1,2 °C 3,2 km/h (1 Bft)
26.04.2017 18:11 1,2 °C 1,2 °C 94 % 1010,2 hPa 0,0 mm 0,9 km/h (0 Bft) N-NW 337 ° 0 min 0,000 mm 0,0 UV-I 49 W/m² 0,3 °C 1,2 °C 3,2 km/h (1 Bft)
26.04.2017 18:12 1,3 °C 1,3 °C 94 % 1010,1 hPa 0,0 mm 2,3 km/h (1 Bft) N-NW 337 ° 0 min 0,000 mm 0,0 UV-I 51 W/m² 0,4 °C 1,3 °C 3,2 km/h (1 Bft)
26.04.2017 18:13 1,3 °C 1,3 °C 94 % 1010,2 hPa 0,0 mm 2,6 km/h (1 Bft) N-NW 337 ° 0 min 0,000 mm 0,0 UV-I 51 W/m² 0,4 °C 1,3 °C 3,2 km/h (1 Bft)
26.04.2017 18:14 1,3 °C 1,3 °C 94 % 1010,2 hPa 0,0 mm 3,0 km/h (1 Bft) N-NW 337 ° 0 min 0,000 mm 0,0 UV-I 53 W/m² 0,4 °C 1,3 °C 4,8 km/h (1 Bft)
26.04.2017 18:15 1,3 °C 1,3 °C 94 % 1010,2 hPa 0,0 mm 2,0 km/h (1 Bft) N-NW 337 ° 0 min 0,000 mm 0,0 UV-I 53 W/m² 0,4 °C 1,3 °C 3,2 km/h (1 Bft)
26.04.2017 18:16 1,2 °C 1,3 °C 94 % 1010,2 hPa 0,0 mm 2,0 km/h (1 Bft) N-NW 337 ° 0 min 0,000 mm 0,0 UV-I 53 W/m² 0,3 °C 1,2 °C 3,2 km/h (1 Bft)
26.04.2017 18:17 1,2 °C 1,3 °C 94 % 1010,2 hPa 0,0 mm 2,3 km/h (1 Bft) N-NW 337 ° 0 min 0,000 mm 0,0 UV-I 56 W/m² 0,3 °C 1,2 °C 3,2 km/h (1 Bft)
26.04.2017 18:18 1,2 °C 1,2 °C 94 % 1010,2 hPa 0,0 mm 0,3 km/h (0 Bft) N-NW 337 ° 0 min 0,000 mm 0,0 UV-I 62 W/m² 0,3 °C 1,2 °C 1,6 km/h (1 Bft)
26.04.2017 18:19 1,3 °C 1,3 °C 94 % 1010,2 hPa 0,0 mm 1,1 km/h (1 Bft) N-NW 337 ° 0 min 0,000 mm 0,0 UV-I 62 W/m² 0,4 °C 1,3 °C 3,2 km/h (1 Bft)
26.04.2017 18:20 1,3 °C 1,3 °C 94 % 1010,2 hPa 0,0 mm 1,3 km/h (1 Bft) N-NW 337 ° 0 min 0,000 mm 0,0 UV-I 58 W/m² 0,4 °C 1,3 °C 3,2 km/h (1 Bft)
26.04.2017 18:21 1,3 °C 1,3 °C 94 % 1010,3 hPa 0,0 mm 2,1 km/h (1 Bft) N-NW 337 ° 0 min 0,000 mm 0,0 UV-I 54 W/m² 0,4 °C 1,3 °C 3,2 km/h (1 Bft)
26.04.2017 18:22 1,3 °C 1,3 °C 94 % 1010,5 hPa 0,0 mm 1,4 km/h (1 Bft) N-NW 337 ° 0 min 0,000 mm 0,0 UV-I 53 W/m² 0,4 °C 1,3 °C 3,2 km/h (1 Bft)
26.04.2017 18:23 1,3 °C 1,3 °C 94 % 1010,5 hPa 0,0 mm 0,3 km/h (0 Bft) N-NW 337 ° 0 min 0,000 mm 0,0 UV-I 49 W/m² 0,4 °C 1,3 °C 1,6 km/h (1 Bft)
26.04.2017 18:24 1,3 °C 1,4 °C 94 % 1010,5 hPa 0,0 mm 0,6 km/h (0 Bft) N-NW 337 ° 0 min 0,000 mm 0,0 UV-I 44 W/m² 0,4 °C 1,3 °C 1,6 km/h (1 Bft)
26.04.2017 18:25 1,3 °C 1,3 °C 94 % 1010,4 hPa 0,0 mm 0,0 km/h (0 Bft) N-NW 337 ° 0 min 0,000 mm 0,0 UV-I 40 W/m² 0,4 °C 1,3 °C 0,0 km/h (0 Bft)
26.04.2017 18:26 1,3 °C 1,4 °C 94 % 1010,4 hPa 0,0 mm 1,8 km/h (1 Bft) N-NW 337 ° 0 min 0,000 mm 0,0 UV-I 40 W/m² 0,4 °C 1,3 °C 4,8 km/h (1 Bft)
26.04.2017 18:27 1,4 °C 1,4 °C 94 % 1010,4 hPa 0,0 mm 1,8 km/h (1 Bft) N-NW 337 ° 0 min 0,000 mm 0,0 UV-I 42 W/m² 0,5 °C 1,4 °C 3,2 km/h (1 Bft)
26.04.2017 18:28 1,4 °C 1,4 °C 94 % 1010,4 hPa 0,0 mm 2,9 km/h (1 Bft) N-NW 337 ° 0 min 0,000 mm 0,0 UV-I 46 W/m² 0,5 °C 1,4 °C 3,2 km/h (1 Bft)
26.04.2017 18:29 1,4 °C 1,4 °C 94 % 1010,4 hPa 0,0 mm 2,1 km/h (1 Bft) N-NW 337 ° 0 min 0,000 mm 0,0 UV-I 47 W/m² 0,5 °C 1,4 °C 3,2 km/h (1 Bft)
26.04.2017 18:30 1,4 °C 1,4 °C 94 % 1010,4 hPa 0,0 mm 1,4 km/h (1 Bft) N-NW 337 ° 0 min 0,000 mm 0,0 UV-I 39 W/m² 0,5 °C 1,4 °C 3,2 km/h (1 Bft)
26.04.2017 18:31 1,4 °C 1,4 °C 94 % 1010,5 hPa 0,0 mm 0,0 km/h (0 Bft) N-NW 337 ° 0 min 0,000 mm 0,0 UV-I 35 W/m² 0,5 °C 1,4 °C 0,0 km/h (0 Bft)
26.04.2017 18:32 1,4 °C 1,4 °C 94 % 1010,4 hPa 0,0 mm 0,0 km/h (0 Bft) N-NW 337 ° 0 min 0,000 mm 0,0 UV-I 30 W/m² 0,5 °C 1,4 °C 0,0 km/h (0 Bft)
26.04.2017 18:33 1,4 °C 1,4 °C 94 % 1010,4 hPa 0,0 mm 0,0 km/h (0 Bft) N-NW 337 ° 0 min 0,000 mm 0,0 UV-I 28 W/m² 0,5 °C 1,4 °C 0,0 km/h (0 Bft)
26.04.2017 18:34 1,4 °C 1,4 °C 94 % 1010,5 hPa 0,0 mm 1,7 km/h (1 Bft) N-NW 337 ° 0 min 0,000 mm 0,0 UV-I 26 W/m² 0,5 °C 1,4 °C 3,2 km/h (1 Bft)
26.04.2017 18:35 1,3 °C 1,4 °C 94 % 1010,5 hPa 0,0 mm 1,2 km/h (1 Bft) N-NW 337 ° 0 min 0,000 mm 0,0 UV-I 26 W/m² 0,4 °C 1,3 °C 3,2 km/h (1 Bft)
26.04.2017 18:36 1,3 °C 1,3 °C 94 % 1010,5 hPa 0,0 mm 1,5 km/h (1 Bft) N-NW 337 ° 0 min 0,000 mm 0,0 UV-I 23 W/m² 0,4 °C 1,3 °C 3,2 km/h (1 Bft)
26.04.2017 18:37 1,3 °C 1,3 °C 94 % 1010,5 hPa 0,0 mm 0,4 km/h (0 Bft) N-NW 337 ° 0 min 0,000 mm 0,0 UV-I 21 W/m² 0,4 °C 1,3 °C 1,6 km/h (1 Bft)
26.04.2017 18:38 1,3 °C 1,3 °C 94 % 1010,5 hPa 0,0 mm 0,0 km/h (0 Bft) N-NW 337 ° 0 min 0,000 mm 0,0 UV-I 21 W/m² 0,4 °C 1,3 °C 0,0 km/h (0 Bft)
26.04.2017 18:39 1,3 °C 1,3 °C 94 % 1010,5 hPa 0,0 mm 0,0 km/h (0 Bft) N-NW 337 ° 0 min 0,000 mm 0,0 UV-I 21 W/m² 0,4 °C 1,3 °C 0,0 km/h (0 Bft)
26.04.2017 18:40 1,3 °C 1,3 °C 94 % 1010,4 hPa 0,0 mm 1,7 km/h (1 Bft) N-NW 337 ° 0 min 0,000 mm 0,0 UV-I 21 W/m² 0,4 °C 1,3 °C 3,2 km/h (1 Bft)
26.04.2017 18:41 1,3 °C 1,3 °C 94 % 1010,5 hPa 0,0 mm 1,1 km/h (1 Bft) N-NW 337 ° 0 min 0,000 mm 0,0 UV-I 23 W/m² 0,4 °C 1,3 °C 1,6 km/h (1 Bft)
26.04.2017 18:42 1,4 °C 1,4 °C 94 % 1010,5 hPa 0,0 mm 1,7 km/h (1 Bft) N-NW 337 ° 0 min 0,000 mm 0,0 UV-I 26 W/m² 0,5 °C 1,4 °C 3,2 km/h (1 Bft)
26.04.2017 18:43 1,3 °C 1,4 °C 94 % 1010,5 hPa 0,0 mm 0,1 km/h (0 Bft) N-NW 337 ° 0 min 0,000 mm 0,0 UV-I 25 W/m² 0,4 °C 1,3 °C 1,6 km/h (1 Bft)
26.04.2017 18:44 1,3 °C 1,4 °C 94 % 1010,5 hPa 0,0 mm 0,0 km/h (0 Bft) N-NW 337 ° 0 min 0,000 mm 0,0 UV-I 25 W/m² 0,4 °C 1,3 °C 0,0 km/h (0 Bft)
26.04.2017 18:45 1,3 °C 1,4 °C 94 % 1010,5 hPa 0,0 mm 1,3 km/h (1 Bft) N-NW 337 ° 0 min 0,000 mm 0,0 UV-I 23 W/m² 0,4 °C 1,3 °C 1,6 km/h (1 Bft)
26.04.2017 18:46 1,4 °C 1,4 °C 94 % 1010,5 hPa 0,0 mm 0,2 km/h (0 Bft) N-NW 337 ° 0 min 0,000 mm 0,0 UV-I 21 W/m² 0,5 °C 1,4 °C 1,6 km/h (1 Bft)
26.04.2017 18:47 1,3 °C 1,4 °C 94 % 1010,5 hPa 0,0 mm 0,2 km/h (0 Bft) N-NW 337 ° 0 min 0,000 mm 0,0 UV-I 21 W/m² 0,4 °C 1,3 °C 1,6 km/h (1 Bft)
26.04.2017 18:48 1,3 °C 1,3 °C 94 % 1010,4 hPa 0,2 mm 0,7 km/h (0 Bft) N-NW 337 ° 0 min 0,000 mm 0,0 UV-I 23 W/m² 0,4 °C 1,3 °C 3,2 km/h (1 Bft)
26.04.2017 18:49 1,3 °C 1,3 °C 94 % 1010,3 hPa 0,0 mm 2,1 km/h (1 Bft) N-NW 337 ° 0 min 0,000 mm 0,0 UV-I 23 W/m² 0,4 °C 1,3 °C 3,2 km/h (1 Bft)
26.04.2017 18:50 1,3 °C 1,3 °C 94 % 1010,3 hPa 0,0 mm 1,3 km/h (1 Bft) N-NW 337 ° 0 min 0,000 mm 0,0 UV-I 23 W/m² 0,4 °C 1,3 °C 3,2 km/h (1 Bft)
26.04.2017 18:51 1,3 °C 1,3 °C 93 % 1010,3 hPa 0,0 mm 0,3 km/h (0 Bft) N-NW 337 ° 0 min 0,000 mm 0,0 UV-I 25 W/m² 0,3 °C 1,3 °C 1,6 km/h (1 Bft)
26.04.2017 18:52 1,3 °C 1,3 °C 94 % 1010,4 hPa 0,0 mm 0,0 km/h (0 Bft) N-NW 337 ° 0 min 0,000 mm 0,0 UV-I 25 W/m² 0,4 °C 1,3 °C 0,0 km/h (0 Bft)
26.04.2017 18:53 1,3 °C 1,3 °C 94 % 1010,4 hPa 0,0 mm 0,0 km/h (0 Bft) N-NW 337 ° 0 min 0,000 mm 0,0 UV-I 26 W/m² 0,4 °C 1,3 °C 0,0 km/h (0 Bft)
26.04.2017 18:54 1,3 °C 1,3 °C 94 % 1010,4 hPa 0,0 mm 0,0 km/h (0 Bft) N-NW 337 ° 0 min 0,000 mm 0,0 UV-I 26 W/m² 0,4 °C 1,3 °C 0,0 km/h (0 Bft)
26.04.2017 18:55 1,3 °C 1,3 °C 94 % 1010,3 hPa 0,0 mm 0,4 km/h (0 Bft) N-NW 337 ° 0 min 0,000 mm 0,0 UV-I 25 W/m² 0,4 °C 1,3 °C 1,6 km/h (1 Bft)
26.04.2017 18:56 1,3 °C 1,3 °C 94 % 1010,3 hPa 0,0 mm 0,0 km/h (0 Bft) N-NW 337 ° 0 min 0,000 mm 0,0 UV-I 23 W/m² 0,4 °C 1,3 °C 0,0 km/h (0 Bft)
26.04.2017 18:57 1,3 °C 1,3 °C 94 % 1010,3 hPa 0,0 mm 0,0 km/h (0 Bft) N-NW 337 ° 0 min 0,000 mm 0,0 UV-I 21 W/m² 0,4 °C 1,3 °C 0,0 km/h (0 Bft)
26.04.2017 18:58 1,3 °C 1,3 °C 94 % 1010,3 hPa 0,0 mm 0,0 km/h (0 Bft) N-NW 337 ° 0 min 0,000 mm 0,0 UV-I 21 W/m² 0,4 °C 1,3 °C 0,0 km/h (0 Bft)
26.04.2017 18:59 1,2 °C 1,3 °C 94 % 1010,2 hPa 0,0 mm 0,0 km/h (0 Bft) N-NW 337 ° 0 min 0,000 mm 0,0 UV-I 21 W/m² 0,3 °C 1,2 °C 0,0 km/h (0 Bft)
26.04.2017 19:00 1,2 °C 1,3 °C 94 % 1010,2 hPa 0,0 mm 0,0 km/h (0 Bft) N-NW 337 ° 0 min 0,000 mm 0,0 UV-I 21 W/m² 0,3 °C 1,2 °C 0,0 km/h (0 Bft)
26.04.2017 19:01 1,2 °C 1,2 °C 93 % 1010,2 hPa 0,0 mm 0,0 km/h (0 Bft) N-NW 337 ° 0 min 0,026 mm 0,0 UV-I 21 W/m² 0,2 °C 1,2 °C 0,0 km/h (0 Bft)
26.04.2017 19:02 1,2 °C 1,2 °C 94 % 1010,2 hPa 0,0 mm 0,0 km/h (0 Bft) N-NW 337 ° 0 min 0,000 mm 0,0 UV-I 21 W/m² 0,3 °C 1,2 °C 0,0 km/h (0 Bft)
26.04.2017 19:03 1,2 °C 1,2 °C 94 % 1010,3 hPa 0,0 mm 0,0 km/h (0 Bft) N-NW 337 ° 0 min 0,000 mm 0,0 UV-I 23 W/m² 0,3 °C 1,2 °C 0,0 km/h (0 Bft)
26.04.2017 19:04 1,2 °C 1,2 °C 94 % 1010,3 hPa 0,0 mm 0,9 km/h (0 Bft) N-NW 337 ° 0 min 0,000 mm 0,0 UV-I 25 W/m² 0,3 °C 1,2 °C 1,6 km/h (1 Bft)
26.04.2017 19:05 1,2 °C 1,2 °C 94 % 1010,4 hPa 0,0 mm 1,0 km/h (0 Bft) N-NW 337 ° 0 min 0,000 mm 0,0 UV-I 26 W/m² 0,3 °C 1,2 °C 1,6 km/h (1 Bft)
26.04.2017 19:06 1,3 °C 1,3 °C 94 % 1010,4 hPa 0,0 mm 1,3 km/h (1 Bft) N-NW 337 ° 0 min 0,000 mm 0,0 UV-I 28 W/m² 0,4 °C 1,3 °C 1,6 km/h (1 Bft)
26.04.2017 19:07 1,3 °C 1,3 °C 94 % 1010,3 hPa 0,0 mm 0,4 km/h (0 Bft) N-NW 337 ° 0 min 0,000 mm 0,0 UV-I 28 W/m² 0,4 °C 1,3 °C 1,6 km/h (1 Bft)
26.04.2017 19:08 1,3 °C 1,3 °C 94 % 1010,3 hPa 0,0 mm 1,8 km/h (1 Bft) N-NW 337 ° 0 min 0,000 mm 0,0 UV-I 30 W/m² 0,4 °C 1,3 °C 3,2 km/h (1 Bft)
26.04.2017 19:09 1,3 °C 1,3 °C 94 % 1010,3 hPa 0,0 mm 1,3 km/h (1 Bft) N-NW 337 ° 0 min 0,000 mm 0,0 UV-I 30 W/m² 0,4 °C 1,3 °C 1,6 km/h (1 Bft)
26.04.2017 19:10 1,2 °C 1,3 °C 94 % 1010,4 hPa 0,0 mm 0,1 km/h (0 Bft) N-NW 337 ° 0 min 0,000 mm 0,0 UV-I 28 W/m² 0,3 °C 1,2 °C 1,6 km/h (1 Bft)
26.04.2017 19:11 1,2 °C 1,2 °C 94 % 1010,4 hPa 0,0 mm 0,4 km/h (0 Bft) N-NW 337 ° 0 min 0,000 mm 0,0 UV-I 25 W/m² 0,3 °C 1,2 °C 1,6 km/h (1 Bft)
26.04.2017 19:12 1,2 °C 1,2 °C 94 % 1010,3 hPa 0,0 mm 0,0 km/h (0 Bft) N-NW 337 ° 0 min 0,000 mm 0,0 UV-I 23 W/m² 0,3 °C 1,2 °C 0,0 km/h (0 Bft)
26.04.2017 19:13 1,2 °C 1,2 °C 94 % 1010,4 hPa 0,0 mm 0,1 km/h (0 Bft) N-NW 337 ° 0 min 0,000 mm 0,0 UV-I 21 W/m² 0,3 °C 1,2 °C 1,6 km/h (1 Bft)
26.04.2017 19:14 1,2 °C 1,2 °C 94 % 1010,3 hPa 0,0 mm 0,0 km/h (0 Bft) N-NW 337 ° 0 min 0,000 mm 0,0 UV-I 19 W/m² 0,3 °C 1,2 °C 0,0 km/h (0 Bft)
26.04.2017 19:15 1,2 °C 1,2 °C 94 % 1010,3 hPa 0,2 mm 0,0 km/h (0 Bft) N-NW 337 ° 0 min 0,000 mm 0,0 UV-I 18 W/m² 0,3 °C 1,2 °C 0,0 km/h (0 Bft)
26.04.2017 19:16 1,2 °C 1,2 °C 94 % 1010,3 hPa 0,0 mm 0,0 km/h (0 Bft) N-NW 337 ° 0 min 0,000 mm 0,0 UV-I 16 W/m² 0,3 °C 1,2 °C 0,0 km/h (0 Bft)
26.04.2017 19:17 1,1 °C 1,2 °C 94 % 1010,3 hPa 0,0 mm 0,0 km/h (0 Bft) N-NW 337 ° 0 min 0,000 mm 0,0 UV-I 14 W/m² 0,2 °C 1,1 °C 0,0 km/h (0 Bft)
26.04.2017 19:18 1,1 °C 1,2 °C 94 % 1010,3 hPa 0,0 mm 0,0 km/h (0 Bft) N-NW 337 ° 0 min 0,000 mm 0,0 UV-I 14 W/m² 0,2 °C 1,1 °C 0,0 km/h (0 Bft)
26.04.2017 19:19 1,2 °C 1,2 °C 94 % 1010,4 hPa 0,0 mm 0,0 km/h (0 Bft) N-NW 337 ° 0 min 0,000 mm 0,0 UV-I 12 W/m² 0,3 °C 1,2 °C 0,0 km/h (0 Bft)
26.04.2017 19:20 1,2 °C 1,2 °C 94 % 1010,4 hPa 0,0 mm 0,8 km/h (0 Bft) N-NW 337 ° 0 min 0,000 mm 0,0 UV-I 12 W/m² 0,3 °C 1,2 °C 1,6 km/h (1 Bft)
26.04.2017 19:21 1,2 °C 1,2 °C 94 % 1010,4 hPa 0,0 mm 0,3 km/h (0 Bft) N-NW 337 ° 0 min 0,000 mm 0,0 UV-I 11 W/m² 0,3 °C 1,2 °C 1,6 km/h (1 Bft)
26.04.2017 19:22 1,2 °C 1,2 °C 94 % 1010,4 hPa 0,0 mm 1,0 km/h (0 Bft) N-NW 337 ° 0 min 0,000 mm 0,0 UV-I 11 W/m² 0,3 °C 1,2 °C 1,6 km/h (1 Bft)
26.04.2017 19:23 1,1 °C 1,2 °C 94 % 1010,5 hPa 0,0 mm 0,7 km/h (0 Bft) N-NW 337 ° 0 min 0,000 mm 0,0 UV-I 11 W/m² 0,2 °C 1,1 °C 1,6 km/h (1 Bft)
26.04.2017 19:24 1,1 °C 1,2 °C 94 % 1010,5 hPa 0,0 mm 0,0 km/h (0 Bft) N-NW 337 ° 0 min 0,000 mm 0,0 UV-I 11 W/m² 0,2 °C 1,1 °C 0,0 km/h (0 Bft)
26.04.2017 19:25 1,1 °C 1,2 °C 94 % 1010,5 hPa 0,0 mm 0,0 km/h (0 Bft) N-NW 337 ° 0 min 0,000 mm 0,0 UV-I 11 W/m² 0,2 °C 1,1 °C 0,0 km/h (0 Bft)
26.04.2017 19:26 1,1 °C 1,1 °C 94 % 1010,5 hPa 0,0 mm 0,0 km/h (0 Bft) N-NW 337 ° 0 min 0,000 mm 0,0 UV-I 12 W/m² 0,2 °C 1,1 °C 0,0 km/h (0 Bft)
26.04.2017 19:27 1,1 °C 1,1 °C 94 % 1010,5 hPa 0,0 mm 0,0 km/h (0 Bft) N-NW 337 ° 0 min 0,000 mm 0,0 UV-I 12 W/m² 0,2 °C 1,1 °C 0,0 km/h (0 Bft)
26.04.2017 19:28 1,1 °C 1,1 °C 94 % 1010,6 hPa 0,0 mm 0,0 km/h (0 Bft) N-NW 337 ° 0 min 0,000 mm 0,0 UV-I 11 W/m² 0,2 °C 1,1 °C 0,0 km/h (0 Bft)
26.04.2017 19:29 1,2 °C 1,2 °C 94 % 1010,6 hPa 0,0 mm 0,0 km/h (0 Bft) N-NW 337 ° 0 min 0,000 mm 0,0 UV-I 11 W/m² 0,3 °C 1,2 °C 0,0 km/h (0 Bft)
26.04.2017 19:30 1,1 °C 1,2 °C 94 % 1010,6 hPa 0,0 mm 0,0 km/h (0 Bft) N-NW 337 ° 0 min 0,000 mm 0,0 UV-I 9 W/m² 0,2 °C 1,1 °C 0,0 km/h (0 Bft)
26.04.2017 19:31 1,2 °C 1,2 °C 94 % 1010,6 hPa 0,0 mm 0,0 km/h (0 Bft) N-NW 337 ° 0 min 0,000 mm 0,0 UV-I 9 W/m² 0,3 °C 1,2 °C 0,0 km/h (0 Bft)
26.04.2017 19:32 1,1 °C 1,2 °C 94 % 1010,6 hPa 0,0 mm 0,0 km/h (0 Bft) N-NW 337 ° 0 min 0,000 mm 0,0 UV-I 9 W/m² 0,2 °C 1,1 °C 0,0 km/h (0 Bft)
26.04.2017 19:33 1,2 °C 1,2 °C 94 % 1010,6 hPa 0,0 mm 0,0 km/h (0 Bft) N-NW 337 ° 0 min 0,000 mm 0,0 UV-I 9 W/m² 0,3 °C 1,2 °C 0,0 km/h (0 Bft)
26.04.2017 19:34 1,2 °C 1,2 °C 94 % 1010,5 hPa 0,0 mm 0,0 km/h (0 Bft) N-NW 337 ° 0 min 0,000 mm 0,0 UV-I 11 W/m² 0,3 °C 1,2 °C 0,0 km/h (0 Bft)
26.04.2017 19:35 1,2 °C 1,2 °C 94 % 1010,5 hPa 0,0 mm 0,0 km/h (0 Bft) N-NW 337 ° 0 min 0,000 mm 0,0 UV-I 11 W/m² 0,3 °C 1,2 °C 0,0 km/h (0 Bft)
26.04.2017 19:36 1,2 °C 1,2 °C 94 % 1010,5 hPa 0,0 mm 0,0 km/h (0 Bft) N-NW 337 ° 0 min 0,000 mm 0,0 UV-I 9 W/m² 0,3 °C 1,2 °C 0,0 km/h (0 Bft)
26.04.2017 19:37 1,1 °C 1,2 °C 94 % 1010,6 hPa 0,0 mm 0,0 km/h (0 Bft) N-NW 337 ° 0 min 0,000 mm 0,0 UV-I 9 W/m² 0,2 °C 1,1 °C 0,0 km/h (0 Bft)
26.04.2017 19:38 1,2 °C 1,2 °C 94 % 1010,6 hPa 0,0 mm 0,0 km/h (0 Bft) N-NW 337 ° 0 min 0,000 mm 0,0 UV-I 9 W/m² 0,3 °C 1,2 °C 0,0 km/h (0 Bft)
26.04.2017 19:39 1,1 °C 1,2 °C 94 % 1010,6 hPa 0,0 mm 0,6 km/h (0 Bft) N-NW 337 ° 0 min 0,000 mm 0,0 UV-I 7 W/m² 0,2 °C 1,1 °C 1,6 km/h (1 Bft)
26.04.2017 19:40 1,1 °C 1,2 °C 94 % 1010,6 hPa 0,0 mm 0,0 km/h (0 Bft) N-NW 337 ° 0 min 0,000 mm 0,0 UV-I 7 W/m² 0,2 °C 1,1 °C 0,0 km/h (0 Bft)
26.04.2017 19:41 1,1 °C 1,1 °C 94 % 1010,6 hPa 0,0 mm 0,0 km/h (0 Bft) N-NW 337 ° 0 min 0,000 mm 0,0 UV-I 7 W/m² 0,2 °C 1,1 °C 0,0 km/h (0 Bft)
26.04.2017 19:42 1,1 °C 1,1 °C 94 % 1010,6 hPa 0,0 mm 0,0 km/h (0 Bft) N-NW 337 ° 0 min 0,000 mm 0,0 UV-I 7 W/m² 0,2 °C 1,1 °C 0,0 km/h (0 Bft)
26.04.2017 19:43 1,1 °C 1,1 °C 94 % 1010,6 hPa 0,0 mm 0,0 km/h (0 Bft) N-NW 337 ° 0 min 0,000 mm 0,0 UV-I 5 W/m² 0,2 °C 1,1 °C 0,0 km/h (0 Bft)
26.04.2017 19:44 1,0 °C 1,1 °C 94 % 1010,6 hPa 0,0 mm 0,0 km/h (0 Bft) N-NW 337 ° 0 min 0,000 mm 0,0 UV-I 5 W/m² 0,1 °C 1,0 °C 0,0 km/h (0 Bft)
26.04.2017 19:45 0,9 °C 1,0 °C 94 % 1010,6 hPa 0,0 mm 0,0 km/h (0 Bft) N-NW 337 ° 0 min 0,000 mm 0,0 UV-I 5 W/m² 0,0 °C 0,9 °C 0,0 km/h (0 Bft)
26.04.2017 19:46 0,9 °C 1,0 °C 94 % 1010,6 hPa 0,0 mm 0,0 km/h (0 Bft) N-NW 337 ° 0 min 0,000 mm 0,0 UV-I 0 W/m² 0,0 °C 0,9 °C 0,0 km/h (0 Bft)
26.04.2017 19:47 0,9 °C 0,9 °C 94 % 1010,6 hPa 0,0 mm 0,0 km/h (0 Bft) N-NW 337 ° 0 min 0,000 mm 0,0 UV-I 0 W/m² 0,0 °C 0,9 °C 0,0 km/h (0 Bft)
26.04.2017 19:48 0,8 °C 0,9 °C 94 % 1010,6 hPa 0,0 mm 0,0 km/h (0 Bft) N-NW 337 ° 0 min 0,000 mm 0,0 UV-I 0 W/m² -0,1 °C 0,8 °C 0,0 km/h (0 Bft)
26.04.2017 19:49 0,8 °C 0,8 °C 94 % 1010,6 hPa 0,0 mm 0,0 km/h (0 Bft) N-NW 337 ° 0 min 0,000 mm 0,0 UV-I 0 W/m² -0,1 °C 0,8 °C 0,0 km/h (0 Bft)
26.04.2017 19:50 0,8 °C 0,8 °C 94 % 1010,6 hPa 0,0 mm 0,0 km/h (0 Bft) N-NW 337 ° 0 min 0,000 mm 0,0 UV-I 0 W/m² -0,1 °C 0,8 °C 0,0 km/h (0 Bft)
26.04.2017 19:51 0,8 °C 0,8 °C 94 % 1010,6 hPa 0,0 mm 0,0 km/h (0 Bft) N-NW 337 ° 0 min 0,000 mm 0,0 UV-I 0 W/m² -0,1 °C 0,8 °C 0,0 km/h (0 Bft)
26.04.2017 19:52 0,8 °C 0,8 °C 94 % 1010,6 hPa 0,0 mm 0,0 km/h (0 Bft) N-NW 337 ° 0 min 0,000 mm 0,0 UV-I 0 W/m² -0,1 °C 0,8 °C 0,0 km/h (0 Bft)
26.04.2017 19:53 0,8 °C 0,8 °C 94 % 1010,6 hPa 0,0 mm 0,0 km/h (0 Bft) N-NW 337 ° 0 min 0,000 mm 0,0 UV-I 0 W/m² -0,1 °C 0,8 °C 0,0 km/h (0 Bft)
26.04.2017 19:54 0,7 °C 0,8 °C 94 % 1010,6 hPa 0,0 mm 0,0 km/h (0 Bft) N-NW 337 ° 0 min 0,000 mm 0,0 UV-I 0 W/m² -0,2 °C 0,7 °C 0,0 km/h (0 Bft)
26.04.2017 19:55 0,7 °C 0,7 °C 94 % 1010,6 hPa 0,0 mm 0,0 km/h (0 Bft) N-NW 337 ° 0 min 0,000 mm 0,0 UV-I 0 W/m² -0,2 °C 0,7 °C 0,0 km/h (0 Bft)
26.04.2017 19:56 0,7 °C 0,7 °C 94 % 1010,6 hPa 0,0 mm 0,0 km/h (0 Bft) N-NW 337 ° 0 min 0,000 mm 0,0 UV-I 0 W/m² -0,2 °C 0,7 °C 0,0 km/h (0 Bft)
26.04.2017 19:57 0,7 °C 0,7 °C 94 % 1010,6 hPa 0,0 mm 0,0 km/h (0 Bft) N-NW 337 ° 0 min 0,000 mm 0,0 UV-I 0 W/m² -0,2 °C 0,7 °C 0,0 km/h (0 Bft)
26.04.2017 19:58 0,6 °C 0,7 °C 94 % 1010,6 hPa 0,0 mm 0,0 km/h (0 Bft) N-NW 337 ° 0 min 0,000 mm 0,0 UV-I 0 W/m² -0,3 °C 0,6 °C 0,0 km/h (0 Bft)
26.04.2017 19:59 0,6 °C 0,6 °C 94 % 1010,6 hPa 0,0 mm 0,0 km/h (0 Bft) N-NW 337 ° 0 min 0,000 mm 0,0 UV-I 0 W/m² -0,3 °C 0,6 °C 0,0 km/h (0 Bft)
26.04.2017 20:00 0,6 °C 0,6 °C 94 % 1010,7 hPa 0,0 mm 0,0 km/h (0 Bft) N-NW 337 ° 0 min 0,000 mm 0,0 UV-I 0 W/m² -0,3 °C 0,6 °C 0,0 km/h (0 Bft)
26.04.2017 20:01 0,6 °C 0,6 °C 94 % 1010,7 hPa 0,0 mm 0,0 km/h (0 Bft) N-NW 337 ° 0 min 0,000 mm 0,0 UV-I 0 W/m² -0,3 °C 0,6 °C 0,0 km/h (0 Bft)
26.04.2017 20:02 0,5 °C 0,6 °C 95 % 1010,7 hPa 0,0 mm 0,0 km/h (0 Bft) N-NW 337 ° 0 min 0,000 mm 0,0 UV-I 0 W/m² -0,2 °C 0,5 °C 0,0 km/h (0 Bft)
26.04.2017 20:03 0,5 °C 0,5 °C 94 % 1010,7 hPa 0,0 mm 0,0 km/h (0 Bft) N-NW 337 ° 0 min 0,000 mm 0,0 UV-I 0 W/m² -0,4 °C 0,5 °C 0,0 km/h (0 Bft)
26.04.2017 20:04 0,5 °C 0,5 °C 94 % 1010,7 hPa 0,0 mm 0,0 km/h (0 Bft) N-NW 337 ° 0 min 0,000 mm 0,0 UV-I 0 W/m² -0,4 °C 0,5 °C 0,0 km/h (0 Bft)
26.04.2017 20:05 0,5 °C 0,5 °C 94 % 1010,7 hPa 0,0 mm 0,0 km/h (0 Bft) N-NW 337 ° 0 min 0,000 mm 0,0 UV-I 0 W/m² -0,4 °C 0,5 °C 0,0 km/h (0 Bft)
26.04.2017 20:06 0,5 °C 0,5 °C 94 % 1010,8 hPa 0,0 mm 0,0 km/h (0 Bft) N-NW 337 ° 0 min 0,000 mm 0,0 UV-I 0 W/m² -0,4 °C 0,5 °C 0,0 km/h (0 Bft)
26.04.2017 20:07 0,4 °C 0,5 °C 95 % 1010,8 hPa 0,0 mm 0,0 km/h (0 Bft) N-NW 337 ° 0 min 0,000 mm 0,0 UV-I 0 W/m² -0,3 °C 0,4 °C 0,0 km/h (0 Bft)
26.04.2017 20:08 0,4 °C 0,4 °C 95 % 1010,9 hPa 0,0 mm 0,0 km/h (0 Bft) N-NW 337 ° 0 min 0,000 mm 0,0 UV-I 0 W/m² -0,3 °C 0,4 °C 0,0 km/h (0 Bft)
26.04.2017 20:09 0,4 °C 0,4 °C 95 % 1010,9 hPa 0,0 mm 0,0 km/h (0 Bft) N-NW 337 ° 0 min 0,000 mm 0,0 UV-I 0 W/m² -0,3 °C 0,4 °C 0,0 km/h (0 Bft)
26.04.2017 20:10 0,4 °C 0,4 °C 95 % 1010,8 hPa 0,0 mm 0,0 km/h (0 Bft) N-NW 337 ° 0 min 0,000 mm 0,0 UV-I 0 W/m² -0,3 °C 0,4 °C 0,0 km/h (0 Bft)
26.04.2017 20:11 0,4 °C 0,4 °C 95 % 1010,8 hPa 0,0 mm 0,0 km/h (0 Bft) N-NW 337 ° 0 min 0,000 mm 0,0 UV-I 0 W/m² -0,3 °C 0,4 °C 0,0 km/h (0 Bft)
26.04.2017 20:12 0,3 °C 0,4 °C 95 % 1010,8 hPa 0,0 mm 0,0 km/h (0 Bft) N-NW 337 ° 0 min 0,000 mm 0,0 UV-I 0 W/m² -0,4 °C 0,3 °C 0,0 km/h (0 Bft)
26.04.2017 20:13 0,4 °C 0,4 °C 95 % 1010,8 hPa 0,0 mm 0,0 km/h (0 Bft) N-NW 337 ° 0 min 0,000 mm 0,0 UV-I 0 W/m² -0,3 °C 0,4 °C 0,0 km/h (0 Bft)
26.04.2017 20:14 0,3 °C 0,4 °C 95 % 1010,7 hPa 0,0 mm 0,0 km/h (0 Bft) N-NW 337 ° 0 min 0,000 mm 0,0 UV-I 0 W/m² -0,4 °C 0,3 °C 0,0 km/h (0 Bft)
26.04.2017 20:15 0,3 °C 0,4 °C 95 % 1010,7 hPa 0,0 mm 0,0 km/h (0 Bft) N-NW 337 ° 0 min 0,000 mm 0,0 UV-I 0 W/m² -0,4 °C 0,3 °C 0,0 km/h (0 Bft)
26.04.2017 20:16 0,3 °C 0,3 °C 95 % 1010,7 hPa 0,0 mm 0,0 km/h (0 Bft) N-NW 337 ° 0 min 0,000 mm 0,0 UV-I 0 W/m² -0,4 °C 0,3 °C 0,0 km/h (0 Bft)
26.04.2017 20:17 0,3 °C 0,3 °C 95 % 1010,8 hPa 0,0 mm 0,0 km/h (0 Bft) N-NW 337 ° 0 min 0,000 mm 0,0 UV-I 0 W/m² -0,4 °C 0,3 °C 0,0 km/h (0 Bft)
26.04.2017 20:18 0,3 °C 0,3 °C 95 % 1010,8 hPa 0,0 mm 0,0 km/h (0 Bft) N-NW 337 ° 0 min 0,000 mm 0,0 UV-I 0 W/m² -0,4 °C 0,3 °C 0,0 km/h (0 Bft)
26.04.2017 20:19 0,3 °C 0,3 °C 95 % 1010,8 hPa 0,0 mm 0,0 km/h (0 Bft) N-NW 337 ° 0 min 0,000 mm 0,0 UV-I 0 W/m² -0,4 °C 0,3 °C 0,0 km/h (0 Bft)
26.04.2017 20:20 0,3 °C 0,3 °C 95 % 1010,8 hPa 0,0 mm 0,0 km/h (0 Bft) N-NW 337 ° 0 min 0,000 mm 0,0 UV-I 0 W/m² -0,4 °C 0,3 °C 0,0 km/h (0 Bft)
26.04.2017 20:21 0,3 °C 0,3 °C 95 % 1010,8 hPa 0,0 mm 0,0 km/h (0 Bft) N-NW 337 ° 0 min 0,000 mm 0,0 UV-I 0 W/m² -0,4 °C 0,3 °C 0,0 km/h (0 Bft)
26.04.2017 20:22 0,3 °C 0,3 °C 95 % 1010,8 hPa 0,0 mm 0,0 km/h (0 Bft) N-NW 337 ° 0 min 0,000 mm 0,0 UV-I 0 W/m² -0,4 °C 0,3 °C 0,0 km/h (0 Bft)
26.04.2017 20:23 0,3 °C 0,3 °C 95 % 1010,8 hPa 0,0 mm 0,0 km/h (0 Bft) N-NW 337 ° 0 min 0,000 mm 0,0 UV-I 0 W/m² -0,4 °C 0,3 °C 0,0 km/h (0 Bft)
26.04.2017 20:24 0,3 °C 0,3 °C 95 % 1010,8 hPa 0,0 mm 0,0 km/h (0 Bft) N-NW 337 ° 0 min 0,000 mm 0,0 UV-I 0 W/m² -0,4 °C 0,3 °C 0,0 km/h (0 Bft)
26.04.2017 20:25 0,3 °C 0,3 °C 95 % 1010,9 hPa 0,0 mm 0,0 km/h (0 Bft) N-NW 337 ° 0 min 0,000 mm 0,0 UV-I 0 W/m² -0,4 °C 0,3 °C 0,0 km/h (0 Bft)
26.04.2017 20:26 0,3 °C 0,3 °C 95 % 1010,9 hPa 0,0 mm 0,0 km/h (0 Bft) N-NW 337 ° 0 min 0,000 mm 0,0 UV-I 0 W/m² -0,4 °C 0,3 °C 0,0 km/h (0 Bft)
26.04.2017 20:27 0,2 °C 0,3 °C 95 % 1010,8 hPa 0,0 mm 0,0 km/h (0 Bft) N-NW 337 ° 0 min 0,000 mm 0,0 UV-I 0 W/m² -0,5 °C 0,2 °C 0,0 km/h (0 Bft)
26.04.2017 20:28 0,2 °C 0,3 °C 95 % 1010,8 hPa 0,0 mm 0,0 km/h (0 Bft) N-NW 337 ° 0 min 0,000 mm 0,0 UV-I 0 W/m² -0,5 °C 0,2 °C 0,0 km/h (0 Bft)
26.04.2017 20:29 0,2 °C 0,2 °C 95 % 1010,8 hPa 0,0 mm 0,0 km/h (0 Bft) N-NW 337 ° 0 min 0,000 mm 0,0 UV-I 0 W/m² -0,5 °C 0,2 °C 0,0 km/h (0 Bft)
26.04.2017 20:30 0,2 °C 0,3 °C 95 % 1010,9 hPa 0,0 mm 0,0 km/h (0 Bft) N-NW 337 ° 0 min 0,000 mm 0,0 UV-I 0 W/m² -0,5 °C 0,2 °C 0,0 km/h (0 Bft)
26.04.2017 20:31 0,2 °C 0,2 °C 95 % 1010,9 hPa 0,0 mm 0,0 km/h (0 Bft) N-NW 337 ° 0 min 0,000 mm 0,0 UV-I 0 W/m² -0,5 °C 0,2 °C 0,0 km/h (0 Bft)
26.04.2017 20:32 0,2 °C 0,2 °C 95 % 1010,9 hPa 0,0 mm 0,0 km/h (0 Bft) N-NW 337 ° 0 min 0,000 mm 0,0 UV-I 0 W/m² -0,5 °C 0,2 °C 0,0 km/h (0 Bft)
26.04.2017 20:33 0,2 °C 0,2 °C 95 % 1010,9 hPa 0,0 mm 0,0 km/h (0 Bft) N-NW 337 ° 0 min 0,000 mm 0,0 UV-I 0 W/m² -0,5 °C 0,2 °C 0,0 km/h (0 Bft)
26.04.2017 20:34 0,3 °C 0,3 °C 95 % 1010,9 hPa 0,0 mm 0,0 km/h (0 Bft) N-NW 337 ° 0 min 0,000 mm 0,0 UV-I 0 W/m² -0,4 °C 0,3 °C 0,0 km/h (0 Bft)
26.04.2017 20:35 0,2 °C 0,3 °C 95 % 1010,9 hPa 0,0 mm 0,0 km/h (0 Bft) N-NW 337 ° 0 min 0,000 mm 0,0 UV-I 0 W/m² -0,5 °C 0,2 °C 0,0 km/h (0 Bft)
26.04.2017 20:36 0,3 °C 0,3 °C 95 % 1010,9 hPa 0,0 mm 0,0 km/h (0 Bft) N-NW 337 ° 0 min 0,000 mm 0,0 UV-I 0 W/m² -0,4 °C 0,3 °C 0,0 km/h (0 Bft)
26.04.2017 20:37 0,2 °C 0,3 °C 95 % 1010,9 hPa 0,0 mm 0,0 km/h (0 Bft) N-NW 337 ° 0 min 0,000 mm 0,0 UV-I 0 W/m² -0,5 °C 0,2 °C 0,0 km/h (0 Bft)
26.04.2017 20:38 0,2 °C 0,2 °C 95 % 1010,9 hPa 0,0 mm 0,0 km/h (0 Bft) N-NW 337 ° 0 min 0,000 mm 0,0 UV-I 0 W/m² -0,5 °C 0,2 °C 0,0 km/h (0 Bft)
26.04.2017 20:39 0,2 °C 0,3 °C 95 % 1011,0 hPa 0,0 mm 0,0 km/h (0 Bft) N-NW 337 ° 0 min 0,000 mm 0,0 UV-I 0 W/m² -0,5 °C 0,2 °C 0,0 km/h (0 Bft)
26.04.2017 20:40 0,2 °C 0,2 °C 95 % 1010,9 hPa 0,0 mm 0,0 km/h (0 Bft) N-NW 337 ° 0 min 0,000 mm 0,0 UV-I 0 W/m² -0,5 °C 0,2 °C 0,0 km/h (0 Bft)
26.04.2017 20:41 0,2 °C 0,3 °C 95 % 1010,9 hPa 0,0 mm 0,0 km/h (0 Bft) N-NW 337 ° 0 min 0,000 mm 0,0 UV-I 0 W/m² -0,5 °C 0,2 °C 0,0 km/h (0 Bft)
26.04.2017 20:42 0,2 °C 0,2 °C 95 % 1011,0 hPa 0,0 mm 0,0 km/h (0 Bft) N-NW 337 ° 0 min 0,000 mm 0,0 UV-I 0 W/m² -0,5 °C 0,2 °C 0,0 km/h (0 Bft)
26.04.2017 20:43 0,2 °C 0,2 °C 95 % 1011,0 hPa 0,0 mm 0,0 km/h (0 Bft) N-NW 337 ° 0 min 0,000 mm 0,0 UV-I 0 W/m² -0,5 °C 0,2 °C 0,0 km/h (0 Bft)
26.04.2017 20:44 0,2 °C 0,2 °C 95 % 1010,9 hPa 0,0 mm 0,0 km/h (0 Bft) N-NW 337 ° 0 min 0,000 mm 0,0 UV-I 0 W/m² -0,5 °C 0,2 °C 0,0 km/h (0 Bft)
26.04.2017 20:45 0,2 °C 0,2 °C 95 % 1011,0 hPa 0,0 mm 0,0 km/h (0 Bft) N-NW 337 ° 0 min 0,000 mm 0,0 UV-I 0 W/m² -0,5 °C 0,2 °C 0,0 km/h (0 Bft)
26.04.2017 20:46 0,2 °C 0,2 °C 95 % 1011,0 hPa 0,0 mm 0,0 km/h (0 Bft) N-NW 337 ° 0 min 0,000 mm 0,0 UV-I 0 W/m² -0,5 °C 0,2 °C 0,0 km/h (0 Bft)
26.04.2017 20:47 0,2 °C 0,2 °C 95 % 1011,0 hPa 0,0 mm 0,0 km/h (0 Bft) N-NW 337 ° 0 min 0,000 mm 0,0 UV-I 0 W/m² -0,5 °C 0,2 °C 0,0 km/h (0 Bft)
26.04.2017 20:48 0,2 °C 0,2 °C 95 % 1011,1 hPa 0,0 mm 0,0 km/h (0 Bft) N-NW 337 ° 0 min 0,000 mm 0,0 UV-I 0 W/m² -0,5 °C 0,2 °C 0,0 km/h (0 Bft)
26.04.2017 20:49 0,2 °C 0,2 °C 95 % 1011,1 hPa 0,0 mm 0,0 km/h (0 Bft) N-NW 337 ° 0 min 0,000 mm 0,0 UV-I 0 W/m² -0,5 °C 0,2 °C 0,0 km/h (0 Bft)
26.04.2017 20:50 0,2 °C 0,2 °C 95 % 1011,1 hPa 0,0 mm 0,0 km/h (0 Bft) N-NW 337 ° 0 min 0,000 mm 0,0 UV-I 0 W/m² -0,5 °C 0,2 °C 0,0 km/h (0 Bft)
26.04.2017 20:51 0,2 °C 0,2 °C 95 % 1011,1 hPa 0,0 mm 0,0 km/h (0 Bft) N-NW 337 ° 0 min 0,000 mm 0,0 UV-I 0 W/m² -0,5 °C 0,2 °C 0,0 km/h (0 Bft)
26.04.2017 20:52 0,2 °C 0,2 °C 96 % 1011,1 hPa 0,0 mm 0,0 km/h (0 Bft) N-NW 337 ° 0 min 0,000 mm 0,0 UV-I 0 W/m² -0,4 °C 0,2 °C 0,0 km/h (0 Bft)
26.04.2017 20:53 0,2 °C 0,2 °C 96 % 1011,1 hPa 0,0 mm 0,0 km/h (0 Bft) N-NW 337 ° 0 min 0,000 mm 0,0 UV-I 0 W/m² -0,4 °C 0,2 °C 0,0 km/h (0 Bft)
26.04.2017 20:54 0,2 °C 0,2 °C 96 % 1011,1 hPa 0,0 mm 0,0 km/h (0 Bft) N-NW 337 ° 0 min 0,000 mm 0,0 UV-I 0 W/m² -0,4 °C 0,2 °C 0,0 km/h (0 Bft)
26.04.2017 20:55 0,2 °C 0,2 °C 96 % 1011,1 hPa 0,0 mm 0,0 km/h (0 Bft) N-NW 337 ° 0 min 0,000 mm 0,0 UV-I 0 W/m² -0,4 °C 0,2 °C 0,0 km/h (0 Bft)
26.04.2017 20:56 0,2 °C 0,3 °C 96 % 1011,1 hPa 0,0 mm 0,0 km/h (0 Bft) N-NW 337 ° 0 min 0,000 mm 0,0 UV-I 0 W/m² -0,4 °C 0,2 °C 0,0 km/h (0 Bft)
26.04.2017 20:57 0,2 °C 0,2 °C 96 % 1011,1 hPa 0,0 mm 0,0 km/h (0 Bft) N-NW 337 ° 0 min 0,000 mm 0,0 UV-I 0 W/m² -0,4 °C 0,2 °C 0,0 km/h (0 Bft)
26.04.2017 20:58 0,2 °C 0,2 °C 96 % 1011,1 hPa 0,0 mm 0,0 km/h (0 Bft) N-NW 337 ° 0 min 0,000 mm 0,0 UV-I 0 W/m² -0,4 °C 0,2 °C 0,0 km/h (0 Bft)
26.04.2017 20:59 0,2 °C 0,2 °C 96 % 1011,1 hPa 0,0 mm 0,0 km/h (0 Bft) N-NW 337 ° 0 min 0,000 mm 0,0 UV-I 0 W/m² -0,4 °C 0,2 °C 0,0 km/h (0 Bft)
26.04.2017 21:00 0,2 °C 0,2 °C 96 % 1011,1 hPa 0,0 mm 0,0 km/h (0 Bft) N-NW 337 ° 0 min 0,000 mm 0,0 UV-I 0 W/m² -0,4 °C 0,2 °C 0,0 km/h (0 Bft)
26.04.2017 21:01 0,2 °C 0,2 °C 96 % 1011,1 hPa 0,0 mm 0,0 km/h (0 Bft) N-NW 337 ° 0 min 0,000 mm 0,0 UV-I 0 W/m² -0,4 °C 0,2 °C 0,0 km/h (0 Bft)
26.04.2017 21:02 0,2 °C 0,2 °C 96 % 1011,2 hPa 0,0 mm 0,0 km/h (0 Bft) N-NW 337 ° 0 min 0,000 mm 0,0 UV-I 0 W/m² -0,4 °C 0,2 °C 0,0 km/h (0 Bft)
26.04.2017 21:03 0,2 °C 0,2 °C 96 % 1011,2 hPa 0,0 mm 0,0 km/h (0 Bft) N-NW 337 ° 0 min 0,000 mm 0,0 UV-I 0 W/m² -0,4 °C 0,2 °C 0,0 km/h (0 Bft)
26.04.2017 21:04 0,2 °C 0,2 °C 96 % 1011,2 hPa 0,0 mm 0,0 km/h (0 Bft) N-NW 337 ° 0 min 0,000 mm 0,0 UV-I 0 W/m² -0,4 °C 0,2 °C 0,0 km/h (0 Bft)
26.04.2017 21:05 0,2 °C 0,2 °C 96 % 1011,2 hPa 0,0 mm 0,0 km/h (0 Bft) N-NW 337 ° 0 min 0,000 mm 0,0 UV-I 0 W/m² -0,4 °C 0,2 °C 0,0 km/h (0 Bft)
26.04.2017 21:06 0,2 °C 0,2 °C 96 % 1011,3 hPa 0,0 mm 0,0 km/h (0 Bft) N-NW 337 ° 0 min 0,000 mm 0,0 UV-I 0 W/m² -0,4 °C 0,2 °C 0,0 km/h (0 Bft)
26.04.2017 21:07 0,2 °C 0,2 °C 96 % 1011,3 hPa 0,0 mm 0,0 km/h (0 Bft) N-NW 337 ° 0 min 0,000 mm 0,0 UV-I 0 W/m² -0,4 °C 0,2 °C 0,0 km/h (0 Bft)
26.04.2017 21:08 0,2 °C 0,2 °C 96 % 1011,3 hPa 0,0 mm 0,0 km/h (0 Bft) N-NW 337 ° 0 min 0,000 mm 0,0 UV-I 0 W/m² -0,4 °C 0,2 °C 0,0 km/h (0 Bft)
26.04.2017 21:09 0,2 °C 0,2 °C 95 % 1011,4 hPa 0,0 mm 0,0 km/h (0 Bft) N-NW 337 ° 0 min 0,000 mm 0,0 UV-I 0 W/m² -0,5 °C 0,2 °C 0,0 km/h (0 Bft)
26.04.2017 21:10 0,2 °C 0,2 °C 95 % 1011,4 hPa 0,0 mm 0,0 km/h (0 Bft) N-NW 337 ° 0 min 0,000 mm 0,0 UV-I 0 W/m² -0,5 °C 0,2 °C 0,0 km/h (0 Bft)
26.04.2017 21:11 0,2 °C 0,3 °C 95 % 1011,4 hPa 0,0 mm 0,0 km/h (0 Bft) N-NW 337 ° 0 min 0,000 mm 0,0 UV-I 0 W/m² -0,5 °C 0,2 °C 0,0 km/h (0 Bft)
26.04.2017 21:12 0,2 °C 0,2 °C 95 % 1011,4 hPa 0,0 mm 0,0 km/h (0 Bft) N-NW 337 ° 0 min 0,000 mm 0,0 UV-I 0 W/m² -0,5 °C 0,2 °C 0,0 km/h (0 Bft)
26.04.2017 21:13 0,2 °C 0,2 °C 95 % 1011,4 hPa 0,0 mm 0,0 km/h (0 Bft) N-NW 337 ° 0 min 0,000 mm 0,0 UV-I 0 W/m² -0,5 °C 0,2 °C 0,0 km/h (0 Bft)
26.04.2017 21:14 0,2 °C 0,2 °C 95 % 1011,5 hPa 0,0 mm 0,0 km/h (0 Bft) N-NW 337 ° 0 min 0,000 mm 0,0 UV-I 0 W/m² -0,5 °C 0,2 °C 0,0 km/h (0 Bft)
26.04.2017 21:15 0,2 °C 0,2 °C 95 % 1011,4 hPa 0,0 mm 0,0 km/h (0 Bft) N-NW 337 ° 0 min 0,000 mm 0,0 UV-I 0 W/m² -0,5 °C 0,2 °C 0,0 km/h (0 Bft)
26.04.2017 21:16 0,2 °C 0,3 °C 96 % 1011,5 hPa 0,0 mm 0,0 km/h (0 Bft) N-NW 337 ° 0 min 0,000 mm 0,0 UV-I 0 W/m² -0,4 °C 0,2 °C 0,0 km/h (0 Bft)
26.04.2017 21:17 0,2 °C 0,2 °C 96 % 1011,4 hPa 0,0 mm 0,0 km/h (0 Bft) N-NW 337 ° 0 min 0,000 mm 0,0 UV-I 0 W/m² -0,4 °C 0,2 °C 0,0 km/h (0 Bft)
26.04.2017 21:18 0,2 °C 0,2 °C 96 % 1011,5 hPa 0,0 mm 0,0 km/h (0 Bft) N-NW 337 ° 0 min 0,000 mm 0,0 UV-I 0 W/m² -0,4 °C 0,2 °C 0,0 km/h (0 Bft)
26.04.2017 21:19 0,2 °C 0,2 °C 95 % 1011,5 hPa 0,0 mm 0,0 km/h (0 Bft) N-NW 337 ° 0 min 0,000 mm 0,0 UV-I 0 W/m² -0,5 °C 0,2 °C 0,0 km/h (0 Bft)
26.04.2017 21:20 0,2 °C 0,2 °C 95 % 1011,5 hPa 0,0 mm 0,0 km/h (0 Bft) N-NW 337 ° 0 min 0,000 mm 0,0 UV-I 0 W/m² -0,5 °C 0,2 °C 0,0 km/h (0 Bft)
26.04.2017 21:21 0,2 °C 0,2 °C 96 % 1011,5 hPa 0,0 mm 0,0 km/h (0 Bft) N-NW 337 ° 0 min 0,000 mm 0,0 UV-I 0 W/m² -0,4 °C 0,2 °C 0,0 km/h (0 Bft)
26.04.2017 21:22 0,2 °C 0,2 °C 96 % 1011,5 hPa 0,0 mm 0,0 km/h (0 Bft) N-NW 337 ° 0 min 0,000 mm 0,0 UV-I 0 W/m² -0,4 °C 0,2 °C 0,0 km/h (0 Bft)
26.04.2017 21:23 0,2 °C 0,2 °C 96 % 1011,5 hPa 0,0 mm 0,0 km/h (0 Bft) N-NW 337 ° 0 min 0,000 mm 0,0 UV-I 0 W/m² -0,4 °C 0,2 °C 0,0 km/h (0 Bft)
26.04.2017 21:24 0,2 °C 0,2 °C 96 % 1011,6 hPa 0,0 mm 0,0 km/h (0 Bft) N-NW 337 ° 0 min 0,000 mm 0,0 UV-I 0 W/m² -0,4 °C 0,2 °C 0,0 km/h (0 Bft)
26.04.2017 21:25 0,2 °C 0,2 °C 96 % 1011,6 hPa 0,0 mm 0,0 km/h (0 Bft) N-NW 337 ° 0 min 0,000 mm 0,0 UV-I 0 W/m² -0,4 °C 0,2 °C 0,0 km/h (0 Bft)
26.04.2017 21:26 0,2 °C 0,2 °C 96 % 1011,6 hPa 0,0 mm 0,0 km/h (0 Bft) N-NW 337 ° 0 min 0,000 mm 0,0 UV-I 0 W/m² -0,4 °C 0,2 °C 0,0 km/h (0 Bft)
26.04.2017 21:27 0,2 °C 0,2 °C 96 % 1011,6 hPa 0,0 mm 0,0 km/h (0 Bft) N-NW 337 ° 0 min 0,000 mm 0,0 UV-I 0 W/m² -0,4 °C 0,2 °C 0,0 km/h (0 Bft)
26.04.2017 21:28 0,2 °C 0,2 °C 96 % 1011,6 hPa 0,0 mm 0,0 km/h (0 Bft) N-NW 337 ° 0 min 0,000 mm 0,0 UV-I 0 W/m² -0,4 °C 0,2 °C 0,0 km/h (0 Bft)
26.04.2017 21:29 0,2 °C 0,2 °C 96 % 1011,6 hPa 0,0 mm 0,0 km/h (0 Bft) N-NW 337 ° 0 min 0,000 mm 0,0 UV-I 0 W/m² -0,4 °C 0,2 °C 0,0 km/h (0 Bft)
26.04.2017 21:30 0,2 °C 0,2 °C 96 % 1011,6 hPa 0,0 mm 0,0 km/h (0 Bft) N-NW 337 ° 0 min 0,000 mm 0,0 UV-I 0 W/m² -0,4 °C 0,2 °C 0,0 km/h (0 Bft)
26.04.2017 21:31 0,2 °C 0,2 °C 96 % 1011,6 hPa 0,0 mm 0,0 km/h (0 Bft) N-NW 337 ° 0 min 0,000 mm 0,0 UV-I 0 W/m² -0,4 °C 0,2 °C 0,0 km/h (0 Bft)
26.04.2017 21:32 0,2 °C 0,2 °C 96 % 1011,6 hPa 0,0 mm 0,0 km/h (0 Bft) N-NW 337 ° 0 min 0,000 mm 0,0 UV-I 0 W/m² -0,4 °C 0,2 °C 0,0 km/h (0 Bft)
26.04.2017 21:33 0,2 °C 0,2 °C 96 % 1011,6 hPa 0,0 mm 0,0 km/h (0 Bft) N-NW 337 ° 0 min 0,000 mm 0,0 UV-I 0 W/m² -0,4 °C 0,2 °C 0,0 km/h (0 Bft)
26.04.2017 21:34 0,2 °C 0,2 °C 96 % 1011,6 hPa 0,0 mm 0,0 km/h (0 Bft) N-NW 337 ° 0 min 0,000 mm 0,0 UV-I 0 W/m² -0,4 °C 0,2 °C 0,0 km/h (0 Bft)
26.04.2017 21:35 0,2 °C 0,2 °C 96 % 1011,6 hPa 0,0 mm 0,0 km/h (0 Bft) N-NW 337 ° 0 min 0,000 mm 0,0 UV-I 0 W/m² -0,4 °C 0,2 °C 0,0 km/h (0 Bft)
26.04.2017 21:36 0,2 °C 0,2 °C 96 % 1011,6 hPa 0,0 mm 0,0 km/h (0 Bft) N-NW 337 ° 0 min 0,000 mm 0,0 UV-I 0 W/m² -0,4 °C 0,2 °C 0,0 km/h (0 Bft)
26.04.2017 21:37 0,2 °C 0,2 °C 96 % 1011,6 hPa 0,0 mm 0,0 km/h (0 Bft) N-NW 337 ° 0 min 0,000 mm 0,0 UV-I 0 W/m² -0,4 °C 0,2 °C 0,0 km/h (0 Bft)
26.04.2017 21:38 0,2 °C 0,2 °C 96 % 1011,6 hPa 0,0 mm 0,0 km/h (0 Bft) N-NW 337 ° 0 min 0,000 mm 0,0 UV-I 0 W/m² -0,4 °C 0,2 °C 0,0 km/h (0 Bft)
26.04.2017 21:39 0,2 °C 0,2 °C 96 % 1011,6 hPa 0,0 mm 0,0 km/h (0 Bft) N-NW 337 ° 0 min 0,000 mm 0,0 UV-I 0 W/m² -0,4 °C 0,2 °C 0,0 km/h (0 Bft)
26.04.2017 21:40 0,2 °C 0,2 °C 96 % 1011,6 hPa 0,0 mm 0,0 km/h (0 Bft) N-NW 337 ° 0 min 0,000 mm 0,0 UV-I 0 W/m² -0,4 °C 0,2 °C 0,0 km/h (0 Bft)
26.04.2017 21:41 0,2 °C 0,2 °C 96 % 1011,6 hPa 0,0 mm 0,0 km/h (0 Bft) N-NW 337 ° 0 min 0,000 mm 0,0 UV-I 0 W/m² -0,4 °C 0,2 °C 0,0 km/h (0 Bft)
26.04.2017 21:42 0,2 °C 0,2 °C 96 % 1011,6 hPa 0,0 mm 0,0 km/h (0 Bft) N-NW 337 ° 0 min 0,000 mm 0,0 UV-I 0 W/m² -0,4 °C 0,2 °C 0,0 km/h (0 Bft)
26.04.2017 21:43 0,2 °C 0,2 °C 96 % 1011,6 hPa 0,0 mm 0,0 km/h (0 Bft) N-NW 337 ° 0 min 0,000 mm 0,0 UV-I 0 W/m² -0,4 °C 0,2 °C 0,0 km/h (0 Bft)
26.04.2017 21:44 0,2 °C 0,2 °C 96 % 1011,5 hPa 0,0 mm 0,0 km/h (0 Bft) N-NW 337 ° 0 min 0,000 mm 0,0 UV-I 0 W/m² -0,4 °C 0,2 °C 0,0 km/h (0 Bft)
26.04.2017 21:45 0,2 °C 0,2 °C 96 % 1011,5 hPa 0,0 mm 0,0 km/h (0 Bft) N-NW 337 ° 0 min 0,000 mm 0,0 UV-I 0 W/m² -0,4 °C 0,2 °C 0,0 km/h (0 Bft)
26.04.2017 21:46 0,2 °C 0,2 °C 96 % 1011,4 hPa 0,0 mm 0,0 km/h (0 Bft) N-NW 337 ° 0 min 0,000 mm 0,0 UV-I 0 W/m² -0,4 °C 0,2 °C 0,0 km/h (0 Bft)
26.04.2017 21:47 0,2 °C 0,2 °C 96 % 1011,4 hPa 0,0 mm 0,0 km/h (0 Bft) N-NW 337 ° 0 min 0,000 mm 0,0 UV-I 0 W/m² -0,4 °C 0,2 °C 0,0 km/h (0 Bft)
26.04.2017 21:48 0,2 °C 0,2 °C 96 % 1011,5 hPa 0,0 mm 0,0 km/h (0 Bft) N-NW 337 ° 0 min 0,000 mm 0,0 UV-I 0 W/m² -0,4 °C 0,2 °C 0,0 km/h (0 Bft)
26.04.2017 21:49 0,2 °C 0,2 °C 96 % 1011,5 hPa 0,0 mm 0,0 km/h (0 Bft) N-NW 337 ° 0 min 0,000 mm 0,0 UV-I 0 W/m² -0,4 °C 0,2 °C 0,0 km/h (0 Bft)
26.04.2017 21:50 0,2 °C 0,2 °C 96 % 1011,5 hPa 0,0 mm 0,0 km/h (0 Bft) N-NW 337 ° 0 min 0,000 mm 0,0 UV-I 0 W/m² -0,4 °C 0,2 °C 0,0 km/h (0 Bft)
26.04.2017 21:51 0,2 °C 0,2 °C 96 % 1011,4 hPa 0,0 mm 0,0 km/h (0 Bft) N-NW 337 ° 0 min 0,000 mm 0,0 UV-I 0 W/m² -0,4 °C 0,2 °C 0,0 km/h (0 Bft)
26.04.2017 21:52 0,2 °C 0,2 °C 96 % 1011,4 hPa 0,0 mm 0,0 km/h (0 Bft) N-NW 337 ° 0 min 0,000 mm 0,0 UV-I 0 W/m² -0,4 °C 0,2 °C 0,0 km/h (0 Bft)
26.04.2017 21:53 0,2 °C 0,2 °C 96 % 1011,4 hPa 0,0 mm 0,0 km/h (0 Bft) N-NW 337 ° 0 min 0,000 mm 0,0 UV-I 0 W/m² -0,4 °C 0,2 °C 0,0 km/h (0 Bft)
26.04.2017 21:54 0,2 °C 0,2 °C 96 % 1011,4 hPa 0,0 mm 0,0 km/h (0 Bft) N-NW 337 ° 0 min 0,000 mm 0,0 UV-I 0 W/m² -0,4 °C 0,2 °C 0,0 km/h (0 Bft)
26.04.2017 21:55 0,2 °C 0,2 °C 96 % 1011,4 hPa 0,0 mm 0,0 km/h (0 Bft) N-NW 337 ° 0 min 0,000 mm 0,0 UV-I 0 W/m² -0,4 °C 0,2 °C 0,0 km/h (0 Bft)
26.04.2017 21:56 0,2 °C 0,2 °C 96 % 1011,4 hPa 0,0 mm 0,0 km/h (0 Bft) N-NW 337 ° 0 min 0,000 mm 0,0 UV-I 0 W/m² -0,4 °C 0,2 °C 0,0 km/h (0 Bft)
26.04.2017 21:57 0,2 °C 0,2 °C 96 % 1011,4 hPa 0,0 mm 0,0 km/h (0 Bft) N-NW 337 ° 0 min 0,000 mm 0,0 UV-I 0 W/m² -0,4 °C 0,2 °C 0,0 km/h (0 Bft)
26.04.2017 21:58 0,2 °C 0,2 °C 96 % 1011,4 hPa 0,0 mm 0,0 km/h (0 Bft) N-NW 337 ° 0 min 0,000 mm 0,0 UV-I 0 W/m² -0,4 °C 0,2 °C 0,0 km/h (0 Bft)
26.04.2017 21:59 0,2 °C 0,2 °C 96 % 1011,4 hPa 0,0 mm 0,0 km/h (0 Bft) N-NW 337 ° 0 min 0,000 mm 0,0 UV-I 0 W/m² -0,4 °C 0,2 °C 0,0 km/h (0 Bft)
26.04.2017 22:00 0,2 °C 0,2 °C 96 % 1011,3 hPa 0,0 mm 0,0 km/h (0 Bft) N-NW 337 ° 0 min 0,000 mm 0,0 UV-I 0 W/m² -0,4 °C 0,2 °C 0,0 km/h (0 Bft)
26.04.2017 22:01 0,2 °C 0,2 °C 96 % 1011,3 hPa 0,0 mm 0,0 km/h (0 Bft) N-NW 337 ° 0 min 0,000 mm 0,0 UV-I 0 W/m² -0,4 °C 0,2 °C 0,0 km/h (0 Bft)
26.04.2017 22:02 0,2 °C 0,2 °C 96 % 1011,3 hPa 0,0 mm 0,0 km/h (0 Bft) N-NW 337 ° 0 min 0,000 mm 0,0 UV-I 0 W/m² -0,4 °C 0,2 °C 0,0 km/h (0 Bft)
26.04.2017 22:03 0,2 °C 0,2 °C 96 % 1011,3 hPa 0,0 mm 0,0 km/h (0 Bft) N-NW 337 ° 0 min 0,000 mm 0,0 UV-I 0 W/m² -0,4 °C 0,2 °C 0,0 km/h (0 Bft)
26.04.2017 22:04 0,2 °C 0,2 °C 96 % 1011,3 hPa 0,0 mm 0,0 km/h (0 Bft) N-NW 337 ° 0 min 0,000 mm 0,0 UV-I 0 W/m² -0,4 °C 0,2 °C 0,0 km/h (0 Bft)
26.04.2017 22:05 0,2 °C 0,2 °C 96 % 1011,3 hPa 0,0 mm 0,0 km/h (0 Bft) N-NW 337 ° 0 min 0,000 mm 0,0 UV-I 0 W/m² -0,4 °C 0,2 °C 0,0 km/h (0 Bft)
26.04.2017 22:06 0,2 °C 0,2 °C 96 % 1011,4 hPa 0,0 mm 0,0 km/h (0 Bft) N-NW 337 ° 0 min 0,000 mm 0,0 UV-I 0 W/m² -0,4 °C 0,2 °C 0,0 km/h (0 Bft)
26.04.2017 22:07 0,2 °C 0,2 °C 96 % 1011,4 hPa 0,0 mm 0,0 km/h (0 Bft) N-NW 337 ° 0 min 0,000 mm 0,0 UV-I 0 W/m² -0,4 °C 0,2 °C 0,0 km/h (0 Bft)
26.04.2017 22:08 0,2 °C 0,2 °C 96 % 1011,4 hPa 0,0 mm 0,0 km/h (0 Bft) N-NW 337 ° 0 min 0,000 mm 0,0 UV-I 0 W/m² -0,4 °C 0,2 °C 0,0 km/h (0 Bft)
26.04.2017 22:09 0,2 °C 0,2 °C 96 % 1011,4 hPa 0,0 mm 0,0 km/h (0 Bft) N-NW 337 ° 0 min 0,000 mm 0,0 UV-I 0 W/m² -0,4 °C 0,2 °C 0,0 km/h (0 Bft)
26.04.2017 22:10 0,2 °C 0,2 °C 96 % 1011,5 hPa 0,0 mm 0,0 km/h (0 Bft) N-NW 337 ° 0 min 0,000 mm 0,0 UV-I 0 W/m² -0,4 °C 0,2 °C 0,0 km/h (0 Bft)
26.04.2017 22:11 0,2 °C 0,2 °C 96 % 1011,6 hPa 0,0 mm 0,0 km/h (0 Bft) N-NW 337 ° 0 min 0,000 mm 0,0 UV-I 0 W/m² -0,4 °C 0,2 °C 0,0 km/h (0 Bft)
26.04.2017 22:12 0,2 °C 0,3 °C 96 % 1011,6 hPa 0,0 mm 0,0 km/h (0 Bft) N-NW 337 ° 0 min 0,000 mm 0,0 UV-I 0 W/m² -0,4 °C 0,2 °C 0,0 km/h (0 Bft)
26.04.2017 22:13 0,2 °C 0,2 °C 96 % 1011,6 hPa 0,0 mm 0,0 km/h (0 Bft) N-NW 337 ° 0 min 0,000 mm 0,0 UV-I 0 W/m² -0,4 °C 0,2 °C 0,0 km/h (0 Bft)
26.04.2017 22:14 0,2 °C 0,2 °C 96 % 1011,6 hPa 0,0 mm 0,0 km/h (0 Bft) N-NW 337 ° 0 min 0,000 mm 0,0 UV-I 0 W/m² -0,4 °C 0,2 °C 0,0 km/h (0 Bft)
26.04.2017 22:15 0,2 °C 0,3 °C 96 % 1011,6 hPa 0,0 mm 0,0 km/h (0 Bft) N-NW 337 ° 0 min 0,000 mm 0,0 UV-I 0 W/m² -0,4 °C 0,2 °C 0,0 km/h (0 Bft)
26.04.2017 22:16 0,2 °C 0,2 °C 96 % 1011,7 hPa 0,0 mm 0,0 km/h (0 Bft) N-NW 337 ° 0 min 0,000 mm 0,0 UV-I 0 W/m² -0,4 °C 0,2 °C 0,0 km/h (0 Bft)
26.04.2017 22:17 0,2 °C 0,2 °C 96 % 1011,8 hPa 0,0 mm 0,0 km/h (0 Bft) N-NW 337 ° 0 min 0,000 mm 0,0 UV-I 0 W/m² -0,4 °C 0,2 °C 0,0 km/h (0 Bft)
26.04.2017 22:18 0,2 °C 0,2 °C 96 % 1011,8 hPa 0,0 mm 0,0 km/h (0 Bft) N-NW 337 ° 0 min 0,000 mm 0,0 UV-I 0 W/m² -0,4 °C 0,2 °C 0,0 km/h (0 Bft)
26.04.2017 22:19 0,2 °C 0,2 °C 96 % 1011,8 hPa 0,0 mm 0,0 km/h (0 Bft) N-NW 337 ° 0 min 0,000 mm 0,0 UV-I 0 W/m² -0,4 °C 0,2 °C 0,0 km/h (0 Bft)
26.04.2017 22:20 0,2 °C 0,2 °C 96 % 1011,8 hPa 0,0 mm 0,0 km/h (0 Bft) N-NW 337 ° 0 min 0,000 mm 0,0 UV-I 0 W/m² -0,4 °C 0,2 °C 0,0 km/h (0 Bft)
26.04.2017 22:21 0,2 °C 0,2 °C 96 % 1011,7 hPa 0,0 mm 0,0 km/h (0 Bft) N-NW 337 ° 0 min 0,000 mm 0,0 UV-I 0 W/m² -0,4 °C 0,2 °C 0,0 km/h (0 Bft)
26.04.2017 22:22 0,2 °C 0,2 °C 96 % 1011,7 hPa 0,0 mm 0,0 km/h (0 Bft) N-NW 337 ° 0 min 0,000 mm 0,0 UV-I 0 W/m² -0,4 °C 0,2 °C 0,0 km/h (0 Bft)
26.04.2017 22:23 0,2 °C 0,2 °C 96 % 1011,7 hPa 0,0 mm 0,0 km/h (0 Bft) N-NW 337 ° 0 min 0,000 mm 0,0 UV-I 0 W/m² -0,4 °C 0,2 °C 0,0 km/h (0 Bft)
26.04.2017 22:24 0,2 °C 0,2 °C 96 % 1011,7 hPa 0,0 mm 0,0 km/h (0 Bft) N-NW 337 ° 0 min 0,000 mm 0,0 UV-I 0 W/m² -0,4 °C 0,2 °C 0,0 km/h (0 Bft)
26.04.2017 22:25 0,2 °C 0,2 °C 96 % 1011,7 hPa 0,0 mm 0,0 km/h (0 Bft) N-NW 337 ° 0 min 0,000 mm 0,0 UV-I 0 W/m² -0,4 °C 0,2 °C 0,0 km/h (0 Bft)
26.04.2017 22:26 0,2 °C 0,2 °C 96 % 1011,8 hPa 0,0 mm 0,0 km/h (0 Bft) N-NW 337 ° 0 min 0,000 mm 0,0 UV-I 0 W/m² -0,4 °C 0,2 °C 0,0 km/h (0 Bft)
26.04.2017 22:27 0,2 °C 0,2 °C 96 % 1011,8 hPa 0,0 mm 0,0 km/h (0 Bft) N-NW 337 ° 0 min 0,000 mm 0,0 UV-I 0 W/m² -0,4 °C 0,2 °C 0,0 km/h (0 Bft)
26.04.2017 22:28 0,2 °C 0,2 °C 96 % 1011,9 hPa 0,0 mm 0,0 km/h (0 Bft) N-NW 337 ° 0 min 0,000 mm 0,0 UV-I 0 W/m² -0,4 °C 0,2 °C 0,0 km/h (0 Bft)
26.04.2017 22:29 0,2 °C 0,2 °C 96 % 1011,9 hPa 0,0 mm 0,0 km/h (0 Bft) N-NW 337 ° 0 min 0,000 mm 0,0 UV-I 0 W/m² -0,4 °C 0,2 °C 0,0 km/h (0 Bft)
26.04.2017 22:30 0,2 °C 0,2 °C 96 % 1011,9 hPa 0,0 mm 0,0 km/h (0 Bft) N-NW 337 ° 0 min 0,000 mm 0,0 UV-I 0 W/m² -0,4 °C 0,2 °C 0,0 km/h (0 Bft)
26.04.2017 22:31 0,2 °C 0,2 °C 96 % 1011,9 hPa 0,0 mm 0,0 km/h (0 Bft) N-NW 337 ° 0 min 0,000 mm 0,0 UV-I 0 W/m² -0,4 °C 0,2 °C 0,0 km/h (0 Bft)
26.04.2017 22:32 0,2 °C 0,2 °C 96 % 1011,9 hPa 0,0 mm 0,0 km/h (0 Bft) N-NW 337 ° 0 min 0,000 mm 0,0 UV-I 0 W/m² -0,4 °C 0,2 °C 0,0 km/h (0 Bft)
26.04.2017 22:33 0,2 °C 0,2 °C 96 % 1011,9 hPa 0,0 mm 0,0 km/h (0 Bft) N-NW 337 ° 0 min 0,000 mm 0,0 UV-I 0 W/m² -0,4 °C 0,2 °C 0,0 km/h (0 Bft)
26.04.2017 22:34 0,2 °C 0,2 °C 96 % 1011,9 hPa 0,0 mm 0,0 km/h (0 Bft) N-NW 337 ° 0 min 0,000 mm 0,0 UV-I 0 W/m² -0,4 °C 0,2 °C 0,0 km/h (0 Bft)
26.04.2017 22:35 0,2 °C 0,2 °C 96 % 1011,9 hPa 0,0 mm 0,0 km/h (0 Bft) N-NW 337 ° 0 min 0,000 mm 0,0 UV-I 0 W/m² -0,4 °C 0,2 °C 0,0 km/h (0 Bft)
26.04.2017 22:36 0,2 °C 0,2 °C 96 % 1011,8 hPa 0,0 mm 0,0 km/h (0 Bft) N-NW 337 ° 0 min 0,000 mm 0,0 UV-I 0 W/m² -0,4 °C 0,2 °C 0,0 km/h (0 Bft)
26.04.2017 22:37 0,2 °C 0,2 °C 96 % 1011,9 hPa 0,0 mm 0,0 km/h (0 Bft) N-NW 337 ° 0 min 0,000 mm 0,0 UV-I 0 W/m² -0,4 °C 0,2 °C 0,0 km/h (0 Bft)
26.04.2017 22:38 0,2 °C 0,2 °C 96 % 1011,9 hPa 0,0 mm 0,0 km/h (0 Bft) N-NW 337 ° 0 min 0,000 mm 0,0 UV-I 0 W/m² -0,4 °C 0,2 °C 0,0 km/h (0 Bft)
26.04.2017 22:39 0,2 °C 0,2 °C 96 % 1011,9 hPa 0,0 mm 0,0 km/h (0 Bft) N-NW 337 ° 0 min 0,000 mm 0,0 UV-I 0 W/m² -0,4 °C 0,2 °C 0,0 km/h (0 Bft)
26.04.2017 22:40 0,2 °C 0,2 °C 96 % 1012,0 hPa 0,0 mm 0,3 km/h (0 Bft) N-NW 337 ° 0 min 0,000 mm 0,0 UV-I 0 W/m² -0,4 °C 0,2 °C 1,6 km/h (1 Bft)
26.04.2017 22:41 0,2 °C 0,2 °C 96 % 1012,0 hPa 0,0 mm 0,0 km/h (0 Bft) N-NW 337 ° 0 min 0,000 mm 0,0 UV-I 0 W/m² -0,4 °C 0,2 °C 0,0 km/h (0 Bft)
26.04.2017 22:42 0,2 °C 0,2 °C 96 % 1012,0 hPa 0,0 mm 0,1 km/h (0 Bft) N-NW 337 ° 0 min 0,000 mm 0,0 UV-I 0 W/m² -0,4 °C 0,2 °C 1,6 km/h (1 Bft)
26.04.2017 22:43 0,2 °C 0,2 °C 96 % 1012,0 hPa 0,0 mm 0,0 km/h (0 Bft) N-NW 337 ° 0 min 0,000 mm 0,0 UV-I 0 W/m² -0,4 °C 0,2 °C 0,0 km/h (0 Bft)
26.04.2017 22:44 0,2 °C 0,2 °C 96 % 1012,0 hPa 0,0 mm 0,0 km/h (0 Bft) N-NW 337 ° 0 min 0,000 mm 0,0 UV-I 0 W/m² -0,4 °C 0,2 °C 0,0 km/h (0 Bft)
26.04.2017 22:45 0,2 °C 0,2 °C 96 % 1012,0 hPa 0,0 mm 0,0 km/h (0 Bft) N-NW 337 ° 0 min 0,000 mm 0,0 UV-I 0 W/m² -0,4 °C 0,2 °C 0,0 km/h (0 Bft)
26.04.2017 22:46 0,2 °C 0,2 °C 96 % 1012,0 hPa 0,0 mm 0,0 km/h (0 Bft) N-NW 337 ° 0 min 0,000 mm 0,0 UV-I 0 W/m² -0,4 °C 0,2 °C 0,0 km/h (0 Bft)
26.04.2017 22:47 0,2 °C 0,2 °C 96 % 1012,0 hPa 0,0 mm 0,0 km/h (0 Bft) N-NW 337 ° 0 min 0,000 mm 0,0 UV-I 0 W/m² -0,4 °C 0,2 °C 0,0 km/h (0 Bft)
26.04.2017 22:48 0,2 °C 0,2 °C 96 % 1012,0 hPa 0,0 mm 0,0 km/h (0 Bft) N-NW 337 ° 0 min 0,000 mm 0,0 UV-I 0 W/m² -0,4 °C 0,2 °C 0,0 km/h (0 Bft)
26.04.2017 22:49 0,2 °C 0,2 °C 96 % 1012,1 hPa 0,0 mm 0,0 km/h (0 Bft) N-NW 337 ° 0 min 0,000 mm 0,0 UV-I 0 W/m² -0,4 °C 0,2 °C 0,0 km/h (0 Bft)
26.04.2017 22:50 0,2 °C 0,2 °C 96 % 1012,1 hPa 0,0 mm 0,0 km/h (0 Bft) N-NW 337 ° 0 min 0,000 mm 0,0 UV-I 0 W/m² -0,4 °C 0,2 °C 0,0 km/h (0 Bft)
26.04.2017 22:51 0,2 °C 0,2 °C 96 % 1012,0 hPa 0,0 mm 0,0 km/h (0 Bft) N-NW 337 ° 0 min 0,000 mm 0,0 UV-I 0 W/m² -0,4 °C 0,2 °C 0,0 km/h (0 Bft)
26.04.2017 22:52 0,2 °C 0,2 °C 96 % 1012,1 hPa 0,0 mm 0,0 km/h (0 Bft) N-NW 337 ° 0 min 0,000 mm 0,0 UV-I 0 W/m² -0,4 °C 0,2 °C 0,0 km/h (0 Bft)
26.04.2017 22:53 0,2 °C 0,2 °C 96 % 1012,1 hPa 0,0 mm 0,0 km/h (0 Bft) N-NW 337 ° 0 min 0,000 mm 0,0 UV-I 0 W/m² -0,4 °C 0,2 °C 0,0 km/h (0 Bft)
26.04.2017 22:54 0,2 °C 0,2 °C 96 % 1012,1 hPa 0,0 mm 0,0 km/h (0 Bft) N-NW 337 ° 0 min 0,000 mm 0,0 UV-I 0 W/m² -0,4 °C 0,2 °C 0,0 km/h (0 Bft)
26.04.2017 22:55 0,2 °C 0,2 °C 96 % 1012,2 hPa 0,0 mm 0,0 km/h (0 Bft) N-NW 337 ° 0 min 0,000 mm 0,0 UV-I 0 W/m² -0,4 °C 0,2 °C 0,0 km/h (0 Bft)
26.04.2017 22:56 0,2 °C 0,2 °C 96 % 1012,2 hPa 0,0 mm 0,0 km/h (0 Bft) N-NW 337 ° 0 min 0,000 mm 0,0 UV-I 0 W/m² -0,4 °C 0,2 °C 0,0 km/h (0 Bft)
26.04.2017 22:57 0,2 °C 0,2 °C 96 % 1012,2 hPa 0,0 mm 0,0 km/h (0 Bft) N-NW 337 ° 0 min 0,000 mm 0,0 UV-I 0 W/m² -0,4 °C 0,2 °C 0,0 km/h (0 Bft)
26.04.2017 22:58 0,2 °C 0,2 °C 96 % 1012,2 hPa 0,0 mm 0,0 km/h (0 Bft) N-NW 337 ° 0 min 0,000 mm 0,0 UV-I 0 W/m² -0,4 °C 0,2 °C 0,0 km/h (0 Bft)
26.04.2017 22:59 0,2 °C 0,2 °C 96 % 1012,2 hPa 0,0 mm 0,0 km/h (0 Bft) N-NW 337 ° 0 min 0,000 mm 0,0 UV-I 0 W/m² -0,4 °C 0,2 °C 0,0 km/h (0 Bft)
26.04.2017 23:00 0,2 °C 0,2 °C 96 % 1012,1 hPa 0,0 mm 0,0 km/h (0 Bft) N-NW 337 ° 0 min 0,000 mm 0,0 UV-I 0 W/m² -0,4 °C 0,2 °C 0,0 km/h (0 Bft)
26.04.2017 23:01 0,2 °C 0,2 °C 96 % 1012,1 hPa 0,0 mm 0,0 km/h (0 Bft) N-NW 337 ° 0 min 0,000 mm 0,0 UV-I 0 W/m² -0,4 °C 0,2 °C 0,0 km/h (0 Bft)
26.04.2017 23:02 0,2 °C 0,2 °C 96 % 1012,1 hPa 0,0 mm 0,0 km/h (0 Bft) N-NW 337 ° 0 min 0,000 mm 0,0 UV-I 0 W/m² -0,4 °C 0,2 °C 0,0 km/h (0 Bft)
26.04.2017 23:03 0,2 °C 0,2 °C 96 % 1012,1 hPa 0,0 mm 0,0 km/h (0 Bft) N-NW 337 ° 0 min 0,000 mm 0,0 UV-I 0 W/m² -0,4 °C 0,2 °C 0,0 km/h (0 Bft)
26.04.2017 23:04 0,2 °C 0,2 °C 96 % 1012,1 hPa 0,0 mm 0,0 km/h (0 Bft) N-NW 337 ° 0 min 0,000 mm 0,0 UV-I 0 W/m² -0,4 °C 0,2 °C 0,0 km/h (0 Bft)
26.04.2017 23:05 0,2 °C 0,2 °C 96 % 1012,1 hPa 0,0 mm 0,0 km/h (0 Bft) N-NW 337 ° 0 min 0,000 mm 0,0 UV-I 0 W/m² -0,4 °C 0,2 °C 0,0 km/h (0 Bft)
26.04.2017 23:06 0,2 °C 0,2 °C 96 % 1012,1 hPa 0,0 mm 0,0 km/h (0 Bft) N-NW 337 ° 0 min 0,000 mm 0,0 UV-I 0 W/m² -0,4 °C 0,2 °C 0,0 km/h (0 Bft)
26.04.2017 23:07 0,2 °C 0,2 °C 96 % 1012,1 hPa 0,0 mm 0,0 km/h (0 Bft) N-NW 337 ° 0 min 0,000 mm 0,0 UV-I 0 W/m² -0,4 °C 0,2 °C 0,0 km/h (0 Bft)
26.04.2017 23:09 0,2 °C 0,2 °C 96 % 1012,0 hPa 0,0 mm 0,0 km/h (0 Bft) N-NW 337 ° 0 min 0,000 mm 0,0 UV-I 0 W/m² -0,4 °C 0,2 °C 0,0 km/h (0 Bft)
26.04.2017 23:10 0,2 °C 0,2 °C 96 % 1012,0 hPa 0,0 mm 0,0 km/h (0 Bft) N-NW 337 ° 0 min 0,000 mm 0,0 UV-I 0 W/m² -0,4 °C 0,2 °C 0,0 km/h (0 Bft)
26.04.2017 23:11 0,2 °C 0,2 °C 96 % 1012,0 hPa 0,0 mm 0,0 km/h (0 Bft) N-NW 337 ° 0 min 0,000 mm 0,0 UV-I 0 W/m² -0,4 °C 0,2 °C 0,0 km/h (0 Bft)
26.04.2017 23:12 0,2 °C 0,2 °C 96 % 1012,0 hPa 0,0 mm 0,0 km/h (0 Bft) N-NW 337 ° 0 min 0,000 mm 0,0 UV-I 0 W/m² -0,4 °C 0,2 °C 0,0 km/h (0 Bft)
26.04.2017 23:13 0,2 °C 0,2 °C 96 % 1012,0 hPa 0,0 mm 0,0 km/h (0 Bft) N-NW 337 ° 0 min 0,000 mm 0,0 UV-I 0 W/m² -0,4 °C 0,2 °C 0,0 km/h (0 Bft)
26.04.2017 23:14 0,2 °C 0,2 °C 96 % 1012,0 hPa 0,0 mm 0,0 km/h (0 Bft) N-NW 337 ° 0 min 0,000 mm 0,0 UV-I 0 W/m² -0,4 °C 0,2 °C 0,0 km/h (0 Bft)
26.04.2017 23:15 0,1 °C 0,2 °C 96 % 1012,0 hPa 0,0 mm 0,0 km/h (0 Bft) N-NW 337 ° 0 min 0,000 mm 0,0 UV-I 0 W/m² -0,5 °C 0,1 °C 0,0 km/h (0 Bft)
26.04.2017 23:16 0,1 °C 0,2 °C 96 % 1012,0 hPa 0,0 mm 0,0 km/h (0 Bft) N-NW 337 ° 0 min 0,000 mm 0,0 UV-I 0 W/m² -0,5 °C 0,1 °C 0,0 km/h (0 Bft)
26.04.2017 23:17 0,1 °C 0,2 °C 96 % 1012,0 hPa 0,0 mm 0,0 km/h (0 Bft) N-NW 337 ° 0 min 0,000 mm 0,0 UV-I 0 W/m² -0,5 °C 0,1 °C 0,0 km/h (0 Bft)
26.04.2017 23:18 0,1 °C 0,2 °C 96 % 1012,0 hPa 0,0 mm 0,0 km/h (0 Bft) N-NW 337 ° 0 min 0,000 mm 0,0 UV-I 0 W/m² -0,5 °C 0,1 °C 0,0 km/h (0 Bft)
26.04.2017 23:19 0,1 °C 0,2 °C 96 % 1012,0 hPa 0,0 mm 0,0 km/h (0 Bft) N-NW 337 ° 0 min 0,000 mm 0,0 UV-I 0 W/m² -0,5 °C 0,1 °C 0,0 km/h (0 Bft)
26.04.2017 23:20 0,1 °C 0,1 °C 96 % 1012,0 hPa 0,0 mm 0,0 km/h (0 Bft) N-NW 337 ° 0 min 0,000 mm 0,0 UV-I 0 W/m² -0,5 °C 0,1 °C 0,0 km/h (0 Bft)
26.04.2017 23:21 0,1 °C 0,1 °C 96 % 1012,0 hPa 0,0 mm 0,0 km/h (0 Bft) N-NW 337 ° 0 min 0,000 mm 0,0 UV-I 0 W/m² -0,5 °C 0,1 °C 0,0 km/h (0 Bft)
26.04.2017 23:22 0,1 °C 0,1 °C 96 % 1011,9 hPa 0,0 mm 0,0 km/h (0 Bft) N-NW 337 ° 0 min 0,000 mm 0,0 UV-I 0 W/m² -0,5 °C 0,1 °C 0,0 km/h (0 Bft)
26.04.2017 23:23 0,1 °C 0,1 °C 96 % 1011,9 hPa 0,0 mm 0,0 km/h (0 Bft) N-NW 337 ° 0 min 0,000 mm 0,0 UV-I 0 W/m² -0,5 °C 0,1 °C 0,0 km/h (0 Bft)
26.04.2017 23:24 0,1 °C 0,1 °C 96 % 1011,9 hPa 0,0 mm 0,0 km/h (0 Bft) N-NW 337 ° 0 min 0,000 mm 0,0 UV-I 0 W/m² -0,5 °C 0,1 °C 0,0 km/h (0 Bft)
26.04.2017 23:25 0,1 °C 0,1 °C 96 % 1011,9 hPa 0,0 mm 0,0 km/h (0 Bft) N-NW 337 ° 0 min 0,000 mm 0,0 UV-I 0 W/m² -0,5 °C 0,1 °C 0,0 km/h (0 Bft)
26.04.2017 23:26 0,1 °C 0,1 °C 96 % 1011,9 hPa 0,0 mm 0,0 km/h (0 Bft) N-NW 337 ° 0 min 0,000 mm 0,0 UV-I 0 W/m² -0,5 °C 0,1 °C 0,0 km/h (0 Bft)
26.04.2017 23:27 0,1 °C 0,1 °C 96 % 1011,8 hPa 0,0 mm 0,0 km/h (0 Bft) N-NW 337 ° 0 min 0,000 mm 0,0 UV-I 0 W/m² -0,5 °C 0,1 °C 0,0 km/h (0 Bft)
26.04.2017 23:28 0,1 °C 0,1 °C 96 % 1011,8 hPa 0,0 mm 0,0 km/h (0 Bft) N-NW 337 ° 0 min 0,000 mm 0,0 UV-I 0 W/m² -0,5 °C 0,1 °C 0,0 km/h (0 Bft)
26.04.2017 23:29 0,1 °C 0,1 °C 96 % 1011,8 hPa 0,0 mm 0,0 km/h (0 Bft) N-NW 337 ° 0 min 0,000 mm 0,0 UV-I 0 W/m² -0,5 °C 0,1 °C 0,0 km/h (0 Bft)
26.04.2017 23:30 0,1 °C 0,1 °C 96 % 1011,8 hPa 0,0 mm 0,0 km/h (0 Bft) N-NW 337 ° 0 min 0,000 mm 0,0 UV-I 0 W/m² -0,5 °C 0,1 °C 0,0 km/h (0 Bft)
26.04.2017 23:31 0,1 °C 0,1 °C 96 % 1011,8 hPa 0,0 mm 0,0 km/h (0 Bft) N-NW 337 ° 0 min 0,000 mm 0,0 UV-I 0 W/m² -0,5 °C 0,1 °C 0,0 km/h (0 Bft)
26.04.2017 23:32 0,1 °C 0,1 °C 96 % 1011,9 hPa 0,0 mm 0,0 km/h (0 Bft) N-NW 337 ° 0 min 0,000 mm 0,0 UV-I 0 W/m² -0,5 °C 0,1 °C 0,0 km/h (0 Bft)
26.04.2017 23:33 0,1 °C 0,2 °C 96 % 1012,0 hPa 0,0 mm 0,0 km/h (0 Bft) N-NW 337 ° 0 min 0,000 mm 0,0 UV-I 0 W/m² -0,5 °C 0,1 °C 0,0 km/h (0 Bft)
26.04.2017 23:34 0,1 °C 0,1 °C 96 % 1012,0 hPa 0,0 mm 0,0 km/h (0 Bft) N-NW 337 ° 0 min 0,000 mm 0,0 UV-I 0 W/m² -0,5 °C 0,1 °C 0,0 km/h (0 Bft)
26.04.2017 23:35 0,1 °C 0,2 °C 96 % 1012,0 hPa 0,0 mm 0,0 km/h (0 Bft) N-NW 337 ° 0 min 0,000 mm 0,0 UV-I 0 W/m² -0,5 °C 0,1 °C 0,0 km/h (0 Bft)
26.04.2017 23:36 0,1 °C 0,1 °C 96 % 1012,0 hPa 0,0 mm 0,0 km/h (0 Bft) N-NW 337 ° 0 min 0,000 mm 0,0 UV-I 0 W/m² -0,5 °C 0,1 °C 0,0 km/h (0 Bft)
26.04.2017 23:37 0,1 °C 0,2 °C 96 % 1011,9 hPa 0,0 mm 0,0 km/h (0 Bft) N-NW 337 ° 0 min 0,000 mm 0,0 UV-I 0 W/m² -0,5 °C 0,1 °C 0,0 km/h (0 Bft)
26.04.2017 23:38 0,1 °C 0,2 °C 96 % 1011,8 hPa 0,0 mm 0,0 km/h (0 Bft) N-NW 337 ° 0 min 0,000 mm 0,0 UV-I 0 W/m² -0,5 °C 0,1 °C 0,0 km/h (0 Bft)
26.04.2017 23:39 0,2 °C 0,2 °C 96 % 1011,8 hPa 0,0 mm 0,0 km/h (0 Bft) N-NW 337 ° 0 min 0,000 mm 0,0 UV-I 0 W/m² -0,4 °C 0,2 °C 0,0 km/h (0 Bft)
26.04.2017 23:40 0,2 °C 0,2 °C 96 % 1011,8 hPa 0,0 mm 0,0 km/h (0 Bft) N-NW 337 ° 0 min 0,000 mm 0,0 UV-I 0 W/m² -0,4 °C 0,2 °C 0,0 km/h (0 Bft)
26.04.2017 23:41 0,1 °C 0,2 °C 96 % 1011,8 hPa 0,0 mm 0,0 km/h (0 Bft) N-NW 337 ° 0 min 0,000 mm 0,0 UV-I 0 W/m² -0,5 °C 0,1 °C 0,0 km/h (0 Bft)
26.04.2017 23:42 0,1 °C 0,2 °C 96 % 1011,8 hPa 0,0 mm 0,0 km/h (0 Bft) N-NW 337 ° 0 min 0,000 mm 0,0 UV-I 0 W/m² -0,5 °C 0,1 °C 0,0 km/h (0 Bft)
26.04.2017 23:43 0,1 °C 0,1 °C 96 % 1011,8 hPa 0,0 mm 0,0 km/h (0 Bft) N-NW 337 ° 0 min 0,000 mm 0,0 UV-I 0 W/m² -0,5 °C 0,1 °C 0,0 km/h (0 Bft)
26.04.2017 23:44 0,1 °C 0,2 °C 96 % 1011,8 hPa 0,0 mm 0,0 km/h (0 Bft) N-NW 337 ° 0 min 0,000 mm 0,0 UV-I 0 W/m² -0,5 °C 0,1 °C 0,0 km/h (0 Bft)
26.04.2017 23:45 0,1 °C 0,1 °C 96 % 1011,8 hPa 0,0 mm 0,0 km/h (0 Bft) N-NW 337 ° 0 min 0,000 mm 0,0 UV-I 0 W/m² -0,5 °C 0,1 °C 0,0 km/h (0 Bft)
26.04.2017 23:46 0,1 °C 0,2 °C 96 % 1011,8 hPa 0,0 mm 0,0 km/h (0 Bft) N-NW 337 ° 0 min 0,000 mm 0,0 UV-I 0 W/m² -0,5 °C 0,1 °C 0,0 km/h (0 Bft)
26.04.2017 23:47 0,1 °C 0,2 °C 96 % 1011,8 hPa 0,0 mm 0,0 km/h (0 Bft) N-NW 337 ° 0 min 0,000 mm 0,0 UV-I 0 W/m² -0,5 °C 0,1 °C 0,0 km/h (0 Bft)
26.04.2017 23:48 0,1 °C 0,1 °C 96 % 1011,8 hPa 0,0 mm 0,0 km/h (0 Bft) N-NW 337 ° 0 min 0,000 mm 0,0 UV-I 0 W/m² -0,5 °C 0,1 °C 0,0 km/h (0 Bft)
26.04.2017 23:49 0,2 °C 0,2 °C 96 % 1011,9 hPa 0,0 mm 0,0 km/h (0 Bft) N-NW 337 ° 0 min 0,000 mm 0,0 UV-I 0 W/m² -0,4 °C 0,2 °C 0,0 km/h (0 Bft)
26.04.2017 23:50 0,1 °C 0,2 °C 96 % 1011,8 hPa 0,0 mm 0,0 km/h (0 Bft) N-NW 337 ° 0 min 0,000 mm 0,0 UV-I 0 W/m² -0,5 °C 0,1 °C 0,0 km/h (0 Bft)
26.04.2017 23:51 0,1 °C 0,2 °C 96 % 1011,9 hPa 0,0 mm 0,0 km/h (0 Bft) N-NW 337 ° 0 min 0,000 mm 0,0 UV-I 0 W/m² -0,5 °C 0,1 °C 0,0 km/h (0 Bft)
26.04.2017 23:52 0,1 °C 0,2 °C 96 % 1011,9 hPa 0,0 mm 0,0 km/h (0 Bft) N-NW 337 ° 0 min 0,000 mm 0,0 UV-I 0 W/m² -0,5 °C 0,1 °C 0,0 km/h (0 Bft)
26.04.2017 23:54 0,2 °C 0,2 °C 96 % 1011,8 hPa 0,0 mm 0,0 km/h (0 Bft) N-NW 337 ° 0 min 0,000 mm 0,0 UV-I 0 W/m² -0,4 °C 0,2 °C 0,0 km/h (0 Bft)
26.04.2017 23:55 0,2 °C 0,2 °C 96 % 1011,8 hPa 0,0 mm 0,0 km/h (0 Bft) N-NW 337 ° 0 min 0,000 mm 0,0 UV-I 0 W/m² -0,4 °C 0,2 °C 0,0 km/h (0 Bft)
26.04.2017 23:56 0,1 °C 0,2 °C 96 % 1011,8 hPa 0,0 mm 0,0 km/h (0 Bft) N-NW 337 ° 0 min 0,000 mm 0,0 UV-I 0 W/m² -0,5 °C 0,1 °C 0,0 km/h (0 Bft)
26.04.2017 23:57 0,1 °C 0,2 °C 96 % 1011,8 hPa 0,0 mm 0,0 km/h (0 Bft) N-NW 337 ° 0 min 0,000 mm 0,0 UV-I 0 W/m² -0,5 °C 0,1 °C 0,0 km/h (0 Bft)
26.04.2017 23:59 0,2 °C 0,2 °C 96 % 1011,8 hPa 0,0 mm 0,0 km/h (0 Bft) N-NW 337 ° 0 min 0,000 mm 0,0 UV-I 0 W/m² -0,4 °C 0,2 °C 0,0 km/h (0 Bft)
_ Min-Zeit 23:57 23:48 14:16 06:39 - 23:59 - - - - - - 21:20 17:02 23:59
Minimum _ 0,1 °C 0,1 °C 92 % 1004,7 hPa - 0,0 km/h (0 Bft) - - - - - - -0,5 °C 0,0 °C 0,0 km/h (0 Bft)
_ Max-Zeit 00:09 00:09 23:59 22:59 19:15 14:55 - - 23:59 14:00 13:23 13:23 00:16 00:17 14:55
Maximum _ 5,0 °C 5,0 °C 96 % 1012,2 hPa 0,2 mm 7,5 km/h
NW (2 Bft)
- - 0 min 0,076 mm 1,7 UV-I 211 W/m² 4,0 °C 4,9 °C 11,3 km/h
NW (2 Bft)
Durchschnitt _ 2,2 °C 2,3 °C 95 % 1007,7 hPa #4,8 mm 1,9 km/h (1 Bft) O-NO - #0 min. #0,432 mm 0,9 UV-I 43 W/m² 1,5 °C 2,1 °C 3,1 km/h (1 Bft)